<?xml version="1.0" encoding="UTF-8" standalone="no" ?>
<gpx xmlns="http://www.topografix.com/GPX/1/1" xmlns:xsi="http://www.w3.org/2001/XMLSchema-instance" xsi:schemaLocation="http://www.topografix.com/GPX/1/1 http://www.topografix.com/GPX/1/1/gpx.xsd" version="1.1" creator="VisuGPX - https://www.visugpx.com">
  <metadata>
    <name>le mayet version fifi 34 kms</name>
    <desc><![CDATA[rando au depart du mayet de montagne, belle grimpette pour sortir de st clement]]></desc>
  </metadata>
  <trk>
    <name><![CDATA[track]]></name>
    <trkseg>
      <trkpt lat="46.06982" lon="3.66564">
        <ele>532</ele>
        <time>2011-07-09T10:06:46Z</time>
      </trkpt>
      <trkpt lat="46.06982" lon="3.66564">
        <ele>532</ele>
        <time>2011-07-09T10:06:54Z</time>
      </trkpt>
      <trkpt lat="46.06982" lon="3.66564">
        <ele>532</ele>
        <time>2011-07-09T10:07:01Z</time>
      </trkpt>
      <trkpt lat="46.06982" lon="3.66564">
        <ele>532</ele>
        <time>2011-07-09T10:07:12Z</time>
      </trkpt>
      <trkpt lat="46.06982" lon="3.66564">
        <ele>533</ele>
        <time>2011-07-09T10:07:26Z</time>
      </trkpt>
      <trkpt lat="46.06982" lon="3.66564">
        <ele>533</ele>
        <time>2011-07-09T10:07:46Z</time>
      </trkpt>
      <trkpt lat="46.06982" lon="3.66564">
        <ele>533</ele>
        <time>2011-07-09T10:08:06Z</time>
      </trkpt>
      <trkpt lat="46.06982" lon="3.66564">
        <ele>533</ele>
        <time>2011-07-09T10:08:24Z</time>
      </trkpt>
      <trkpt lat="46.06982" lon="3.66564">
        <ele>533</ele>
        <time>2011-07-09T10:08:43Z</time>
      </trkpt>
      <trkpt lat="46.06981" lon="3.66564">
        <ele>533</ele>
        <time>2011-07-09T10:09:00Z</time>
      </trkpt>
      <trkpt lat="46.06981" lon="3.66564">
        <ele>533</ele>
        <time>2011-07-09T10:09:19Z</time>
      </trkpt>
      <trkpt lat="46.06981" lon="3.66566">
        <ele>533</ele>
        <time>2011-07-09T10:09:35Z</time>
      </trkpt>
      <trkpt lat="46.06981" lon="3.66566">
        <ele>533</ele>
        <time>2011-07-09T10:09:56Z</time>
      </trkpt>
      <trkpt lat="46.06981" lon="3.66566">
        <ele>533</ele>
        <time>2011-07-09T10:10:10Z</time>
      </trkpt>
      <trkpt lat="46.06981" lon="3.66566">
        <ele>533</ele>
        <time>2011-07-09T10:10:29Z</time>
      </trkpt>
      <trkpt lat="46.06981" lon="3.66566">
        <ele>533</ele>
        <time>2011-07-09T10:10:47Z</time>
      </trkpt>
      <trkpt lat="46.0698" lon="3.66565">
        <ele>533</ele>
        <time>2011-07-09T10:11:04Z</time>
      </trkpt>
      <trkpt lat="46.0698" lon="3.66565">
        <ele>533</ele>
        <time>2011-07-09T10:11:20Z</time>
      </trkpt>
      <trkpt lat="46.06979" lon="3.66566">
        <ele>533</ele>
        <time>2011-07-09T10:11:38Z</time>
      </trkpt>
      <trkpt lat="46.06979" lon="3.66566">
        <ele>533</ele>
        <time>2011-07-09T10:11:57Z</time>
      </trkpt>
      <trkpt lat="46.06979" lon="3.66566">
        <ele>533</ele>
        <time>2011-07-09T10:12:18Z</time>
      </trkpt>
      <trkpt lat="46.06979" lon="3.66566">
        <ele>533</ele>
        <time>2011-07-09T10:12:40Z</time>
      </trkpt>
      <trkpt lat="46.06979" lon="3.66567">
        <ele>533</ele>
        <time>2011-07-09T10:13:01Z</time>
      </trkpt>
      <trkpt lat="46.06979" lon="3.66567">
        <ele>533</ele>
        <time>2011-07-09T10:13:17Z</time>
      </trkpt>
      <trkpt lat="46.06979" lon="3.66567">
        <ele>533</ele>
        <time>2011-07-09T10:13:34Z</time>
      </trkpt>
      <trkpt lat="46.06979" lon="3.66567">
        <ele>533</ele>
        <time>2011-07-09T10:13:49Z</time>
      </trkpt>
      <trkpt lat="46.06979" lon="3.66567">
        <ele>533</ele>
        <time>2011-07-09T10:14:06Z</time>
      </trkpt>
      <trkpt lat="46.06979" lon="3.66567">
        <ele>533</ele>
        <time>2011-07-09T10:14:10Z</time>
      </trkpt>
      <trkpt lat="46.06984" lon="3.66564">
        <ele>533</ele>
        <time>2011-07-09T10:14:14Z</time>
      </trkpt>
      <trkpt lat="46.06991" lon="3.66573">
        <ele>533</ele>
        <time>2011-07-09T10:14:18Z</time>
      </trkpt>
      <trkpt lat="46.07001" lon="3.66595">
        <ele>533</ele>
        <time>2011-07-09T10:14:23Z</time>
      </trkpt>
      <trkpt lat="46.07003" lon="3.666">
        <ele>533</ele>
        <time>2011-07-09T10:14:24Z</time>
      </trkpt>
      <trkpt lat="46.07003" lon="3.66607">
        <ele>533</ele>
        <time>2011-07-09T10:14:25Z</time>
      </trkpt>
      <trkpt lat="46.07004" lon="3.66613">
        <ele>533</ele>
        <time>2011-07-09T10:14:26Z</time>
      </trkpt>
      <trkpt lat="46.07004" lon="3.66619">
        <ele>533</ele>
        <time>2011-07-09T10:14:27Z</time>
      </trkpt>
      <trkpt lat="46.07003" lon="3.66625">
        <ele>533</ele>
        <time>2011-07-09T10:14:28Z</time>
      </trkpt>
      <trkpt lat="46.07003" lon="3.66631">
        <ele>533</ele>
        <time>2011-07-09T10:14:29Z</time>
      </trkpt>
      <trkpt lat="46.07004" lon="3.66637">
        <ele>533</ele>
        <time>2011-07-09T10:14:30Z</time>
      </trkpt>
      <trkpt lat="46.07006" lon="3.66642">
        <ele>533</ele>
        <time>2011-07-09T10:14:31Z</time>
      </trkpt>
      <trkpt lat="46.07008" lon="3.66647">
        <ele>533</ele>
        <time>2011-07-09T10:14:32Z</time>
      </trkpt>
      <trkpt lat="46.0701" lon="3.66652">
        <ele>533</ele>
        <time>2011-07-09T10:14:33Z</time>
      </trkpt>
      <trkpt lat="46.07019" lon="3.66667">
        <ele>533</ele>
        <time>2011-07-09T10:14:36Z</time>
      </trkpt>
      <trkpt lat="46.07021" lon="3.66672">
        <ele>533</ele>
        <time>2011-07-09T10:14:37Z</time>
      </trkpt>
      <trkpt lat="46.07033" lon="3.6669">
        <ele>533</ele>
        <time>2011-07-09T10:14:42Z</time>
      </trkpt>
      <trkpt lat="46.07051" lon="3.66693">
        <ele>533</ele>
        <time>2011-07-09T10:14:48Z</time>
      </trkpt>
      <trkpt lat="46.07064" lon="3.66701">
        <ele>533</ele>
        <time>2011-07-09T10:14:54Z</time>
      </trkpt>
      <trkpt lat="46.07086" lon="3.66716">
        <ele>533</ele>
        <time>2011-07-09T10:15:02Z</time>
      </trkpt>
      <trkpt lat="46.07103" lon="3.66726">
        <ele>533</ele>
        <time>2011-07-09T10:15:10Z</time>
      </trkpt>
      <trkpt lat="46.07113" lon="3.66739">
        <ele>533</ele>
        <time>2011-07-09T10:15:16Z</time>
      </trkpt>
      <trkpt lat="46.0713" lon="3.6675">
        <ele>533</ele>
        <time>2011-07-09T10:15:23Z</time>
      </trkpt>
      <trkpt lat="46.07142" lon="3.66758">
        <ele>533</ele>
        <time>2011-07-09T10:15:28Z</time>
      </trkpt>
      <trkpt lat="46.0716" lon="3.6677">
        <ele>534</ele>
        <time>2011-07-09T10:15:34Z</time>
      </trkpt>
      <trkpt lat="46.07178" lon="3.66788">
        <ele>534</ele>
        <time>2011-07-09T10:15:40Z</time>
      </trkpt>
      <trkpt lat="46.0719" lon="3.66813">
        <ele>535</ele>
        <time>2011-07-09T10:15:47Z</time>
      </trkpt>
      <trkpt lat="46.07197" lon="3.66838">
        <ele>537</ele>
        <time>2011-07-09T10:15:54Z</time>
      </trkpt>
      <trkpt lat="46.07211" lon="3.66858">
        <ele>538</ele>
        <time>2011-07-09T10:16:02Z</time>
      </trkpt>
      <trkpt lat="46.07232" lon="3.66857">
        <ele>540</ele>
        <time>2011-07-09T10:16:10Z</time>
      </trkpt>
      <trkpt lat="46.07246" lon="3.66848">
        <ele>542</ele>
        <time>2011-07-09T10:16:17Z</time>
      </trkpt>
      <trkpt lat="46.07268" lon="3.66842">
        <ele>543</ele>
        <time>2011-07-09T10:16:26Z</time>
      </trkpt>
      <trkpt lat="46.07287" lon="3.66841">
        <ele>544</ele>
        <time>2011-07-09T10:16:34Z</time>
      </trkpt>
      <trkpt lat="46.07307" lon="3.66839">
        <ele>545</ele>
        <time>2011-07-09T10:16:41Z</time>
      </trkpt>
      <trkpt lat="46.07324" lon="3.66839">
        <ele>546</ele>
        <time>2011-07-09T10:16:48Z</time>
      </trkpt>
      <trkpt lat="46.07331" lon="3.66838">
        <ele>546</ele>
        <time>2011-07-09T10:16:55Z</time>
      </trkpt>
      <trkpt lat="46.07333" lon="3.66838">
        <ele>546</ele>
        <time>2011-07-09T10:16:57Z</time>
      </trkpt>
      <trkpt lat="46.07339" lon="3.66858">
        <ele>545</ele>
        <time>2011-07-09T10:17:04Z</time>
      </trkpt>
      <trkpt lat="46.07344" lon="3.66887">
        <ele>544</ele>
        <time>2011-07-09T10:17:11Z</time>
      </trkpt>
      <trkpt lat="46.0735" lon="3.66924">
        <ele>542</ele>
        <time>2011-07-09T10:17:18Z</time>
      </trkpt>
      <trkpt lat="46.07362" lon="3.66987">
        <ele>539</ele>
        <time>2011-07-09T10:17:27Z</time>
      </trkpt>
      <trkpt lat="46.07387" lon="3.6705">
        <ele>537</ele>
        <time>2011-07-09T10:17:35Z</time>
      </trkpt>
      <trkpt lat="46.0742" lon="3.67109">
        <ele>534</ele>
        <time>2011-07-09T10:17:43Z</time>
      </trkpt>
      <trkpt lat="46.0745" lon="3.67168">
        <ele>532</ele>
        <time>2011-07-09T10:17:50Z</time>
      </trkpt>
      <trkpt lat="46.0747" lon="3.67232">
        <ele>529</ele>
        <time>2011-07-09T10:17:57Z</time>
      </trkpt>
      <trkpt lat="46.07481" lon="3.67273">
        <ele>527</ele>
        <time>2011-07-09T10:18:02Z</time>
      </trkpt>
      <trkpt lat="46.0748" lon="3.67277">
        <ele>526</ele>
        <time>2011-07-09T10:18:03Z</time>
      </trkpt>
      <trkpt lat="46.07477" lon="3.6728">
        <ele>526</ele>
        <time>2011-07-09T10:18:04Z</time>
      </trkpt>
      <trkpt lat="46.07473" lon="3.67282">
        <ele>526</ele>
        <time>2011-07-09T10:18:05Z</time>
      </trkpt>
      <trkpt lat="46.07469" lon="3.67286">
        <ele>525</ele>
        <time>2011-07-09T10:18:06Z</time>
      </trkpt>
      <trkpt lat="46.07453" lon="3.67302">
        <ele>523</ele>
        <time>2011-07-09T10:18:09Z</time>
      </trkpt>
      <trkpt lat="46.07449" lon="3.67308">
        <ele>522</ele>
        <time>2011-07-09T10:18:10Z</time>
      </trkpt>
      <trkpt lat="46.07447" lon="3.67314">
        <ele>521</ele>
        <time>2011-07-09T10:18:11Z</time>
      </trkpt>
      <trkpt lat="46.07447" lon="3.6732">
        <ele>521</ele>
        <time>2011-07-09T10:18:12Z</time>
      </trkpt>
      <trkpt lat="46.07449" lon="3.67325">
        <ele>521</ele>
        <time>2011-07-09T10:18:13Z</time>
      </trkpt>
      <trkpt lat="46.07451" lon="3.6733">
        <ele>521</ele>
        <time>2011-07-09T10:18:14Z</time>
      </trkpt>
      <trkpt lat="46.07452" lon="3.67336">
        <ele>520</ele>
        <time>2011-07-09T10:18:15Z</time>
      </trkpt>
      <trkpt lat="46.07454" lon="3.67341">
        <ele>520</ele>
        <time>2011-07-09T10:18:16Z</time>
      </trkpt>
      <trkpt lat="46.07455" lon="3.67346">
        <ele>520</ele>
        <time>2011-07-09T10:18:17Z</time>
      </trkpt>
      <trkpt lat="46.07457" lon="3.67351">
        <ele>520</ele>
        <time>2011-07-09T10:18:18Z</time>
      </trkpt>
      <trkpt lat="46.07458" lon="3.67355">
        <ele>520</ele>
        <time>2011-07-09T10:18:19Z</time>
      </trkpt>
      <trkpt lat="46.07459" lon="3.6736">
        <ele>521</ele>
        <time>2011-07-09T10:18:20Z</time>
      </trkpt>
      <trkpt lat="46.0746" lon="3.67364">
        <ele>520</ele>
        <time>2011-07-09T10:18:21Z</time>
      </trkpt>
      <trkpt lat="46.07463" lon="3.67368">
        <ele>520</ele>
        <time>2011-07-09T10:18:22Z</time>
      </trkpt>
      <trkpt lat="46.07466" lon="3.67372">
        <ele>520</ele>
        <time>2011-07-09T10:18:23Z</time>
      </trkpt>
      <trkpt lat="46.0747" lon="3.67375">
        <ele>520</ele>
        <time>2011-07-09T10:18:24Z</time>
      </trkpt>
      <trkpt lat="46.07475" lon="3.67378">
        <ele>520</ele>
        <time>2011-07-09T10:18:25Z</time>
      </trkpt>
      <trkpt lat="46.0748" lon="3.67381">
        <ele>520</ele>
        <time>2011-07-09T10:18:26Z</time>
      </trkpt>
      <trkpt lat="46.07486" lon="3.67385">
        <ele>519</ele>
        <time>2011-07-09T10:18:27Z</time>
      </trkpt>
      <trkpt lat="46.07491" lon="3.6739">
        <ele>519</ele>
        <time>2011-07-09T10:18:28Z</time>
      </trkpt>
      <trkpt lat="46.07494" lon="3.67396">
        <ele>519</ele>
        <time>2011-07-09T10:18:29Z</time>
      </trkpt>
      <trkpt lat="46.07498" lon="3.67402">
        <ele>518</ele>
        <time>2011-07-09T10:18:30Z</time>
      </trkpt>
      <trkpt lat="46.07509" lon="3.67419">
        <ele>516</ele>
        <time>2011-07-09T10:18:34Z</time>
      </trkpt>
      <trkpt lat="46.0751" lon="3.67422">
        <ele>516</ele>
        <time>2011-07-09T10:18:36Z</time>
      </trkpt>
      <trkpt lat="46.07518" lon="3.67427">
        <ele>514</ele>
        <time>2011-07-09T10:18:42Z</time>
      </trkpt>
      <trkpt lat="46.07522" lon="3.67429">
        <ele>513</ele>
        <time>2011-07-09T10:18:48Z</time>
      </trkpt>
      <trkpt lat="46.07524" lon="3.67429">
        <ele>513</ele>
        <time>2011-07-09T10:18:56Z</time>
      </trkpt>
      <trkpt lat="46.07525" lon="3.67432">
        <ele>513</ele>
        <time>2011-07-09T10:18:58Z</time>
      </trkpt>
      <trkpt lat="46.07526" lon="3.67434">
        <ele>513</ele>
        <time>2011-07-09T10:18:59Z</time>
      </trkpt>
      <trkpt lat="46.07526" lon="3.67436">
        <ele>512</ele>
        <time>2011-07-09T10:19:05Z</time>
      </trkpt>
      <trkpt lat="46.07527" lon="3.67442">
        <ele>511</ele>
        <time>2011-07-09T10:19:12Z</time>
      </trkpt>
      <trkpt lat="46.07527" lon="3.67452">
        <ele>508</ele>
        <time>2011-07-09T10:19:18Z</time>
      </trkpt>
      <trkpt lat="46.07526" lon="3.67454">
        <ele>508</ele>
        <time>2011-07-09T10:19:19Z</time>
      </trkpt>
      <trkpt lat="46.07526" lon="3.67456">
        <ele>507</ele>
        <time>2011-07-09T10:19:20Z</time>
      </trkpt>
      <trkpt lat="46.07523" lon="3.67464">
        <ele>504</ele>
        <time>2011-07-09T10:19:26Z</time>
      </trkpt>
      <trkpt lat="46.07525" lon="3.67471">
        <ele>501</ele>
        <time>2011-07-09T10:19:31Z</time>
      </trkpt>
      <trkpt lat="46.07526" lon="3.67478">
        <ele>500</ele>
        <time>2011-07-09T10:19:34Z</time>
      </trkpt>
      <trkpt lat="46.07527" lon="3.6748">
        <ele>500</ele>
        <time>2011-07-09T10:19:35Z</time>
      </trkpt>
      <trkpt lat="46.07528" lon="3.67483">
        <ele>499</ele>
        <time>2011-07-09T10:19:36Z</time>
      </trkpt>
      <trkpt lat="46.07529" lon="3.67486">
        <ele>498</ele>
        <time>2011-07-09T10:19:37Z</time>
      </trkpt>
      <trkpt lat="46.07533" lon="3.67506">
        <ele>494</ele>
        <time>2011-07-09T10:19:42Z</time>
      </trkpt>
      <trkpt lat="46.07536" lon="3.67519">
        <ele>492</ele>
        <time>2011-07-09T10:19:45Z</time>
      </trkpt>
      <trkpt lat="46.07543" lon="3.67537">
        <ele>489</ele>
        <time>2011-07-09T10:19:49Z</time>
      </trkpt>
      <trkpt lat="46.07546" lon="3.67544">
        <ele>488</ele>
        <time>2011-07-09T10:19:50Z</time>
      </trkpt>
      <trkpt lat="46.07549" lon="3.67552">
        <ele>487</ele>
        <time>2011-07-09T10:19:51Z</time>
      </trkpt>
      <trkpt lat="46.07555" lon="3.67579">
        <ele>482</ele>
        <time>2011-07-09T10:19:55Z</time>
      </trkpt>
      <trkpt lat="46.07558" lon="3.67597">
        <ele>479</ele>
        <time>2011-07-09T10:20:00Z</time>
      </trkpt>
      <trkpt lat="46.07561" lon="3.67606">
        <ele>478</ele>
        <time>2011-07-09T10:20:02Z</time>
      </trkpt>
      <trkpt lat="46.07564" lon="3.67628">
        <ele>475</ele>
        <time>2011-07-09T10:20:07Z</time>
      </trkpt>
      <trkpt lat="46.07565" lon="3.6763">
        <ele>475</ele>
        <time>2011-07-09T10:20:08Z</time>
      </trkpt>
      <trkpt lat="46.07565" lon="3.67632">
        <ele>473</ele>
        <time>2011-07-09T10:20:09Z</time>
      </trkpt>
      <trkpt lat="46.07571" lon="3.67647">
        <ele>471</ele>
        <time>2011-07-09T10:20:14Z</time>
      </trkpt>
      <trkpt lat="46.07578" lon="3.67665">
        <ele>469</ele>
        <time>2011-07-09T10:20:19Z</time>
      </trkpt>
      <trkpt lat="46.0758" lon="3.67697">
        <ele>469</ele>
        <time>2011-07-09T10:20:24Z</time>
      </trkpt>
      <trkpt lat="46.07581" lon="3.67703">
        <ele>470</ele>
        <time>2011-07-09T10:20:25Z</time>
      </trkpt>
      <trkpt lat="46.07587" lon="3.67718">
        <ele>470</ele>
        <time>2011-07-09T10:20:29Z</time>
      </trkpt>
      <trkpt lat="46.07595" lon="3.67737">
        <ele>470</ele>
        <time>2011-07-09T10:20:34Z</time>
      </trkpt>
      <trkpt lat="46.07602" lon="3.67759">
        <ele>471</ele>
        <time>2011-07-09T10:20:41Z</time>
      </trkpt>
      <trkpt lat="46.07602" lon="3.67783">
        <ele>472</ele>
        <time>2011-07-09T10:20:49Z</time>
      </trkpt>
      <trkpt lat="46.07608" lon="3.678">
        <ele>473</ele>
        <time>2011-07-09T10:20:55Z</time>
      </trkpt>
      <trkpt lat="46.0761" lon="3.67811">
        <ele>474</ele>
        <time>2011-07-09T10:21:02Z</time>
      </trkpt>
      <trkpt lat="46.07614" lon="3.67816">
        <ele>474</ele>
        <time>2011-07-09T10:21:06Z</time>
      </trkpt>
      <trkpt lat="46.07616" lon="3.6782">
        <ele>475</ele>
        <time>2011-07-09T10:21:09Z</time>
      </trkpt>
      <trkpt lat="46.07618" lon="3.67839">
        <ele>477</ele>
        <time>2011-07-09T10:21:21Z</time>
      </trkpt>
      <trkpt lat="46.07621" lon="3.67843">
        <ele>478</ele>
        <time>2011-07-09T10:21:27Z</time>
      </trkpt>
      <trkpt lat="46.07621" lon="3.67844">
        <ele>478</ele>
        <time>2011-07-09T10:21:28Z</time>
      </trkpt>
      <trkpt lat="46.07628" lon="3.67854">
        <ele>480</ele>
        <time>2011-07-09T10:21:35Z</time>
      </trkpt>
      <trkpt lat="46.07634" lon="3.67859">
        <ele>480</ele>
        <time>2011-07-09T10:21:41Z</time>
      </trkpt>
      <trkpt lat="46.07634" lon="3.6786">
        <ele>480</ele>
        <time>2011-07-09T10:21:43Z</time>
      </trkpt>
      <trkpt lat="46.07641" lon="3.67871">
        <ele>481</ele>
        <time>2011-07-09T10:21:50Z</time>
      </trkpt>
      <trkpt lat="46.07644" lon="3.67878">
        <ele>481</ele>
        <time>2011-07-09T10:21:56Z</time>
      </trkpt>
      <trkpt lat="46.07644" lon="3.67878">
        <ele>481</ele>
        <time>2011-07-09T10:22:04Z</time>
      </trkpt>
      <trkpt lat="46.07646" lon="3.67878">
        <ele>482</ele>
        <time>2011-07-09T10:22:13Z</time>
      </trkpt>
      <trkpt lat="46.07647" lon="3.67878">
        <ele>481</ele>
        <time>2011-07-09T10:22:14Z</time>
      </trkpt>
      <trkpt lat="46.07659" lon="3.67875">
        <ele>482</ele>
        <time>2011-07-09T10:22:19Z</time>
      </trkpt>
      <trkpt lat="46.07673" lon="3.67871">
        <ele>483</ele>
        <time>2011-07-09T10:22:25Z</time>
      </trkpt>
      <trkpt lat="46.07687" lon="3.67873">
        <ele>485</ele>
        <time>2011-07-09T10:22:33Z</time>
      </trkpt>
      <trkpt lat="46.07699" lon="3.67881">
        <ele>487</ele>
        <time>2011-07-09T10:22:40Z</time>
      </trkpt>
      <trkpt lat="46.07705" lon="3.67889">
        <ele>488</ele>
        <time>2011-07-09T10:22:46Z</time>
      </trkpt>
      <trkpt lat="46.07711" lon="3.67901">
        <ele>489</ele>
        <time>2011-07-09T10:22:53Z</time>
      </trkpt>
      <trkpt lat="46.07711" lon="3.67903">
        <ele>489</ele>
        <time>2011-07-09T10:22:54Z</time>
      </trkpt>
      <trkpt lat="46.07717" lon="3.67918">
        <ele>491</ele>
        <time>2011-07-09T10:23:03Z</time>
      </trkpt>
      <trkpt lat="46.0772" lon="3.67926">
        <ele>492</ele>
        <time>2011-07-09T10:23:08Z</time>
      </trkpt>
      <trkpt lat="46.07724" lon="3.67939">
        <ele>493</ele>
        <time>2011-07-09T10:23:15Z</time>
      </trkpt>
      <trkpt lat="46.07724" lon="3.67944">
        <ele>494</ele>
        <time>2011-07-09T10:23:17Z</time>
      </trkpt>
      <trkpt lat="46.07723" lon="3.67965">
        <ele>495</ele>
        <time>2011-07-09T10:23:27Z</time>
      </trkpt>
      <trkpt lat="46.07723" lon="3.67982">
        <ele>497</ele>
        <time>2011-07-09T10:23:35Z</time>
      </trkpt>
      <trkpt lat="46.07724" lon="3.67998">
        <ele>497</ele>
        <time>2011-07-09T10:23:42Z</time>
      </trkpt>
      <trkpt lat="46.07725" lon="3.68007">
        <ele>498</ele>
        <time>2011-07-09T10:23:46Z</time>
      </trkpt>
      <trkpt lat="46.07726" lon="3.68026">
        <ele>500</ele>
        <time>2011-07-09T10:23:55Z</time>
      </trkpt>
      <trkpt lat="46.07727" lon="3.68047">
        <ele>502</ele>
        <time>2011-07-09T10:24:06Z</time>
      </trkpt>
      <trkpt lat="46.07728" lon="3.68069">
        <ele>504</ele>
        <time>2011-07-09T10:24:17Z</time>
      </trkpt>
      <trkpt lat="46.07729" lon="3.68088">
        <ele>505</ele>
        <time>2011-07-09T10:24:25Z</time>
      </trkpt>
      <trkpt lat="46.0773" lon="3.68109">
        <ele>507</ele>
        <time>2011-07-09T10:24:34Z</time>
      </trkpt>
      <trkpt lat="46.07731" lon="3.68132">
        <ele>510</ele>
        <time>2011-07-09T10:24:44Z</time>
      </trkpt>
      <trkpt lat="46.07732" lon="3.68149">
        <ele>512</ele>
        <time>2011-07-09T10:24:52Z</time>
      </trkpt>
      <trkpt lat="46.07732" lon="3.68168">
        <ele>515</ele>
        <time>2011-07-09T10:25:01Z</time>
      </trkpt>
      <trkpt lat="46.07732" lon="3.68188">
        <ele>518</ele>
        <time>2011-07-09T10:25:09Z</time>
      </trkpt>
      <trkpt lat="46.07734" lon="3.68207">
        <ele>520</ele>
        <time>2011-07-09T10:25:18Z</time>
      </trkpt>
      <trkpt lat="46.07734" lon="3.68226">
        <ele>522</ele>
        <time>2011-07-09T10:25:27Z</time>
      </trkpt>
      <trkpt lat="46.07735" lon="3.68244">
        <ele>524</ele>
        <time>2011-07-09T10:25:35Z</time>
      </trkpt>
      <trkpt lat="46.07737" lon="3.68267">
        <ele>526</ele>
        <time>2011-07-09T10:25:45Z</time>
      </trkpt>
      <trkpt lat="46.07737" lon="3.68286">
        <ele>528</ele>
        <time>2011-07-09T10:25:53Z</time>
      </trkpt>
      <trkpt lat="46.07739" lon="3.68305">
        <ele>530</ele>
        <time>2011-07-09T10:26:01Z</time>
      </trkpt>
      <trkpt lat="46.07742" lon="3.68314">
        <ele>531</ele>
        <time>2011-07-09T10:26:05Z</time>
      </trkpt>
      <trkpt lat="46.07739" lon="3.68324">
        <ele>532</ele>
        <time>2011-07-09T10:26:10Z</time>
      </trkpt>
      <trkpt lat="46.07734" lon="3.68352">
        <ele>534</ele>
        <time>2011-07-09T10:26:20Z</time>
      </trkpt>
      <trkpt lat="46.07731" lon="3.68376">
        <ele>535</ele>
        <time>2011-07-09T10:26:28Z</time>
      </trkpt>
      <trkpt lat="46.07729" lon="3.6839">
        <ele>537</ele>
        <time>2011-07-09T10:26:35Z</time>
      </trkpt>
      <trkpt lat="46.07729" lon="3.68393">
        <ele>537</ele>
        <time>2011-07-09T10:26:37Z</time>
      </trkpt>
      <trkpt lat="46.07731" lon="3.68389">
        <ele>537</ele>
        <time>2011-07-09T10:26:43Z</time>
      </trkpt>
      <trkpt lat="46.07731" lon="3.68389">
        <ele>537</ele>
        <time>2011-07-09T10:26:55Z</time>
      </trkpt>
      <trkpt lat="46.07731" lon="3.68389">
        <ele>537</ele>
        <time>2011-07-09T10:27:08Z</time>
      </trkpt>
      <trkpt lat="46.07731" lon="3.68389">
        <ele>537</ele>
        <time>2011-07-09T10:27:21Z</time>
      </trkpt>
      <trkpt lat="46.07731" lon="3.68389">
        <ele>537</ele>
        <time>2011-07-09T10:27:32Z</time>
      </trkpt>
      <trkpt lat="46.07725" lon="3.68387">
        <ele>537</ele>
        <time>2011-07-09T10:27:37Z</time>
      </trkpt>
      <trkpt lat="46.07713" lon="3.68399">
        <ele>538</ele>
        <time>2011-07-09T10:27:44Z</time>
      </trkpt>
      <trkpt lat="46.07692" lon="3.68412">
        <ele>538</ele>
        <time>2011-07-09T10:27:53Z</time>
      </trkpt>
      <trkpt lat="46.07676" lon="3.6842">
        <ele>538</ele>
        <time>2011-07-09T10:28:01Z</time>
      </trkpt>
      <trkpt lat="46.07663" lon="3.68425">
        <ele>539</ele>
        <time>2011-07-09T10:28:08Z</time>
      </trkpt>
      <trkpt lat="46.07642" lon="3.68437">
        <ele>538</ele>
        <time>2011-07-09T10:28:18Z</time>
      </trkpt>
      <trkpt lat="46.07622" lon="3.68451">
        <ele>538</ele>
        <time>2011-07-09T10:28:26Z</time>
      </trkpt>
      <trkpt lat="46.07602" lon="3.68478">
        <ele>538</ele>
        <time>2011-07-09T10:28:34Z</time>
      </trkpt>
      <trkpt lat="46.07582" lon="3.68511">
        <ele>537</ele>
        <time>2011-07-09T10:28:42Z</time>
      </trkpt>
      <trkpt lat="46.07561" lon="3.68547">
        <ele>536</ele>
        <time>2011-07-09T10:28:50Z</time>
      </trkpt>
      <trkpt lat="46.07546" lon="3.68572">
        <ele>535</ele>
        <time>2011-07-09T10:28:56Z</time>
      </trkpt>
      <trkpt lat="46.07538" lon="3.68588">
        <ele>535</ele>
        <time>2011-07-09T10:28:59Z</time>
      </trkpt>
      <trkpt lat="46.07532" lon="3.68599">
        <ele>535</ele>
        <time>2011-07-09T10:29:01Z</time>
      </trkpt>
      <trkpt lat="46.07504" lon="3.68651">
        <ele>533</ele>
        <time>2011-07-09T10:29:10Z</time>
      </trkpt>
      <trkpt lat="46.07468" lon="3.68695">
        <ele>533</ele>
        <time>2011-07-09T10:29:19Z</time>
      </trkpt>
      <trkpt lat="46.07465" lon="3.68699">
        <ele>533</ele>
        <time>2011-07-09T10:29:20Z</time>
      </trkpt>
      <trkpt lat="46.07461" lon="3.68704">
        <ele>533</ele>
        <time>2011-07-09T10:29:21Z</time>
      </trkpt>
      <trkpt lat="46.07438" lon="3.6873">
        <ele>533</ele>
        <time>2011-07-09T10:29:27Z</time>
      </trkpt>
      <trkpt lat="46.07435" lon="3.68734">
        <ele>533</ele>
        <time>2011-07-09T10:29:28Z</time>
      </trkpt>
      <trkpt lat="46.07431" lon="3.68738">
        <ele>533</ele>
        <time>2011-07-09T10:29:29Z</time>
      </trkpt>
      <trkpt lat="46.07427" lon="3.68743">
        <ele>533</ele>
        <time>2011-07-09T10:29:30Z</time>
      </trkpt>
      <trkpt lat="46.07424" lon="3.68747">
        <ele>533</ele>
        <time>2011-07-09T10:29:31Z</time>
      </trkpt>
      <trkpt lat="46.07404" lon="3.68771">
        <ele>534</ele>
        <time>2011-07-09T10:29:37Z</time>
      </trkpt>
      <trkpt lat="46.07387" lon="3.68803">
        <ele>534</ele>
        <time>2011-07-09T10:29:44Z</time>
      </trkpt>
      <trkpt lat="46.07378" lon="3.68819">
        <ele>534</ele>
        <time>2011-07-09T10:29:50Z</time>
      </trkpt>
      <trkpt lat="46.07364" lon="3.68838">
        <ele>533</ele>
        <time>2011-07-09T10:29:56Z</time>
      </trkpt>
      <trkpt lat="46.07341" lon="3.68864">
        <ele>534</ele>
        <time>2011-07-09T10:30:05Z</time>
      </trkpt>
      <trkpt lat="46.0732" lon="3.68881">
        <ele>535</ele>
        <time>2011-07-09T10:30:13Z</time>
      </trkpt>
      <trkpt lat="46.07297" lon="3.68892">
        <ele>537</ele>
        <time>2011-07-09T10:30:21Z</time>
      </trkpt>
      <trkpt lat="46.07278" lon="3.68901">
        <ele>538</ele>
        <time>2011-07-09T10:30:28Z</time>
      </trkpt>
      <trkpt lat="46.07255" lon="3.68918">
        <ele>538</ele>
        <time>2011-07-09T10:30:37Z</time>
      </trkpt>
      <trkpt lat="46.0725" lon="3.68926">
        <ele>538</ele>
        <time>2011-07-09T10:30:39Z</time>
      </trkpt>
      <trkpt lat="46.07247" lon="3.6893">
        <ele>538</ele>
        <time>2011-07-09T10:30:40Z</time>
      </trkpt>
      <trkpt lat="46.07245" lon="3.68936">
        <ele>538</ele>
        <time>2011-07-09T10:30:41Z</time>
      </trkpt>
      <trkpt lat="46.07242" lon="3.68941">
        <ele>537</ele>
        <time>2011-07-09T10:30:42Z</time>
      </trkpt>
      <trkpt lat="46.0724" lon="3.68947">
        <ele>537</ele>
        <time>2011-07-09T10:30:43Z</time>
      </trkpt>
      <trkpt lat="46.07239" lon="3.68953">
        <ele>537</ele>
        <time>2011-07-09T10:30:44Z</time>
      </trkpt>
      <trkpt lat="46.07238" lon="3.6896">
        <ele>536</ele>
        <time>2011-07-09T10:30:45Z</time>
      </trkpt>
      <trkpt lat="46.07236" lon="3.68967">
        <ele>536</ele>
        <time>2011-07-09T10:30:46Z</time>
      </trkpt>
      <trkpt lat="46.07237" lon="3.68989">
        <ele>535</ele>
        <time>2011-07-09T10:30:50Z</time>
      </trkpt>
      <trkpt lat="46.0724" lon="3.68993">
        <ele>535</ele>
        <time>2011-07-09T10:30:51Z</time>
      </trkpt>
      <trkpt lat="46.07249" lon="3.69002">
        <ele>535</ele>
        <time>2011-07-09T10:30:54Z</time>
      </trkpt>
      <trkpt lat="46.07252" lon="3.69007">
        <ele>535</ele>
        <time>2011-07-09T10:30:55Z</time>
      </trkpt>
      <trkpt lat="46.07254" lon="3.69012">
        <ele>534</ele>
        <time>2011-07-09T10:30:56Z</time>
      </trkpt>
      <trkpt lat="46.07257" lon="3.69024">
        <ele>534</ele>
        <time>2011-07-09T10:30:58Z</time>
      </trkpt>
      <trkpt lat="46.07258" lon="3.6903">
        <ele>534</ele>
        <time>2011-07-09T10:30:59Z</time>
      </trkpt>
      <trkpt lat="46.07259" lon="3.69036">
        <ele>534</ele>
        <time>2011-07-09T10:31:00Z</time>
      </trkpt>
      <trkpt lat="46.0726" lon="3.69041">
        <ele>534</ele>
        <time>2011-07-09T10:31:01Z</time>
      </trkpt>
      <trkpt lat="46.07261" lon="3.69047">
        <ele>534</ele>
        <time>2011-07-09T10:31:02Z</time>
      </trkpt>
      <trkpt lat="46.07261" lon="3.69053">
        <ele>534</ele>
        <time>2011-07-09T10:31:03Z</time>
      </trkpt>
      <trkpt lat="46.07261" lon="3.69059">
        <ele>534</ele>
        <time>2011-07-09T10:31:04Z</time>
      </trkpt>
      <trkpt lat="46.07261" lon="3.69065">
        <ele>534</ele>
        <time>2011-07-09T10:31:05Z</time>
      </trkpt>
      <trkpt lat="46.07259" lon="3.6907">
        <ele>534</ele>
        <time>2011-07-09T10:31:06Z</time>
      </trkpt>
      <trkpt lat="46.07258" lon="3.69075">
        <ele>534</ele>
        <time>2011-07-09T10:31:07Z</time>
      </trkpt>
      <trkpt lat="46.07256" lon="3.69079">
        <ele>534</ele>
        <time>2011-07-09T10:31:08Z</time>
      </trkpt>
      <trkpt lat="46.07248" lon="3.69111">
        <ele>534</ele>
        <time>2011-07-09T10:31:15Z</time>
      </trkpt>
      <trkpt lat="46.07245" lon="3.69159">
        <ele>534</ele>
        <time>2011-07-09T10:31:25Z</time>
      </trkpt>
      <trkpt lat="46.07239" lon="3.69205">
        <ele>533</ele>
        <time>2011-07-09T10:31:34Z</time>
      </trkpt>
      <trkpt lat="46.07233" lon="3.69229">
        <ele>531</ele>
        <time>2011-07-09T10:31:38Z</time>
      </trkpt>
      <trkpt lat="46.07232" lon="3.69234">
        <ele>531</ele>
        <time>2011-07-09T10:31:39Z</time>
      </trkpt>
      <trkpt lat="46.0723" lon="3.69259">
        <ele>528</ele>
        <time>2011-07-09T10:31:45Z</time>
      </trkpt>
      <trkpt lat="46.0723" lon="3.69273">
        <ele>526</ele>
        <time>2011-07-09T10:31:49Z</time>
      </trkpt>
      <trkpt lat="46.07232" lon="3.69282">
        <ele>526</ele>
        <time>2011-07-09T10:31:51Z</time>
      </trkpt>
      <trkpt lat="46.07232" lon="3.69288">
        <ele>525</ele>
        <time>2011-07-09T10:31:52Z</time>
      </trkpt>
      <trkpt lat="46.07231" lon="3.6932">
        <ele>522</ele>
        <time>2011-07-09T10:31:57Z</time>
      </trkpt>
      <trkpt lat="46.07231" lon="3.69333">
        <ele>521</ele>
        <time>2011-07-09T10:31:59Z</time>
      </trkpt>
      <trkpt lat="46.07232" lon="3.69348">
        <ele>519</ele>
        <time>2011-07-09T10:32:01Z</time>
      </trkpt>
      <trkpt lat="46.07229" lon="3.69386">
        <ele>517</ele>
        <time>2011-07-09T10:32:07Z</time>
      </trkpt>
      <trkpt lat="46.07225" lon="3.6941">
        <ele>516</ele>
        <time>2011-07-09T10:32:12Z</time>
      </trkpt>
      <trkpt lat="46.07223" lon="3.69423">
        <ele>515</ele>
        <time>2011-07-09T10:32:15Z</time>
      </trkpt>
      <trkpt lat="46.07221" lon="3.69442">
        <ele>514</ele>
        <time>2011-07-09T10:32:20Z</time>
      </trkpt>
      <trkpt lat="46.07219" lon="3.69454">
        <ele>513</ele>
        <time>2011-07-09T10:32:22Z</time>
      </trkpt>
      <trkpt lat="46.07216" lon="3.69491">
        <ele>511</ele>
        <time>2011-07-09T10:32:27Z</time>
      </trkpt>
      <trkpt lat="46.07209" lon="3.69537">
        <ele>510</ele>
        <time>2011-07-09T10:32:33Z</time>
      </trkpt>
      <trkpt lat="46.07202" lon="3.6959">
        <ele>509</ele>
        <time>2011-07-09T10:32:41Z</time>
      </trkpt>
      <trkpt lat="46.072" lon="3.69626">
        <ele>508</ele>
        <time>2011-07-09T10:32:47Z</time>
      </trkpt>
      <trkpt lat="46.07201" lon="3.6965">
        <ele>507</ele>
        <time>2011-07-09T10:32:50Z</time>
      </trkpt>
      <trkpt lat="46.07204" lon="3.69675">
        <ele>505</ele>
        <time>2011-07-09T10:32:53Z</time>
      </trkpt>
      <trkpt lat="46.07214" lon="3.69708">
        <ele>501</ele>
        <time>2011-07-09T10:32:59Z</time>
      </trkpt>
      <trkpt lat="46.07226" lon="3.69729">
        <ele>497</ele>
        <time>2011-07-09T10:33:03Z</time>
      </trkpt>
      <trkpt lat="46.07253" lon="3.69758">
        <ele>494</ele>
        <time>2011-07-09T10:33:09Z</time>
      </trkpt>
      <trkpt lat="46.07257" lon="3.69762">
        <ele>493</ele>
        <time>2011-07-09T10:33:10Z</time>
      </trkpt>
      <trkpt lat="46.07261" lon="3.69765">
        <ele>493</ele>
        <time>2011-07-09T10:33:11Z</time>
      </trkpt>
      <trkpt lat="46.07268" lon="3.69772">
        <ele>492</ele>
        <time>2011-07-09T10:33:13Z</time>
      </trkpt>
      <trkpt lat="46.07277" lon="3.69781">
        <ele>490</ele>
        <time>2011-07-09T10:33:16Z</time>
      </trkpt>
      <trkpt lat="46.07286" lon="3.69789">
        <ele>488</ele>
        <time>2011-07-09T10:33:21Z</time>
      </trkpt>
      <trkpt lat="46.07298" lon="3.6979">
        <ele>486</ele>
        <time>2011-07-09T10:33:26Z</time>
      </trkpt>
      <trkpt lat="46.0731" lon="3.69794">
        <ele>483</ele>
        <time>2011-07-09T10:33:28Z</time>
      </trkpt>
      <trkpt lat="46.07319" lon="3.69796">
        <ele>482</ele>
        <time>2011-07-09T10:33:30Z</time>
      </trkpt>
      <trkpt lat="46.07319" lon="3.69805">
        <ele>481</ele>
        <time>2011-07-09T10:33:34Z</time>
      </trkpt>
      <trkpt lat="46.07308" lon="3.69808">
        <ele>481</ele>
        <time>2011-07-09T10:33:38Z</time>
      </trkpt>
      <trkpt lat="46.0729" lon="3.69819">
        <ele>480</ele>
        <time>2011-07-09T10:33:44Z</time>
      </trkpt>
      <trkpt lat="46.07282" lon="3.69829">
        <ele>480</ele>
        <time>2011-07-09T10:33:46Z</time>
      </trkpt>
      <trkpt lat="46.07278" lon="3.69833">
        <ele>480</ele>
        <time>2011-07-09T10:33:47Z</time>
      </trkpt>
      <trkpt lat="46.0727" lon="3.69843">
        <ele>480</ele>
        <time>2011-07-09T10:33:50Z</time>
      </trkpt>
      <trkpt lat="46.07266" lon="3.69848">
        <ele>480</ele>
        <time>2011-07-09T10:33:51Z</time>
      </trkpt>
      <trkpt lat="46.07239" lon="3.69882">
        <ele>479</ele>
        <time>2011-07-09T10:33:57Z</time>
      </trkpt>
      <trkpt lat="46.0723" lon="3.69894">
        <ele>479</ele>
        <time>2011-07-09T10:33:59Z</time>
      </trkpt>
      <trkpt lat="46.07227" lon="3.69901">
        <ele>480</ele>
        <time>2011-07-09T10:34:00Z</time>
      </trkpt>
      <trkpt lat="46.07225" lon="3.69908">
        <ele>480</ele>
        <time>2011-07-09T10:34:01Z</time>
      </trkpt>
      <trkpt lat="46.07224" lon="3.69915">
        <ele>480</ele>
        <time>2011-07-09T10:34:02Z</time>
      </trkpt>
      <trkpt lat="46.07223" lon="3.69922">
        <ele>480</ele>
        <time>2011-07-09T10:34:03Z</time>
      </trkpt>
      <trkpt lat="46.07224" lon="3.69928">
        <ele>480</ele>
        <time>2011-07-09T10:34:04Z</time>
      </trkpt>
      <trkpt lat="46.07224" lon="3.69942">
        <ele>480</ele>
        <time>2011-07-09T10:34:06Z</time>
      </trkpt>
      <trkpt lat="46.07225" lon="3.69948">
        <ele>480</ele>
        <time>2011-07-09T10:34:07Z</time>
      </trkpt>
      <trkpt lat="46.07226" lon="3.69953">
        <ele>480</ele>
        <time>2011-07-09T10:34:08Z</time>
      </trkpt>
      <trkpt lat="46.07227" lon="3.69959">
        <ele>480</ele>
        <time>2011-07-09T10:34:09Z</time>
      </trkpt>
      <trkpt lat="46.07227" lon="3.69965">
        <ele>480</ele>
        <time>2011-07-09T10:34:10Z</time>
      </trkpt>
      <trkpt lat="46.07227" lon="3.69971">
        <ele>480</ele>
        <time>2011-07-09T10:34:11Z</time>
      </trkpt>
      <trkpt lat="46.07225" lon="3.70004">
        <ele>480</ele>
        <time>2011-07-09T10:34:16Z</time>
      </trkpt>
      <trkpt lat="46.0722" lon="3.70057">
        <ele>480</ele>
        <time>2011-07-09T10:34:23Z</time>
      </trkpt>
      <trkpt lat="46.07221" lon="3.7008">
        <ele>480</ele>
        <time>2011-07-09T10:34:29Z</time>
      </trkpt>
      <trkpt lat="46.07222" lon="3.70083">
        <ele>480</ele>
        <time>2011-07-09T10:34:30Z</time>
      </trkpt>
      <trkpt lat="46.07223" lon="3.70085">
        <ele>480</ele>
        <time>2011-07-09T10:34:31Z</time>
      </trkpt>
      <trkpt lat="46.07225" lon="3.70088">
        <ele>480</ele>
        <time>2011-07-09T10:34:32Z</time>
      </trkpt>
      <trkpt lat="46.07226" lon="3.7009">
        <ele>480</ele>
        <time>2011-07-09T10:34:33Z</time>
      </trkpt>
      <trkpt lat="46.07227" lon="3.7009">
        <ele>480</ele>
        <time>2011-07-09T10:34:34Z</time>
      </trkpt>
      <trkpt lat="46.0723" lon="3.7009">
        <ele>480</ele>
        <time>2011-07-09T10:34:35Z</time>
      </trkpt>
      <trkpt lat="46.07252" lon="3.70079">
        <ele>479</ele>
        <time>2011-07-09T10:34:43Z</time>
      </trkpt>
      <trkpt lat="46.07278" lon="3.70063">
        <ele>479</ele>
        <time>2011-07-09T10:34:51Z</time>
      </trkpt>
      <trkpt lat="46.07309" lon="3.70042">
        <ele>479</ele>
        <time>2011-07-09T10:34:59Z</time>
      </trkpt>
      <trkpt lat="46.07349" lon="3.7002">
        <ele>478</ele>
        <time>2011-07-09T10:35:09Z</time>
      </trkpt>
      <trkpt lat="46.07383" lon="3.69997">
        <ele>479</ele>
        <time>2011-07-09T10:35:19Z</time>
      </trkpt>
      <trkpt lat="46.07408" lon="3.69988">
        <ele>479</ele>
        <time>2011-07-09T10:35:27Z</time>
      </trkpt>
      <trkpt lat="46.0741" lon="3.69989">
        <ele>480</ele>
        <time>2011-07-09T10:35:28Z</time>
      </trkpt>
      <trkpt lat="46.07412" lon="3.69992">
        <ele>480</ele>
        <time>2011-07-09T10:35:29Z</time>
      </trkpt>
      <trkpt lat="46.07412" lon="3.69994">
        <ele>480</ele>
        <time>2011-07-09T10:35:30Z</time>
      </trkpt>
      <trkpt lat="46.07412" lon="3.69998">
        <ele>480</ele>
        <time>2011-07-09T10:35:31Z</time>
      </trkpt>
      <trkpt lat="46.07413" lon="3.70001">
        <ele>480</ele>
        <time>2011-07-09T10:35:32Z</time>
      </trkpt>
      <trkpt lat="46.07414" lon="3.70004">
        <ele>480</ele>
        <time>2011-07-09T10:35:33Z</time>
      </trkpt>
      <trkpt lat="46.07414" lon="3.70007">
        <ele>480</ele>
        <time>2011-07-09T10:35:34Z</time>
      </trkpt>
      <trkpt lat="46.07418" lon="3.70027">
        <ele>482</ele>
        <time>2011-07-09T10:35:40Z</time>
      </trkpt>
      <trkpt lat="46.07419" lon="3.7003">
        <ele>482</ele>
        <time>2011-07-09T10:35:41Z</time>
      </trkpt>
      <trkpt lat="46.07419" lon="3.70032">
        <ele>483</ele>
        <time>2011-07-09T10:35:42Z</time>
      </trkpt>
      <trkpt lat="46.0742" lon="3.70034">
        <ele>483</ele>
        <time>2011-07-09T10:35:43Z</time>
      </trkpt>
      <trkpt lat="46.07421" lon="3.7005">
        <ele>484</ele>
        <time>2011-07-09T10:35:50Z</time>
      </trkpt>
      <trkpt lat="46.0742" lon="3.70069">
        <ele>486</ele>
        <time>2011-07-09T10:35:57Z</time>
      </trkpt>
      <trkpt lat="46.07418" lon="3.70087">
        <ele>488</ele>
        <time>2011-07-09T10:36:03Z</time>
      </trkpt>
      <trkpt lat="46.07416" lon="3.70112">
        <ele>490</ele>
        <time>2011-07-09T10:36:11Z</time>
      </trkpt>
      <trkpt lat="46.07415" lon="3.7012">
        <ele>490</ele>
        <time>2011-07-09T10:36:13Z</time>
      </trkpt>
      <trkpt lat="46.07415" lon="3.70123">
        <ele>490</ele>
        <time>2011-07-09T10:36:14Z</time>
      </trkpt>
      <trkpt lat="46.07415" lon="3.70127">
        <ele>490</ele>
        <time>2011-07-09T10:36:15Z</time>
      </trkpt>
      <trkpt lat="46.07415" lon="3.7013">
        <ele>491</ele>
        <time>2011-07-09T10:36:16Z</time>
      </trkpt>
      <trkpt lat="46.07415" lon="3.70134">
        <ele>490</ele>
        <time>2011-07-09T10:36:17Z</time>
      </trkpt>
      <trkpt lat="46.07415" lon="3.70139">
        <ele>491</ele>
        <time>2011-07-09T10:36:18Z</time>
      </trkpt>
      <trkpt lat="46.07415" lon="3.70143">
        <ele>491</ele>
        <time>2011-07-09T10:36:19Z</time>
      </trkpt>
      <trkpt lat="46.07414" lon="3.70148">
        <ele>491</ele>
        <time>2011-07-09T10:36:20Z</time>
      </trkpt>
      <trkpt lat="46.07415" lon="3.70173">
        <ele>492</ele>
        <time>2011-07-09T10:36:28Z</time>
      </trkpt>
      <trkpt lat="46.07418" lon="3.70196">
        <ele>492</ele>
        <time>2011-07-09T10:36:34Z</time>
      </trkpt>
      <trkpt lat="46.07421" lon="3.70231">
        <ele>493</ele>
        <time>2011-07-09T10:36:42Z</time>
      </trkpt>
      <trkpt lat="46.07423" lon="3.7026">
        <ele>495</ele>
        <time>2011-07-09T10:36:49Z</time>
      </trkpt>
      <trkpt lat="46.07427" lon="3.70283">
        <ele>497</ele>
        <time>2011-07-09T10:36:55Z</time>
      </trkpt>
      <trkpt lat="46.07425" lon="3.70311">
        <ele>499</ele>
        <time>2011-07-09T10:37:03Z</time>
      </trkpt>
      <trkpt lat="46.07419" lon="3.70331">
        <ele>501</ele>
        <time>2011-07-09T10:37:10Z</time>
      </trkpt>
      <trkpt lat="46.07413" lon="3.70343">
        <ele>503</ele>
        <time>2011-07-09T10:37:17Z</time>
      </trkpt>
      <trkpt lat="46.07412" lon="3.70345">
        <ele>503</ele>
        <time>2011-07-09T10:37:18Z</time>
      </trkpt>
      <trkpt lat="46.07411" lon="3.70346">
        <ele>503</ele>
        <time>2011-07-09T10:37:19Z</time>
      </trkpt>
      <trkpt lat="46.0741" lon="3.70348">
        <ele>503</ele>
        <time>2011-07-09T10:37:20Z</time>
      </trkpt>
      <trkpt lat="46.07409" lon="3.7035">
        <ele>503</ele>
        <time>2011-07-09T10:37:21Z</time>
      </trkpt>
      <trkpt lat="46.07408" lon="3.70352">
        <ele>504</ele>
        <time>2011-07-09T10:37:22Z</time>
      </trkpt>
      <trkpt lat="46.07407" lon="3.70355">
        <ele>504</ele>
        <time>2011-07-09T10:37:23Z</time>
      </trkpt>
      <trkpt lat="46.07406" lon="3.70357">
        <ele>504</ele>
        <time>2011-07-09T10:37:24Z</time>
      </trkpt>
      <trkpt lat="46.07405" lon="3.70359">
        <ele>505</ele>
        <time>2011-07-09T10:37:25Z</time>
      </trkpt>
      <trkpt lat="46.07404" lon="3.70361">
        <ele>505</ele>
        <time>2011-07-09T10:37:26Z</time>
      </trkpt>
      <trkpt lat="46.07402" lon="3.70363">
        <ele>505</ele>
        <time>2011-07-09T10:37:27Z</time>
      </trkpt>
      <trkpt lat="46.07401" lon="3.70365">
        <ele>505</ele>
        <time>2011-07-09T10:37:28Z</time>
      </trkpt>
      <trkpt lat="46.07401" lon="3.70367">
        <ele>505</ele>
        <time>2011-07-09T10:37:29Z</time>
      </trkpt>
      <trkpt lat="46.07399" lon="3.70369">
        <ele>506</ele>
        <time>2011-07-09T10:37:30Z</time>
      </trkpt>
      <trkpt lat="46.07398" lon="3.70371">
        <ele>506</ele>
        <time>2011-07-09T10:37:31Z</time>
      </trkpt>
      <trkpt lat="46.07394" lon="3.70377">
        <ele>507</ele>
        <time>2011-07-09T10:37:37Z</time>
      </trkpt>
      <trkpt lat="46.0739" lon="3.70383">
        <ele>508</ele>
        <time>2011-07-09T10:37:43Z</time>
      </trkpt>
      <trkpt lat="46.07386" lon="3.70393">
        <ele>508</ele>
        <time>2011-07-09T10:37:50Z</time>
      </trkpt>
      <trkpt lat="46.07387" lon="3.70395">
        <ele>509</ele>
        <time>2011-07-09T10:37:51Z</time>
      </trkpt>
      <trkpt lat="46.07388" lon="3.70397">
        <ele>509</ele>
        <time>2011-07-09T10:37:52Z</time>
      </trkpt>
      <trkpt lat="46.07389" lon="3.70399">
        <ele>510</ele>
        <time>2011-07-09T10:37:53Z</time>
      </trkpt>
      <trkpt lat="46.07389" lon="3.70401">
        <ele>510</ele>
        <time>2011-07-09T10:37:54Z</time>
      </trkpt>
      <trkpt lat="46.0739" lon="3.70403">
        <ele>511</ele>
        <time>2011-07-09T10:37:55Z</time>
      </trkpt>
      <trkpt lat="46.07391" lon="3.70404">
        <ele>511</ele>
        <time>2011-07-09T10:37:56Z</time>
      </trkpt>
      <trkpt lat="46.07396" lon="3.70413">
        <ele>513</ele>
        <time>2011-07-09T10:38:03Z</time>
      </trkpt>
      <trkpt lat="46.07403" lon="3.70423">
        <ele>515</ele>
        <time>2011-07-09T10:38:12Z</time>
      </trkpt>
      <trkpt lat="46.07404" lon="3.70424">
        <ele>516</ele>
        <time>2011-07-09T10:38:13Z</time>
      </trkpt>
      <trkpt lat="46.07406" lon="3.70429">
        <ele>517</ele>
        <time>2011-07-09T10:38:17Z</time>
      </trkpt>
      <trkpt lat="46.07411" lon="3.70437">
        <ele>519</ele>
        <time>2011-07-09T10:38:24Z</time>
      </trkpt>
      <trkpt lat="46.07413" lon="3.70437">
        <ele>519</ele>
        <time>2011-07-09T10:38:25Z</time>
      </trkpt>
      <trkpt lat="46.07414" lon="3.70438">
        <ele>520</ele>
        <time>2011-07-09T10:38:26Z</time>
      </trkpt>
      <trkpt lat="46.07424" lon="3.7044">
        <ele>521</ele>
        <time>2011-07-09T10:38:33Z</time>
      </trkpt>
      <trkpt lat="46.0743" lon="3.70445">
        <ele>522</ele>
        <time>2011-07-09T10:38:39Z</time>
      </trkpt>
      <trkpt lat="46.07432" lon="3.70447">
        <ele>523</ele>
        <time>2011-07-09T10:38:41Z</time>
      </trkpt>
      <trkpt lat="46.07436" lon="3.70453">
        <ele>524</ele>
        <time>2011-07-09T10:38:46Z</time>
      </trkpt>
      <trkpt lat="46.07438" lon="3.7046">
        <ele>524</ele>
        <time>2011-07-09T10:38:51Z</time>
      </trkpt>
      <trkpt lat="46.07438" lon="3.70463">
        <ele>525</ele>
        <time>2011-07-09T10:38:53Z</time>
      </trkpt>
      <trkpt lat="46.07439" lon="3.70466">
        <ele>525</ele>
        <time>2011-07-09T10:38:55Z</time>
      </trkpt>
      <trkpt lat="46.07441" lon="3.7048">
        <ele>526</ele>
        <time>2011-07-09T10:39:03Z</time>
      </trkpt>
      <trkpt lat="46.07443" lon="3.70489">
        <ele>527</ele>
        <time>2011-07-09T10:39:11Z</time>
      </trkpt>
      <trkpt lat="46.07443" lon="3.70497">
        <ele>528</ele>
        <time>2011-07-09T10:39:16Z</time>
      </trkpt>
      <trkpt lat="46.07443" lon="3.70499">
        <ele>529</ele>
        <time>2011-07-09T10:39:17Z</time>
      </trkpt>
      <trkpt lat="46.07444" lon="3.70503">
        <ele>529</ele>
        <time>2011-07-09T10:39:19Z</time>
      </trkpt>
      <trkpt lat="46.07445" lon="3.70514">
        <ele>531</ele>
        <time>2011-07-09T10:39:26Z</time>
      </trkpt>
      <trkpt lat="46.0745" lon="3.70531">
        <ele>530</ele>
        <time>2011-07-09T10:39:33Z</time>
      </trkpt>
      <trkpt lat="46.07449" lon="3.70556">
        <ele>529</ele>
        <time>2011-07-09T10:39:38Z</time>
      </trkpt>
      <trkpt lat="46.07447" lon="3.70568">
        <ele>528</ele>
        <time>2011-07-09T10:39:40Z</time>
      </trkpt>
      <trkpt lat="46.07447" lon="3.70575">
        <ele>528</ele>
        <time>2011-07-09T10:39:41Z</time>
      </trkpt>
      <trkpt lat="46.07449" lon="3.70582">
        <ele>528</ele>
        <time>2011-07-09T10:39:42Z</time>
      </trkpt>
      <trkpt lat="46.07452" lon="3.70601">
        <ele>529</ele>
        <time>2011-07-09T10:39:46Z</time>
      </trkpt>
      <trkpt lat="46.07459" lon="3.70624">
        <ele>530</ele>
        <time>2011-07-09T10:39:52Z</time>
      </trkpt>
      <trkpt lat="46.07464" lon="3.70642">
        <ele>531</ele>
        <time>2011-07-09T10:39:59Z</time>
      </trkpt>
      <trkpt lat="46.07468" lon="3.70663">
        <ele>534</ele>
        <time>2011-07-09T10:40:08Z</time>
      </trkpt>
      <trkpt lat="46.07473" lon="3.70676">
        <ele>535</ele>
        <time>2011-07-09T10:40:15Z</time>
      </trkpt>
      <trkpt lat="46.07473" lon="3.70678">
        <ele>535</ele>
        <time>2011-07-09T10:40:17Z</time>
      </trkpt>
      <trkpt lat="46.07474" lon="3.70691">
        <ele>537</ele>
        <time>2011-07-09T10:40:24Z</time>
      </trkpt>
      <trkpt lat="46.07471" lon="3.70704">
        <ele>539</ele>
        <time>2011-07-09T10:40:29Z</time>
      </trkpt>
      <trkpt lat="46.07469" lon="3.70708">
        <ele>539</ele>
        <time>2011-07-09T10:40:31Z</time>
      </trkpt>
      <trkpt lat="46.07463" lon="3.70711">
        <ele>541</ele>
        <time>2011-07-09T10:40:35Z</time>
      </trkpt>
      <trkpt lat="46.07447" lon="3.70724">
        <ele>544</ele>
        <time>2011-07-09T10:40:44Z</time>
      </trkpt>
      <trkpt lat="46.07434" lon="3.70731">
        <ele>545</ele>
        <time>2011-07-09T10:40:51Z</time>
      </trkpt>
      <trkpt lat="46.07421" lon="3.70745">
        <ele>546</ele>
        <time>2011-07-09T10:40:58Z</time>
      </trkpt>
      <trkpt lat="46.07407" lon="3.70765">
        <ele>545</ele>
        <time>2011-07-09T10:41:04Z</time>
      </trkpt>
      <trkpt lat="46.07404" lon="3.70796">
        <ele>546</ele>
        <time>2011-07-09T10:41:10Z</time>
      </trkpt>
      <trkpt lat="46.07412" lon="3.70825">
        <ele>547</ele>
        <time>2011-07-09T10:41:17Z</time>
      </trkpt>
      <trkpt lat="46.07422" lon="3.70846">
        <ele>548</ele>
        <time>2011-07-09T10:41:24Z</time>
      </trkpt>
      <trkpt lat="46.07433" lon="3.70855">
        <ele>550</ele>
        <time>2011-07-09T10:41:29Z</time>
      </trkpt>
      <trkpt lat="46.07439" lon="3.70865">
        <ele>551</ele>
        <time>2011-07-09T10:41:33Z</time>
      </trkpt>
      <trkpt lat="46.07443" lon="3.70882">
        <ele>553</ele>
        <time>2011-07-09T10:41:39Z</time>
      </trkpt>
      <trkpt lat="46.07443" lon="3.70905">
        <ele>555</ele>
        <time>2011-07-09T10:41:49Z</time>
      </trkpt>
      <trkpt lat="46.07443" lon="3.7091">
        <ele>556</ele>
        <time>2011-07-09T10:41:51Z</time>
      </trkpt>
      <trkpt lat="46.07443" lon="3.70924">
        <ele>557</ele>
        <time>2011-07-09T10:41:56Z</time>
      </trkpt>
      <trkpt lat="46.07438" lon="3.70941">
        <ele>560</ele>
        <time>2011-07-09T10:42:03Z</time>
      </trkpt>
      <trkpt lat="46.07437" lon="3.70954">
        <ele>561</ele>
        <time>2011-07-09T10:42:07Z</time>
      </trkpt>
      <trkpt lat="46.07437" lon="3.70957">
        <ele>562</ele>
        <time>2011-07-09T10:42:08Z</time>
      </trkpt>
      <trkpt lat="46.07441" lon="3.7097">
        <ele>563</ele>
        <time>2011-07-09T10:42:13Z</time>
      </trkpt>
      <trkpt lat="46.07441" lon="3.7098">
        <ele>564</ele>
        <time>2011-07-09T10:42:18Z</time>
      </trkpt>
      <trkpt lat="46.07442" lon="3.70988">
        <ele>564</ele>
        <time>2011-07-09T10:42:22Z</time>
      </trkpt>
      <trkpt lat="46.07439" lon="3.70992">
        <ele>564</ele>
        <time>2011-07-09T10:42:30Z</time>
      </trkpt>
      <trkpt lat="46.07439" lon="3.70992">
        <ele>564</ele>
        <time>2011-07-09T10:42:43Z</time>
      </trkpt>
      <trkpt lat="46.07439" lon="3.70992">
        <ele>564</ele>
        <time>2011-07-09T10:43:00Z</time>
      </trkpt>
      <trkpt lat="46.0744" lon="3.70993">
        <ele>564</ele>
        <time>2011-07-09T10:43:14Z</time>
      </trkpt>
      <trkpt lat="46.0744" lon="3.70993">
        <ele>564</ele>
        <time>2011-07-09T10:43:30Z</time>
      </trkpt>
      <trkpt lat="46.0744" lon="3.70993">
        <ele>564</ele>
        <time>2011-07-09T10:43:45Z</time>
      </trkpt>
      <trkpt lat="46.0744" lon="3.70993">
        <ele>564</ele>
        <time>2011-07-09T10:43:58Z</time>
      </trkpt>
      <trkpt lat="46.0744" lon="3.70993">
        <ele>564</ele>
        <time>2011-07-09T10:44:12Z</time>
      </trkpt>
      <trkpt lat="46.0744" lon="3.70993">
        <ele>564</ele>
        <time>2011-07-09T10:44:23Z</time>
      </trkpt>
      <trkpt lat="46.07442" lon="3.70999">
        <ele>564</ele>
        <time>2011-07-09T10:44:27Z</time>
      </trkpt>
      <trkpt lat="46.0745" lon="3.71021">
        <ele>564</ele>
        <time>2011-07-09T10:44:34Z</time>
      </trkpt>
      <trkpt lat="46.07454" lon="3.71029">
        <ele>564</ele>
        <time>2011-07-09T10:44:37Z</time>
      </trkpt>
      <trkpt lat="46.07459" lon="3.71049">
        <ele>564</ele>
        <time>2011-07-09T10:44:43Z</time>
      </trkpt>
      <trkpt lat="46.07462" lon="3.7106">
        <ele>564</ele>
        <time>2011-07-09T10:44:46Z</time>
      </trkpt>
      <trkpt lat="46.07467" lon="3.71066">
        <ele>564</ele>
        <time>2011-07-09T10:44:49Z</time>
      </trkpt>
      <trkpt lat="46.07492" lon="3.71067">
        <ele>565</ele>
        <time>2011-07-09T10:44:57Z</time>
      </trkpt>
      <trkpt lat="46.07515" lon="3.71051">
        <ele>566</ele>
        <time>2011-07-09T10:45:04Z</time>
      </trkpt>
      <trkpt lat="46.07528" lon="3.71037">
        <ele>567</ele>
        <time>2011-07-09T10:45:10Z</time>
      </trkpt>
      <trkpt lat="46.07544" lon="3.71026">
        <ele>569</ele>
        <time>2011-07-09T10:45:17Z</time>
      </trkpt>
      <trkpt lat="46.07552" lon="3.71019">
        <ele>570</ele>
        <time>2011-07-09T10:45:21Z</time>
      </trkpt>
      <trkpt lat="46.07558" lon="3.71017">
        <ele>571</ele>
        <time>2011-07-09T10:45:24Z</time>
      </trkpt>
      <trkpt lat="46.07574" lon="3.71018">
        <ele>573</ele>
        <time>2011-07-09T10:45:31Z</time>
      </trkpt>
      <trkpt lat="46.07586" lon="3.71022">
        <ele>575</ele>
        <time>2011-07-09T10:45:37Z</time>
      </trkpt>
      <trkpt lat="46.07593" lon="3.71022">
        <ele>576</ele>
        <time>2011-07-09T10:45:41Z</time>
      </trkpt>
      <trkpt lat="46.07599" lon="3.71026">
        <ele>577</ele>
        <time>2011-07-09T10:45:47Z</time>
      </trkpt>
      <trkpt lat="46.07603" lon="3.71027">
        <ele>578</ele>
        <time>2011-07-09T10:45:50Z</time>
      </trkpt>
      <trkpt lat="46.0761" lon="3.71034">
        <ele>579</ele>
        <time>2011-07-09T10:45:57Z</time>
      </trkpt>
      <trkpt lat="46.07617" lon="3.71039">
        <ele>581</ele>
        <time>2011-07-09T10:46:03Z</time>
      </trkpt>
      <trkpt lat="46.07625" lon="3.71048">
        <ele>582</ele>
        <time>2011-07-09T10:46:11Z</time>
      </trkpt>
      <trkpt lat="46.07629" lon="3.71051">
        <ele>583</ele>
        <time>2011-07-09T10:46:14Z</time>
      </trkpt>
      <trkpt lat="46.07638" lon="3.71065">
        <ele>585</ele>
        <time>2011-07-09T10:46:23Z</time>
      </trkpt>
      <trkpt lat="46.0765" lon="3.71076">
        <ele>587</ele>
        <time>2011-07-09T10:46:31Z</time>
      </trkpt>
      <trkpt lat="46.07653" lon="3.7108">
        <ele>587</ele>
        <time>2011-07-09T10:46:34Z</time>
      </trkpt>
      <trkpt lat="46.0766" lon="3.71088">
        <ele>589</ele>
        <time>2011-07-09T10:46:39Z</time>
      </trkpt>
      <trkpt lat="46.07665" lon="3.71096">
        <ele>590</ele>
        <time>2011-07-09T10:46:43Z</time>
      </trkpt>
      <trkpt lat="46.07673" lon="3.7111">
        <ele>592</ele>
        <time>2011-07-09T10:46:51Z</time>
      </trkpt>
      <trkpt lat="46.07676" lon="3.71123">
        <ele>594</ele>
        <time>2011-07-09T10:46:58Z</time>
      </trkpt>
      <trkpt lat="46.07681" lon="3.71135">
        <ele>595</ele>
        <time>2011-07-09T10:47:04Z</time>
      </trkpt>
      <trkpt lat="46.07682" lon="3.71139">
        <ele>596</ele>
        <time>2011-07-09T10:47:06Z</time>
      </trkpt>
      <trkpt lat="46.07685" lon="3.71151">
        <ele>597</ele>
        <time>2011-07-09T10:47:11Z</time>
      </trkpt>
      <trkpt lat="46.07684" lon="3.7116">
        <ele>598</ele>
        <time>2011-07-09T10:47:18Z</time>
      </trkpt>
      <trkpt lat="46.07684" lon="3.71161">
        <ele>598</ele>
        <time>2011-07-09T10:47:19Z</time>
      </trkpt>
      <trkpt lat="46.07674" lon="3.71169">
        <ele>600</ele>
        <time>2011-07-09T10:47:28Z</time>
      </trkpt>
      <trkpt lat="46.07664" lon="3.71174">
        <ele>601</ele>
        <time>2011-07-09T10:47:36Z</time>
      </trkpt>
      <trkpt lat="46.07653" lon="3.71178">
        <ele>603</ele>
        <time>2011-07-09T10:47:43Z</time>
      </trkpt>
      <trkpt lat="46.07646" lon="3.71183">
        <ele>604</ele>
        <time>2011-07-09T10:47:50Z</time>
      </trkpt>
      <trkpt lat="46.07641" lon="3.71184">
        <ele>604</ele>
        <time>2011-07-09T10:47:53Z</time>
      </trkpt>
      <trkpt lat="46.07632" lon="3.71192">
        <ele>606</ele>
        <time>2011-07-09T10:48:01Z</time>
      </trkpt>
      <trkpt lat="46.0762" lon="3.71198">
        <ele>608</ele>
        <time>2011-07-09T10:48:08Z</time>
      </trkpt>
      <trkpt lat="46.07613" lon="3.71206">
        <ele>609</ele>
        <time>2011-07-09T10:48:15Z</time>
      </trkpt>
      <trkpt lat="46.0761" lon="3.7121">
        <ele>609</ele>
        <time>2011-07-09T10:48:22Z</time>
      </trkpt>
      <trkpt lat="46.0761" lon="3.7121">
        <ele>609</ele>
        <time>2011-07-09T10:48:37Z</time>
      </trkpt>
      <trkpt lat="46.0761" lon="3.7121">
        <ele>609</ele>
        <time>2011-07-09T10:48:54Z</time>
      </trkpt>
      <trkpt lat="46.0761" lon="3.7121">
        <ele>609</ele>
        <time>2011-07-09T10:49:13Z</time>
      </trkpt>
      <trkpt lat="46.07607" lon="3.71217">
        <ele>609</ele>
        <time>2011-07-09T10:49:18Z</time>
      </trkpt>
      <trkpt lat="46.07604" lon="3.71222">
        <ele>610</ele>
        <time>2011-07-09T10:49:24Z</time>
      </trkpt>
      <trkpt lat="46.07604" lon="3.71222">
        <ele>610</ele>
        <time>2011-07-09T10:49:38Z</time>
      </trkpt>
      <trkpt lat="46.07604" lon="3.71225">
        <ele>610</ele>
        <time>2011-07-09T10:49:49Z</time>
      </trkpt>
      <trkpt lat="46.07602" lon="3.71228">
        <ele>610</ele>
        <time>2011-07-09T10:49:50Z</time>
      </trkpt>
      <trkpt lat="46.07598" lon="3.71237">
        <ele>611</ele>
        <time>2011-07-09T10:49:57Z</time>
      </trkpt>
      <trkpt lat="46.07587" lon="3.71253">
        <ele>613</ele>
        <time>2011-07-09T10:50:05Z</time>
      </trkpt>
      <trkpt lat="46.0758" lon="3.7126">
        <ele>614</ele>
        <time>2011-07-09T10:50:11Z</time>
      </trkpt>
      <trkpt lat="46.07579" lon="3.71263">
        <ele>615</ele>
        <time>2011-07-09T10:50:12Z</time>
      </trkpt>
      <trkpt lat="46.07571" lon="3.71282">
        <ele>617</ele>
        <time>2011-07-09T10:50:19Z</time>
      </trkpt>
      <trkpt lat="46.07562" lon="3.71298">
        <ele>619</ele>
        <time>2011-07-09T10:50:27Z</time>
      </trkpt>
      <trkpt lat="46.07557" lon="3.71308">
        <ele>621</ele>
        <time>2011-07-09T10:50:32Z</time>
      </trkpt>
      <trkpt lat="46.07552" lon="3.7132">
        <ele>622</ele>
        <time>2011-07-09T10:50:38Z</time>
      </trkpt>
      <trkpt lat="46.07549" lon="3.71326">
        <ele>623</ele>
        <time>2011-07-09T10:50:41Z</time>
      </trkpt>
      <trkpt lat="46.07547" lon="3.71333">
        <ele>624</ele>
        <time>2011-07-09T10:50:44Z</time>
      </trkpt>
      <trkpt lat="46.07544" lon="3.71339">
        <ele>625</ele>
        <time>2011-07-09T10:50:48Z</time>
      </trkpt>
      <trkpt lat="46.07535" lon="3.71359">
        <ele>626</ele>
        <time>2011-07-09T10:50:57Z</time>
      </trkpt>
      <trkpt lat="46.07533" lon="3.71368">
        <ele>627</ele>
        <time>2011-07-09T10:51:01Z</time>
      </trkpt>
      <trkpt lat="46.07532" lon="3.7139">
        <ele>629</ele>
        <time>2011-07-09T10:51:10Z</time>
      </trkpt>
      <trkpt lat="46.07527" lon="3.71405">
        <ele>631</ele>
        <time>2011-07-09T10:51:18Z</time>
      </trkpt>
      <trkpt lat="46.0752" lon="3.71422">
        <ele>633</ele>
        <time>2011-07-09T10:51:25Z</time>
      </trkpt>
      <trkpt lat="46.07514" lon="3.71441">
        <ele>634</ele>
        <time>2011-07-09T10:51:33Z</time>
      </trkpt>
      <trkpt lat="46.07513" lon="3.7145">
        <ele>634</ele>
        <time>2011-07-09T10:51:37Z</time>
      </trkpt>
      <trkpt lat="46.07509" lon="3.71476">
        <ele>633</ele>
        <time>2011-07-09T10:51:44Z</time>
      </trkpt>
      <trkpt lat="46.07508" lon="3.71482">
        <ele>633</ele>
        <time>2011-07-09T10:51:45Z</time>
      </trkpt>
      <trkpt lat="46.07507" lon="3.71489">
        <ele>633</ele>
        <time>2011-07-09T10:51:46Z</time>
      </trkpt>
      <trkpt lat="46.07504" lon="3.71494">
        <ele>633</ele>
        <time>2011-07-09T10:51:47Z</time>
      </trkpt>
      <trkpt lat="46.07501" lon="3.71502">
        <ele>634</ele>
        <time>2011-07-09T10:51:48Z</time>
      </trkpt>
      <trkpt lat="46.07497" lon="3.71513">
        <ele>634</ele>
        <time>2011-07-09T10:51:50Z</time>
      </trkpt>
      <trkpt lat="46.07496" lon="3.71518">
        <ele>634</ele>
        <time>2011-07-09T10:51:51Z</time>
      </trkpt>
      <trkpt lat="46.07495" lon="3.71523">
        <ele>634</ele>
        <time>2011-07-09T10:51:52Z</time>
      </trkpt>
      <trkpt lat="46.07494" lon="3.71528">
        <ele>634</ele>
        <time>2011-07-09T10:51:53Z</time>
      </trkpt>
      <trkpt lat="46.07493" lon="3.71533">
        <ele>634</ele>
        <time>2011-07-09T10:51:54Z</time>
      </trkpt>
      <trkpt lat="46.07491" lon="3.71538">
        <ele>634</ele>
        <time>2011-07-09T10:51:55Z</time>
      </trkpt>
      <trkpt lat="46.07489" lon="3.71542">
        <ele>634</ele>
        <time>2011-07-09T10:51:56Z</time>
      </trkpt>
      <trkpt lat="46.07488" lon="3.71546">
        <ele>634</ele>
        <time>2011-07-09T10:51:57Z</time>
      </trkpt>
      <trkpt lat="46.07485" lon="3.7155">
        <ele>635</ele>
        <time>2011-07-09T10:51:58Z</time>
      </trkpt>
      <trkpt lat="46.07484" lon="3.71554">
        <ele>635</ele>
        <time>2011-07-09T10:51:59Z</time>
      </trkpt>
      <trkpt lat="46.07481" lon="3.71559">
        <ele>636</ele>
        <time>2011-07-09T10:52:00Z</time>
      </trkpt>
      <trkpt lat="46.0748" lon="3.71562">
        <ele>636</ele>
        <time>2011-07-09T10:52:01Z</time>
      </trkpt>
      <trkpt lat="46.07479" lon="3.71566">
        <ele>636</ele>
        <time>2011-07-09T10:52:02Z</time>
      </trkpt>
      <trkpt lat="46.07478" lon="3.71571">
        <ele>636</ele>
        <time>2011-07-09T10:52:03Z</time>
      </trkpt>
      <trkpt lat="46.07477" lon="3.71574">
        <ele>636</ele>
        <time>2011-07-09T10:52:04Z</time>
      </trkpt>
      <trkpt lat="46.07476" lon="3.71577">
        <ele>636</ele>
        <time>2011-07-09T10:52:05Z</time>
      </trkpt>
      <trkpt lat="46.07473" lon="3.71598">
        <ele>637</ele>
        <time>2011-07-09T10:52:11Z</time>
      </trkpt>
      <trkpt lat="46.07476" lon="3.71621">
        <ele>639</ele>
        <time>2011-07-09T10:52:19Z</time>
      </trkpt>
      <trkpt lat="46.07483" lon="3.71637">
        <ele>641</ele>
        <time>2011-07-09T10:52:25Z</time>
      </trkpt>
      <trkpt lat="46.07486" lon="3.71641">
        <ele>641</ele>
        <time>2011-07-09T10:52:27Z</time>
      </trkpt>
      <trkpt lat="46.07491" lon="3.71649">
        <ele>642</ele>
        <time>2011-07-09T10:52:31Z</time>
      </trkpt>
      <trkpt lat="46.07499" lon="3.71659">
        <ele>645</ele>
        <time>2011-07-09T10:52:36Z</time>
      </trkpt>
      <trkpt lat="46.07503" lon="3.71662">
        <ele>645</ele>
        <time>2011-07-09T10:52:42Z</time>
      </trkpt>
      <trkpt lat="46.07506" lon="3.71666">
        <ele>645</ele>
        <time>2011-07-09T10:52:50Z</time>
      </trkpt>
      <trkpt lat="46.0751" lon="3.7167">
        <ele>647</ele>
        <time>2011-07-09T10:53:02Z</time>
      </trkpt>
      <trkpt lat="46.07513" lon="3.71676">
        <ele>648</ele>
        <time>2011-07-09T10:53:07Z</time>
      </trkpt>
      <trkpt lat="46.07515" lon="3.7168">
        <ele>649</ele>
        <time>2011-07-09T10:53:08Z</time>
      </trkpt>
      <trkpt lat="46.07531" lon="3.717">
        <ele>651</ele>
        <time>2011-07-09T10:53:14Z</time>
      </trkpt>
      <trkpt lat="46.07534" lon="3.71702">
        <ele>651</ele>
        <time>2011-07-09T10:53:15Z</time>
      </trkpt>
      <trkpt lat="46.07548" lon="3.71708">
        <ele>654</ele>
        <time>2011-07-09T10:53:21Z</time>
      </trkpt>
      <trkpt lat="46.07558" lon="3.71723">
        <ele>656</ele>
        <time>2011-07-09T10:53:28Z</time>
      </trkpt>
      <trkpt lat="46.07565" lon="3.71729">
        <ele>658</ele>
        <time>2011-07-09T10:53:31Z</time>
      </trkpt>
      <trkpt lat="46.07575" lon="3.71739">
        <ele>659</ele>
        <time>2011-07-09T10:53:38Z</time>
      </trkpt>
      <trkpt lat="46.07576" lon="3.71744">
        <ele>660</ele>
        <time>2011-07-09T10:53:40Z</time>
      </trkpt>
      <trkpt lat="46.07578" lon="3.71757">
        <ele>662</ele>
        <time>2011-07-09T10:53:46Z</time>
      </trkpt>
      <trkpt lat="46.07581" lon="3.7176">
        <ele>662</ele>
        <time>2011-07-09T10:53:52Z</time>
      </trkpt>
      <trkpt lat="46.07581" lon="3.7176">
        <ele>662</ele>
        <time>2011-07-09T10:54:02Z</time>
      </trkpt>
      <trkpt lat="46.07581" lon="3.71761">
        <ele>662</ele>
        <time>2011-07-09T10:54:06Z</time>
      </trkpt>
      <trkpt lat="46.07581" lon="3.71772">
        <ele>664</ele>
        <time>2011-07-09T10:54:13Z</time>
      </trkpt>
      <trkpt lat="46.07577" lon="3.71784">
        <ele>665</ele>
        <time>2011-07-09T10:54:20Z</time>
      </trkpt>
      <trkpt lat="46.07572" lon="3.71794">
        <ele>667</ele>
        <time>2011-07-09T10:54:27Z</time>
      </trkpt>
      <trkpt lat="46.07567" lon="3.71798">
        <ele>669</ele>
        <time>2011-07-09T10:54:32Z</time>
      </trkpt>
      <trkpt lat="46.07567" lon="3.71799">
        <ele>669</ele>
        <time>2011-07-09T10:54:33Z</time>
      </trkpt>
      <trkpt lat="46.07564" lon="3.71803">
        <ele>670</ele>
        <time>2011-07-09T10:54:37Z</time>
      </trkpt>
      <trkpt lat="46.07558" lon="3.71805">
        <ele>671</ele>
        <time>2011-07-09T10:54:42Z</time>
      </trkpt>
      <trkpt lat="46.07557" lon="3.71804">
        <ele>671</ele>
        <time>2011-07-09T10:54:44Z</time>
      </trkpt>
      <trkpt lat="46.07546" lon="3.71814">
        <ele>674</ele>
        <time>2011-07-09T10:54:52Z</time>
      </trkpt>
      <trkpt lat="46.07541" lon="3.71822">
        <ele>675</ele>
        <time>2011-07-09T10:54:56Z</time>
      </trkpt>
      <trkpt lat="46.07536" lon="3.71833">
        <ele>677</ele>
        <time>2011-07-09T10:55:01Z</time>
      </trkpt>
      <trkpt lat="46.07534" lon="3.71839">
        <ele>678</ele>
        <time>2011-07-09T10:55:04Z</time>
      </trkpt>
      <trkpt lat="46.07531" lon="3.71853">
        <ele>679</ele>
        <time>2011-07-09T10:55:11Z</time>
      </trkpt>
      <trkpt lat="46.07531" lon="3.71855">
        <ele>680</ele>
        <time>2011-07-09T10:55:12Z</time>
      </trkpt>
      <trkpt lat="46.07528" lon="3.71869">
        <ele>681</ele>
        <time>2011-07-09T10:55:19Z</time>
      </trkpt>
      <trkpt lat="46.07526" lon="3.71877">
        <ele>682</ele>
        <time>2011-07-09T10:55:23Z</time>
      </trkpt>
      <trkpt lat="46.07522" lon="3.71895">
        <ele>683</ele>
        <time>2011-07-09T10:55:31Z</time>
      </trkpt>
      <trkpt lat="46.07521" lon="3.71899">
        <ele>683</ele>
        <time>2011-07-09T10:55:33Z</time>
      </trkpt>
      <trkpt lat="46.07517" lon="3.71912">
        <ele>684</ele>
        <time>2011-07-09T10:55:42Z</time>
      </trkpt>
      <trkpt lat="46.07517" lon="3.71912">
        <ele>684</ele>
        <time>2011-07-09T10:55:54Z</time>
      </trkpt>
      <trkpt lat="46.07517" lon="3.71912">
        <ele>685</ele>
        <time>2011-07-09T10:56:06Z</time>
      </trkpt>
      <trkpt lat="46.07517" lon="3.71912">
        <ele>685</ele>
        <time>2011-07-09T10:56:20Z</time>
      </trkpt>
      <trkpt lat="46.07517" lon="3.71912">
        <ele>685</ele>
        <time>2011-07-09T10:56:33Z</time>
      </trkpt>
      <trkpt lat="46.07517" lon="3.71912">
        <ele>685</ele>
        <time>2011-07-09T10:56:51Z</time>
      </trkpt>
      <trkpt lat="46.07517" lon="3.71912">
        <ele>685</ele>
        <time>2011-07-09T10:56:59Z</time>
      </trkpt>
      <trkpt lat="46.07517" lon="3.71912">
        <ele>685</ele>
        <time>2011-07-09T10:57:15Z</time>
      </trkpt>
      <trkpt lat="46.07517" lon="3.71912">
        <ele>686</ele>
        <time>2011-07-09T10:57:31Z</time>
      </trkpt>
      <trkpt lat="46.07517" lon="3.71912">
        <ele>686</ele>
        <time>2011-07-09T10:57:48Z</time>
      </trkpt>
      <trkpt lat="46.07517" lon="3.71912">
        <ele>686</ele>
        <time>2011-07-09T10:58:07Z</time>
      </trkpt>
      <trkpt lat="46.07517" lon="3.71912">
        <ele>686</ele>
        <time>2011-07-09T10:58:22Z</time>
      </trkpt>
      <trkpt lat="46.07517" lon="3.71912">
        <ele>686</ele>
        <time>2011-07-09T10:58:37Z</time>
      </trkpt>
      <trkpt lat="46.07517" lon="3.71912">
        <ele>687</ele>
        <time>2011-07-09T10:58:49Z</time>
      </trkpt>
      <trkpt lat="46.07517" lon="3.71912">
        <ele>687</ele>
        <time>2011-07-09T10:59:02Z</time>
      </trkpt>
      <trkpt lat="46.07517" lon="3.71912">
        <ele>687</ele>
        <time>2011-07-09T10:59:09Z</time>
      </trkpt>
      <trkpt lat="46.07515" lon="3.71918">
        <ele>687</ele>
        <time>2011-07-09T10:59:12Z</time>
      </trkpt>
      <trkpt lat="46.07512" lon="3.71931">
        <ele>687</ele>
        <time>2011-07-09T10:59:17Z</time>
      </trkpt>
      <trkpt lat="46.07507" lon="3.71948">
        <ele>687</ele>
        <time>2011-07-09T10:59:23Z</time>
      </trkpt>
      <trkpt lat="46.075" lon="3.71978">
        <ele>686</ele>
        <time>2011-07-09T10:59:31Z</time>
      </trkpt>
      <trkpt lat="46.07489" lon="3.72005">
        <ele>685</ele>
        <time>2011-07-09T10:59:38Z</time>
      </trkpt>
      <trkpt lat="46.07476" lon="3.72015">
        <ele>683</ele>
        <time>2011-07-09T10:59:43Z</time>
      </trkpt>
      <trkpt lat="46.07473" lon="3.72017">
        <ele>682</ele>
        <time>2011-07-09T10:59:44Z</time>
      </trkpt>
      <trkpt lat="46.07447" lon="3.72037">
        <ele>679</ele>
        <time>2011-07-09T10:59:54Z</time>
      </trkpt>
      <trkpt lat="46.07425" lon="3.72076">
        <ele>679</ele>
        <time>2011-07-09T10:59:59Z</time>
      </trkpt>
      <trkpt lat="46.07412" lon="3.72093">
        <ele>679</ele>
        <time>2011-07-09T11:00:03Z</time>
      </trkpt>
      <trkpt lat="46.07406" lon="3.72097">
        <ele>678</ele>
        <time>2011-07-09T11:00:04Z</time>
      </trkpt>
      <trkpt lat="46.07402" lon="3.72104">
        <ele>678</ele>
        <time>2011-07-09T11:00:05Z</time>
      </trkpt>
      <trkpt lat="46.07378" lon="3.72138">
        <ele>678</ele>
        <time>2011-07-09T11:00:12Z</time>
      </trkpt>
      <trkpt lat="46.07367" lon="3.72155">
        <ele>677</ele>
        <time>2011-07-09T11:00:17Z</time>
      </trkpt>
      <trkpt lat="46.0735" lon="3.7218">
        <ele>676</ele>
        <time>2011-07-09T11:00:23Z</time>
      </trkpt>
      <trkpt lat="46.07346" lon="3.72186">
        <ele>676</ele>
        <time>2011-07-09T11:00:24Z</time>
      </trkpt>
      <trkpt lat="46.07333" lon="3.72206">
        <ele>674</ele>
        <time>2011-07-09T11:00:27Z</time>
      </trkpt>
      <trkpt lat="46.07312" lon="3.72239">
        <ele>674</ele>
        <time>2011-07-09T11:00:32Z</time>
      </trkpt>
      <trkpt lat="46.07295" lon="3.72271">
        <ele>674</ele>
        <time>2011-07-09T11:00:38Z</time>
      </trkpt>
      <trkpt lat="46.0728" lon="3.72292">
        <ele>672</ele>
        <time>2011-07-09T11:00:43Z</time>
      </trkpt>
      <trkpt lat="46.07271" lon="3.72316">
        <ele>671</ele>
        <time>2011-07-09T11:00:47Z</time>
      </trkpt>
      <trkpt lat="46.07269" lon="3.72323">
        <ele>671</ele>
        <time>2011-07-09T11:00:48Z</time>
      </trkpt>
      <trkpt lat="46.07264" lon="3.72353">
        <ele>671</ele>
        <time>2011-07-09T11:00:53Z</time>
      </trkpt>
      <trkpt lat="46.07263" lon="3.72379">
        <ele>673</ele>
        <time>2011-07-09T11:00:58Z</time>
      </trkpt>
      <trkpt lat="46.07262" lon="3.72391">
        <ele>674</ele>
        <time>2011-07-09T11:01:01Z</time>
      </trkpt>
      <trkpt lat="46.07262" lon="3.72395">
        <ele>674</ele>
        <time>2011-07-09T11:01:02Z</time>
      </trkpt>
      <trkpt lat="46.07262" lon="3.72398">
        <ele>674</ele>
        <time>2011-07-09T11:01:03Z</time>
      </trkpt>
      <trkpt lat="46.07262" lon="3.72402">
        <ele>674</ele>
        <time>2011-07-09T11:01:04Z</time>
      </trkpt>
      <trkpt lat="46.07263" lon="3.72405">
        <ele>674</ele>
        <time>2011-07-09T11:01:05Z</time>
      </trkpt>
      <trkpt lat="46.07263" lon="3.72408">
        <ele>674</ele>
        <time>2011-07-09T11:01:06Z</time>
      </trkpt>
      <trkpt lat="46.07263" lon="3.72412">
        <ele>674</ele>
        <time>2011-07-09T11:01:07Z</time>
      </trkpt>
      <trkpt lat="46.07263" lon="3.72415">
        <ele>674</ele>
        <time>2011-07-09T11:01:08Z</time>
      </trkpt>
      <trkpt lat="46.07263" lon="3.72419">
        <ele>675</ele>
        <time>2011-07-09T11:01:09Z</time>
      </trkpt>
      <trkpt lat="46.07263" lon="3.72423">
        <ele>675</ele>
        <time>2011-07-09T11:01:10Z</time>
      </trkpt>
      <trkpt lat="46.07263" lon="3.72425">
        <ele>674</ele>
        <time>2011-07-09T11:01:11Z</time>
      </trkpt>
      <trkpt lat="46.07262" lon="3.72429">
        <ele>674</ele>
        <time>2011-07-09T11:01:12Z</time>
      </trkpt>
      <trkpt lat="46.07257" lon="3.72451">
        <ele>676</ele>
        <time>2011-07-09T11:01:18Z</time>
      </trkpt>
      <trkpt lat="46.07251" lon="3.72473">
        <ele>677</ele>
        <time>2011-07-09T11:01:24Z</time>
      </trkpt>
      <trkpt lat="46.07247" lon="3.7248">
        <ele>676</ele>
        <time>2011-07-09T11:01:26Z</time>
      </trkpt>
      <trkpt lat="46.07241" lon="3.72514">
        <ele>677</ele>
        <time>2011-07-09T11:01:35Z</time>
      </trkpt>
      <trkpt lat="46.07238" lon="3.72525">
        <ele>678</ele>
        <time>2011-07-09T11:01:40Z</time>
      </trkpt>
      <trkpt lat="46.0724" lon="3.7253">
        <ele>678</ele>
        <time>2011-07-09T11:01:42Z</time>
      </trkpt>
      <trkpt lat="46.0726" lon="3.72548">
        <ele>677</ele>
        <time>2011-07-09T11:01:48Z</time>
      </trkpt>
      <trkpt lat="46.07268" lon="3.72553">
        <ele>676</ele>
        <time>2011-07-09T11:01:49Z</time>
      </trkpt>
      <trkpt lat="46.07276" lon="3.72556">
        <ele>676</ele>
        <time>2011-07-09T11:01:51Z</time>
      </trkpt>
      <trkpt lat="46.0729" lon="3.72548">
        <ele>676</ele>
        <time>2011-07-09T11:01:56Z</time>
      </trkpt>
      <trkpt lat="46.07303" lon="3.7254">
        <ele>677</ele>
        <time>2011-07-09T11:02:02Z</time>
      </trkpt>
      <trkpt lat="46.07317" lon="3.72536">
        <ele>679</ele>
        <time>2011-07-09T11:02:08Z</time>
      </trkpt>
      <trkpt lat="46.07328" lon="3.72533">
        <ele>680</ele>
        <time>2011-07-09T11:02:14Z</time>
      </trkpt>
      <trkpt lat="46.07343" lon="3.72535">
        <ele>681</ele>
        <time>2011-07-09T11:02:21Z</time>
      </trkpt>
      <trkpt lat="46.07346" lon="3.72536">
        <ele>681</ele>
        <time>2011-07-09T11:02:23Z</time>
      </trkpt>
      <trkpt lat="46.07351" lon="3.72539">
        <ele>681</ele>
        <time>2011-07-09T11:02:26Z</time>
      </trkpt>
      <trkpt lat="46.07372" lon="3.72548">
        <ele>682</ele>
        <time>2011-07-09T11:02:35Z</time>
      </trkpt>
      <trkpt lat="46.07386" lon="3.72558">
        <ele>683</ele>
        <time>2011-07-09T11:02:41Z</time>
      </trkpt>
      <trkpt lat="46.07402" lon="3.72568">
        <ele>684</ele>
        <time>2011-07-09T11:02:48Z</time>
      </trkpt>
      <trkpt lat="46.07421" lon="3.72569">
        <ele>684</ele>
        <time>2011-07-09T11:02:56Z</time>
      </trkpt>
      <trkpt lat="46.07434" lon="3.72564">
        <ele>684</ele>
        <time>2011-07-09T11:03:02Z</time>
      </trkpt>
      <trkpt lat="46.0745" lon="3.72556">
        <ele>684</ele>
        <time>2011-07-09T11:03:07Z</time>
      </trkpt>
      <trkpt lat="46.07467" lon="3.72553">
        <ele>684</ele>
        <time>2011-07-09T11:03:12Z</time>
      </trkpt>
      <trkpt lat="46.07471" lon="3.72552">
        <ele>684</ele>
        <time>2011-07-09T11:03:13Z</time>
      </trkpt>
      <trkpt lat="46.07478" lon="3.72554">
        <ele>684</ele>
        <time>2011-07-09T11:03:15Z</time>
      </trkpt>
      <trkpt lat="46.07495" lon="3.72539">
        <ele>683</ele>
        <time>2011-07-09T11:03:21Z</time>
      </trkpt>
      <trkpt lat="46.07513" lon="3.72526">
        <ele>683</ele>
        <time>2011-07-09T11:03:27Z</time>
      </trkpt>
      <trkpt lat="46.07536" lon="3.72515">
        <ele>683</ele>
        <time>2011-07-09T11:03:33Z</time>
      </trkpt>
      <trkpt lat="46.07557" lon="3.72505">
        <ele>683</ele>
        <time>2011-07-09T11:03:38Z</time>
      </trkpt>
      <trkpt lat="46.07588" lon="3.72486">
        <ele>683</ele>
        <time>2011-07-09T11:03:45Z</time>
      </trkpt>
      <trkpt lat="46.07619" lon="3.72467">
        <ele>683</ele>
        <time>2011-07-09T11:03:52Z</time>
      </trkpt>
      <trkpt lat="46.07623" lon="3.72465">
        <ele>683</ele>
        <time>2011-07-09T11:03:53Z</time>
      </trkpt>
      <trkpt lat="46.07628" lon="3.72463">
        <ele>684</ele>
        <time>2011-07-09T11:03:54Z</time>
      </trkpt>
      <trkpt lat="46.07649" lon="3.72456">
        <ele>684</ele>
        <time>2011-07-09T11:03:59Z</time>
      </trkpt>
      <trkpt lat="46.07663" lon="3.72443">
        <ele>685</ele>
        <time>2011-07-09T11:04:04Z</time>
      </trkpt>
      <trkpt lat="46.07682" lon="3.72438">
        <ele>686</ele>
        <time>2011-07-09T11:04:09Z</time>
      </trkpt>
      <trkpt lat="46.07706" lon="3.7243">
        <ele>687</ele>
        <time>2011-07-09T11:04:17Z</time>
      </trkpt>
      <trkpt lat="46.07719" lon="3.72425">
        <ele>687</ele>
        <time>2011-07-09T11:04:22Z</time>
      </trkpt>
      <trkpt lat="46.07735" lon="3.72417">
        <ele>687</ele>
        <time>2011-07-09T11:04:30Z</time>
      </trkpt>
      <trkpt lat="46.0776" lon="3.72404">
        <ele>688</ele>
        <time>2011-07-09T11:04:37Z</time>
      </trkpt>
      <trkpt lat="46.07768" lon="3.72401">
        <ele>688</ele>
        <time>2011-07-09T11:04:40Z</time>
      </trkpt>
      <trkpt lat="46.07794" lon="3.72393">
        <ele>689</ele>
        <time>2011-07-09T11:04:47Z</time>
      </trkpt>
      <trkpt lat="46.07812" lon="3.7239">
        <ele>692</ele>
        <time>2011-07-09T11:04:53Z</time>
      </trkpt>
      <trkpt lat="46.07827" lon="3.72386">
        <ele>694</ele>
        <time>2011-07-09T11:04:59Z</time>
      </trkpt>
      <trkpt lat="46.07845" lon="3.72387">
        <ele>696</ele>
        <time>2011-07-09T11:05:05Z</time>
      </trkpt>
      <trkpt lat="46.07856" lon="3.72386">
        <ele>698</ele>
        <time>2011-07-09T11:05:08Z</time>
      </trkpt>
      <trkpt lat="46.07874" lon="3.72382">
        <ele>700</ele>
        <time>2011-07-09T11:05:13Z</time>
      </trkpt>
      <trkpt lat="46.0789" lon="3.72373">
        <ele>701</ele>
        <time>2011-07-09T11:05:18Z</time>
      </trkpt>
      <trkpt lat="46.07914" lon="3.7236">
        <ele>703</ele>
        <time>2011-07-09T11:05:26Z</time>
      </trkpt>
      <trkpt lat="46.07937" lon="3.72349">
        <ele>703</ele>
        <time>2011-07-09T11:05:35Z</time>
      </trkpt>
      <trkpt lat="46.07953" lon="3.72345">
        <ele>703</ele>
        <time>2011-07-09T11:05:43Z</time>
      </trkpt>
      <trkpt lat="46.07955" lon="3.72345">
        <ele>703</ele>
        <time>2011-07-09T11:05:50Z</time>
      </trkpt>
      <trkpt lat="46.07958" lon="3.72344">
        <ele>703</ele>
        <time>2011-07-09T11:05:55Z</time>
      </trkpt>
      <trkpt lat="46.07958" lon="3.72344">
        <ele>703</ele>
        <time>2011-07-09T11:06:03Z</time>
      </trkpt>
      <trkpt lat="46.07958" lon="3.72344">
        <ele>703</ele>
        <time>2011-07-09T11:06:17Z</time>
      </trkpt>
      <trkpt lat="46.07958" lon="3.72344">
        <ele>703</ele>
        <time>2011-07-09T11:06:36Z</time>
      </trkpt>
      <trkpt lat="46.07958" lon="3.72344">
        <ele>703</ele>
        <time>2011-07-09T11:06:49Z</time>
      </trkpt>
      <trkpt lat="46.07958" lon="3.72344">
        <ele>704</ele>
        <time>2011-07-09T11:07:06Z</time>
      </trkpt>
      <trkpt lat="46.07958" lon="3.72344">
        <ele>704</ele>
        <time>2011-07-09T11:07:24Z</time>
      </trkpt>
      <trkpt lat="46.07958" lon="3.72344">
        <ele>704</ele>
        <time>2011-07-09T11:07:39Z</time>
      </trkpt>
      <trkpt lat="46.07959" lon="3.72344">
        <ele>704</ele>
        <time>2011-07-09T11:07:52Z</time>
      </trkpt>
      <trkpt lat="46.07959" lon="3.72344">
        <ele>704</ele>
        <time>2011-07-09T11:08:06Z</time>
      </trkpt>
      <trkpt lat="46.07959" lon="3.72344">
        <ele>704</ele>
        <time>2011-07-09T11:08:22Z</time>
      </trkpt>
      <trkpt lat="46.07959" lon="3.72344">
        <ele>704</ele>
        <time>2011-07-09T11:08:35Z</time>
      </trkpt>
      <trkpt lat="46.07959" lon="3.72344">
        <ele>704</ele>
        <time>2011-07-09T11:08:49Z</time>
      </trkpt>
      <trkpt lat="46.07959" lon="3.72344">
        <ele>704</ele>
        <time>2011-07-09T11:08:56Z</time>
      </trkpt>
      <trkpt lat="46.0796" lon="3.72343">
        <ele>704</ele>
        <time>2011-07-09T11:09:03Z</time>
      </trkpt>
      <trkpt lat="46.0796" lon="3.72343">
        <ele>704</ele>
        <time>2011-07-09T11:09:13Z</time>
      </trkpt>
      <trkpt lat="46.0796" lon="3.72343">
        <ele>704</ele>
        <time>2011-07-09T11:09:24Z</time>
      </trkpt>
      <trkpt lat="46.0796" lon="3.72344">
        <ele>704</ele>
        <time>2011-07-09T11:09:35Z</time>
      </trkpt>
      <trkpt lat="46.07961" lon="3.72342">
        <ele>704</ele>
        <time>2011-07-09T11:09:37Z</time>
      </trkpt>
      <trkpt lat="46.07964" lon="3.72341">
        <ele>704</ele>
        <time>2011-07-09T11:09:39Z</time>
      </trkpt>
      <trkpt lat="46.07966" lon="3.72342">
        <ele>704</ele>
        <time>2011-07-09T11:09:40Z</time>
      </trkpt>
      <trkpt lat="46.07968" lon="3.72344">
        <ele>704</ele>
        <time>2011-07-09T11:09:41Z</time>
      </trkpt>
      <trkpt lat="46.07969" lon="3.72346">
        <ele>704</ele>
        <time>2011-07-09T11:09:42Z</time>
      </trkpt>
      <trkpt lat="46.0797" lon="3.72349">
        <ele>704</ele>
        <time>2011-07-09T11:09:43Z</time>
      </trkpt>
      <trkpt lat="46.07971" lon="3.72352">
        <ele>704</ele>
        <time>2011-07-09T11:09:44Z</time>
      </trkpt>
      <trkpt lat="46.07973" lon="3.72354">
        <ele>705</ele>
        <time>2011-07-09T11:09:45Z</time>
      </trkpt>
      <trkpt lat="46.07974" lon="3.72357">
        <ele>705</ele>
        <time>2011-07-09T11:09:46Z</time>
      </trkpt>
      <trkpt lat="46.07974" lon="3.7236">
        <ele>706</ele>
        <time>2011-07-09T11:09:47Z</time>
      </trkpt>
      <trkpt lat="46.07974" lon="3.72363">
        <ele>706</ele>
        <time>2011-07-09T11:09:48Z</time>
      </trkpt>
      <trkpt lat="46.07974" lon="3.72366">
        <ele>706</ele>
        <time>2011-07-09T11:09:49Z</time>
      </trkpt>
      <trkpt lat="46.07974" lon="3.72369">
        <ele>706</ele>
        <time>2011-07-09T11:09:50Z</time>
      </trkpt>
      <trkpt lat="46.07975" lon="3.72373">
        <ele>707</ele>
        <time>2011-07-09T11:09:51Z</time>
      </trkpt>
      <trkpt lat="46.07975" lon="3.72376">
        <ele>707</ele>
        <time>2011-07-09T11:09:52Z</time>
      </trkpt>
      <trkpt lat="46.07975" lon="3.72378">
        <ele>707</ele>
        <time>2011-07-09T11:09:53Z</time>
      </trkpt>
      <trkpt lat="46.07975" lon="3.72381">
        <ele>708</ele>
        <time>2011-07-09T11:09:54Z</time>
      </trkpt>
      <trkpt lat="46.07974" lon="3.72383">
        <ele>708</ele>
        <time>2011-07-09T11:09:55Z</time>
      </trkpt>
      <trkpt lat="46.07974" lon="3.72386">
        <ele>708</ele>
        <time>2011-07-09T11:09:56Z</time>
      </trkpt>
      <trkpt lat="46.0797" lon="3.72405">
        <ele>709</ele>
        <time>2011-07-09T11:10:02Z</time>
      </trkpt>
      <trkpt lat="46.07961" lon="3.72432">
        <ele>710</ele>
        <time>2011-07-09T11:10:11Z</time>
      </trkpt>
      <trkpt lat="46.07957" lon="3.72442">
        <ele>710</ele>
        <time>2011-07-09T11:10:15Z</time>
      </trkpt>
      <trkpt lat="46.07956" lon="3.72445">
        <ele>710</ele>
        <time>2011-07-09T11:10:16Z</time>
      </trkpt>
      <trkpt lat="46.07954" lon="3.72448">
        <ele>711</ele>
        <time>2011-07-09T11:10:17Z</time>
      </trkpt>
      <trkpt lat="46.07953" lon="3.72452">
        <ele>711</ele>
        <time>2011-07-09T11:10:18Z</time>
      </trkpt>
      <trkpt lat="46.07952" lon="3.72455">
        <ele>711</ele>
        <time>2011-07-09T11:10:19Z</time>
      </trkpt>
      <trkpt lat="46.07945" lon="3.72473">
        <ele>712</ele>
        <time>2011-07-09T11:10:26Z</time>
      </trkpt>
      <trkpt lat="46.07937" lon="3.7249">
        <ele>712</ele>
        <time>2011-07-09T11:10:32Z</time>
      </trkpt>
      <trkpt lat="46.07928" lon="3.72507">
        <ele>714</ele>
        <time>2011-07-09T11:10:38Z</time>
      </trkpt>
      <trkpt lat="46.07917" lon="3.72534">
        <ele>716</ele>
        <time>2011-07-09T11:10:46Z</time>
      </trkpt>
      <trkpt lat="46.07915" lon="3.72547">
        <ele>718</ele>
        <time>2011-07-09T11:10:49Z</time>
      </trkpt>
      <trkpt lat="46.07916" lon="3.72552">
        <ele>719</ele>
        <time>2011-07-09T11:10:50Z</time>
      </trkpt>
      <trkpt lat="46.07916" lon="3.72556">
        <ele>720</ele>
        <time>2011-07-09T11:10:51Z</time>
      </trkpt>
      <trkpt lat="46.07913" lon="3.72565">
        <ele>720</ele>
        <time>2011-07-09T11:10:53Z</time>
      </trkpt>
      <trkpt lat="46.07911" lon="3.72575">
        <ele>721</ele>
        <time>2011-07-09T11:10:56Z</time>
      </trkpt>
      <trkpt lat="46.07911" lon="3.72578">
        <ele>722</ele>
        <time>2011-07-09T11:10:57Z</time>
      </trkpt>
      <trkpt lat="46.0791" lon="3.7258">
        <ele>722</ele>
        <time>2011-07-09T11:10:58Z</time>
      </trkpt>
      <trkpt lat="46.07909" lon="3.72583">
        <ele>722</ele>
        <time>2011-07-09T11:10:59Z</time>
      </trkpt>
      <trkpt lat="46.07909" lon="3.72586">
        <ele>722</ele>
        <time>2011-07-09T11:11:00Z</time>
      </trkpt>
      <trkpt lat="46.07909" lon="3.7259">
        <ele>722</ele>
        <time>2011-07-09T11:11:01Z</time>
      </trkpt>
      <trkpt lat="46.07912" lon="3.72615">
        <ele>722</ele>
        <time>2011-07-09T11:11:08Z</time>
      </trkpt>
      <trkpt lat="46.07915" lon="3.72644">
        <ele>722</ele>
        <time>2011-07-09T11:11:14Z</time>
      </trkpt>
      <trkpt lat="46.07915" lon="3.72658">
        <ele>721</ele>
        <time>2011-07-09T11:11:16Z</time>
      </trkpt>
      <trkpt lat="46.07914" lon="3.72675">
        <ele>721</ele>
        <time>2011-07-09T11:11:18Z</time>
      </trkpt>
      <trkpt lat="46.07913" lon="3.72682">
        <ele>720</ele>
        <time>2011-07-09T11:11:19Z</time>
      </trkpt>
      <trkpt lat="46.07911" lon="3.7269">
        <ele>719</ele>
        <time>2011-07-09T11:11:20Z</time>
      </trkpt>
      <trkpt lat="46.07908" lon="3.72697">
        <ele>719</ele>
        <time>2011-07-09T11:11:21Z</time>
      </trkpt>
      <trkpt lat="46.07904" lon="3.72703">
        <ele>718</ele>
        <time>2011-07-09T11:11:22Z</time>
      </trkpt>
      <trkpt lat="46.079" lon="3.72709">
        <ele>718</ele>
        <time>2011-07-09T11:11:23Z</time>
      </trkpt>
      <trkpt lat="46.07895" lon="3.72714">
        <ele>717</ele>
        <time>2011-07-09T11:11:24Z</time>
      </trkpt>
      <trkpt lat="46.07874" lon="3.72734">
        <ele>714</ele>
        <time>2011-07-09T11:11:28Z</time>
      </trkpt>
      <trkpt lat="46.0784" lon="3.7279">
        <ele>712</ele>
        <time>2011-07-09T11:11:34Z</time>
      </trkpt>
      <trkpt lat="46.07831" lon="3.72814">
        <ele>711</ele>
        <time>2011-07-09T11:11:36Z</time>
      </trkpt>
      <trkpt lat="46.07829" lon="3.72826">
        <ele>710</ele>
        <time>2011-07-09T11:11:37Z</time>
      </trkpt>
      <trkpt lat="46.07827" lon="3.72838">
        <ele>710</ele>
        <time>2011-07-09T11:11:38Z</time>
      </trkpt>
      <trkpt lat="46.07829" lon="3.72861">
        <ele>709</ele>
        <time>2011-07-09T11:11:40Z</time>
      </trkpt>
      <trkpt lat="46.07832" lon="3.72873">
        <ele>708</ele>
        <time>2011-07-09T11:11:41Z</time>
      </trkpt>
      <trkpt lat="46.07835" lon="3.72899">
        <ele>704</ele>
        <time>2011-07-09T11:11:43Z</time>
      </trkpt>
      <trkpt lat="46.07838" lon="3.72944">
        <ele>701</ele>
        <time>2011-07-09T11:11:46Z</time>
      </trkpt>
      <trkpt lat="46.07836" lon="3.72992">
        <ele>700</ele>
        <time>2011-07-09T11:11:49Z</time>
      </trkpt>
      <trkpt lat="46.07827" lon="3.73048">
        <ele>698</ele>
        <time>2011-07-09T11:11:53Z</time>
      </trkpt>
      <trkpt lat="46.07824" lon="3.73072">
        <ele>697</ele>
        <time>2011-07-09T11:11:55Z</time>
      </trkpt>
      <trkpt lat="46.07822" lon="3.73082">
        <ele>696</ele>
        <time>2011-07-09T11:11:56Z</time>
      </trkpt>
      <trkpt lat="46.07822" lon="3.7311">
        <ele>697</ele>
        <time>2011-07-09T11:12:00Z</time>
      </trkpt>
      <trkpt lat="46.07821" lon="3.73114">
        <ele>698</ele>
        <time>2011-07-09T11:12:03Z</time>
      </trkpt>
      <trkpt lat="46.07821" lon="3.73115">
        <ele>698</ele>
        <time>2011-07-09T11:12:04Z</time>
      </trkpt>
      <trkpt lat="46.07821" lon="3.73117">
        <ele>698</ele>
        <time>2011-07-09T11:12:05Z</time>
      </trkpt>
      <trkpt lat="46.07821" lon="3.73119">
        <ele>699</ele>
        <time>2011-07-09T11:12:06Z</time>
      </trkpt>
      <trkpt lat="46.07821" lon="3.73121">
        <ele>699</ele>
        <time>2011-07-09T11:12:07Z</time>
      </trkpt>
      <trkpt lat="46.07821" lon="3.73124">
        <ele>699</ele>
        <time>2011-07-09T11:12:08Z</time>
      </trkpt>
      <trkpt lat="46.07823" lon="3.73146">
        <ele>700</ele>
        <time>2011-07-09T11:12:16Z</time>
      </trkpt>
      <trkpt lat="46.07821" lon="3.73159">
        <ele>701</ele>
        <time>2011-07-09T11:12:21Z</time>
      </trkpt>
      <trkpt lat="46.07821" lon="3.73161">
        <ele>701</ele>
        <time>2011-07-09T11:12:22Z</time>
      </trkpt>
      <trkpt lat="46.07821" lon="3.73164">
        <ele>701</ele>
        <time>2011-07-09T11:12:23Z</time>
      </trkpt>
      <trkpt lat="46.07821" lon="3.73166">
        <ele>701</ele>
        <time>2011-07-09T11:12:24Z</time>
      </trkpt>
      <trkpt lat="46.07821" lon="3.7317">
        <ele>702</ele>
        <time>2011-07-09T11:12:25Z</time>
      </trkpt>
      <trkpt lat="46.07819" lon="3.73186">
        <ele>703</ele>
        <time>2011-07-09T11:12:31Z</time>
      </trkpt>
      <trkpt lat="46.07819" lon="3.73188">
        <ele>703</ele>
        <time>2011-07-09T11:12:32Z</time>
      </trkpt>
      <trkpt lat="46.07818" lon="3.7319">
        <ele>703</ele>
        <time>2011-07-09T11:12:33Z</time>
      </trkpt>
      <trkpt lat="46.07818" lon="3.73193">
        <ele>704</ele>
        <time>2011-07-09T11:12:34Z</time>
      </trkpt>
      <trkpt lat="46.07818" lon="3.73195">
        <ele>704</ele>
        <time>2011-07-09T11:12:35Z</time>
      </trkpt>
      <trkpt lat="46.07818" lon="3.73198">
        <ele>704</ele>
        <time>2011-07-09T11:12:36Z</time>
      </trkpt>
      <trkpt lat="46.07818" lon="3.732">
        <ele>704</ele>
        <time>2011-07-09T11:12:37Z</time>
      </trkpt>
      <trkpt lat="46.07817" lon="3.73202">
        <ele>704</ele>
        <time>2011-07-09T11:12:38Z</time>
      </trkpt>
      <trkpt lat="46.07817" lon="3.73205">
        <ele>704</ele>
        <time>2011-07-09T11:12:39Z</time>
      </trkpt>
      <trkpt lat="46.07817" lon="3.73208">
        <ele>705</ele>
        <time>2011-07-09T11:12:40Z</time>
      </trkpt>
      <trkpt lat="46.07817" lon="3.73211">
        <ele>705</ele>
        <time>2011-07-09T11:12:41Z</time>
      </trkpt>
      <trkpt lat="46.07816" lon="3.73213">
        <ele>705</ele>
        <time>2011-07-09T11:12:42Z</time>
      </trkpt>
      <trkpt lat="46.07816" lon="3.73215">
        <ele>705</ele>
        <time>2011-07-09T11:12:43Z</time>
      </trkpt>
      <trkpt lat="46.07814" lon="3.73231">
        <ele>707</ele>
        <time>2011-07-09T11:12:50Z</time>
      </trkpt>
      <trkpt lat="46.07815" lon="3.7325">
        <ele>708</ele>
        <time>2011-07-09T11:12:58Z</time>
      </trkpt>
      <trkpt lat="46.07818" lon="3.73271">
        <ele>709</ele>
        <time>2011-07-09T11:13:05Z</time>
      </trkpt>
      <trkpt lat="46.07818" lon="3.73275">
        <ele>709</ele>
        <time>2011-07-09T11:13:06Z</time>
      </trkpt>
      <trkpt lat="46.07819" lon="3.73298">
        <ele>711</ele>
        <time>2011-07-09T11:13:14Z</time>
      </trkpt>
      <trkpt lat="46.07825" lon="3.7332">
        <ele>712</ele>
        <time>2011-07-09T11:13:21Z</time>
      </trkpt>
      <trkpt lat="46.07827" lon="3.73337">
        <ele>714</ele>
        <time>2011-07-09T11:13:28Z</time>
      </trkpt>
      <trkpt lat="46.07827" lon="3.73346">
        <ele>715</ele>
        <time>2011-07-09T11:13:31Z</time>
      </trkpt>
      <trkpt lat="46.07829" lon="3.73365">
        <ele>717</ele>
        <time>2011-07-09T11:13:39Z</time>
      </trkpt>
      <trkpt lat="46.0783" lon="3.73384">
        <ele>719</ele>
        <time>2011-07-09T11:13:46Z</time>
      </trkpt>
      <trkpt lat="46.07837" lon="3.73401">
        <ele>720</ele>
        <time>2011-07-09T11:13:52Z</time>
      </trkpt>
      <trkpt lat="46.07843" lon="3.73419">
        <ele>721</ele>
        <time>2011-07-09T11:13:59Z</time>
      </trkpt>
      <trkpt lat="46.07853" lon="3.73439">
        <ele>722</ele>
        <time>2011-07-09T11:14:06Z</time>
      </trkpt>
      <trkpt lat="46.07861" lon="3.73461">
        <ele>722</ele>
        <time>2011-07-09T11:14:13Z</time>
      </trkpt>
      <trkpt lat="46.07864" lon="3.73471">
        <ele>723</ele>
        <time>2011-07-09T11:14:17Z</time>
      </trkpt>
      <trkpt lat="46.07867" lon="3.73486">
        <ele>723</ele>
        <time>2011-07-09T11:14:23Z</time>
      </trkpt>
      <trkpt lat="46.07871" lon="3.73505">
        <ele>722</ele>
        <time>2011-07-09T11:14:29Z</time>
      </trkpt>
      <trkpt lat="46.07873" lon="3.73521">
        <ele>722</ele>
        <time>2011-07-09T11:14:33Z</time>
      </trkpt>
      <trkpt lat="46.07872" lon="3.73543">
        <ele>722</ele>
        <time>2011-07-09T11:14:39Z</time>
      </trkpt>
      <trkpt lat="46.07864" lon="3.73568">
        <ele>723</ele>
        <time>2011-07-09T11:14:46Z</time>
      </trkpt>
      <trkpt lat="46.07858" lon="3.73595">
        <ele>724</ele>
        <time>2011-07-09T11:14:53Z</time>
      </trkpt>
      <trkpt lat="46.07851" lon="3.73621">
        <ele>724</ele>
        <time>2011-07-09T11:15:00Z</time>
      </trkpt>
      <trkpt lat="46.07844" lon="3.73637">
        <ele>724</ele>
        <time>2011-07-09T11:15:05Z</time>
      </trkpt>
      <trkpt lat="46.07841" lon="3.73647">
        <ele>723</ele>
        <time>2011-07-09T11:15:07Z</time>
      </trkpt>
      <trkpt lat="46.07834" lon="3.73666">
        <ele>721</ele>
        <time>2011-07-09T11:15:11Z</time>
      </trkpt>
      <trkpt lat="46.07825" lon="3.7368">
        <ele>720</ele>
        <time>2011-07-09T11:15:16Z</time>
      </trkpt>
      <trkpt lat="46.07824" lon="3.7368">
        <ele>720</ele>
        <time>2011-07-09T11:15:17Z</time>
      </trkpt>
      <trkpt lat="46.07807" lon="3.73694">
        <ele>721</ele>
        <time>2011-07-09T11:15:24Z</time>
      </trkpt>
      <trkpt lat="46.07793" lon="3.73702">
        <ele>722</ele>
        <time>2011-07-09T11:15:29Z</time>
      </trkpt>
      <trkpt lat="46.07784" lon="3.73715">
        <ele>722</ele>
        <time>2011-07-09T11:15:32Z</time>
      </trkpt>
      <trkpt lat="46.07769" lon="3.7374">
        <ele>723</ele>
        <time>2011-07-09T11:15:38Z</time>
      </trkpt>
      <trkpt lat="46.07752" lon="3.73763">
        <ele>724</ele>
        <time>2011-07-09T11:15:44Z</time>
      </trkpt>
      <trkpt lat="46.07734" lon="3.73779">
        <ele>726</ele>
        <time>2011-07-09T11:15:51Z</time>
      </trkpt>
      <trkpt lat="46.07729" lon="3.73784">
        <ele>726</ele>
        <time>2011-07-09T11:15:53Z</time>
      </trkpt>
      <trkpt lat="46.0771" lon="3.73799">
        <ele>727</ele>
        <time>2011-07-09T11:16:00Z</time>
      </trkpt>
      <trkpt lat="46.07699" lon="3.73805">
        <ele>728</ele>
        <time>2011-07-09T11:16:05Z</time>
      </trkpt>
      <trkpt lat="46.07686" lon="3.73809">
        <ele>729</ele>
        <time>2011-07-09T11:16:11Z</time>
      </trkpt>
      <trkpt lat="46.07666" lon="3.73809">
        <ele>731</ele>
        <time>2011-07-09T11:16:18Z</time>
      </trkpt>
      <trkpt lat="46.07658" lon="3.73812">
        <ele>731</ele>
        <time>2011-07-09T11:16:23Z</time>
      </trkpt>
      <trkpt lat="46.07642" lon="3.7382">
        <ele>729</ele>
        <time>2011-07-09T11:16:28Z</time>
      </trkpt>
      <trkpt lat="46.07618" lon="3.73838">
        <ele>727</ele>
        <time>2011-07-09T11:16:33Z</time>
      </trkpt>
      <trkpt lat="46.07594" lon="3.73856">
        <ele>725</ele>
        <time>2011-07-09T11:16:39Z</time>
      </trkpt>
      <trkpt lat="46.07589" lon="3.73859">
        <ele>725</ele>
        <time>2011-07-09T11:16:40Z</time>
      </trkpt>
      <trkpt lat="46.07584" lon="3.73863">
        <ele>724</ele>
        <time>2011-07-09T11:16:41Z</time>
      </trkpt>
      <trkpt lat="46.07573" lon="3.73878">
        <ele>724</ele>
        <time>2011-07-09T11:16:44Z</time>
      </trkpt>
      <trkpt lat="46.07568" lon="3.73894">
        <ele>724</ele>
        <time>2011-07-09T11:16:50Z</time>
      </trkpt>
      <trkpt lat="46.07568" lon="3.73897">
        <ele>724</ele>
        <time>2011-07-09T11:16:51Z</time>
      </trkpt>
      <trkpt lat="46.07569" lon="3.73901">
        <ele>724</ele>
        <time>2011-07-09T11:16:52Z</time>
      </trkpt>
      <trkpt lat="46.07568" lon="3.73905">
        <ele>724</ele>
        <time>2011-07-09T11:16:53Z</time>
      </trkpt>
      <trkpt lat="46.07567" lon="3.73909">
        <ele>725</ele>
        <time>2011-07-09T11:16:54Z</time>
      </trkpt>
      <trkpt lat="46.07566" lon="3.73913">
        <ele>725</ele>
        <time>2011-07-09T11:16:55Z</time>
      </trkpt>
      <trkpt lat="46.07567" lon="3.73916">
        <ele>727</ele>
        <time>2011-07-09T11:16:56Z</time>
      </trkpt>
      <trkpt lat="46.07567" lon="3.73919">
        <ele>727</ele>
        <time>2011-07-09T11:16:57Z</time>
      </trkpt>
      <trkpt lat="46.07568" lon="3.73923">
        <ele>728</ele>
        <time>2011-07-09T11:16:59Z</time>
      </trkpt>
      <trkpt lat="46.07566" lon="3.73925">
        <ele>729</ele>
        <time>2011-07-09T11:17:01Z</time>
      </trkpt>
      <trkpt lat="46.07565" lon="3.73928">
        <ele>730</ele>
        <time>2011-07-09T11:17:02Z</time>
      </trkpt>
      <trkpt lat="46.07564" lon="3.73934">
        <ele>731</ele>
        <time>2011-07-09T11:17:03Z</time>
      </trkpt>
      <trkpt lat="46.07562" lon="3.73936">
        <ele>731</ele>
        <time>2011-07-09T11:17:04Z</time>
      </trkpt>
      <trkpt lat="46.07562" lon="3.73941">
        <ele>732</ele>
        <time>2011-07-09T11:17:05Z</time>
      </trkpt>
      <trkpt lat="46.0756" lon="3.73944">
        <ele>733</ele>
        <time>2011-07-09T11:17:06Z</time>
      </trkpt>
      <trkpt lat="46.07558" lon="3.73947">
        <ele>733</ele>
        <time>2011-07-09T11:17:07Z</time>
      </trkpt>
      <trkpt lat="46.07557" lon="3.7395">
        <ele>733</ele>
        <time>2011-07-09T11:17:08Z</time>
      </trkpt>
      <trkpt lat="46.07553" lon="3.73958">
        <ele>735</ele>
        <time>2011-07-09T11:17:11Z</time>
      </trkpt>
      <trkpt lat="46.07546" lon="3.73976">
        <ele>736</ele>
        <time>2011-07-09T11:17:17Z</time>
      </trkpt>
      <trkpt lat="46.07538" lon="3.7399">
        <ele>738</ele>
        <time>2011-07-09T11:17:24Z</time>
      </trkpt>
      <trkpt lat="46.07535" lon="3.73995">
        <ele>739</ele>
        <time>2011-07-09T11:17:27Z</time>
      </trkpt>
      <trkpt lat="46.07534" lon="3.73997">
        <ele>740</ele>
        <time>2011-07-09T11:17:28Z</time>
      </trkpt>
      <trkpt lat="46.07533" lon="3.73998">
        <ele>740</ele>
        <time>2011-07-09T11:17:29Z</time>
      </trkpt>
      <trkpt lat="46.07531" lon="3.74">
        <ele>740</ele>
        <time>2011-07-09T11:17:30Z</time>
      </trkpt>
      <trkpt lat="46.0753" lon="3.74002">
        <ele>741</ele>
        <time>2011-07-09T11:17:31Z</time>
      </trkpt>
      <trkpt lat="46.07529" lon="3.74003">
        <ele>741</ele>
        <time>2011-07-09T11:17:32Z</time>
      </trkpt>
      <trkpt lat="46.07528" lon="3.74005">
        <ele>741</ele>
        <time>2011-07-09T11:17:33Z</time>
      </trkpt>
      <trkpt lat="46.07527" lon="3.74008">
        <ele>741</ele>
        <time>2011-07-09T11:17:34Z</time>
      </trkpt>
      <trkpt lat="46.07521" lon="3.74022">
        <ele>743</ele>
        <time>2011-07-09T11:17:41Z</time>
      </trkpt>
      <trkpt lat="46.07513" lon="3.7403">
        <ele>744</ele>
        <time>2011-07-09T11:17:46Z</time>
      </trkpt>
      <trkpt lat="46.07512" lon="3.7403">
        <ele>744</ele>
        <time>2011-07-09T11:17:47Z</time>
      </trkpt>
      <trkpt lat="46.07502" lon="3.7404">
        <ele>746</ele>
        <time>2011-07-09T11:17:54Z</time>
      </trkpt>
      <trkpt lat="46.075" lon="3.74046">
        <ele>747</ele>
        <time>2011-07-09T11:17:57Z</time>
      </trkpt>
      <trkpt lat="46.07499" lon="3.74047">
        <ele>747</ele>
        <time>2011-07-09T11:17:58Z</time>
      </trkpt>
      <trkpt lat="46.07497" lon="3.74048">
        <ele>748</ele>
        <time>2011-07-09T11:17:59Z</time>
      </trkpt>
      <trkpt lat="46.07497" lon="3.7405">
        <ele>748</ele>
        <time>2011-07-09T11:18:00Z</time>
      </trkpt>
      <trkpt lat="46.07496" lon="3.74051">
        <ele>748</ele>
        <time>2011-07-09T11:18:01Z</time>
      </trkpt>
      <trkpt lat="46.07495" lon="3.74052">
        <ele>748</ele>
        <time>2011-07-09T11:18:02Z</time>
      </trkpt>
      <trkpt lat="46.0749" lon="3.74058">
        <ele>749</ele>
        <time>2011-07-09T11:18:07Z</time>
      </trkpt>
      <trkpt lat="46.07485" lon="3.74063">
        <ele>751</ele>
        <time>2011-07-09T11:18:13Z</time>
      </trkpt>
      <trkpt lat="46.0748" lon="3.74068">
        <ele>752</ele>
        <time>2011-07-09T11:18:19Z</time>
      </trkpt>
      <trkpt lat="46.07481" lon="3.74073">
        <ele>753</ele>
        <time>2011-07-09T11:18:21Z</time>
      </trkpt>
      <trkpt lat="46.07481" lon="3.74075">
        <ele>753</ele>
        <time>2011-07-09T11:18:22Z</time>
      </trkpt>
      <trkpt lat="46.07481" lon="3.74076">
        <ele>753</ele>
        <time>2011-07-09T11:18:23Z</time>
      </trkpt>
      <trkpt lat="46.07472" lon="3.74081">
        <ele>755</ele>
        <time>2011-07-09T11:18:29Z</time>
      </trkpt>
      <trkpt lat="46.07469" lon="3.74081">
        <ele>756</ele>
        <time>2011-07-09T11:18:34Z</time>
      </trkpt>
      <trkpt lat="46.07464" lon="3.74086">
        <ele>757</ele>
        <time>2011-07-09T11:18:39Z</time>
      </trkpt>
      <trkpt lat="46.07462" lon="3.74086">
        <ele>758</ele>
        <time>2011-07-09T11:18:40Z</time>
      </trkpt>
      <trkpt lat="46.07455" lon="3.74085">
        <ele>760</ele>
        <time>2011-07-09T11:18:45Z</time>
      </trkpt>
      <trkpt lat="46.07455" lon="3.74085">
        <ele>760</ele>
        <time>2011-07-09T11:18:47Z</time>
      </trkpt>
      <trkpt lat="46.07452" lon="3.74084">
        <ele>762</ele>
        <time>2011-07-09T11:18:51Z</time>
      </trkpt>
      <trkpt lat="46.07451" lon="3.74084">
        <ele>762</ele>
        <time>2011-07-09T11:18:52Z</time>
      </trkpt>
      <trkpt lat="46.07449" lon="3.74081">
        <ele>762</ele>
        <time>2011-07-09T11:18:54Z</time>
      </trkpt>
      <trkpt lat="46.07439" lon="3.7407">
        <ele>764</ele>
        <time>2011-07-09T11:19:00Z</time>
      </trkpt>
      <trkpt lat="46.0743" lon="3.74064">
        <ele>766</ele>
        <time>2011-07-09T11:19:05Z</time>
      </trkpt>
      <trkpt lat="46.07419" lon="3.74062">
        <ele>767</ele>
        <time>2011-07-09T11:19:10Z</time>
      </trkpt>
      <trkpt lat="46.07409" lon="3.74062">
        <ele>769</ele>
        <time>2011-07-09T11:19:15Z</time>
      </trkpt>
      <trkpt lat="46.07397" lon="3.74061">
        <ele>769</ele>
        <time>2011-07-09T11:19:19Z</time>
      </trkpt>
      <trkpt lat="46.07382" lon="3.74063">
        <ele>771</ele>
        <time>2011-07-09T11:19:26Z</time>
      </trkpt>
      <trkpt lat="46.07365" lon="3.74066">
        <ele>772</ele>
        <time>2011-07-09T11:19:32Z</time>
      </trkpt>
      <trkpt lat="46.07346" lon="3.74075">
        <ele>775</ele>
        <time>2011-07-09T11:19:38Z</time>
      </trkpt>
      <trkpt lat="46.07336" lon="3.7408">
        <ele>776</ele>
        <time>2011-07-09T11:19:41Z</time>
      </trkpt>
      <trkpt lat="46.07325" lon="3.74089">
        <ele>778</ele>
        <time>2011-07-09T11:19:44Z</time>
      </trkpt>
      <trkpt lat="46.07312" lon="3.74095">
        <ele>779</ele>
        <time>2011-07-09T11:19:48Z</time>
      </trkpt>
      <trkpt lat="46.07311" lon="3.74097">
        <ele>779</ele>
        <time>2011-07-09T11:19:50Z</time>
      </trkpt>
      <trkpt lat="46.07303" lon="3.74107">
        <ele>779</ele>
        <time>2011-07-09T11:19:56Z</time>
      </trkpt>
      <trkpt lat="46.07302" lon="3.74109">
        <ele>779</ele>
        <time>2011-07-09T11:19:57Z</time>
      </trkpt>
      <trkpt lat="46.07292" lon="3.74116">
        <ele>781</ele>
        <time>2011-07-09T11:20:04Z</time>
      </trkpt>
      <trkpt lat="46.07283" lon="3.74126">
        <ele>781</ele>
        <time>2011-07-09T11:20:10Z</time>
      </trkpt>
      <trkpt lat="46.07282" lon="3.74129">
        <ele>782</ele>
        <time>2011-07-09T11:20:11Z</time>
      </trkpt>
      <trkpt lat="46.0728" lon="3.74131">
        <ele>782</ele>
        <time>2011-07-09T11:20:12Z</time>
      </trkpt>
      <trkpt lat="46.07278" lon="3.74133">
        <ele>782</ele>
        <time>2011-07-09T11:20:13Z</time>
      </trkpt>
      <trkpt lat="46.07276" lon="3.74134">
        <ele>782</ele>
        <time>2011-07-09T11:20:14Z</time>
      </trkpt>
      <trkpt lat="46.07275" lon="3.74136">
        <ele>782</ele>
        <time>2011-07-09T11:20:15Z</time>
      </trkpt>
      <trkpt lat="46.07274" lon="3.74138">
        <ele>782</ele>
        <time>2011-07-09T11:20:16Z</time>
      </trkpt>
      <trkpt lat="46.07264" lon="3.7415">
        <ele>783</ele>
        <time>2011-07-09T11:20:22Z</time>
      </trkpt>
      <trkpt lat="46.07246" lon="3.74165">
        <ele>784</ele>
        <time>2011-07-09T11:20:30Z</time>
      </trkpt>
      <trkpt lat="46.0724" lon="3.74169">
        <ele>784</ele>
        <time>2011-07-09T11:20:34Z</time>
      </trkpt>
      <trkpt lat="46.07239" lon="3.74171">
        <ele>784</ele>
        <time>2011-07-09T11:20:35Z</time>
      </trkpt>
      <trkpt lat="46.0724" lon="3.74173">
        <ele>784</ele>
        <time>2011-07-09T11:20:36Z</time>
      </trkpt>
      <trkpt lat="46.0724" lon="3.74177">
        <ele>783</ele>
        <time>2011-07-09T11:20:38Z</time>
      </trkpt>
      <trkpt lat="46.07239" lon="3.74177">
        <ele>783</ele>
        <time>2011-07-09T11:20:39Z</time>
      </trkpt>
      <trkpt lat="46.07237" lon="3.74173">
        <ele>784</ele>
        <time>2011-07-09T11:20:44Z</time>
      </trkpt>
      <trkpt lat="46.07237" lon="3.74173">
        <ele>784</ele>
        <time>2011-07-09T11:20:53Z</time>
      </trkpt>
      <trkpt lat="46.07237" lon="3.74173">
        <ele>784</ele>
        <time>2011-07-09T11:21:06Z</time>
      </trkpt>
      <trkpt lat="46.07237" lon="3.74173">
        <ele>783</ele>
        <time>2011-07-09T11:21:23Z</time>
      </trkpt>
      <trkpt lat="46.07237" lon="3.74172">
        <ele>783</ele>
        <time>2011-07-09T11:21:36Z</time>
      </trkpt>
      <trkpt lat="46.07237" lon="3.74172">
        <ele>783</ele>
        <time>2011-07-09T11:21:53Z</time>
      </trkpt>
      <trkpt lat="46.07237" lon="3.74172">
        <ele>783</ele>
        <time>2011-07-09T11:22:08Z</time>
      </trkpt>
      <trkpt lat="46.07237" lon="3.74172">
        <ele>783</ele>
        <time>2011-07-09T11:22:24Z</time>
      </trkpt>
      <trkpt lat="46.07237" lon="3.74172">
        <ele>783</ele>
        <time>2011-07-09T11:22:39Z</time>
      </trkpt>
      <trkpt lat="46.07237" lon="3.74171">
        <ele>783</ele>
        <time>2011-07-09T11:22:54Z</time>
      </trkpt>
      <trkpt lat="46.07237" lon="3.74171">
        <ele>783</ele>
        <time>2011-07-09T11:23:10Z</time>
      </trkpt>
      <trkpt lat="46.07236" lon="3.7417">
        <ele>784</ele>
        <time>2011-07-09T11:23:26Z</time>
      </trkpt>
      <trkpt lat="46.07236" lon="3.7417">
        <ele>783</ele>
        <time>2011-07-09T11:23:41Z</time>
      </trkpt>
      <trkpt lat="46.07236" lon="3.7417">
        <ele>783</ele>
        <time>2011-07-09T11:23:50Z</time>
      </trkpt>
      <trkpt lat="46.07236" lon="3.74169">
        <ele>783</ele>
        <time>2011-07-09T11:24:05Z</time>
      </trkpt>
      <trkpt lat="46.07235" lon="3.74167">
        <ele>783</ele>
        <time>2011-07-09T11:24:09Z</time>
      </trkpt>
      <trkpt lat="46.07232" lon="3.74163">
        <ele>783</ele>
        <time>2011-07-09T11:24:11Z</time>
      </trkpt>
      <trkpt lat="46.07224" lon="3.7415">
        <ele>785</ele>
        <time>2011-07-09T11:24:16Z</time>
      </trkpt>
      <trkpt lat="46.07223" lon="3.74147">
        <ele>785</ele>
        <time>2011-07-09T11:24:17Z</time>
      </trkpt>
      <trkpt lat="46.07222" lon="3.74144">
        <ele>785</ele>
        <time>2011-07-09T11:24:18Z</time>
      </trkpt>
      <trkpt lat="46.07221" lon="3.74142">
        <ele>785</ele>
        <time>2011-07-09T11:24:19Z</time>
      </trkpt>
      <trkpt lat="46.07221" lon="3.74139">
        <ele>785</ele>
        <time>2011-07-09T11:24:20Z</time>
      </trkpt>
      <trkpt lat="46.07214" lon="3.74112">
        <ele>786</ele>
        <time>2011-07-09T11:24:29Z</time>
      </trkpt>
      <trkpt lat="46.07209" lon="3.74094">
        <ele>787</ele>
        <time>2011-07-09T11:24:35Z</time>
      </trkpt>
      <trkpt lat="46.072" lon="3.7406">
        <ele>787</ele>
        <time>2011-07-09T11:24:44Z</time>
      </trkpt>
      <trkpt lat="46.07192" lon="3.74039">
        <ele>788</ele>
        <time>2011-07-09T11:24:50Z</time>
      </trkpt>
      <trkpt lat="46.07187" lon="3.74026">
        <ele>788</ele>
        <time>2011-07-09T11:24:54Z</time>
      </trkpt>
      <trkpt lat="46.07172" lon="3.74002">
        <ele>789</ele>
        <time>2011-07-09T11:25:01Z</time>
      </trkpt>
      <trkpt lat="46.07163" lon="3.73977">
        <ele>791</ele>
        <time>2011-07-09T11:25:08Z</time>
      </trkpt>
      <trkpt lat="46.07154" lon="3.73959">
        <ele>792</ele>
        <time>2011-07-09T11:25:14Z</time>
      </trkpt>
      <trkpt lat="46.07145" lon="3.73934">
        <ele>793</ele>
        <time>2011-07-09T11:25:21Z</time>
      </trkpt>
      <trkpt lat="46.07139" lon="3.73898">
        <ele>794</ele>
        <time>2011-07-09T11:25:29Z</time>
      </trkpt>
      <trkpt lat="46.07137" lon="3.73868">
        <ele>796</ele>
        <time>2011-07-09T11:25:36Z</time>
      </trkpt>
      <trkpt lat="46.07138" lon="3.73836">
        <ele>797</ele>
        <time>2011-07-09T11:25:44Z</time>
      </trkpt>
      <trkpt lat="46.0714" lon="3.73813">
        <ele>797</ele>
        <time>2011-07-09T11:25:50Z</time>
      </trkpt>
      <trkpt lat="46.07142" lon="3.73794">
        <ele>798</ele>
        <time>2011-07-09T11:25:55Z</time>
      </trkpt>
      <trkpt lat="46.07145" lon="3.73771">
        <ele>799</ele>
        <time>2011-07-09T11:26:01Z</time>
      </trkpt>
      <trkpt lat="46.0715" lon="3.73742">
        <ele>799</ele>
        <time>2011-07-09T11:26:08Z</time>
      </trkpt>
      <trkpt lat="46.07151" lon="3.7373">
        <ele>800</ele>
        <time>2011-07-09T11:26:11Z</time>
      </trkpt>
      <trkpt lat="46.07153" lon="3.73727">
        <ele>800</ele>
        <time>2011-07-09T11:26:12Z</time>
      </trkpt>
      <trkpt lat="46.07155" lon="3.73724">
        <ele>800</ele>
        <time>2011-07-09T11:26:13Z</time>
      </trkpt>
      <trkpt lat="46.07158" lon="3.73688">
        <ele>802</ele>
        <time>2011-07-09T11:26:21Z</time>
      </trkpt>
      <trkpt lat="46.07158" lon="3.73664">
        <ele>804</ele>
        <time>2011-07-09T11:26:27Z</time>
      </trkpt>
      <trkpt lat="46.07157" lon="3.73658">
        <ele>804</ele>
        <time>2011-07-09T11:26:29Z</time>
      </trkpt>
      <trkpt lat="46.07156" lon="3.73657">
        <ele>805</ele>
        <time>2011-07-09T11:26:30Z</time>
      </trkpt>
      <trkpt lat="46.07155" lon="3.73656">
        <ele>805</ele>
        <time>2011-07-09T11:26:31Z</time>
      </trkpt>
      <trkpt lat="46.07151" lon="3.73654">
        <ele>805</ele>
        <time>2011-07-09T11:26:35Z</time>
      </trkpt>
      <trkpt lat="46.0715" lon="3.73654">
        <ele>806</ele>
        <time>2011-07-09T11:26:36Z</time>
      </trkpt>
      <trkpt lat="46.07148" lon="3.73653">
        <ele>806</ele>
        <time>2011-07-09T11:26:37Z</time>
      </trkpt>
      <trkpt lat="46.07147" lon="3.73652">
        <ele>806</ele>
        <time>2011-07-09T11:26:38Z</time>
      </trkpt>
      <trkpt lat="46.07145" lon="3.73651">
        <ele>806</ele>
        <time>2011-07-09T11:26:39Z</time>
      </trkpt>
      <trkpt lat="46.07144" lon="3.7365">
        <ele>806</ele>
        <time>2011-07-09T11:26:40Z</time>
      </trkpt>
      <trkpt lat="46.07142" lon="3.73649">
        <ele>807</ele>
        <time>2011-07-09T11:26:41Z</time>
      </trkpt>
      <trkpt lat="46.07141" lon="3.73648">
        <ele>807</ele>
        <time>2011-07-09T11:26:42Z</time>
      </trkpt>
      <trkpt lat="46.0714" lon="3.73648">
        <ele>807</ele>
        <time>2011-07-09T11:26:43Z</time>
      </trkpt>
      <trkpt lat="46.07138" lon="3.73647">
        <ele>807</ele>
        <time>2011-07-09T11:26:44Z</time>
      </trkpt>
      <trkpt lat="46.07136" lon="3.73646">
        <ele>808</ele>
        <time>2011-07-09T11:26:45Z</time>
      </trkpt>
      <trkpt lat="46.07134" lon="3.73645">
        <ele>808</ele>
        <time>2011-07-09T11:26:46Z</time>
      </trkpt>
      <trkpt lat="46.07133" lon="3.73644">
        <ele>808</ele>
        <time>2011-07-09T11:26:47Z</time>
      </trkpt>
      <trkpt lat="46.07131" lon="3.73643">
        <ele>808</ele>
        <time>2011-07-09T11:26:48Z</time>
      </trkpt>
      <trkpt lat="46.07129" lon="3.73641">
        <ele>808</ele>
        <time>2011-07-09T11:26:49Z</time>
      </trkpt>
      <trkpt lat="46.07115" lon="3.73636">
        <ele>810</ele>
        <time>2011-07-09T11:26:56Z</time>
      </trkpt>
      <trkpt lat="46.071" lon="3.73626">
        <ele>811</ele>
        <time>2011-07-09T11:27:03Z</time>
      </trkpt>
      <trkpt lat="46.07088" lon="3.73616">
        <ele>812</ele>
        <time>2011-07-09T11:27:09Z</time>
      </trkpt>
      <trkpt lat="46.07087" lon="3.73614">
        <ele>812</ele>
        <time>2011-07-09T11:27:10Z</time>
      </trkpt>
      <trkpt lat="46.07086" lon="3.73612">
        <ele>812</ele>
        <time>2011-07-09T11:27:11Z</time>
      </trkpt>
      <trkpt lat="46.07085" lon="3.7361">
        <ele>812</ele>
        <time>2011-07-09T11:27:12Z</time>
      </trkpt>
      <trkpt lat="46.07083" lon="3.73609">
        <ele>812</ele>
        <time>2011-07-09T11:27:13Z</time>
      </trkpt>
      <trkpt lat="46.07081" lon="3.73607">
        <ele>812</ele>
        <time>2011-07-09T11:27:14Z</time>
      </trkpt>
      <trkpt lat="46.07079" lon="3.73606">
        <ele>812</ele>
        <time>2011-07-09T11:27:15Z</time>
      </trkpt>
      <trkpt lat="46.07077" lon="3.73604">
        <ele>812</ele>
        <time>2011-07-09T11:27:16Z</time>
      </trkpt>
      <trkpt lat="46.07075" lon="3.73602">
        <ele>813</ele>
        <time>2011-07-09T11:27:17Z</time>
      </trkpt>
      <trkpt lat="46.07074" lon="3.736">
        <ele>813</ele>
        <time>2011-07-09T11:27:18Z</time>
      </trkpt>
      <trkpt lat="46.07072" lon="3.73598">
        <ele>813</ele>
        <time>2011-07-09T11:27:19Z</time>
      </trkpt>
      <trkpt lat="46.0707" lon="3.73597">
        <ele>813</ele>
        <time>2011-07-09T11:27:20Z</time>
      </trkpt>
      <trkpt lat="46.07068" lon="3.73595">
        <ele>813</ele>
        <time>2011-07-09T11:27:21Z</time>
      </trkpt>
      <trkpt lat="46.07066" lon="3.73593">
        <ele>814</ele>
        <time>2011-07-09T11:27:22Z</time>
      </trkpt>
      <trkpt lat="46.07064" lon="3.73591">
        <ele>813</ele>
        <time>2011-07-09T11:27:23Z</time>
      </trkpt>
      <trkpt lat="46.07062" lon="3.7359">
        <ele>814</ele>
        <time>2011-07-09T11:27:24Z</time>
      </trkpt>
      <trkpt lat="46.07059" lon="3.73585">
        <ele>815</ele>
        <time>2011-07-09T11:27:28Z</time>
      </trkpt>
      <trkpt lat="46.07057" lon="3.73582">
        <ele>815</ele>
        <time>2011-07-09T11:27:29Z</time>
      </trkpt>
      <trkpt lat="46.07056" lon="3.73579">
        <ele>815</ele>
        <time>2011-07-09T11:27:30Z</time>
      </trkpt>
      <trkpt lat="46.07053" lon="3.73576">
        <ele>815</ele>
        <time>2011-07-09T11:27:31Z</time>
      </trkpt>
      <trkpt lat="46.0705" lon="3.73573">
        <ele>815</ele>
        <time>2011-07-09T11:27:32Z</time>
      </trkpt>
      <trkpt lat="46.0705" lon="3.73571">
        <ele>815</ele>
        <time>2011-07-09T11:27:33Z</time>
      </trkpt>
      <trkpt lat="46.07047" lon="3.73569">
        <ele>815</ele>
        <time>2011-07-09T11:27:34Z</time>
      </trkpt>
      <trkpt lat="46.07044" lon="3.73566">
        <ele>816</ele>
        <time>2011-07-09T11:27:35Z</time>
      </trkpt>
      <trkpt lat="46.07041" lon="3.73564">
        <ele>816</ele>
        <time>2011-07-09T11:27:36Z</time>
      </trkpt>
      <trkpt lat="46.07039" lon="3.73563">
        <ele>816</ele>
        <time>2011-07-09T11:27:37Z</time>
      </trkpt>
      <trkpt lat="46.07038" lon="3.73561">
        <ele>816</ele>
        <time>2011-07-09T11:27:38Z</time>
      </trkpt>
      <trkpt lat="46.07035" lon="3.73558">
        <ele>816</ele>
        <time>2011-07-09T11:27:39Z</time>
      </trkpt>
      <trkpt lat="46.07019" lon="3.73541">
        <ele>817</ele>
        <time>2011-07-09T11:27:45Z</time>
      </trkpt>
      <trkpt lat="46.07018" lon="3.73538">
        <ele>817</ele>
        <time>2011-07-09T11:27:46Z</time>
      </trkpt>
      <trkpt lat="46.07018" lon="3.73535">
        <ele>817</ele>
        <time>2011-07-09T11:27:47Z</time>
      </trkpt>
      <trkpt lat="46.07006" lon="3.73513">
        <ele>818</ele>
        <time>2011-07-09T11:27:53Z</time>
      </trkpt>
      <trkpt lat="46.06994" lon="3.73488">
        <ele>819</ele>
        <time>2011-07-09T11:28:00Z</time>
      </trkpt>
      <trkpt lat="46.0699" lon="3.73475">
        <ele>820</ele>
        <time>2011-07-09T11:28:05Z</time>
      </trkpt>
      <trkpt lat="46.06989" lon="3.73465">
        <ele>820</ele>
        <time>2011-07-09T11:28:09Z</time>
      </trkpt>
      <trkpt lat="46.06987" lon="3.73462">
        <ele>820</ele>
        <time>2011-07-09T11:28:10Z</time>
      </trkpt>
      <trkpt lat="46.06986" lon="3.73457">
        <ele>820</ele>
        <time>2011-07-09T11:28:11Z</time>
      </trkpt>
      <trkpt lat="46.06984" lon="3.73454">
        <ele>821</ele>
        <time>2011-07-09T11:28:12Z</time>
      </trkpt>
      <trkpt lat="46.06982" lon="3.73449">
        <ele>821</ele>
        <time>2011-07-09T11:28:13Z</time>
      </trkpt>
      <trkpt lat="46.06982" lon="3.73446">
        <ele>821</ele>
        <time>2011-07-09T11:28:14Z</time>
      </trkpt>
      <trkpt lat="46.06982" lon="3.73442">
        <ele>821</ele>
        <time>2011-07-09T11:28:15Z</time>
      </trkpt>
      <trkpt lat="46.06982" lon="3.73439">
        <ele>821</ele>
        <time>2011-07-09T11:28:16Z</time>
      </trkpt>
      <trkpt lat="46.06982" lon="3.73435">
        <ele>822</ele>
        <time>2011-07-09T11:28:17Z</time>
      </trkpt>
      <trkpt lat="46.06981" lon="3.73432">
        <ele>822</ele>
        <time>2011-07-09T11:28:18Z</time>
      </trkpt>
      <trkpt lat="46.06981" lon="3.73429">
        <ele>822</ele>
        <time>2011-07-09T11:28:19Z</time>
      </trkpt>
      <trkpt lat="46.06981" lon="3.73425">
        <ele>823</ele>
        <time>2011-07-09T11:28:20Z</time>
      </trkpt>
      <trkpt lat="46.0698" lon="3.73422">
        <ele>823</ele>
        <time>2011-07-09T11:28:21Z</time>
      </trkpt>
      <trkpt lat="46.06979" lon="3.73418">
        <ele>823</ele>
        <time>2011-07-09T11:28:22Z</time>
      </trkpt>
      <trkpt lat="46.06979" lon="3.73395">
        <ele>824</ele>
        <time>2011-07-09T11:28:28Z</time>
      </trkpt>
      <trkpt lat="46.06977" lon="3.73372">
        <ele>824</ele>
        <time>2011-07-09T11:28:35Z</time>
      </trkpt>
      <trkpt lat="46.06978" lon="3.73366">
        <ele>824</ele>
        <time>2011-07-09T11:28:37Z</time>
      </trkpt>
      <trkpt lat="46.06978" lon="3.73362">
        <ele>824</ele>
        <time>2011-07-09T11:28:38Z</time>
      </trkpt>
      <trkpt lat="46.06982" lon="3.73324">
        <ele>823</ele>
        <time>2011-07-09T11:28:45Z</time>
      </trkpt>
      <trkpt lat="46.06987" lon="3.73307">
        <ele>823</ele>
        <time>2011-07-09T11:28:48Z</time>
      </trkpt>
      <trkpt lat="46.06996" lon="3.73283">
        <ele>822</ele>
        <time>2011-07-09T11:28:52Z</time>
      </trkpt>
      <trkpt lat="46.06999" lon="3.73278">
        <ele>822</ele>
        <time>2011-07-09T11:28:53Z</time>
      </trkpt>
      <trkpt lat="46.07001" lon="3.73273">
        <ele>822</ele>
        <time>2011-07-09T11:28:54Z</time>
      </trkpt>
      <trkpt lat="46.07002" lon="3.73269">
        <ele>822</ele>
        <time>2011-07-09T11:28:55Z</time>
      </trkpt>
      <trkpt lat="46.07006" lon="3.73256">
        <ele>822</ele>
        <time>2011-07-09T11:28:57Z</time>
      </trkpt>
      <trkpt lat="46.07008" lon="3.7325">
        <ele>822</ele>
        <time>2011-07-09T11:28:58Z</time>
      </trkpt>
      <trkpt lat="46.07011" lon="3.73245">
        <ele>822</ele>
        <time>2011-07-09T11:28:59Z</time>
      </trkpt>
      <trkpt lat="46.07014" lon="3.7324">
        <ele>822</ele>
        <time>2011-07-09T11:29:00Z</time>
      </trkpt>
      <trkpt lat="46.07018" lon="3.73236">
        <ele>822</ele>
        <time>2011-07-09T11:29:01Z</time>
      </trkpt>
      <trkpt lat="46.07029" lon="3.73214">
        <ele>824</ele>
        <time>2011-07-09T11:29:06Z</time>
      </trkpt>
      <trkpt lat="46.07035" lon="3.732">
        <ele>825</ele>
        <time>2011-07-09T11:29:09Z</time>
      </trkpt>
      <trkpt lat="46.07038" lon="3.73168">
        <ele>827</ele>
        <time>2011-07-09T11:29:15Z</time>
      </trkpt>
      <trkpt lat="46.07039" lon="3.73144">
        <ele>828</ele>
        <time>2011-07-09T11:29:21Z</time>
      </trkpt>
      <trkpt lat="46.07035" lon="3.73131">
        <ele>829</ele>
        <time>2011-07-09T11:29:25Z</time>
      </trkpt>
      <trkpt lat="46.07034" lon="3.73128">
        <ele>829</ele>
        <time>2011-07-09T11:29:26Z</time>
      </trkpt>
      <trkpt lat="46.07032" lon="3.73126">
        <ele>829</ele>
        <time>2011-07-09T11:29:27Z</time>
      </trkpt>
      <trkpt lat="46.07023" lon="3.73124">
        <ele>830</ele>
        <time>2011-07-09T11:29:32Z</time>
      </trkpt>
      <trkpt lat="46.07008" lon="3.73123">
        <ele>832</ele>
        <time>2011-07-09T11:29:41Z</time>
      </trkpt>
      <trkpt lat="46.07002" lon="3.73123">
        <ele>833</ele>
        <time>2011-07-09T11:29:46Z</time>
      </trkpt>
      <trkpt lat="46.06995" lon="3.7312">
        <ele>834</ele>
        <time>2011-07-09T11:29:52Z</time>
      </trkpt>
      <trkpt lat="46.06983" lon="3.73108">
        <ele>836</ele>
        <time>2011-07-09T11:30:01Z</time>
      </trkpt>
      <trkpt lat="46.06976" lon="3.7309">
        <ele>836</ele>
        <time>2011-07-09T11:30:09Z</time>
      </trkpt>
      <trkpt lat="46.06968" lon="3.73072">
        <ele>836</ele>
        <time>2011-07-09T11:30:16Z</time>
      </trkpt>
      <trkpt lat="46.06954" lon="3.7305">
        <ele>836</ele>
        <time>2011-07-09T11:30:25Z</time>
      </trkpt>
      <trkpt lat="46.06943" lon="3.73037">
        <ele>835</ele>
        <time>2011-07-09T11:30:30Z</time>
      </trkpt>
      <trkpt lat="46.06926" lon="3.73025">
        <ele>833</ele>
        <time>2011-07-09T11:30:35Z</time>
      </trkpt>
      <trkpt lat="46.06916" lon="3.7302">
        <ele>831</ele>
        <time>2011-07-09T11:30:38Z</time>
      </trkpt>
      <trkpt lat="46.06908" lon="3.73016">
        <ele>829</ele>
        <time>2011-07-09T11:30:41Z</time>
      </trkpt>
      <trkpt lat="46.06893" lon="3.73013">
        <ele>828</ele>
        <time>2011-07-09T11:30:44Z</time>
      </trkpt>
      <trkpt lat="46.06887" lon="3.73013">
        <ele>827</ele>
        <time>2011-07-09T11:30:45Z</time>
      </trkpt>
      <trkpt lat="46.06859" lon="3.73021">
        <ele>824</ele>
        <time>2011-07-09T11:30:51Z</time>
      </trkpt>
      <trkpt lat="46.06838" lon="3.73028">
        <ele>823</ele>
        <time>2011-07-09T11:30:58Z</time>
      </trkpt>
      <trkpt lat="46.06833" lon="3.73036">
        <ele>823</ele>
        <time>2011-07-09T11:31:02Z</time>
      </trkpt>
      <trkpt lat="46.06833" lon="3.73036">
        <ele>823</ele>
        <time>2011-07-09T11:31:13Z</time>
      </trkpt>
      <trkpt lat="46.06833" lon="3.73036">
        <ele>823</ele>
        <time>2011-07-09T11:31:31Z</time>
      </trkpt>
      <trkpt lat="46.06833" lon="3.73036">
        <ele>823</ele>
        <time>2011-07-09T11:31:46Z</time>
      </trkpt>
      <trkpt lat="46.06833" lon="3.73036">
        <ele>824</ele>
        <time>2011-07-09T11:32:04Z</time>
      </trkpt>
      <trkpt lat="46.06833" lon="3.73036">
        <ele>824</ele>
        <time>2011-07-09T11:32:19Z</time>
      </trkpt>
      <trkpt lat="46.06833" lon="3.73037">
        <ele>823</ele>
        <time>2011-07-09T11:32:32Z</time>
      </trkpt>
      <trkpt lat="46.06833" lon="3.73037">
        <ele>824</ele>
        <time>2011-07-09T11:32:49Z</time>
      </trkpt>
      <trkpt lat="46.06833" lon="3.73038">
        <ele>824</ele>
        <time>2011-07-09T11:33:07Z</time>
      </trkpt>
      <trkpt lat="46.06833" lon="3.73038">
        <ele>824</ele>
        <time>2011-07-09T11:33:28Z</time>
      </trkpt>
      <trkpt lat="46.06833" lon="3.73038">
        <ele>824</ele>
        <time>2011-07-09T11:33:29Z</time>
      </trkpt>
      <trkpt lat="46.06826" lon="3.73044">
        <ele>824</ele>
        <time>2011-07-09T11:33:35Z</time>
      </trkpt>
      <trkpt lat="46.06827" lon="3.73045">
        <ele>824</ele>
        <time>2011-07-09T11:33:40Z</time>
      </trkpt>
      <trkpt lat="46.06826" lon="3.73046">
        <ele>824</ele>
        <time>2011-07-09T11:33:41Z</time>
      </trkpt>
      <trkpt lat="46.06824" lon="3.7305">
        <ele>824</ele>
        <time>2011-07-09T11:33:44Z</time>
      </trkpt>
      <trkpt lat="46.0682" lon="3.73056">
        <ele>824</ele>
        <time>2011-07-09T11:33:48Z</time>
      </trkpt>
      <trkpt lat="46.06817" lon="3.73064">
        <ele>825</ele>
        <time>2011-07-09T11:33:52Z</time>
      </trkpt>
      <trkpt lat="46.06802" lon="3.73073">
        <ele>824</ele>
        <time>2011-07-09T11:34:01Z</time>
      </trkpt>
      <trkpt lat="46.06794" lon="3.73082">
        <ele>825</ele>
        <time>2011-07-09T11:34:07Z</time>
      </trkpt>
      <trkpt lat="46.06791" lon="3.73086">
        <ele>826</ele>
        <time>2011-07-09T11:34:09Z</time>
      </trkpt>
      <trkpt lat="46.06776" lon="3.7309">
        <ele>825</ele>
        <time>2011-07-09T11:34:15Z</time>
      </trkpt>
      <trkpt lat="46.06773" lon="3.73089">
        <ele>825</ele>
        <time>2011-07-09T11:34:16Z</time>
      </trkpt>
      <trkpt lat="46.06766" lon="3.73087">
        <ele>824</ele>
        <time>2011-07-09T11:34:18Z</time>
      </trkpt>
      <trkpt lat="46.06757" lon="3.73086">
        <ele>823</ele>
        <time>2011-07-09T11:34:21Z</time>
      </trkpt>
      <trkpt lat="46.06749" lon="3.73086">
        <ele>823</ele>
        <time>2011-07-09T11:34:24Z</time>
      </trkpt>
      <trkpt lat="46.06738" lon="3.73102">
        <ele>824</ele>
        <time>2011-07-09T11:34:31Z</time>
      </trkpt>
      <trkpt lat="46.06733" lon="3.73105">
        <ele>823</ele>
        <time>2011-07-09T11:34:33Z</time>
      </trkpt>
      <trkpt lat="46.06721" lon="3.73106">
        <ele>823</ele>
        <time>2011-07-09T11:34:36Z</time>
      </trkpt>
      <trkpt lat="46.0671" lon="3.73115">
        <ele>823</ele>
        <time>2011-07-09T11:34:39Z</time>
      </trkpt>
      <trkpt lat="46.06697" lon="3.73125">
        <ele>824</ele>
        <time>2011-07-09T11:34:45Z</time>
      </trkpt>
      <trkpt lat="46.0669" lon="3.73134">
        <ele>824</ele>
        <time>2011-07-09T11:34:50Z</time>
      </trkpt>
      <trkpt lat="46.06686" lon="3.73146">
        <ele>826</ele>
        <time>2011-07-09T11:34:56Z</time>
      </trkpt>
      <trkpt lat="46.06678" lon="3.73159">
        <ele>828</ele>
        <time>2011-07-09T11:35:02Z</time>
      </trkpt>
      <trkpt lat="46.06664" lon="3.73173">
        <ele>830</ele>
        <time>2011-07-09T11:35:09Z</time>
      </trkpt>
      <trkpt lat="46.06647" lon="3.73179">
        <ele>830</ele>
        <time>2011-07-09T11:35:14Z</time>
      </trkpt>
      <trkpt lat="46.06643" lon="3.7318">
        <ele>830</ele>
        <time>2011-07-09T11:35:15Z</time>
      </trkpt>
      <trkpt lat="46.0664" lon="3.73181">
        <ele>830</ele>
        <time>2011-07-09T11:35:16Z</time>
      </trkpt>
      <trkpt lat="46.06624" lon="3.73193">
        <ele>831</ele>
        <time>2011-07-09T11:35:23Z</time>
      </trkpt>
      <trkpt lat="46.06617" lon="3.73209">
        <ele>834</ele>
        <time>2011-07-09T11:35:30Z</time>
      </trkpt>
      <trkpt lat="46.06608" lon="3.7322">
        <ele>835</ele>
        <time>2011-07-09T11:35:36Z</time>
      </trkpt>
      <trkpt lat="46.06591" lon="3.73234">
        <ele>835</ele>
        <time>2011-07-09T11:35:44Z</time>
      </trkpt>
      <trkpt lat="46.06577" lon="3.73253">
        <ele>835</ele>
        <time>2011-07-09T11:35:51Z</time>
      </trkpt>
      <trkpt lat="46.06567" lon="3.73264">
        <ele>836</ele>
        <time>2011-07-09T11:35:57Z</time>
      </trkpt>
      <trkpt lat="46.06561" lon="3.73268">
        <ele>835</ele>
        <time>2011-07-09T11:35:59Z</time>
      </trkpt>
      <trkpt lat="46.06539" lon="3.73288">
        <ele>833</ele>
        <time>2011-07-09T11:36:05Z</time>
      </trkpt>
      <trkpt lat="46.06522" lon="3.73304">
        <ele>830</ele>
        <time>2011-07-09T11:36:10Z</time>
      </trkpt>
      <trkpt lat="46.06512" lon="3.73314">
        <ele>829</ele>
        <time>2011-07-09T11:36:13Z</time>
      </trkpt>
      <trkpt lat="46.06501" lon="3.73328">
        <ele>827</ele>
        <time>2011-07-09T11:36:16Z</time>
      </trkpt>
      <trkpt lat="46.0648" lon="3.73355">
        <ele>824</ele>
        <time>2011-07-09T11:36:22Z</time>
      </trkpt>
      <trkpt lat="46.06476" lon="3.73359">
        <ele>823</ele>
        <time>2011-07-09T11:36:23Z</time>
      </trkpt>
      <trkpt lat="46.06457" lon="3.73385">
        <ele>818</ele>
        <time>2011-07-09T11:36:29Z</time>
      </trkpt>
      <trkpt lat="46.0645" lon="3.7341">
        <ele>818</ele>
        <time>2011-07-09T11:36:34Z</time>
      </trkpt>
      <trkpt lat="46.06444" lon="3.73432">
        <ele>819</ele>
        <time>2011-07-09T11:36:40Z</time>
      </trkpt>
      <trkpt lat="46.06435" lon="3.73457">
        <ele>819</ele>
        <time>2011-07-09T11:36:46Z</time>
      </trkpt>
      <trkpt lat="46.06419" lon="3.73498">
        <ele>815</ele>
        <time>2011-07-09T11:36:52Z</time>
      </trkpt>
      <trkpt lat="46.06411" lon="3.73522">
        <ele>815</ele>
        <time>2011-07-09T11:36:56Z</time>
      </trkpt>
      <trkpt lat="46.06408" lon="3.73552">
        <ele>812</ele>
        <time>2011-07-09T11:37:01Z</time>
      </trkpt>
      <trkpt lat="46.06397" lon="3.73608">
        <ele>808</ele>
        <time>2011-07-09T11:37:08Z</time>
      </trkpt>
      <trkpt lat="46.06393" lon="3.73631">
        <ele>807</ele>
        <time>2011-07-09T11:37:11Z</time>
      </trkpt>
      <trkpt lat="46.06392" lon="3.73677">
        <ele>807</ele>
        <time>2011-07-09T11:37:18Z</time>
      </trkpt>
      <trkpt lat="46.06389" lon="3.73697">
        <ele>806</ele>
        <time>2011-07-09T11:37:21Z</time>
      </trkpt>
      <trkpt lat="46.06389" lon="3.73711">
        <ele>806</ele>
        <time>2011-07-09T11:37:23Z</time>
      </trkpt>
      <trkpt lat="46.0639" lon="3.73724">
        <ele>806</ele>
        <time>2011-07-09T11:37:25Z</time>
      </trkpt>
      <trkpt lat="46.06393" lon="3.73743">
        <ele>806</ele>
        <time>2011-07-09T11:37:28Z</time>
      </trkpt>
      <trkpt lat="46.06393" lon="3.73749">
        <ele>806</ele>
        <time>2011-07-09T11:37:29Z</time>
      </trkpt>
      <trkpt lat="46.06392" lon="3.73771">
        <ele>805</ele>
        <time>2011-07-09T11:37:32Z</time>
      </trkpt>
      <trkpt lat="46.06392" lon="3.73778">
        <ele>805</ele>
        <time>2011-07-09T11:37:33Z</time>
      </trkpt>
      <trkpt lat="46.06393" lon="3.73811">
        <ele>805</ele>
        <time>2011-07-09T11:37:38Z</time>
      </trkpt>
      <trkpt lat="46.06392" lon="3.73819">
        <ele>804</ele>
        <time>2011-07-09T11:37:39Z</time>
      </trkpt>
      <trkpt lat="46.0639" lon="3.73833">
        <ele>803</ele>
        <time>2011-07-09T11:37:41Z</time>
      </trkpt>
      <trkpt lat="46.0639" lon="3.73838">
        <ele>803</ele>
        <time>2011-07-09T11:37:42Z</time>
      </trkpt>
      <trkpt lat="46.0639" lon="3.73842">
        <ele>803</ele>
        <time>2011-07-09T11:37:43Z</time>
      </trkpt>
      <trkpt lat="46.0639" lon="3.73844">
        <ele>803</ele>
        <time>2011-07-09T11:37:44Z</time>
      </trkpt>
      <trkpt lat="46.0639" lon="3.73847">
        <ele>803</ele>
        <time>2011-07-09T11:37:45Z</time>
      </trkpt>
      <trkpt lat="46.0639" lon="3.73849">
        <ele>804</ele>
        <time>2011-07-09T11:37:46Z</time>
      </trkpt>
      <trkpt lat="46.0639" lon="3.73852">
        <ele>804</ele>
        <time>2011-07-09T11:37:47Z</time>
      </trkpt>
      <trkpt lat="46.06391" lon="3.73854">
        <ele>804</ele>
        <time>2011-07-09T11:37:48Z</time>
      </trkpt>
      <trkpt lat="46.06391" lon="3.73857">
        <ele>804</ele>
        <time>2011-07-09T11:37:49Z</time>
      </trkpt>
      <trkpt lat="46.06391" lon="3.7386">
        <ele>804</ele>
        <time>2011-07-09T11:37:50Z</time>
      </trkpt>
      <trkpt lat="46.0639" lon="3.73875">
        <ele>805</ele>
        <time>2011-07-09T11:37:56Z</time>
      </trkpt>
      <trkpt lat="46.06391" lon="3.73897">
        <ele>805</ele>
        <time>2011-07-09T11:38:04Z</time>
      </trkpt>
      <trkpt lat="46.06388" lon="3.73917">
        <ele>805</ele>
        <time>2011-07-09T11:38:12Z</time>
      </trkpt>
      <trkpt lat="46.06389" lon="3.73935">
        <ele>807</ele>
        <time>2011-07-09T11:38:19Z</time>
      </trkpt>
      <trkpt lat="46.06389" lon="3.73938">
        <ele>807</ele>
        <time>2011-07-09T11:38:25Z</time>
      </trkpt>
      <trkpt lat="46.06389" lon="3.73938">
        <ele>807</ele>
        <time>2011-07-09T11:38:35Z</time>
      </trkpt>
      <trkpt lat="46.06389" lon="3.73938">
        <ele>807</ele>
        <time>2011-07-09T11:38:44Z</time>
      </trkpt>
      <trkpt lat="46.06389" lon="3.73938">
        <ele>807</ele>
        <time>2011-07-09T11:38:50Z</time>
      </trkpt>
      <trkpt lat="46.06389" lon="3.73945">
        <ele>808</ele>
        <time>2011-07-09T11:38:54Z</time>
      </trkpt>
      <trkpt lat="46.06388" lon="3.73947">
        <ele>808</ele>
        <time>2011-07-09T11:38:55Z</time>
      </trkpt>
      <trkpt lat="46.06388" lon="3.73949">
        <ele>808</ele>
        <time>2011-07-09T11:38:56Z</time>
      </trkpt>
      <trkpt lat="46.06388" lon="3.73952">
        <ele>808</ele>
        <time>2011-07-09T11:38:57Z</time>
      </trkpt>
      <trkpt lat="46.06387" lon="3.73954">
        <ele>808</ele>
        <time>2011-07-09T11:38:58Z</time>
      </trkpt>
      <trkpt lat="46.06387" lon="3.73957">
        <ele>808</ele>
        <time>2011-07-09T11:38:59Z</time>
      </trkpt>
      <trkpt lat="46.06386" lon="3.7396">
        <ele>808</ele>
        <time>2011-07-09T11:39:00Z</time>
      </trkpt>
      <trkpt lat="46.06385" lon="3.73964">
        <ele>808</ele>
        <time>2011-07-09T11:39:01Z</time>
      </trkpt>
      <trkpt lat="46.06385" lon="3.73967">
        <ele>808</ele>
        <time>2011-07-09T11:39:02Z</time>
      </trkpt>
      <trkpt lat="46.06372" lon="3.74002">
        <ele>809</ele>
        <time>2011-07-09T11:39:11Z</time>
      </trkpt>
      <trkpt lat="46.06359" lon="3.7402">
        <ele>811</ele>
        <time>2011-07-09T11:39:17Z</time>
      </trkpt>
      <trkpt lat="46.06347" lon="3.74042">
        <ele>813</ele>
        <time>2011-07-09T11:39:25Z</time>
      </trkpt>
      <trkpt lat="46.06337" lon="3.7406">
        <ele>815</ele>
        <time>2011-07-09T11:39:32Z</time>
      </trkpt>
      <trkpt lat="46.06326" lon="3.74074">
        <ele>818</ele>
        <time>2011-07-09T11:39:39Z</time>
      </trkpt>
      <trkpt lat="46.06316" lon="3.74089">
        <ele>820</ele>
        <time>2011-07-09T11:39:46Z</time>
      </trkpt>
      <trkpt lat="46.06315" lon="3.74092">
        <ele>821</ele>
        <time>2011-07-09T11:39:48Z</time>
      </trkpt>
      <trkpt lat="46.06313" lon="3.74093">
        <ele>821</ele>
        <time>2011-07-09T11:39:49Z</time>
      </trkpt>
      <trkpt lat="46.06312" lon="3.74094">
        <ele>821</ele>
        <time>2011-07-09T11:39:50Z</time>
      </trkpt>
      <trkpt lat="46.06311" lon="3.74095">
        <ele>822</ele>
        <time>2011-07-09T11:39:51Z</time>
      </trkpt>
      <trkpt lat="46.0631" lon="3.74096">
        <ele>822</ele>
        <time>2011-07-09T11:39:52Z</time>
      </trkpt>
      <trkpt lat="46.06308" lon="3.74098">
        <ele>822</ele>
        <time>2011-07-09T11:39:53Z</time>
      </trkpt>
      <trkpt lat="46.06307" lon="3.74099">
        <ele>822</ele>
        <time>2011-07-09T11:39:54Z</time>
      </trkpt>
      <trkpt lat="46.06306" lon="3.741">
        <ele>822</ele>
        <time>2011-07-09T11:39:55Z</time>
      </trkpt>
      <trkpt lat="46.06302" lon="3.74106">
        <ele>824</ele>
        <time>2011-07-09T11:40:00Z</time>
      </trkpt>
      <trkpt lat="46.06295" lon="3.74116">
        <ele>825</ele>
        <time>2011-07-09T11:40:06Z</time>
      </trkpt>
      <trkpt lat="46.06287" lon="3.74128">
        <ele>827</ele>
        <time>2011-07-09T11:40:14Z</time>
      </trkpt>
      <trkpt lat="46.06284" lon="3.74135">
        <ele>829</ele>
        <time>2011-07-09T11:40:18Z</time>
      </trkpt>
      <trkpt lat="46.06283" lon="3.74137">
        <ele>829</ele>
        <time>2011-07-09T11:40:19Z</time>
      </trkpt>
      <trkpt lat="46.06282" lon="3.74139">
        <ele>829</ele>
        <time>2011-07-09T11:40:20Z</time>
      </trkpt>
      <trkpt lat="46.06282" lon="3.74141">
        <ele>829</ele>
        <time>2011-07-09T11:40:21Z</time>
      </trkpt>
      <trkpt lat="46.06281" lon="3.74142">
        <ele>830</ele>
        <time>2011-07-09T11:40:22Z</time>
      </trkpt>
      <trkpt lat="46.06279" lon="3.74144">
        <ele>830</ele>
        <time>2011-07-09T11:40:23Z</time>
      </trkpt>
      <trkpt lat="46.06278" lon="3.74145">
        <ele>830</ele>
        <time>2011-07-09T11:40:24Z</time>
      </trkpt>
      <trkpt lat="46.06268" lon="3.74157">
        <ele>832</ele>
        <time>2011-07-09T11:40:31Z</time>
      </trkpt>
      <trkpt lat="46.06267" lon="3.74159">
        <ele>833</ele>
        <time>2011-07-09T11:40:32Z</time>
      </trkpt>
      <trkpt lat="46.06266" lon="3.7416">
        <ele>833</ele>
        <time>2011-07-09T11:40:33Z</time>
      </trkpt>
      <trkpt lat="46.06255" lon="3.74178">
        <ele>835</ele>
        <time>2011-07-09T11:40:41Z</time>
      </trkpt>
      <trkpt lat="46.06246" lon="3.74193">
        <ele>837</ele>
        <time>2011-07-09T11:40:48Z</time>
      </trkpt>
      <trkpt lat="46.06237" lon="3.74206">
        <ele>840</ele>
        <time>2011-07-09T11:40:54Z</time>
      </trkpt>
      <trkpt lat="46.06236" lon="3.74208">
        <ele>840</ele>
        <time>2011-07-09T11:40:55Z</time>
      </trkpt>
      <trkpt lat="46.06234" lon="3.7421">
        <ele>840</ele>
        <time>2011-07-09T11:40:56Z</time>
      </trkpt>
      <trkpt lat="46.06231" lon="3.74218">
        <ele>842</ele>
        <time>2011-07-09T11:40:59Z</time>
      </trkpt>
      <trkpt lat="46.06227" lon="3.7423">
        <ele>843</ele>
        <time>2011-07-09T11:41:03Z</time>
      </trkpt>
      <trkpt lat="46.06226" lon="3.74232">
        <ele>844</ele>
        <time>2011-07-09T11:41:04Z</time>
      </trkpt>
      <trkpt lat="46.06224" lon="3.74234">
        <ele>844</ele>
        <time>2011-07-09T11:41:05Z</time>
      </trkpt>
      <trkpt lat="46.06218" lon="3.74241">
        <ele>846</ele>
        <time>2011-07-09T11:41:11Z</time>
      </trkpt>
      <trkpt lat="46.06218" lon="3.74242">
        <ele>846</ele>
        <time>2011-07-09T11:41:20Z</time>
      </trkpt>
      <trkpt lat="46.06218" lon="3.74242">
        <ele>846</ele>
        <time>2011-07-09T11:41:30Z</time>
      </trkpt>
      <trkpt lat="46.06218" lon="3.74242">
        <ele>846</ele>
        <time>2011-07-09T11:41:37Z</time>
      </trkpt>
      <trkpt lat="46.06216" lon="3.74246">
        <ele>846</ele>
        <time>2011-07-09T11:41:43Z</time>
      </trkpt>
      <trkpt lat="46.06215" lon="3.74247">
        <ele>847</ele>
        <time>2011-07-09T11:41:44Z</time>
      </trkpt>
      <trkpt lat="46.06214" lon="3.74249">
        <ele>846</ele>
        <time>2011-07-09T11:41:45Z</time>
      </trkpt>
      <trkpt lat="46.06211" lon="3.74258">
        <ele>848</ele>
        <time>2011-07-09T11:41:52Z</time>
      </trkpt>
      <trkpt lat="46.06212" lon="3.74261">
        <ele>848</ele>
        <time>2011-07-09T11:41:56Z</time>
      </trkpt>
      <trkpt lat="46.0621" lon="3.74265">
        <ele>848</ele>
        <time>2011-07-09T11:41:57Z</time>
      </trkpt>
      <trkpt lat="46.06207" lon="3.74273">
        <ele>849</ele>
        <time>2011-07-09T11:42:02Z</time>
      </trkpt>
      <trkpt lat="46.06206" lon="3.74275">
        <ele>850</ele>
        <time>2011-07-09T11:42:03Z</time>
      </trkpt>
      <trkpt lat="46.06205" lon="3.74277">
        <ele>850</ele>
        <time>2011-07-09T11:42:04Z</time>
      </trkpt>
      <trkpt lat="46.06204" lon="3.74279">
        <ele>851</ele>
        <time>2011-07-09T11:42:05Z</time>
      </trkpt>
      <trkpt lat="46.06203" lon="3.74281">
        <ele>851</ele>
        <time>2011-07-09T11:42:06Z</time>
      </trkpt>
      <trkpt lat="46.06202" lon="3.74283">
        <ele>852</ele>
        <time>2011-07-09T11:42:07Z</time>
      </trkpt>
      <trkpt lat="46.06195" lon="3.74296">
        <ele>854</ele>
        <time>2011-07-09T11:42:14Z</time>
      </trkpt>
      <trkpt lat="46.06189" lon="3.7431">
        <ele>856</ele>
        <time>2011-07-09T11:42:22Z</time>
      </trkpt>
      <trkpt lat="46.06187" lon="3.74314">
        <ele>857</ele>
        <time>2011-07-09T11:42:24Z</time>
      </trkpt>
      <trkpt lat="46.06179" lon="3.74328">
        <ele>858</ele>
        <time>2011-07-09T11:42:31Z</time>
      </trkpt>
      <trkpt lat="46.06171" lon="3.74346">
        <ele>860</ele>
        <time>2011-07-09T11:42:39Z</time>
      </trkpt>
      <trkpt lat="46.06171" lon="3.74348">
        <ele>860</ele>
        <time>2011-07-09T11:42:40Z</time>
      </trkpt>
      <trkpt lat="46.0617" lon="3.7435">
        <ele>860</ele>
        <time>2011-07-09T11:42:41Z</time>
      </trkpt>
      <trkpt lat="46.0617" lon="3.74352">
        <ele>860</ele>
        <time>2011-07-09T11:42:42Z</time>
      </trkpt>
      <trkpt lat="46.06169" lon="3.74354">
        <ele>860</ele>
        <time>2011-07-09T11:42:43Z</time>
      </trkpt>
      <trkpt lat="46.06169" lon="3.74356">
        <ele>861</ele>
        <time>2011-07-09T11:42:44Z</time>
      </trkpt>
      <trkpt lat="46.06168" lon="3.74359">
        <ele>861</ele>
        <time>2011-07-09T11:42:45Z</time>
      </trkpt>
      <trkpt lat="46.06167" lon="3.74362">
        <ele>861</ele>
        <time>2011-07-09T11:42:46Z</time>
      </trkpt>
      <trkpt lat="46.06167" lon="3.74364">
        <ele>861</ele>
        <time>2011-07-09T11:42:47Z</time>
      </trkpt>
      <trkpt lat="46.06166" lon="3.74366">
        <ele>861</ele>
        <time>2011-07-09T11:42:48Z</time>
      </trkpt>
      <trkpt lat="46.06165" lon="3.74368">
        <ele>861</ele>
        <time>2011-07-09T11:42:49Z</time>
      </trkpt>
      <trkpt lat="46.06165" lon="3.74371">
        <ele>861</ele>
        <time>2011-07-09T11:42:50Z</time>
      </trkpt>
      <trkpt lat="46.06165" lon="3.74373">
        <ele>861</ele>
        <time>2011-07-09T11:42:51Z</time>
      </trkpt>
      <trkpt lat="46.06164" lon="3.74376">
        <ele>862</ele>
        <time>2011-07-09T11:42:52Z</time>
      </trkpt>
      <trkpt lat="46.06163" lon="3.74379">
        <ele>862</ele>
        <time>2011-07-09T11:42:53Z</time>
      </trkpt>
      <trkpt lat="46.06162" lon="3.74381">
        <ele>862</ele>
        <time>2011-07-09T11:42:54Z</time>
      </trkpt>
      <trkpt lat="46.06162" lon="3.74384">
        <ele>862</ele>
        <time>2011-07-09T11:42:55Z</time>
      </trkpt>
      <trkpt lat="46.06161" lon="3.74387">
        <ele>863</ele>
        <time>2011-07-09T11:42:56Z</time>
      </trkpt>
      <trkpt lat="46.06161" lon="3.7439">
        <ele>863</ele>
        <time>2011-07-09T11:42:57Z</time>
      </trkpt>
      <trkpt lat="46.0616" lon="3.74392">
        <ele>863</ele>
        <time>2011-07-09T11:42:58Z</time>
      </trkpt>
      <trkpt lat="46.0616" lon="3.74393">
        <ele>863</ele>
        <time>2011-07-09T11:43:03Z</time>
      </trkpt>
      <trkpt lat="46.0616" lon="3.74393">
        <ele>863</ele>
        <time>2011-07-09T11:43:08Z</time>
      </trkpt>
      <trkpt lat="46.06159" lon="3.74399">
        <ele>863</ele>
        <time>2011-07-09T11:43:11Z</time>
      </trkpt>
      <trkpt lat="46.06159" lon="3.74402">
        <ele>863</ele>
        <time>2011-07-09T11:43:12Z</time>
      </trkpt>
      <trkpt lat="46.06159" lon="3.74406">
        <ele>864</ele>
        <time>2011-07-09T11:43:13Z</time>
      </trkpt>
      <trkpt lat="46.06158" lon="3.74409">
        <ele>864</ele>
        <time>2011-07-09T11:43:14Z</time>
      </trkpt>
      <trkpt lat="46.06158" lon="3.74413">
        <ele>864</ele>
        <time>2011-07-09T11:43:15Z</time>
      </trkpt>
      <trkpt lat="46.06155" lon="3.74444">
        <ele>865</ele>
        <time>2011-07-09T11:43:22Z</time>
      </trkpt>
      <trkpt lat="46.06157" lon="3.74477">
        <ele>866</ele>
        <time>2011-07-09T11:43:29Z</time>
      </trkpt>
      <trkpt lat="46.06159" lon="3.74502">
        <ele>866</ele>
        <time>2011-07-09T11:43:35Z</time>
      </trkpt>
      <trkpt lat="46.0616" lon="3.74521">
        <ele>866</ele>
        <time>2011-07-09T11:43:40Z</time>
      </trkpt>
      <trkpt lat="46.0616" lon="3.74524">
        <ele>866</ele>
        <time>2011-07-09T11:43:41Z</time>
      </trkpt>
      <trkpt lat="46.0616" lon="3.74526">
        <ele>866</ele>
        <time>2011-07-09T11:43:42Z</time>
      </trkpt>
      <trkpt lat="46.06161" lon="3.74528">
        <ele>866</ele>
        <time>2011-07-09T11:43:43Z</time>
      </trkpt>
      <trkpt lat="46.06162" lon="3.74531">
        <ele>866</ele>
        <time>2011-07-09T11:43:44Z</time>
      </trkpt>
      <trkpt lat="46.06162" lon="3.74534">
        <ele>866</ele>
        <time>2011-07-09T11:43:45Z</time>
      </trkpt>
      <trkpt lat="46.06165" lon="3.74554">
        <ele>866</ele>
        <time>2011-07-09T11:43:52Z</time>
      </trkpt>
      <trkpt lat="46.0617" lon="3.74582">
        <ele>866</ele>
        <time>2011-07-09T11:44:00Z</time>
      </trkpt>
      <trkpt lat="46.06174" lon="3.74609">
        <ele>866</ele>
        <time>2011-07-09T11:44:07Z</time>
      </trkpt>
      <trkpt lat="46.06174" lon="3.74632">
        <ele>867</ele>
        <time>2011-07-09T11:44:15Z</time>
      </trkpt>
      <trkpt lat="46.06168" lon="3.74663">
        <ele>867</ele>
        <time>2011-07-09T11:44:23Z</time>
      </trkpt>
      <trkpt lat="46.06156" lon="3.74698">
        <ele>867</ele>
        <time>2011-07-09T11:44:31Z</time>
      </trkpt>
      <trkpt lat="46.06147" lon="3.74726">
        <ele>868</ele>
        <time>2011-07-09T11:44:38Z</time>
      </trkpt>
      <trkpt lat="46.06136" lon="3.74764">
        <ele>869</ele>
        <time>2011-07-09T11:44:46Z</time>
      </trkpt>
      <trkpt lat="46.06128" lon="3.74794">
        <ele>870</ele>
        <time>2011-07-09T11:44:52Z</time>
      </trkpt>
      <trkpt lat="46.06113" lon="3.74837">
        <ele>870</ele>
        <time>2011-07-09T11:45:00Z</time>
      </trkpt>
      <trkpt lat="46.06096" lon="3.74882">
        <ele>870</ele>
        <time>2011-07-09T11:45:08Z</time>
      </trkpt>
      <trkpt lat="46.06093" lon="3.74887">
        <ele>869</ele>
        <time>2011-07-09T11:45:09Z</time>
      </trkpt>
      <trkpt lat="46.06075" lon="3.74927">
        <ele>869</ele>
        <time>2011-07-09T11:45:16Z</time>
      </trkpt>
      <trkpt lat="46.0607" lon="3.74943">
        <ele>868</ele>
        <time>2011-07-09T11:45:20Z</time>
      </trkpt>
      <trkpt lat="46.06068" lon="3.74947">
        <ele>868</ele>
        <time>2011-07-09T11:45:22Z</time>
      </trkpt>
      <trkpt lat="46.06067" lon="3.74946">
        <ele>868</ele>
        <time>2011-07-09T11:45:27Z</time>
      </trkpt>
      <trkpt lat="46.06067" lon="3.74946">
        <ele>869</ele>
        <time>2011-07-09T11:45:42Z</time>
      </trkpt>
      <trkpt lat="46.06066" lon="3.74948">
        <ele>869</ele>
        <time>2011-07-09T11:45:49Z</time>
      </trkpt>
      <trkpt lat="46.06066" lon="3.74948">
        <ele>869</ele>
        <time>2011-07-09T11:46:04Z</time>
      </trkpt>
      <trkpt lat="46.06066" lon="3.74948">
        <ele>869</ele>
        <time>2011-07-09T11:46:13Z</time>
      </trkpt>
      <trkpt lat="46.06066" lon="3.74948">
        <ele>869</ele>
        <time>2011-07-09T11:46:29Z</time>
      </trkpt>
      <trkpt lat="46.06066" lon="3.74948">
        <ele>869</ele>
        <time>2011-07-09T11:46:39Z</time>
      </trkpt>
      <trkpt lat="46.06066" lon="3.74948">
        <ele>869</ele>
        <time>2011-07-09T11:46:47Z</time>
      </trkpt>
      <trkpt lat="46.06066" lon="3.7495">
        <ele>869</ele>
        <time>2011-07-09T11:46:48Z</time>
      </trkpt>
      <trkpt lat="46.06065" lon="3.74952">
        <ele>869</ele>
        <time>2011-07-09T11:46:49Z</time>
      </trkpt>
      <trkpt lat="46.06065" lon="3.74954">
        <ele>869</ele>
        <time>2011-07-09T11:46:50Z</time>
      </trkpt>
      <trkpt lat="46.06063" lon="3.74961">
        <ele>869</ele>
        <time>2011-07-09T11:46:53Z</time>
      </trkpt>
      <trkpt lat="46.06064" lon="3.74963">
        <ele>869</ele>
        <time>2011-07-09T11:46:57Z</time>
      </trkpt>
      <trkpt lat="46.06064" lon="3.74963">
        <ele>869</ele>
        <time>2011-07-09T11:47:07Z</time>
      </trkpt>
      <trkpt lat="46.06064" lon="3.74963">
        <ele>869</ele>
        <time>2011-07-09T11:47:17Z</time>
      </trkpt>
      <trkpt lat="46.0606" lon="3.74967">
        <ele>869</ele>
        <time>2011-07-09T11:47:22Z</time>
      </trkpt>
      <trkpt lat="46.06061" lon="3.7497">
        <ele>869</ele>
        <time>2011-07-09T11:47:23Z</time>
      </trkpt>
      <trkpt lat="46.06054" lon="3.74986">
        <ele>868</ele>
        <time>2011-07-09T11:47:28Z</time>
      </trkpt>
      <trkpt lat="46.06038" lon="3.75007">
        <ele>867</ele>
        <time>2011-07-09T11:47:32Z</time>
      </trkpt>
      <trkpt lat="46.06022" lon="3.75027">
        <ele>865</ele>
        <time>2011-07-09T11:47:35Z</time>
      </trkpt>
      <trkpt lat="46.06004" lon="3.75048">
        <ele>863</ele>
        <time>2011-07-09T11:47:38Z</time>
      </trkpt>
      <trkpt lat="46.05974" lon="3.75089">
        <ele>860</ele>
        <time>2011-07-09T11:47:43Z</time>
      </trkpt>
      <trkpt lat="46.05965" lon="3.75112">
        <ele>858</ele>
        <time>2011-07-09T11:47:45Z</time>
      </trkpt>
      <trkpt lat="46.05962" lon="3.75124">
        <ele>857</ele>
        <time>2011-07-09T11:47:46Z</time>
      </trkpt>
      <trkpt lat="46.0596" lon="3.75137">
        <ele>857</ele>
        <time>2011-07-09T11:47:47Z</time>
      </trkpt>
      <trkpt lat="46.05959" lon="3.75149">
        <ele>856</ele>
        <time>2011-07-09T11:47:48Z</time>
      </trkpt>
      <trkpt lat="46.05959" lon="3.75162">
        <ele>856</ele>
        <time>2011-07-09T11:47:49Z</time>
      </trkpt>
      <trkpt lat="46.05959" lon="3.75186">
        <ele>856</ele>
        <time>2011-07-09T11:47:51Z</time>
      </trkpt>
      <trkpt lat="46.05962" lon="3.7521">
        <ele>855</ele>
        <time>2011-07-09T11:47:53Z</time>
      </trkpt>
      <trkpt lat="46.05965" lon="3.75223">
        <ele>854</ele>
        <time>2011-07-09T11:47:54Z</time>
      </trkpt>
      <trkpt lat="46.05979" lon="3.75289">
        <ele>851</ele>
        <time>2011-07-09T11:47:59Z</time>
      </trkpt>
      <trkpt lat="46.05984" lon="3.75317">
        <ele>850</ele>
        <time>2011-07-09T11:48:01Z</time>
      </trkpt>
      <trkpt lat="46.05985" lon="3.75331">
        <ele>850</ele>
        <time>2011-07-09T11:48:02Z</time>
      </trkpt>
      <trkpt lat="46.05983" lon="3.75384">
        <ele>848</ele>
        <time>2011-07-09T11:48:06Z</time>
      </trkpt>
      <trkpt lat="46.05987" lon="3.75467">
        <ele>845</ele>
        <time>2011-07-09T11:48:12Z</time>
      </trkpt>
      <trkpt lat="46.05987" lon="3.7548">
        <ele>845</ele>
        <time>2011-07-09T11:48:13Z</time>
      </trkpt>
      <trkpt lat="46.05986" lon="3.75494">
        <ele>846</ele>
        <time>2011-07-09T11:48:14Z</time>
      </trkpt>
      <trkpt lat="46.05984" lon="3.75507">
        <ele>844</ele>
        <time>2011-07-09T11:48:15Z</time>
      </trkpt>
      <trkpt lat="46.0598" lon="3.75518">
        <ele>844</ele>
        <time>2011-07-09T11:48:16Z</time>
      </trkpt>
      <trkpt lat="46.05976" lon="3.75529">
        <ele>844</ele>
        <time>2011-07-09T11:48:17Z</time>
      </trkpt>
      <trkpt lat="46.05972" lon="3.75539">
        <ele>843</ele>
        <time>2011-07-09T11:48:18Z</time>
      </trkpt>
      <trkpt lat="46.05967" lon="3.75548">
        <ele>843</ele>
        <time>2011-07-09T11:48:19Z</time>
      </trkpt>
      <trkpt lat="46.05962" lon="3.75556">
        <ele>843</ele>
        <time>2011-07-09T11:48:20Z</time>
      </trkpt>
      <trkpt lat="46.05957" lon="3.75562">
        <ele>842</ele>
        <time>2011-07-09T11:48:21Z</time>
      </trkpt>
      <trkpt lat="46.05951" lon="3.75565">
        <ele>842</ele>
        <time>2011-07-09T11:48:22Z</time>
      </trkpt>
      <trkpt lat="46.05946" lon="3.75568">
        <ele>841</ele>
        <time>2011-07-09T11:48:23Z</time>
      </trkpt>
      <trkpt lat="46.0594" lon="3.75569">
        <ele>840</ele>
        <time>2011-07-09T11:48:24Z</time>
      </trkpt>
      <trkpt lat="46.05935" lon="3.7557">
        <ele>841</ele>
        <time>2011-07-09T11:48:25Z</time>
      </trkpt>
      <trkpt lat="46.05928" lon="3.7557">
        <ele>840</ele>
        <time>2011-07-09T11:48:26Z</time>
      </trkpt>
      <trkpt lat="46.05915" lon="3.75568">
        <ele>840</ele>
        <time>2011-07-09T11:48:28Z</time>
      </trkpt>
      <trkpt lat="46.05909" lon="3.75568">
        <ele>840</ele>
        <time>2011-07-09T11:48:29Z</time>
      </trkpt>
      <trkpt lat="46.05904" lon="3.7557">
        <ele>840</ele>
        <time>2011-07-09T11:48:30Z</time>
      </trkpt>
      <trkpt lat="46.05895" lon="3.75574">
        <ele>840</ele>
        <time>2011-07-09T11:48:32Z</time>
      </trkpt>
      <trkpt lat="46.0589" lon="3.75575">
        <ele>840</ele>
        <time>2011-07-09T11:48:33Z</time>
      </trkpt>
      <trkpt lat="46.05887" lon="3.75577">
        <ele>840</ele>
        <time>2011-07-09T11:48:34Z</time>
      </trkpt>
      <trkpt lat="46.05884" lon="3.75582">
        <ele>840</ele>
        <time>2011-07-09T11:48:36Z</time>
      </trkpt>
      <trkpt lat="46.05884" lon="3.75585">
        <ele>840</ele>
        <time>2011-07-09T11:48:37Z</time>
      </trkpt>
      <trkpt lat="46.05884" lon="3.75588">
        <ele>840</ele>
        <time>2011-07-09T11:48:38Z</time>
      </trkpt>
      <trkpt lat="46.05883" lon="3.75593">
        <ele>840</ele>
        <time>2011-07-09T11:48:40Z</time>
      </trkpt>
      <trkpt lat="46.05881" lon="3.75621">
        <ele>841</ele>
        <time>2011-07-09T11:48:48Z</time>
      </trkpt>
      <trkpt lat="46.05874" lon="3.75656">
        <ele>841</ele>
        <time>2011-07-09T11:48:53Z</time>
      </trkpt>
      <trkpt lat="46.05872" lon="3.75665">
        <ele>841</ele>
        <time>2011-07-09T11:48:54Z</time>
      </trkpt>
      <trkpt lat="46.0587" lon="3.75673">
        <ele>841</ele>
        <time>2011-07-09T11:48:55Z</time>
      </trkpt>
      <trkpt lat="46.05869" lon="3.7568">
        <ele>841</ele>
        <time>2011-07-09T11:48:56Z</time>
      </trkpt>
      <trkpt lat="46.05869" lon="3.75687">
        <ele>841</ele>
        <time>2011-07-09T11:48:57Z</time>
      </trkpt>
      <trkpt lat="46.05869" lon="3.75693">
        <ele>841</ele>
        <time>2011-07-09T11:48:58Z</time>
      </trkpt>
      <trkpt lat="46.05869" lon="3.75717">
        <ele>842</ele>
        <time>2011-07-09T11:49:03Z</time>
      </trkpt>
      <trkpt lat="46.05865" lon="3.75732">
        <ele>843</ele>
        <time>2011-07-09T11:49:05Z</time>
      </trkpt>
      <trkpt lat="46.05854" lon="3.75769">
        <ele>844</ele>
        <time>2011-07-09T11:49:11Z</time>
      </trkpt>
      <trkpt lat="46.05847" lon="3.75797">
        <ele>845</ele>
        <time>2011-07-09T11:49:17Z</time>
      </trkpt>
      <trkpt lat="46.05836" lon="3.75824">
        <ele>845</ele>
        <time>2011-07-09T11:49:24Z</time>
      </trkpt>
      <trkpt lat="46.05828" lon="3.75849">
        <ele>846</ele>
        <time>2011-07-09T11:49:30Z</time>
      </trkpt>
      <trkpt lat="46.05822" lon="3.75871">
        <ele>847</ele>
        <time>2011-07-09T11:49:36Z</time>
      </trkpt>
      <trkpt lat="46.05816" lon="3.75897">
        <ele>847</ele>
        <time>2011-07-09T11:49:44Z</time>
      </trkpt>
      <trkpt lat="46.05805" lon="3.75927">
        <ele>847</ele>
        <time>2011-07-09T11:49:50Z</time>
      </trkpt>
      <trkpt lat="46.05795" lon="3.75958">
        <ele>847</ele>
        <time>2011-07-09T11:49:55Z</time>
      </trkpt>
      <trkpt lat="46.05793" lon="3.75966">
        <ele>847</ele>
        <time>2011-07-09T11:49:56Z</time>
      </trkpt>
      <trkpt lat="46.05788" lon="3.75994">
        <ele>845</ele>
        <time>2011-07-09T11:49:59Z</time>
      </trkpt>
      <trkpt lat="46.05788" lon="3.76004">
        <ele>844</ele>
        <time>2011-07-09T11:50:00Z</time>
      </trkpt>
      <trkpt lat="46.05779" lon="3.76054">
        <ele>843</ele>
        <time>2011-07-09T11:50:05Z</time>
      </trkpt>
      <trkpt lat="46.05775" lon="3.76062">
        <ele>843</ele>
        <time>2011-07-09T11:50:06Z</time>
      </trkpt>
      <trkpt lat="46.05772" lon="3.7607">
        <ele>843</ele>
        <time>2011-07-09T11:50:07Z</time>
      </trkpt>
      <trkpt lat="46.05769" lon="3.76077">
        <ele>842</ele>
        <time>2011-07-09T11:50:08Z</time>
      </trkpt>
      <trkpt lat="46.05766" lon="3.76085">
        <ele>843</ele>
        <time>2011-07-09T11:50:09Z</time>
      </trkpt>
      <trkpt lat="46.05763" lon="3.76092">
        <ele>843</ele>
        <time>2011-07-09T11:50:10Z</time>
      </trkpt>
      <trkpt lat="46.05761" lon="3.76099">
        <ele>843</ele>
        <time>2011-07-09T11:50:11Z</time>
      </trkpt>
      <trkpt lat="46.05758" lon="3.76108">
        <ele>842</ele>
        <time>2011-07-09T11:50:12Z</time>
      </trkpt>
      <trkpt lat="46.05737" lon="3.76175">
        <ele>839</ele>
        <time>2011-07-09T11:50:19Z</time>
      </trkpt>
      <trkpt lat="46.05726" lon="3.76213">
        <ele>839</ele>
        <time>2011-07-09T11:50:23Z</time>
      </trkpt>
      <trkpt lat="46.0572" lon="3.76231">
        <ele>838</ele>
        <time>2011-07-09T11:50:25Z</time>
      </trkpt>
      <trkpt lat="46.05717" lon="3.76238">
        <ele>838</ele>
        <time>2011-07-09T11:50:26Z</time>
      </trkpt>
      <trkpt lat="46.05716" lon="3.76248">
        <ele>838</ele>
        <time>2011-07-09T11:50:27Z</time>
      </trkpt>
      <trkpt lat="46.05717" lon="3.76257">
        <ele>838</ele>
        <time>2011-07-09T11:50:28Z</time>
      </trkpt>
      <trkpt lat="46.05718" lon="3.76267">
        <ele>837</ele>
        <time>2011-07-09T11:50:29Z</time>
      </trkpt>
      <trkpt lat="46.0572" lon="3.76276">
        <ele>836</ele>
        <time>2011-07-09T11:50:30Z</time>
      </trkpt>
      <trkpt lat="46.0572" lon="3.76286">
        <ele>836</ele>
        <time>2011-07-09T11:50:31Z</time>
      </trkpt>
      <trkpt lat="46.05721" lon="3.76294">
        <ele>836</ele>
        <time>2011-07-09T11:50:32Z</time>
      </trkpt>
      <trkpt lat="46.05721" lon="3.76301">
        <ele>836</ele>
        <time>2011-07-09T11:50:33Z</time>
      </trkpt>
      <trkpt lat="46.05722" lon="3.76308">
        <ele>836</ele>
        <time>2011-07-09T11:50:34Z</time>
      </trkpt>
      <trkpt lat="46.05723" lon="3.76315">
        <ele>836</ele>
        <time>2011-07-09T11:50:35Z</time>
      </trkpt>
      <trkpt lat="46.05724" lon="3.76323">
        <ele>836</ele>
        <time>2011-07-09T11:50:36Z</time>
      </trkpt>
      <trkpt lat="46.05728" lon="3.76348">
        <ele>836</ele>
        <time>2011-07-09T11:50:40Z</time>
      </trkpt>
      <trkpt lat="46.05727" lon="3.76354">
        <ele>836</ele>
        <time>2011-07-09T11:50:41Z</time>
      </trkpt>
      <trkpt lat="46.05731" lon="3.76386">
        <ele>837</ele>
        <time>2011-07-09T11:50:47Z</time>
      </trkpt>
      <trkpt lat="46.05735" lon="3.7641">
        <ele>839</ele>
        <time>2011-07-09T11:50:52Z</time>
      </trkpt>
      <trkpt lat="46.05737" lon="3.76439">
        <ele>840</ele>
        <time>2011-07-09T11:50:58Z</time>
      </trkpt>
      <trkpt lat="46.0574" lon="3.76469">
        <ele>842</ele>
        <time>2011-07-09T11:51:06Z</time>
      </trkpt>
      <trkpt lat="46.05739" lon="3.76492">
        <ele>843</ele>
        <time>2011-07-09T11:51:14Z</time>
      </trkpt>
      <trkpt lat="46.0574" lon="3.76526">
        <ele>845</ele>
        <time>2011-07-09T11:51:23Z</time>
      </trkpt>
      <trkpt lat="46.0574" lon="3.76535">
        <ele>846</ele>
        <time>2011-07-09T11:51:29Z</time>
      </trkpt>
      <trkpt lat="46.05741" lon="3.76541">
        <ele>845</ele>
        <time>2011-07-09T11:51:34Z</time>
      </trkpt>
      <trkpt lat="46.05732" lon="3.76572">
        <ele>846</ele>
        <time>2011-07-09T11:51:42Z</time>
      </trkpt>
      <trkpt lat="46.05721" lon="3.76652">
        <ele>845</ele>
        <time>2011-07-09T11:51:49Z</time>
      </trkpt>
      <trkpt lat="46.05719" lon="3.76685">
        <ele>845</ele>
        <time>2011-07-09T11:51:52Z</time>
      </trkpt>
      <trkpt lat="46.05709" lon="3.76736">
        <ele>845</ele>
        <time>2011-07-09T11:51:59Z</time>
      </trkpt>
      <trkpt lat="46.05706" lon="3.76765">
        <ele>847</ele>
        <time>2011-07-09T11:52:04Z</time>
      </trkpt>
      <trkpt lat="46.05716" lon="3.76789">
        <ele>848</ele>
        <time>2011-07-09T11:52:09Z</time>
      </trkpt>
      <trkpt lat="46.05724" lon="3.76809">
        <ele>848</ele>
        <time>2011-07-09T11:52:16Z</time>
      </trkpt>
      <trkpt lat="46.0573" lon="3.76823">
        <ele>849</ele>
        <time>2011-07-09T11:52:20Z</time>
      </trkpt>
      <trkpt lat="46.05739" lon="3.76843">
        <ele>850</ele>
        <time>2011-07-09T11:52:27Z</time>
      </trkpt>
      <trkpt lat="46.05767" lon="3.76883">
        <ele>852</ele>
        <time>2011-07-09T11:52:34Z</time>
      </trkpt>
      <trkpt lat="46.0579" lon="3.76912">
        <ele>855</ele>
        <time>2011-07-09T11:52:40Z</time>
      </trkpt>
      <trkpt lat="46.05795" lon="3.76916">
        <ele>856</ele>
        <time>2011-07-09T11:52:41Z</time>
      </trkpt>
      <trkpt lat="46.05798" lon="3.76922">
        <ele>857</ele>
        <time>2011-07-09T11:52:43Z</time>
      </trkpt>
      <trkpt lat="46.05812" lon="3.76935">
        <ele>857</ele>
        <time>2011-07-09T11:52:51Z</time>
      </trkpt>
      <trkpt lat="46.05817" lon="3.76941">
        <ele>858</ele>
        <time>2011-07-09T11:52:56Z</time>
      </trkpt>
      <trkpt lat="46.05812" lon="3.76952">
        <ele>858</ele>
        <time>2011-07-09T11:53:04Z</time>
      </trkpt>
      <trkpt lat="46.05811" lon="3.76956">
        <ele>859</ele>
        <time>2011-07-09T11:53:06Z</time>
      </trkpt>
      <trkpt lat="46.05796" lon="3.76954">
        <ele>860</ele>
        <time>2011-07-09T11:53:16Z</time>
      </trkpt>
      <trkpt lat="46.05795" lon="3.76954">
        <ele>860</ele>
        <time>2011-07-09T11:53:17Z</time>
      </trkpt>
      <trkpt lat="46.05785" lon="3.76955">
        <ele>861</ele>
        <time>2011-07-09T11:53:24Z</time>
      </trkpt>
      <trkpt lat="46.05773" lon="3.76963">
        <ele>862</ele>
        <time>2011-07-09T11:53:32Z</time>
      </trkpt>
      <trkpt lat="46.05762" lon="3.76977">
        <ele>864</ele>
        <time>2011-07-09T11:53:39Z</time>
      </trkpt>
      <trkpt lat="46.05752" lon="3.76991">
        <ele>866</ele>
        <time>2011-07-09T11:53:47Z</time>
      </trkpt>
      <trkpt lat="46.05748" lon="3.77005">
        <ele>867</ele>
        <time>2011-07-09T11:53:54Z</time>
      </trkpt>
      <trkpt lat="46.05742" lon="3.77019">
        <ele>869</ele>
        <time>2011-07-09T11:53:59Z</time>
      </trkpt>
      <trkpt lat="46.05741" lon="3.77022">
        <ele>869</ele>
        <time>2011-07-09T11:54:00Z</time>
      </trkpt>
      <trkpt lat="46.05731" lon="3.77039">
        <ele>870</ele>
        <time>2011-07-09T11:54:07Z</time>
      </trkpt>
      <trkpt lat="46.05719" lon="3.77058">
        <ele>872</ele>
        <time>2011-07-09T11:54:15Z</time>
      </trkpt>
      <trkpt lat="46.05705" lon="3.77084">
        <ele>874</ele>
        <time>2011-07-09T11:54:26Z</time>
      </trkpt>
      <trkpt lat="46.05696" lon="3.77102">
        <ele>876</ele>
        <time>2011-07-09T11:54:34Z</time>
      </trkpt>
      <trkpt lat="46.05687" lon="3.77119">
        <ele>877</ele>
        <time>2011-07-09T11:54:42Z</time>
      </trkpt>
      <trkpt lat="46.05671" lon="3.77147">
        <ele>879</ele>
        <time>2011-07-09T11:54:54Z</time>
      </trkpt>
      <trkpt lat="46.05662" lon="3.77161">
        <ele>881</ele>
        <time>2011-07-09T11:55:00Z</time>
      </trkpt>
      <trkpt lat="46.05649" lon="3.77178">
        <ele>882</ele>
        <time>2011-07-09T11:55:07Z</time>
      </trkpt>
      <trkpt lat="46.05638" lon="3.77191">
        <ele>884</ele>
        <time>2011-07-09T11:55:13Z</time>
      </trkpt>
      <trkpt lat="46.05627" lon="3.77199">
        <ele>884</ele>
        <time>2011-07-09T11:55:17Z</time>
      </trkpt>
      <trkpt lat="46.05611" lon="3.77221">
        <ele>885</ele>
        <time>2011-07-09T11:55:25Z</time>
      </trkpt>
      <trkpt lat="46.05601" lon="3.77244">
        <ele>886</ele>
        <time>2011-07-09T11:55:32Z</time>
      </trkpt>
      <trkpt lat="46.05592" lon="3.77267">
        <ele>886</ele>
        <time>2011-07-09T11:55:38Z</time>
      </trkpt>
      <trkpt lat="46.05584" lon="3.77286">
        <ele>887</ele>
        <time>2011-07-09T11:55:44Z</time>
      </trkpt>
      <trkpt lat="46.0558" lon="3.77304">
        <ele>887</ele>
        <time>2011-07-09T11:55:49Z</time>
      </trkpt>
      <trkpt lat="46.05572" lon="3.7733">
        <ele>888</ele>
        <time>2011-07-09T11:55:56Z</time>
      </trkpt>
      <trkpt lat="46.05562" lon="3.77352">
        <ele>888</ele>
        <time>2011-07-09T11:56:02Z</time>
      </trkpt>
      <trkpt lat="46.0555" lon="3.77378">
        <ele>890</ele>
        <time>2011-07-09T11:56:09Z</time>
      </trkpt>
      <trkpt lat="46.05537" lon="3.77402">
        <ele>891</ele>
        <time>2011-07-09T11:56:16Z</time>
      </trkpt>
      <trkpt lat="46.05526" lon="3.77419">
        <ele>893</ele>
        <time>2011-07-09T11:56:22Z</time>
      </trkpt>
      <trkpt lat="46.05525" lon="3.7742">
        <ele>893</ele>
        <time>2011-07-09T11:56:23Z</time>
      </trkpt>
      <trkpt lat="46.05513" lon="3.77432">
        <ele>895</ele>
        <time>2011-07-09T11:56:29Z</time>
      </trkpt>
      <trkpt lat="46.05499" lon="3.77448">
        <ele>896</ele>
        <time>2011-07-09T11:56:35Z</time>
      </trkpt>
      <trkpt lat="46.05479" lon="3.7747">
        <ele>897</ele>
        <time>2011-07-09T11:56:42Z</time>
      </trkpt>
      <trkpt lat="46.05463" lon="3.77493">
        <ele>898</ele>
        <time>2011-07-09T11:56:48Z</time>
      </trkpt>
      <trkpt lat="46.05444" lon="3.77522">
        <ele>899</ele>
        <time>2011-07-09T11:56:56Z</time>
      </trkpt>
      <trkpt lat="46.05434" lon="3.77546">
        <ele>899</ele>
        <time>2011-07-09T11:57:02Z</time>
      </trkpt>
      <trkpt lat="46.05433" lon="3.77549">
        <ele>899</ele>
        <time>2011-07-09T11:57:03Z</time>
      </trkpt>
      <trkpt lat="46.05426" lon="3.77566">
        <ele>899</ele>
        <time>2011-07-09T11:57:11Z</time>
      </trkpt>
      <trkpt lat="46.05421" lon="3.77573">
        <ele>899</ele>
        <time>2011-07-09T11:57:16Z</time>
      </trkpt>
      <trkpt lat="46.05417" lon="3.77571">
        <ele>899</ele>
        <time>2011-07-09T11:57:22Z</time>
      </trkpt>
      <trkpt lat="46.05417" lon="3.77571">
        <ele>899</ele>
        <time>2011-07-09T11:57:31Z</time>
      </trkpt>
      <trkpt lat="46.05417" lon="3.77571">
        <ele>899</ele>
        <time>2011-07-09T11:57:39Z</time>
      </trkpt>
      <trkpt lat="46.05417" lon="3.77571">
        <ele>899</ele>
        <time>2011-07-09T11:57:50Z</time>
      </trkpt>
      <trkpt lat="46.05417" lon="3.77571">
        <ele>899</ele>
        <time>2011-07-09T11:58:03Z</time>
      </trkpt>
      <trkpt lat="46.05417" lon="3.7757">
        <ele>899</ele>
        <time>2011-07-09T11:58:12Z</time>
      </trkpt>
      <trkpt lat="46.05417" lon="3.7757">
        <ele>900</ele>
        <time>2011-07-09T11:58:26Z</time>
      </trkpt>
      <trkpt lat="46.05417" lon="3.7757">
        <ele>900</ele>
        <time>2011-07-09T11:58:44Z</time>
      </trkpt>
      <trkpt lat="46.05417" lon="3.77569">
        <ele>900</ele>
        <time>2011-07-09T11:58:54Z</time>
      </trkpt>
      <trkpt lat="46.05417" lon="3.77569">
        <ele>900</ele>
        <time>2011-07-09T11:59:08Z</time>
      </trkpt>
      <trkpt lat="46.05417" lon="3.77569">
        <ele>900</ele>
        <time>2011-07-09T11:59:24Z</time>
      </trkpt>
      <trkpt lat="46.05417" lon="3.7757">
        <ele>900</ele>
        <time>2011-07-09T11:59:36Z</time>
      </trkpt>
      <trkpt lat="46.05417" lon="3.7757">
        <ele>900</ele>
        <time>2011-07-09T11:59:51Z</time>
      </trkpt>
      <trkpt lat="46.05417" lon="3.7757">
        <ele>900</ele>
        <time>2011-07-09T12:00:05Z</time>
      </trkpt>
      <trkpt lat="46.05416" lon="3.7757">
        <ele>901</ele>
        <time>2011-07-09T12:00:18Z</time>
      </trkpt>
      <trkpt lat="46.05416" lon="3.7757">
        <ele>901</ele>
        <time>2011-07-09T12:00:35Z</time>
      </trkpt>
      <trkpt lat="46.05416" lon="3.7757">
        <ele>901</ele>
        <time>2011-07-09T12:00:49Z</time>
      </trkpt>
      <trkpt lat="46.05416" lon="3.7757">
        <ele>901</ele>
        <time>2011-07-09T12:01:05Z</time>
      </trkpt>
      <trkpt lat="46.05416" lon="3.7757">
        <ele>901</ele>
        <time>2011-07-09T12:01:15Z</time>
      </trkpt>
      <trkpt lat="46.05416" lon="3.7757">
        <ele>901</ele>
        <time>2011-07-09T12:01:32Z</time>
      </trkpt>
      <trkpt lat="46.05416" lon="3.7757">
        <ele>901</ele>
        <time>2011-07-09T12:01:41Z</time>
      </trkpt>
      <trkpt lat="46.05416" lon="3.7757">
        <ele>901</ele>
        <time>2011-07-09T12:01:42Z</time>
      </trkpt>
      <trkpt lat="46.05415" lon="3.77564">
        <ele>901</ele>
        <time>2011-07-09T12:01:44Z</time>
      </trkpt>
      <trkpt lat="46.05409" lon="3.77534">
        <ele>900</ele>
        <time>2011-07-09T12:01:51Z</time>
      </trkpt>
      <trkpt lat="46.05406" lon="3.77522">
        <ele>899</ele>
        <time>2011-07-09T12:01:53Z</time>
      </trkpt>
      <trkpt lat="46.05399" lon="3.77499">
        <ele>898</ele>
        <time>2011-07-09T12:01:56Z</time>
      </trkpt>
      <trkpt lat="46.05397" lon="3.7749">
        <ele>898</ele>
        <time>2011-07-09T12:01:57Z</time>
      </trkpt>
      <trkpt lat="46.05394" lon="3.77481">
        <ele>897</ele>
        <time>2011-07-09T12:01:58Z</time>
      </trkpt>
      <trkpt lat="46.05376" lon="3.77432">
        <ele>894</ele>
        <time>2011-07-09T12:02:03Z</time>
      </trkpt>
      <trkpt lat="46.0537" lon="3.77423">
        <ele>893</ele>
        <time>2011-07-09T12:02:04Z</time>
      </trkpt>
      <trkpt lat="46.05355" lon="3.77399">
        <ele>890</ele>
        <time>2011-07-09T12:02:07Z</time>
      </trkpt>
      <trkpt lat="46.05336" lon="3.77371">
        <ele>886</ele>
        <time>2011-07-09T12:02:10Z</time>
      </trkpt>
      <trkpt lat="46.05329" lon="3.77362">
        <ele>886</ele>
        <time>2011-07-09T12:02:11Z</time>
      </trkpt>
      <trkpt lat="46.05299" lon="3.77323">
        <ele>884</ele>
        <time>2011-07-09T12:02:15Z</time>
      </trkpt>
      <trkpt lat="46.05283" lon="3.77304">
        <ele>880</ele>
        <time>2011-07-09T12:02:17Z</time>
      </trkpt>
      <trkpt lat="46.05275" lon="3.77296">
        <ele>879</ele>
        <time>2011-07-09T12:02:18Z</time>
      </trkpt>
      <trkpt lat="46.0527" lon="3.77287">
        <ele>878</ele>
        <time>2011-07-09T12:02:19Z</time>
      </trkpt>
      <trkpt lat="46.05257" lon="3.7727">
        <ele>874</ele>
        <time>2011-07-09T12:02:21Z</time>
      </trkpt>
      <trkpt lat="46.05244" lon="3.77253">
        <ele>871</ele>
        <time>2011-07-09T12:02:23Z</time>
      </trkpt>
      <trkpt lat="46.05222" lon="3.77227">
        <ele>866</ele>
        <time>2011-07-09T12:02:26Z</time>
      </trkpt>
      <trkpt lat="46.05207" lon="3.77211">
        <ele>862</ele>
        <time>2011-07-09T12:02:28Z</time>
      </trkpt>
      <trkpt lat="46.05194" lon="3.77196">
        <ele>859</ele>
        <time>2011-07-09T12:02:30Z</time>
      </trkpt>
      <trkpt lat="46.0518" lon="3.77179">
        <ele>854</ele>
        <time>2011-07-09T12:02:32Z</time>
      </trkpt>
      <trkpt lat="46.05167" lon="3.77163">
        <ele>850</ele>
        <time>2011-07-09T12:02:34Z</time>
      </trkpt>
      <trkpt lat="46.05156" lon="3.77144">
        <ele>847</ele>
        <time>2011-07-09T12:02:36Z</time>
      </trkpt>
      <trkpt lat="46.0515" lon="3.77134">
        <ele>846</ele>
        <time>2011-07-09T12:02:37Z</time>
      </trkpt>
      <trkpt lat="46.05139" lon="3.77113">
        <ele>843</ele>
        <time>2011-07-09T12:02:39Z</time>
      </trkpt>
      <trkpt lat="46.05121" lon="3.77079">
        <ele>839</ele>
        <time>2011-07-09T12:02:42Z</time>
      </trkpt>
      <trkpt lat="46.05116" lon="3.77069">
        <ele>837</ele>
        <time>2011-07-09T12:02:43Z</time>
      </trkpt>
      <trkpt lat="46.05111" lon="3.7706">
        <ele>836</ele>
        <time>2011-07-09T12:02:44Z</time>
      </trkpt>
      <trkpt lat="46.05107" lon="3.77051">
        <ele>834</ele>
        <time>2011-07-09T12:02:45Z</time>
      </trkpt>
      <trkpt lat="46.05104" lon="3.77043">
        <ele>832</ele>
        <time>2011-07-09T12:02:46Z</time>
      </trkpt>
      <trkpt lat="46.051" lon="3.77033">
        <ele>831</ele>
        <time>2011-07-09T12:02:47Z</time>
      </trkpt>
      <trkpt lat="46.05092" lon="3.77003">
        <ele>827</ele>
        <time>2011-07-09T12:02:50Z</time>
      </trkpt>
      <trkpt lat="46.05088" lon="3.76984">
        <ele>824</ele>
        <time>2011-07-09T12:02:52Z</time>
      </trkpt>
      <trkpt lat="46.05085" lon="3.7696">
        <ele>820</ele>
        <time>2011-07-09T12:02:55Z</time>
      </trkpt>
      <trkpt lat="46.05084" lon="3.76952">
        <ele>818</ele>
        <time>2011-07-09T12:02:56Z</time>
      </trkpt>
      <trkpt lat="46.05083" lon="3.76943">
        <ele>817</ele>
        <time>2011-07-09T12:02:57Z</time>
      </trkpt>
      <trkpt lat="46.05081" lon="3.76935">
        <ele>816</ele>
        <time>2011-07-09T12:02:58Z</time>
      </trkpt>
      <trkpt lat="46.05079" lon="3.76928">
        <ele>815</ele>
        <time>2011-07-09T12:02:59Z</time>
      </trkpt>
      <trkpt lat="46.05079" lon="3.76924">
        <ele>815</ele>
        <time>2011-07-09T12:03:00Z</time>
      </trkpt>
      <trkpt lat="46.0508" lon="3.7692">
        <ele>815</ele>
        <time>2011-07-09T12:03:02Z</time>
      </trkpt>
      <trkpt lat="46.05083" lon="3.7692">
        <ele>815</ele>
        <time>2011-07-09T12:03:09Z</time>
      </trkpt>
      <trkpt lat="46.05083" lon="3.7692">
        <ele>815</ele>
        <time>2011-07-09T12:03:19Z</time>
      </trkpt>
      <trkpt lat="46.05083" lon="3.7692">
        <ele>816</ele>
        <time>2011-07-09T12:03:29Z</time>
      </trkpt>
      <trkpt lat="46.05083" lon="3.7692">
        <ele>816</ele>
        <time>2011-07-09T12:03:44Z</time>
      </trkpt>
      <trkpt lat="46.05084" lon="3.7692">
        <ele>816</ele>
        <time>2011-07-09T12:03:55Z</time>
      </trkpt>
      <trkpt lat="46.05084" lon="3.7692">
        <ele>817</ele>
        <time>2011-07-09T12:04:10Z</time>
      </trkpt>
      <trkpt lat="46.05084" lon="3.76916">
        <ele>816</ele>
        <time>2011-07-09T12:04:11Z</time>
      </trkpt>
      <trkpt lat="46.05083" lon="3.76914">
        <ele>815</ele>
        <time>2011-07-09T12:04:12Z</time>
      </trkpt>
      <trkpt lat="46.05081" lon="3.76901">
        <ele>811</ele>
        <time>2011-07-09T12:04:16Z</time>
      </trkpt>
      <trkpt lat="46.05077" lon="3.76888">
        <ele>810</ele>
        <time>2011-07-09T12:04:18Z</time>
      </trkpt>
      <trkpt lat="46.05077" lon="3.76881">
        <ele>809</ele>
        <time>2011-07-09T12:04:19Z</time>
      </trkpt>
      <trkpt lat="46.05075" lon="3.76865">
        <ele>804</ele>
        <time>2011-07-09T12:04:22Z</time>
      </trkpt>
      <trkpt lat="46.05066" lon="3.76857">
        <ele>801</ele>
        <time>2011-07-09T12:04:25Z</time>
      </trkpt>
      <trkpt lat="46.05055" lon="3.76862">
        <ele>799</ele>
        <time>2011-07-09T12:04:29Z</time>
      </trkpt>
      <trkpt lat="46.05051" lon="3.76867">
        <ele>797</ele>
        <time>2011-07-09T12:04:31Z</time>
      </trkpt>
      <trkpt lat="46.05041" lon="3.76878">
        <ele>793</ele>
        <time>2011-07-09T12:04:35Z</time>
      </trkpt>
      <trkpt lat="46.05032" lon="3.76884">
        <ele>789</ele>
        <time>2011-07-09T12:04:37Z</time>
      </trkpt>
      <trkpt lat="46.05023" lon="3.7689">
        <ele>786</ele>
        <time>2011-07-09T12:04:39Z</time>
      </trkpt>
      <trkpt lat="46.05016" lon="3.76893">
        <ele>786</ele>
        <time>2011-07-09T12:04:40Z</time>
      </trkpt>
      <trkpt lat="46.05003" lon="3.76899">
        <ele>784</ele>
        <time>2011-07-09T12:04:42Z</time>
      </trkpt>
      <trkpt lat="46.04997" lon="3.76901">
        <ele>783</ele>
        <time>2011-07-09T12:04:43Z</time>
      </trkpt>
      <trkpt lat="46.04991" lon="3.76902">
        <ele>782</ele>
        <time>2011-07-09T12:04:44Z</time>
      </trkpt>
      <trkpt lat="46.04985" lon="3.76902">
        <ele>781</ele>
        <time>2011-07-09T12:04:45Z</time>
      </trkpt>
      <trkpt lat="46.04977" lon="3.76904">
        <ele>780</ele>
        <time>2011-07-09T12:04:46Z</time>
      </trkpt>
      <trkpt lat="46.04969" lon="3.76905">
        <ele>779</ele>
        <time>2011-07-09T12:04:47Z</time>
      </trkpt>
      <trkpt lat="46.04952" lon="3.76905">
        <ele>777</ele>
        <time>2011-07-09T12:04:49Z</time>
      </trkpt>
      <trkpt lat="46.04945" lon="3.76905">
        <ele>777</ele>
        <time>2011-07-09T12:04:50Z</time>
      </trkpt>
      <trkpt lat="46.04939" lon="3.76905">
        <ele>776</ele>
        <time>2011-07-09T12:04:51Z</time>
      </trkpt>
      <trkpt lat="46.04934" lon="3.76904">
        <ele>775</ele>
        <time>2011-07-09T12:04:52Z</time>
      </trkpt>
      <trkpt lat="46.04919" lon="3.76911">
        <ele>774</ele>
        <time>2011-07-09T12:04:53Z</time>
      </trkpt>
      <trkpt lat="46.04914" lon="3.7691">
        <ele>774</ele>
        <time>2011-07-09T12:04:54Z</time>
      </trkpt>
      <trkpt lat="46.0491" lon="3.76907">
        <ele>774</ele>
        <time>2011-07-09T12:04:55Z</time>
      </trkpt>
      <trkpt lat="46.04908" lon="3.76904">
        <ele>774</ele>
        <time>2011-07-09T12:04:56Z</time>
      </trkpt>
      <trkpt lat="46.04907" lon="3.76901">
        <ele>774</ele>
        <time>2011-07-09T12:04:57Z</time>
      </trkpt>
      <trkpt lat="46.04906" lon="3.76898">
        <ele>773</ele>
        <time>2011-07-09T12:05:02Z</time>
      </trkpt>
      <trkpt lat="46.04906" lon="3.76898">
        <ele>773</ele>
        <time>2011-07-09T12:05:10Z</time>
      </trkpt>
      <trkpt lat="46.04901" lon="3.76891">
        <ele>773</ele>
        <time>2011-07-09T12:05:13Z</time>
      </trkpt>
      <trkpt lat="46.04895" lon="3.76884">
        <ele>772</ele>
        <time>2011-07-09T12:05:15Z</time>
      </trkpt>
      <trkpt lat="46.04891" lon="3.76882">
        <ele>772</ele>
        <time>2011-07-09T12:05:16Z</time>
      </trkpt>
      <trkpt lat="46.04882" lon="3.76877">
        <ele>771</ele>
        <time>2011-07-09T12:05:18Z</time>
      </trkpt>
      <trkpt lat="46.04878" lon="3.76876">
        <ele>771</ele>
        <time>2011-07-09T12:05:19Z</time>
      </trkpt>
      <trkpt lat="46.04873" lon="3.76877">
        <ele>771</ele>
        <time>2011-07-09T12:05:20Z</time>
      </trkpt>
      <trkpt lat="46.04862" lon="3.76884">
        <ele>771</ele>
        <time>2011-07-09T12:05:23Z</time>
      </trkpt>
      <trkpt lat="46.04858" lon="3.76887">
        <ele>770</ele>
        <time>2011-07-09T12:05:24Z</time>
      </trkpt>
      <trkpt lat="46.04845" lon="3.76899">
        <ele>767</ele>
        <time>2011-07-09T12:05:29Z</time>
      </trkpt>
      <trkpt lat="46.04839" lon="3.76905">
        <ele>766</ele>
        <time>2011-07-09T12:05:32Z</time>
      </trkpt>
      <trkpt lat="46.04831" lon="3.76918">
        <ele>763</ele>
        <time>2011-07-09T12:05:37Z</time>
      </trkpt>
      <trkpt lat="46.04822" lon="3.76934">
        <ele>760</ele>
        <time>2011-07-09T12:05:43Z</time>
      </trkpt>
      <trkpt lat="46.04812" lon="3.76953">
        <ele>758</ele>
        <time>2011-07-09T12:05:49Z</time>
      </trkpt>
      <trkpt lat="46.0481" lon="3.7696">
        <ele>758</ele>
        <time>2011-07-09T12:05:51Z</time>
      </trkpt>
      <trkpt lat="46.04808" lon="3.76962">
        <ele>758</ele>
        <time>2011-07-09T12:05:52Z</time>
      </trkpt>
      <trkpt lat="46.04807" lon="3.76965">
        <ele>758</ele>
        <time>2011-07-09T12:05:53Z</time>
      </trkpt>
      <trkpt lat="46.04804" lon="3.76974">
        <ele>758</ele>
        <time>2011-07-09T12:05:56Z</time>
      </trkpt>
      <trkpt lat="46.04803" lon="3.76977">
        <ele>757</ele>
        <time>2011-07-09T12:05:57Z</time>
      </trkpt>
      <trkpt lat="46.04789" lon="3.77001">
        <ele>755</ele>
        <time>2011-07-09T12:06:05Z</time>
      </trkpt>
      <trkpt lat="46.0478" lon="3.77019">
        <ele>753</ele>
        <time>2011-07-09T12:06:12Z</time>
      </trkpt>
      <trkpt lat="46.04777" lon="3.77022">
        <ele>753</ele>
        <time>2011-07-09T12:06:14Z</time>
      </trkpt>
      <trkpt lat="46.04771" lon="3.77025">
        <ele>751</ele>
        <time>2011-07-09T12:06:17Z</time>
      </trkpt>
      <trkpt lat="46.04768" lon="3.77027">
        <ele>750</ele>
        <time>2011-07-09T12:06:18Z</time>
      </trkpt>
      <trkpt lat="46.04751" lon="3.77035">
        <ele>750</ele>
        <time>2011-07-09T12:06:21Z</time>
      </trkpt>
      <trkpt lat="46.04735" lon="3.77042">
        <ele>749</ele>
        <time>2011-07-09T12:06:25Z</time>
      </trkpt>
      <trkpt lat="46.04728" lon="3.77047">
        <ele>748</ele>
        <time>2011-07-09T12:06:31Z</time>
      </trkpt>
      <trkpt lat="46.04726" lon="3.77049">
        <ele>748</ele>
        <time>2011-07-09T12:06:33Z</time>
      </trkpt>
      <trkpt lat="46.04724" lon="3.77049">
        <ele>748</ele>
        <time>2011-07-09T12:06:34Z</time>
      </trkpt>
      <trkpt lat="46.04722" lon="3.77049">
        <ele>748</ele>
        <time>2011-07-09T12:06:35Z</time>
      </trkpt>
      <trkpt lat="46.0472" lon="3.77049">
        <ele>748</ele>
        <time>2011-07-09T12:06:36Z</time>
      </trkpt>
      <trkpt lat="46.04718" lon="3.77049">
        <ele>748</ele>
        <time>2011-07-09T12:06:37Z</time>
      </trkpt>
      <trkpt lat="46.04715" lon="3.77049">
        <ele>748</ele>
        <time>2011-07-09T12:06:38Z</time>
      </trkpt>
      <trkpt lat="46.04712" lon="3.77048">
        <ele>748</ele>
        <time>2011-07-09T12:06:39Z</time>
      </trkpt>
      <trkpt lat="46.04709" lon="3.77047">
        <ele>748</ele>
        <time>2011-07-09T12:06:40Z</time>
      </trkpt>
      <trkpt lat="46.0468" lon="3.77038">
        <ele>748</ele>
        <time>2011-07-09T12:06:47Z</time>
      </trkpt>
      <trkpt lat="46.0466" lon="3.77035">
        <ele>749</ele>
        <time>2011-07-09T12:06:52Z</time>
      </trkpt>
      <trkpt lat="46.04655" lon="3.77033">
        <ele>749</ele>
        <time>2011-07-09T12:06:53Z</time>
      </trkpt>
      <trkpt lat="46.04632" lon="3.77028">
        <ele>750</ele>
        <time>2011-07-09T12:06:59Z</time>
      </trkpt>
      <trkpt lat="46.0462" lon="3.77023">
        <ele>749</ele>
        <time>2011-07-09T12:07:02Z</time>
      </trkpt>
      <trkpt lat="46.04615" lon="3.77022">
        <ele>749</ele>
        <time>2011-07-09T12:07:03Z</time>
      </trkpt>
      <trkpt lat="46.04598" lon="3.77017">
        <ele>749</ele>
        <time>2011-07-09T12:07:06Z</time>
      </trkpt>
      <trkpt lat="46.04593" lon="3.77016">
        <ele>748</ele>
        <time>2011-07-09T12:07:07Z</time>
      </trkpt>
      <trkpt lat="46.04588" lon="3.77016">
        <ele>748</ele>
        <time>2011-07-09T12:07:08Z</time>
      </trkpt>
      <trkpt lat="46.04586" lon="3.77015">
        <ele>747</ele>
        <time>2011-07-09T12:07:09Z</time>
      </trkpt>
      <trkpt lat="46.04583" lon="3.77014">
        <ele>747</ele>
        <time>2011-07-09T12:07:10Z</time>
      </trkpt>
      <trkpt lat="46.04582" lon="3.77013">
        <ele>747</ele>
        <time>2011-07-09T12:07:16Z</time>
      </trkpt>
      <trkpt lat="46.04582" lon="3.77013">
        <ele>747</ele>
        <time>2011-07-09T12:07:29Z</time>
      </trkpt>
      <trkpt lat="46.04579" lon="3.77012">
        <ele>747</ele>
        <time>2011-07-09T12:07:39Z</time>
      </trkpt>
      <trkpt lat="46.04575" lon="3.77007">
        <ele>746</ele>
        <time>2011-07-09T12:07:42Z</time>
      </trkpt>
      <trkpt lat="46.04572" lon="3.77004">
        <ele>746</ele>
        <time>2011-07-09T12:07:43Z</time>
      </trkpt>
      <trkpt lat="46.04569" lon="3.77001">
        <ele>745</ele>
        <time>2011-07-09T12:07:44Z</time>
      </trkpt>
      <trkpt lat="46.04554" lon="3.76983">
        <ele>743</ele>
        <time>2011-07-09T12:07:49Z</time>
      </trkpt>
      <trkpt lat="46.04538" lon="3.76965">
        <ele>741</ele>
        <time>2011-07-09T12:07:54Z</time>
      </trkpt>
      <trkpt lat="46.04524" lon="3.76948">
        <ele>737</ele>
        <time>2011-07-09T12:07:59Z</time>
      </trkpt>
      <trkpt lat="46.04521" lon="3.76944">
        <ele>737</ele>
        <time>2011-07-09T12:08:00Z</time>
      </trkpt>
      <trkpt lat="46.04516" lon="3.76939">
        <ele>736</ele>
        <time>2011-07-09T12:08:02Z</time>
      </trkpt>
      <trkpt lat="46.04514" lon="3.76937">
        <ele>736</ele>
        <time>2011-07-09T12:08:03Z</time>
      </trkpt>
      <trkpt lat="46.04513" lon="3.76934">
        <ele>735</ele>
        <time>2011-07-09T12:08:04Z</time>
      </trkpt>
      <trkpt lat="46.04511" lon="3.76931">
        <ele>735</ele>
        <time>2011-07-09T12:08:05Z</time>
      </trkpt>
      <trkpt lat="46.04509" lon="3.76928">
        <ele>734</ele>
        <time>2011-07-09T12:08:06Z</time>
      </trkpt>
      <trkpt lat="46.04507" lon="3.76925">
        <ele>734</ele>
        <time>2011-07-09T12:08:07Z</time>
      </trkpt>
      <trkpt lat="46.04504" lon="3.76922">
        <ele>734</ele>
        <time>2011-07-09T12:08:08Z</time>
      </trkpt>
      <trkpt lat="46.04502" lon="3.7692">
        <ele>733</ele>
        <time>2011-07-09T12:08:09Z</time>
      </trkpt>
      <trkpt lat="46.04499" lon="3.76919">
        <ele>733</ele>
        <time>2011-07-09T12:08:10Z</time>
      </trkpt>
      <trkpt lat="46.04496" lon="3.76917">
        <ele>732</ele>
        <time>2011-07-09T12:08:11Z</time>
      </trkpt>
      <trkpt lat="46.04494" lon="3.76915">
        <ele>731</ele>
        <time>2011-07-09T12:08:12Z</time>
      </trkpt>
      <trkpt lat="46.04491" lon="3.76911">
        <ele>730</ele>
        <time>2011-07-09T12:08:13Z</time>
      </trkpt>
      <trkpt lat="46.04478" lon="3.76893">
        <ele>728</ele>
        <time>2011-07-09T12:08:17Z</time>
      </trkpt>
      <trkpt lat="46.04459" lon="3.76872">
        <ele>724</ele>
        <time>2011-07-09T12:08:21Z</time>
      </trkpt>
      <trkpt lat="46.04442" lon="3.76862">
        <ele>722</ele>
        <time>2011-07-09T12:08:25Z</time>
      </trkpt>
      <trkpt lat="46.04439" lon="3.76862">
        <ele>721</ele>
        <time>2011-07-09T12:08:26Z</time>
      </trkpt>
      <trkpt lat="46.04423" lon="3.76866">
        <ele>716</ele>
        <time>2011-07-09T12:08:30Z</time>
      </trkpt>
      <trkpt lat="46.04417" lon="3.76869">
        <ele>715</ele>
        <time>2011-07-09T12:08:31Z</time>
      </trkpt>
      <trkpt lat="46.04391" lon="3.76889">
        <ele>711</ele>
        <time>2011-07-09T12:08:35Z</time>
      </trkpt>
      <trkpt lat="46.04374" lon="3.76914">
        <ele>706</ele>
        <time>2011-07-09T12:08:38Z</time>
      </trkpt>
      <trkpt lat="46.0435" lon="3.76945">
        <ele>701</ele>
        <time>2011-07-09T12:08:42Z</time>
      </trkpt>
      <trkpt lat="46.04344" lon="3.76951">
        <ele>700</ele>
        <time>2011-07-09T12:08:43Z</time>
      </trkpt>
      <trkpt lat="46.04333" lon="3.76966">
        <ele>698</ele>
        <time>2011-07-09T12:08:45Z</time>
      </trkpt>
      <trkpt lat="46.04328" lon="3.76973">
        <ele>695</ele>
        <time>2011-07-09T12:08:46Z</time>
      </trkpt>
      <trkpt lat="46.04306" lon="3.76993">
        <ele>689</ele>
        <time>2011-07-09T12:08:50Z</time>
      </trkpt>
      <trkpt lat="46.04289" lon="3.7701">
        <ele>684</ele>
        <time>2011-07-09T12:08:55Z</time>
      </trkpt>
      <trkpt lat="46.04272" lon="3.77022">
        <ele>680</ele>
        <time>2011-07-09T12:09:00Z</time>
      </trkpt>
      <trkpt lat="46.04267" lon="3.77024">
        <ele>680</ele>
        <time>2011-07-09T12:09:01Z</time>
      </trkpt>
      <trkpt lat="46.04249" lon="3.77028">
        <ele>676</ele>
        <time>2011-07-09T12:09:05Z</time>
      </trkpt>
      <trkpt lat="46.04234" lon="3.77031">
        <ele>672</ele>
        <time>2011-07-09T12:09:09Z</time>
      </trkpt>
      <trkpt lat="46.04223" lon="3.77032">
        <ele>669</ele>
        <time>2011-07-09T12:09:12Z</time>
      </trkpt>
      <trkpt lat="46.04205" lon="3.77036">
        <ele>666</ele>
        <time>2011-07-09T12:09:17Z</time>
      </trkpt>
      <trkpt lat="46.04186" lon="3.77036">
        <ele>663</ele>
        <time>2011-07-09T12:09:22Z</time>
      </trkpt>
      <trkpt lat="46.04173" lon="3.77035">
        <ele>662</ele>
        <time>2011-07-09T12:09:25Z</time>
      </trkpt>
      <trkpt lat="46.04166" lon="3.77032">
        <ele>660</ele>
        <time>2011-07-09T12:09:29Z</time>
      </trkpt>
      <trkpt lat="46.04166" lon="3.77032">
        <ele>660</ele>
        <time>2011-07-09T12:09:40Z</time>
      </trkpt>
      <trkpt lat="46.04166" lon="3.77032">
        <ele>660</ele>
        <time>2011-07-09T12:09:56Z</time>
      </trkpt>
      <trkpt lat="46.04165" lon="3.77032">
        <ele>660</ele>
        <time>2011-07-09T12:10:14Z</time>
      </trkpt>
      <trkpt lat="46.04165" lon="3.77032">
        <ele>660</ele>
        <time>2011-07-09T12:10:27Z</time>
      </trkpt>
      <trkpt lat="46.04165" lon="3.77032">
        <ele>661</ele>
        <time>2011-07-09T12:10:42Z</time>
      </trkpt>
      <trkpt lat="46.04162" lon="3.7703">
        <ele>661</ele>
        <time>2011-07-09T12:10:43Z</time>
      </trkpt>
      <trkpt lat="46.04153" lon="3.7703">
        <ele>660</ele>
        <time>2011-07-09T12:10:49Z</time>
      </trkpt>
      <trkpt lat="46.04151" lon="3.7703">
        <ele>660</ele>
        <time>2011-07-09T12:10:56Z</time>
      </trkpt>
      <trkpt lat="46.0415" lon="3.7703">
        <ele>660</ele>
        <time>2011-07-09T12:10:57Z</time>
      </trkpt>
      <trkpt lat="46.0415" lon="3.77028">
        <ele>660</ele>
        <time>2011-07-09T12:11:05Z</time>
      </trkpt>
      <trkpt lat="46.0415" lon="3.77028">
        <ele>660</ele>
        <time>2011-07-09T12:11:16Z</time>
      </trkpt>
      <trkpt lat="46.0415" lon="3.77028">
        <ele>660</ele>
        <time>2011-07-09T12:11:18Z</time>
      </trkpt>
      <trkpt lat="46.04149" lon="3.77026">
        <ele>660</ele>
        <time>2011-07-09T12:11:20Z</time>
      </trkpt>
      <trkpt lat="46.04151" lon="3.77016">
        <ele>661</ele>
        <time>2011-07-09T12:11:26Z</time>
      </trkpt>
      <trkpt lat="46.04152" lon="3.77014">
        <ele>661</ele>
        <time>2011-07-09T12:11:27Z</time>
      </trkpt>
      <trkpt lat="46.04153" lon="3.77009">
        <ele>662</ele>
        <time>2011-07-09T12:11:30Z</time>
      </trkpt>
      <trkpt lat="46.04159" lon="3.76994">
        <ele>663</ele>
        <time>2011-07-09T12:11:35Z</time>
      </trkpt>
      <trkpt lat="46.04171" lon="3.76973">
        <ele>667</ele>
        <time>2011-07-09T12:11:41Z</time>
      </trkpt>
      <trkpt lat="46.04173" lon="3.76965">
        <ele>668</ele>
        <time>2011-07-09T12:11:46Z</time>
      </trkpt>
      <trkpt lat="46.04176" lon="3.76953">
        <ele>670</ele>
        <time>2011-07-09T12:11:55Z</time>
      </trkpt>
      <trkpt lat="46.04176" lon="3.76938">
        <ele>671</ele>
        <time>2011-07-09T12:12:04Z</time>
      </trkpt>
      <trkpt lat="46.04178" lon="3.7693">
        <ele>671</ele>
        <time>2011-07-09T12:12:13Z</time>
      </trkpt>
      <trkpt lat="46.04178" lon="3.76925">
        <ele>672</ele>
        <time>2011-07-09T12:12:15Z</time>
      </trkpt>
      <trkpt lat="46.04174" lon="3.76907">
        <ele>673</ele>
        <time>2011-07-09T12:12:23Z</time>
      </trkpt>
      <trkpt lat="46.04173" lon="3.76903">
        <ele>673</ele>
        <time>2011-07-09T12:12:25Z</time>
      </trkpt>
      <trkpt lat="46.04171" lon="3.769">
        <ele>674</ele>
        <time>2011-07-09T12:12:27Z</time>
      </trkpt>
      <trkpt lat="46.04165" lon="3.7689">
        <ele>674</ele>
        <time>2011-07-09T12:12:32Z</time>
      </trkpt>
      <trkpt lat="46.04162" lon="3.76883">
        <ele>675</ele>
        <time>2011-07-09T12:12:36Z</time>
      </trkpt>
      <trkpt lat="46.0416" lon="3.76877">
        <ele>675</ele>
        <time>2011-07-09T12:12:39Z</time>
      </trkpt>
      <trkpt lat="46.04155" lon="3.76864">
        <ele>676</ele>
        <time>2011-07-09T12:12:48Z</time>
      </trkpt>
      <trkpt lat="46.04154" lon="3.76854">
        <ele>677</ele>
        <time>2011-07-09T12:12:54Z</time>
      </trkpt>
      <trkpt lat="46.04153" lon="3.76851">
        <ele>677</ele>
        <time>2011-07-09T12:12:57Z</time>
      </trkpt>
      <trkpt lat="46.04154" lon="3.76848">
        <ele>678</ele>
        <time>2011-07-09T12:12:59Z</time>
      </trkpt>
      <trkpt lat="46.0415" lon="3.76838">
        <ele>679</ele>
        <time>2011-07-09T12:13:04Z</time>
      </trkpt>
      <trkpt lat="46.04144" lon="3.76826">
        <ele>681</ele>
        <time>2011-07-09T12:13:10Z</time>
      </trkpt>
      <trkpt lat="46.0414" lon="3.76815">
        <ele>682</ele>
        <time>2011-07-09T12:13:17Z</time>
      </trkpt>
      <trkpt lat="46.04138" lon="3.7681">
        <ele>684</ele>
        <time>2011-07-09T12:13:22Z</time>
      </trkpt>
      <trkpt lat="46.04136" lon="3.76791">
        <ele>687</ele>
        <time>2011-07-09T12:13:31Z</time>
      </trkpt>
      <trkpt lat="46.04136" lon="3.7679">
        <ele>687</ele>
        <time>2011-07-09T12:13:33Z</time>
      </trkpt>
      <trkpt lat="46.04134" lon="3.76781">
        <ele>688</ele>
        <time>2011-07-09T12:13:39Z</time>
      </trkpt>
      <trkpt lat="46.04129" lon="3.76767">
        <ele>690</ele>
        <time>2011-07-09T12:13:48Z</time>
      </trkpt>
      <trkpt lat="46.04127" lon="3.76756">
        <ele>692</ele>
        <time>2011-07-09T12:13:56Z</time>
      </trkpt>
      <trkpt lat="46.04122" lon="3.76749">
        <ele>693</ele>
        <time>2011-07-09T12:14:02Z</time>
      </trkpt>
      <trkpt lat="46.04121" lon="3.76749">
        <ele>693</ele>
        <time>2011-07-09T12:14:03Z</time>
      </trkpt>
      <trkpt lat="46.04109" lon="3.76755">
        <ele>697</ele>
        <time>2011-07-09T12:14:10Z</time>
      </trkpt>
      <trkpt lat="46.04104" lon="3.76763">
        <ele>699</ele>
        <time>2011-07-09T12:14:16Z</time>
      </trkpt>
      <trkpt lat="46.04098" lon="3.76773">
        <ele>700</ele>
        <time>2011-07-09T12:14:23Z</time>
      </trkpt>
      <trkpt lat="46.04097" lon="3.76774">
        <ele>701</ele>
        <time>2011-07-09T12:14:25Z</time>
      </trkpt>
      <trkpt lat="46.04089" lon="3.76782">
        <ele>703</ele>
        <time>2011-07-09T12:14:32Z</time>
      </trkpt>
      <trkpt lat="46.04083" lon="3.76788">
        <ele>704</ele>
        <time>2011-07-09T12:14:36Z</time>
      </trkpt>
      <trkpt lat="46.04073" lon="3.76795">
        <ele>706</ele>
        <time>2011-07-09T12:14:43Z</time>
      </trkpt>
      <trkpt lat="46.04067" lon="3.76798">
        <ele>708</ele>
        <time>2011-07-09T12:14:48Z</time>
      </trkpt>
      <trkpt lat="46.04061" lon="3.76798">
        <ele>710</ele>
        <time>2011-07-09T12:14:52Z</time>
      </trkpt>
      <trkpt lat="46.04048" lon="3.76801">
        <ele>712</ele>
        <time>2011-07-09T12:15:00Z</time>
      </trkpt>
      <trkpt lat="46.04044" lon="3.76803">
        <ele>712</ele>
        <time>2011-07-09T12:15:05Z</time>
      </trkpt>
      <trkpt lat="46.04044" lon="3.76803">
        <ele>712</ele>
        <time>2011-07-09T12:15:23Z</time>
      </trkpt>
      <trkpt lat="46.04044" lon="3.76803">
        <ele>712</ele>
        <time>2011-07-09T12:15:38Z</time>
      </trkpt>
      <trkpt lat="46.04044" lon="3.76803">
        <ele>712</ele>
        <time>2011-07-09T12:15:58Z</time>
      </trkpt>
      <trkpt lat="46.04044" lon="3.76803">
        <ele>712</ele>
        <time>2011-07-09T12:16:20Z</time>
      </trkpt>
      <trkpt lat="46.04043" lon="3.76804">
        <ele>712</ele>
        <time>2011-07-09T12:16:38Z</time>
      </trkpt>
      <trkpt lat="46.04042" lon="3.76806">
        <ele>712</ele>
        <time>2011-07-09T12:16:55Z</time>
      </trkpt>
      <trkpt lat="46.04042" lon="3.76807">
        <ele>712</ele>
        <time>2011-07-09T12:16:56Z</time>
      </trkpt>
      <trkpt lat="46.04038" lon="3.76815">
        <ele>712</ele>
        <time>2011-07-09T12:17:00Z</time>
      </trkpt>
      <trkpt lat="46.04027" lon="3.76829">
        <ele>711</ele>
        <time>2011-07-09T12:17:06Z</time>
      </trkpt>
      <trkpt lat="46.04015" lon="3.76841">
        <ele>711</ele>
        <time>2011-07-09T12:17:12Z</time>
      </trkpt>
      <trkpt lat="46.04007" lon="3.76844">
        <ele>711</ele>
        <time>2011-07-09T12:17:18Z</time>
      </trkpt>
      <trkpt lat="46.03991" lon="3.76835">
        <ele>708</ele>
        <time>2011-07-09T12:17:23Z</time>
      </trkpt>
      <trkpt lat="46.03988" lon="3.76833">
        <ele>707</ele>
        <time>2011-07-09T12:17:24Z</time>
      </trkpt>
      <trkpt lat="46.03976" lon="3.76828">
        <ele>704</ele>
        <time>2011-07-09T12:17:28Z</time>
      </trkpt>
      <trkpt lat="46.03956" lon="3.76815">
        <ele>701</ele>
        <time>2011-07-09T12:17:33Z</time>
      </trkpt>
      <trkpt lat="46.03947" lon="3.76809">
        <ele>699</ele>
        <time>2011-07-09T12:17:35Z</time>
      </trkpt>
      <trkpt lat="46.03927" lon="3.76795">
        <ele>696</ele>
        <time>2011-07-09T12:17:39Z</time>
      </trkpt>
      <trkpt lat="46.03912" lon="3.76783">
        <ele>694</ele>
        <time>2011-07-09T12:17:42Z</time>
      </trkpt>
      <trkpt lat="46.03907" lon="3.76779">
        <ele>693</ele>
        <time>2011-07-09T12:17:43Z</time>
      </trkpt>
      <trkpt lat="46.03903" lon="3.76774">
        <ele>692</ele>
        <time>2011-07-09T12:17:44Z</time>
      </trkpt>
      <trkpt lat="46.03892" lon="3.76766">
        <ele>690</ele>
        <time>2011-07-09T12:17:46Z</time>
      </trkpt>
      <trkpt lat="46.03874" lon="3.76755">
        <ele>688</ele>
        <time>2011-07-09T12:17:49Z</time>
      </trkpt>
      <trkpt lat="46.03868" lon="3.76751">
        <ele>687</ele>
        <time>2011-07-09T12:17:50Z</time>
      </trkpt>
      <trkpt lat="46.03853" lon="3.7674">
        <ele>685</ele>
        <time>2011-07-09T12:17:53Z</time>
      </trkpt>
      <trkpt lat="46.0383" lon="3.76722">
        <ele>680</ele>
        <time>2011-07-09T12:17:58Z</time>
      </trkpt>
      <trkpt lat="46.03811" lon="3.76705">
        <ele>676</ele>
        <time>2011-07-09T12:18:02Z</time>
      </trkpt>
      <trkpt lat="46.03807" lon="3.76701">
        <ele>675</ele>
        <time>2011-07-09T12:18:03Z</time>
      </trkpt>
      <trkpt lat="46.03801" lon="3.76697">
        <ele>675</ele>
        <time>2011-07-09T12:18:04Z</time>
      </trkpt>
      <trkpt lat="46.03777" lon="3.7668">
        <ele>673</ele>
        <time>2011-07-09T12:18:08Z</time>
      </trkpt>
      <trkpt lat="46.03743" lon="3.76645">
        <ele>670</ele>
        <time>2011-07-09T12:18:15Z</time>
      </trkpt>
      <trkpt lat="46.03735" lon="3.76635">
        <ele>669</ele>
        <time>2011-07-09T12:18:17Z</time>
      </trkpt>
      <trkpt lat="46.03732" lon="3.76629">
        <ele>669</ele>
        <time>2011-07-09T12:18:18Z</time>
      </trkpt>
      <trkpt lat="46.03729" lon="3.76624">
        <ele>668</ele>
        <time>2011-07-09T12:18:19Z</time>
      </trkpt>
      <trkpt lat="46.03725" lon="3.76619">
        <ele>667</ele>
        <time>2011-07-09T12:18:20Z</time>
      </trkpt>
      <trkpt lat="46.03722" lon="3.76615">
        <ele>666</ele>
        <time>2011-07-09T12:18:21Z</time>
      </trkpt>
      <trkpt lat="46.03718" lon="3.76611">
        <ele>666</ele>
        <time>2011-07-09T12:18:22Z</time>
      </trkpt>
      <trkpt lat="46.03714" lon="3.76606">
        <ele>664</ele>
        <time>2011-07-09T12:18:23Z</time>
      </trkpt>
      <trkpt lat="46.03709" lon="3.76602">
        <ele>664</ele>
        <time>2011-07-09T12:18:24Z</time>
      </trkpt>
      <trkpt lat="46.0369" lon="3.76586">
        <ele>661</ele>
        <time>2011-07-09T12:18:28Z</time>
      </trkpt>
      <trkpt lat="46.03674" lon="3.76573">
        <ele>657</ele>
        <time>2011-07-09T12:18:32Z</time>
      </trkpt>
      <trkpt lat="46.03663" lon="3.76565">
        <ele>654</ele>
        <time>2011-07-09T12:18:35Z</time>
      </trkpt>
      <trkpt lat="46.03652" lon="3.76556">
        <ele>651</ele>
        <time>2011-07-09T12:18:38Z</time>
      </trkpt>
      <trkpt lat="46.03644" lon="3.7655">
        <ele>648</ele>
        <time>2011-07-09T12:18:40Z</time>
      </trkpt>
      <trkpt lat="46.03618" lon="3.76541">
        <ele>644</ele>
        <time>2011-07-09T12:18:45Z</time>
      </trkpt>
      <trkpt lat="46.03611" lon="3.76539">
        <ele>643</ele>
        <time>2011-07-09T12:18:46Z</time>
      </trkpt>
      <trkpt lat="46.03598" lon="3.76535">
        <ele>641</ele>
        <time>2011-07-09T12:18:48Z</time>
      </trkpt>
      <trkpt lat="46.0359" lon="3.76534">
        <ele>641</ele>
        <time>2011-07-09T12:18:49Z</time>
      </trkpt>
      <trkpt lat="46.03584" lon="3.76533">
        <ele>641</ele>
        <time>2011-07-09T12:18:50Z</time>
      </trkpt>
      <trkpt lat="46.03581" lon="3.76533">
        <ele>641</ele>
        <time>2011-07-09T12:18:51Z</time>
      </trkpt>
      <trkpt lat="46.03578" lon="3.76535">
        <ele>641</ele>
        <time>2011-07-09T12:18:52Z</time>
      </trkpt>
      <trkpt lat="46.03576" lon="3.76536">
        <ele>641</ele>
        <time>2011-07-09T12:18:53Z</time>
      </trkpt>
      <trkpt lat="46.0357" lon="3.76537">
        <ele>640</ele>
        <time>2011-07-09T12:18:59Z</time>
      </trkpt>
      <trkpt lat="46.0357" lon="3.76537">
        <ele>640</ele>
        <time>2011-07-09T12:19:12Z</time>
      </trkpt>
      <trkpt lat="46.03565" lon="3.76538">
        <ele>639</ele>
        <time>2011-07-09T12:19:15Z</time>
      </trkpt>
      <trkpt lat="46.03563" lon="3.76536">
        <ele>639</ele>
        <time>2011-07-09T12:19:16Z</time>
      </trkpt>
      <trkpt lat="46.03561" lon="3.76534">
        <ele>638</ele>
        <time>2011-07-09T12:19:17Z</time>
      </trkpt>
      <trkpt lat="46.0355" lon="3.76521">
        <ele>636</ele>
        <time>2011-07-09T12:19:22Z</time>
      </trkpt>
      <trkpt lat="46.03543" lon="3.76516">
        <ele>635</ele>
        <time>2011-07-09T12:19:25Z</time>
      </trkpt>
      <trkpt lat="46.03535" lon="3.76513">
        <ele>632</ele>
        <time>2011-07-09T12:19:29Z</time>
      </trkpt>
      <trkpt lat="46.03532" lon="3.76513">
        <ele>631</ele>
        <time>2011-07-09T12:19:30Z</time>
      </trkpt>
      <trkpt lat="46.03531" lon="3.76513">
        <ele>632</ele>
        <time>2011-07-09T12:19:31Z</time>
      </trkpt>
      <trkpt lat="46.03528" lon="3.76513">
        <ele>631</ele>
        <time>2011-07-09T12:19:32Z</time>
      </trkpt>
      <trkpt lat="46.03525" lon="3.76514">
        <ele>631</ele>
        <time>2011-07-09T12:19:33Z</time>
      </trkpt>
      <trkpt lat="46.03518" lon="3.76514">
        <ele>629</ele>
        <time>2011-07-09T12:19:35Z</time>
      </trkpt>
      <trkpt lat="46.03513" lon="3.76513">
        <ele>629</ele>
        <time>2011-07-09T12:19:36Z</time>
      </trkpt>
      <trkpt lat="46.03496" lon="3.76502">
        <ele>629</ele>
        <time>2011-07-09T12:19:41Z</time>
      </trkpt>
      <trkpt lat="46.03488" lon="3.76489">
        <ele>630</ele>
        <time>2011-07-09T12:19:45Z</time>
      </trkpt>
      <trkpt lat="46.03476" lon="3.76463">
        <ele>629</ele>
        <time>2011-07-09T12:19:49Z</time>
      </trkpt>
      <trkpt lat="46.03472" lon="3.76455">
        <ele>629</ele>
        <time>2011-07-09T12:19:50Z</time>
      </trkpt>
      <trkpt lat="46.03469" lon="3.7645">
        <ele>628</ele>
        <time>2011-07-09T12:19:51Z</time>
      </trkpt>
      <trkpt lat="46.03467" lon="3.76445">
        <ele>627</ele>
        <time>2011-07-09T12:19:52Z</time>
      </trkpt>
      <trkpt lat="46.03465" lon="3.76443">
        <ele>627</ele>
        <time>2011-07-09T12:19:53Z</time>
      </trkpt>
      <trkpt lat="46.03464" lon="3.7644">
        <ele>627</ele>
        <time>2011-07-09T12:19:54Z</time>
      </trkpt>
      <trkpt lat="46.03455" lon="3.76429">
        <ele>627</ele>
        <time>2011-07-09T12:20:02Z</time>
      </trkpt>
      <trkpt lat="46.03451" lon="3.76422">
        <ele>626</ele>
        <time>2011-07-09T12:20:06Z</time>
      </trkpt>
      <trkpt lat="46.03447" lon="3.76414">
        <ele>626</ele>
        <time>2011-07-09T12:20:10Z</time>
      </trkpt>
      <trkpt lat="46.03446" lon="3.76404">
        <ele>626</ele>
        <time>2011-07-09T12:20:13Z</time>
      </trkpt>
      <trkpt lat="46.03448" lon="3.76396">
        <ele>626</ele>
        <time>2011-07-09T12:20:19Z</time>
      </trkpt>
      <trkpt lat="46.03448" lon="3.76396">
        <ele>628</ele>
        <time>2011-07-09T12:20:28Z</time>
      </trkpt>
      <trkpt lat="46.03452" lon="3.76393">
        <ele>628</ele>
        <time>2011-07-09T12:20:34Z</time>
      </trkpt>
      <trkpt lat="46.03455" lon="3.76392">
        <ele>629</ele>
        <time>2011-07-09T12:20:40Z</time>
      </trkpt>
      <trkpt lat="46.0346" lon="3.76394">
        <ele>629</ele>
        <time>2011-07-09T12:20:44Z</time>
      </trkpt>
      <trkpt lat="46.03473" lon="3.76394">
        <ele>630</ele>
        <time>2011-07-09T12:20:50Z</time>
      </trkpt>
      <trkpt lat="46.0349" lon="3.76381">
        <ele>631</ele>
        <time>2011-07-09T12:20:57Z</time>
      </trkpt>
      <trkpt lat="46.03481" lon="3.76372">
        <ele>633</ele>
        <time>2011-07-09T12:21:05Z</time>
      </trkpt>
      <trkpt lat="46.03472" lon="3.76365">
        <ele>634</ele>
        <time>2011-07-09T12:21:11Z</time>
      </trkpt>
      <trkpt lat="46.03463" lon="3.7636">
        <ele>635</ele>
        <time>2011-07-09T12:21:17Z</time>
      </trkpt>
      <trkpt lat="46.03456" lon="3.76353">
        <ele>636</ele>
        <time>2011-07-09T12:21:23Z</time>
      </trkpt>
      <trkpt lat="46.03448" lon="3.76345">
        <ele>637</ele>
        <time>2011-07-09T12:21:30Z</time>
      </trkpt>
      <trkpt lat="46.03441" lon="3.76335">
        <ele>638</ele>
        <time>2011-07-09T12:21:37Z</time>
      </trkpt>
      <trkpt lat="46.03438" lon="3.76321">
        <ele>638</ele>
        <time>2011-07-09T12:21:43Z</time>
      </trkpt>
      <trkpt lat="46.03435" lon="3.76299">
        <ele>638</ele>
        <time>2011-07-09T12:21:50Z</time>
      </trkpt>
      <trkpt lat="46.03433" lon="3.76277">
        <ele>637</ele>
        <time>2011-07-09T12:21:55Z</time>
      </trkpt>
      <trkpt lat="46.03433" lon="3.76255">
        <ele>637</ele>
        <time>2011-07-09T12:21:58Z</time>
      </trkpt>
      <trkpt lat="46.03429" lon="3.76199">
        <ele>633</ele>
        <time>2011-07-09T12:22:04Z</time>
      </trkpt>
      <trkpt lat="46.03428" lon="3.76179">
        <ele>633</ele>
        <time>2011-07-09T12:22:06Z</time>
      </trkpt>
      <trkpt lat="46.03422" lon="3.76134">
        <ele>633</ele>
        <time>2011-07-09T12:22:12Z</time>
      </trkpt>
      <trkpt lat="46.03419" lon="3.76123">
        <ele>633</ele>
        <time>2011-07-09T12:22:14Z</time>
      </trkpt>
      <trkpt lat="46.03415" lon="3.76112">
        <ele>633</ele>
        <time>2011-07-09T12:22:18Z</time>
      </trkpt>
      <trkpt lat="46.03407" lon="3.76101">
        <ele>635</ele>
        <time>2011-07-09T12:22:23Z</time>
      </trkpt>
      <trkpt lat="46.03404" lon="3.76099">
        <ele>636</ele>
        <time>2011-07-09T12:22:25Z</time>
      </trkpt>
      <trkpt lat="46.03403" lon="3.76098">
        <ele>636</ele>
        <time>2011-07-09T12:22:26Z</time>
      </trkpt>
      <trkpt lat="46.03392" lon="3.76105">
        <ele>637</ele>
        <time>2011-07-09T12:22:34Z</time>
      </trkpt>
      <trkpt lat="46.03389" lon="3.7611">
        <ele>638</ele>
        <time>2011-07-09T12:22:38Z</time>
      </trkpt>
      <trkpt lat="46.03384" lon="3.76117">
        <ele>640</ele>
        <time>2011-07-09T12:22:44Z</time>
      </trkpt>
      <trkpt lat="46.03376" lon="3.76121">
        <ele>642</ele>
        <time>2011-07-09T12:22:50Z</time>
      </trkpt>
      <trkpt lat="46.03367" lon="3.76128">
        <ele>644</ele>
        <time>2011-07-09T12:22:57Z</time>
      </trkpt>
      <trkpt lat="46.03362" lon="3.76135">
        <ele>646</ele>
        <time>2011-07-09T12:23:03Z</time>
      </trkpt>
      <trkpt lat="46.03352" lon="3.76143">
        <ele>648</ele>
        <time>2011-07-09T12:23:11Z</time>
      </trkpt>
      <trkpt lat="46.03343" lon="3.7615">
        <ele>650</ele>
        <time>2011-07-09T12:23:18Z</time>
      </trkpt>
      <trkpt lat="46.03338" lon="3.76156">
        <ele>651</ele>
        <time>2011-07-09T12:23:24Z</time>
      </trkpt>
      <trkpt lat="46.03328" lon="3.76164">
        <ele>653</ele>
        <time>2011-07-09T12:23:31Z</time>
      </trkpt>
      <trkpt lat="46.03321" lon="3.76172">
        <ele>654</ele>
        <time>2011-07-09T12:23:37Z</time>
      </trkpt>
      <trkpt lat="46.03311" lon="3.76179">
        <ele>656</ele>
        <time>2011-07-09T12:23:44Z</time>
      </trkpt>
      <trkpt lat="46.03299" lon="3.76185">
        <ele>659</ele>
        <time>2011-07-09T12:23:53Z</time>
      </trkpt>
      <trkpt lat="46.03289" lon="3.76187">
        <ele>659</ele>
        <time>2011-07-09T12:24:02Z</time>
      </trkpt>
      <trkpt lat="46.0328" lon="3.76187">
        <ele>660</ele>
        <time>2011-07-09T12:24:10Z</time>
      </trkpt>
      <trkpt lat="46.03271" lon="3.76185">
        <ele>661</ele>
        <time>2011-07-09T12:24:16Z</time>
      </trkpt>
      <trkpt lat="46.03262" lon="3.76184">
        <ele>661</ele>
        <time>2011-07-09T12:24:25Z</time>
      </trkpt>
      <trkpt lat="46.03262" lon="3.76184">
        <ele>661</ele>
        <time>2011-07-09T12:24:34Z</time>
      </trkpt>
      <trkpt lat="46.03262" lon="3.76184">
        <ele>661</ele>
        <time>2011-07-09T12:24:45Z</time>
      </trkpt>
      <trkpt lat="46.03262" lon="3.76184">
        <ele>661</ele>
        <time>2011-07-09T12:25:00Z</time>
      </trkpt>
      <trkpt lat="46.03262" lon="3.76184">
        <ele>660</ele>
        <time>2011-07-09T12:25:13Z</time>
      </trkpt>
      <trkpt lat="46.03262" lon="3.76184">
        <ele>661</ele>
        <time>2011-07-09T12:25:31Z</time>
      </trkpt>
      <trkpt lat="46.03262" lon="3.76184">
        <ele>661</ele>
        <time>2011-07-09T12:25:33Z</time>
      </trkpt>
      <trkpt lat="46.03263" lon="3.76189">
        <ele>661</ele>
        <time>2011-07-09T12:25:36Z</time>
      </trkpt>
      <trkpt lat="46.03264" lon="3.76198">
        <ele>662</ele>
        <time>2011-07-09T12:25:40Z</time>
      </trkpt>
      <trkpt lat="46.03265" lon="3.76208">
        <ele>663</ele>
        <time>2011-07-09T12:25:44Z</time>
      </trkpt>
      <trkpt lat="46.03262" lon="3.76224">
        <ele>665</ele>
        <time>2011-07-09T12:25:52Z</time>
      </trkpt>
      <trkpt lat="46.03261" lon="3.76228">
        <ele>665</ele>
        <time>2011-07-09T12:25:54Z</time>
      </trkpt>
      <trkpt lat="46.03262" lon="3.76233">
        <ele>666</ele>
        <time>2011-07-09T12:25:56Z</time>
      </trkpt>
      <trkpt lat="46.03259" lon="3.76242">
        <ele>667</ele>
        <time>2011-07-09T12:26:01Z</time>
      </trkpt>
      <trkpt lat="46.03253" lon="3.76255">
        <ele>669</ele>
        <time>2011-07-09T12:26:09Z</time>
      </trkpt>
      <trkpt lat="46.03252" lon="3.76263">
        <ele>669</ele>
        <time>2011-07-09T12:26:13Z</time>
      </trkpt>
      <trkpt lat="46.03246" lon="3.76281">
        <ele>671</ele>
        <time>2011-07-09T12:26:21Z</time>
      </trkpt>
      <trkpt lat="46.0324" lon="3.76292">
        <ele>673</ele>
        <time>2011-07-09T12:26:29Z</time>
      </trkpt>
      <trkpt lat="46.03231" lon="3.76303">
        <ele>674</ele>
        <time>2011-07-09T12:26:37Z</time>
      </trkpt>
      <trkpt lat="46.03226" lon="3.76308">
        <ele>675</ele>
        <time>2011-07-09T12:26:42Z</time>
      </trkpt>
      <trkpt lat="46.03224" lon="3.7631">
        <ele>676</ele>
        <time>2011-07-09T12:26:45Z</time>
      </trkpt>
      <trkpt lat="46.03217" lon="3.76314">
        <ele>677</ele>
        <time>2011-07-09T12:26:53Z</time>
      </trkpt>
      <trkpt lat="46.03209" lon="3.76313">
        <ele>678</ele>
        <time>2011-07-09T12:27:00Z</time>
      </trkpt>
      <trkpt lat="46.03198" lon="3.76313">
        <ele>680</ele>
        <time>2011-07-09T12:27:07Z</time>
      </trkpt>
      <trkpt lat="46.03185" lon="3.76313">
        <ele>682</ele>
        <time>2011-07-09T12:27:15Z</time>
      </trkpt>
      <trkpt lat="46.03183" lon="3.76313">
        <ele>683</ele>
        <time>2011-07-09T12:27:17Z</time>
      </trkpt>
      <trkpt lat="46.03175" lon="3.76313">
        <ele>685</ele>
        <time>2011-07-09T12:27:23Z</time>
      </trkpt>
      <trkpt lat="46.03166" lon="3.76311">
        <ele>687</ele>
        <time>2011-07-09T12:27:30Z</time>
      </trkpt>
      <trkpt lat="46.03155" lon="3.76314">
        <ele>688</ele>
        <time>2011-07-09T12:27:38Z</time>
      </trkpt>
      <trkpt lat="46.03147" lon="3.76318">
        <ele>690</ele>
        <time>2011-07-09T12:27:45Z</time>
      </trkpt>
      <trkpt lat="46.03143" lon="3.76323">
        <ele>691</ele>
        <time>2011-07-09T12:27:50Z</time>
      </trkpt>
      <trkpt lat="46.03136" lon="3.76329">
        <ele>692</ele>
        <time>2011-07-09T12:27:56Z</time>
      </trkpt>
      <trkpt lat="46.03127" lon="3.76333">
        <ele>694</ele>
        <time>2011-07-09T12:28:03Z</time>
      </trkpt>
      <trkpt lat="46.03119" lon="3.76333">
        <ele>697</ele>
        <time>2011-07-09T12:28:10Z</time>
      </trkpt>
      <trkpt lat="46.03111" lon="3.76341">
        <ele>698</ele>
        <time>2011-07-09T12:28:16Z</time>
      </trkpt>
      <trkpt lat="46.03105" lon="3.76347">
        <ele>700</ele>
        <time>2011-07-09T12:28:20Z</time>
      </trkpt>
      <trkpt lat="46.03095" lon="3.76355">
        <ele>701</ele>
        <time>2011-07-09T12:28:28Z</time>
      </trkpt>
      <trkpt lat="46.03089" lon="3.7636">
        <ele>702</ele>
        <time>2011-07-09T12:28:34Z</time>
      </trkpt>
      <trkpt lat="46.03088" lon="3.76361">
        <ele>702</ele>
        <time>2011-07-09T12:28:35Z</time>
      </trkpt>
      <trkpt lat="46.03083" lon="3.76368">
        <ele>703</ele>
        <time>2011-07-09T12:28:42Z</time>
      </trkpt>
      <trkpt lat="46.03079" lon="3.76372">
        <ele>704</ele>
        <time>2011-07-09T12:28:47Z</time>
      </trkpt>
      <trkpt lat="46.03077" lon="3.76374">
        <ele>705</ele>
        <time>2011-07-09T12:28:49Z</time>
      </trkpt>
      <trkpt lat="46.03068" lon="3.76377">
        <ele>706</ele>
        <time>2011-07-09T12:28:58Z</time>
      </trkpt>
      <trkpt lat="46.03065" lon="3.76379">
        <ele>707</ele>
        <time>2011-07-09T12:29:01Z</time>
      </trkpt>
      <trkpt lat="46.03058" lon="3.76385">
        <ele>708</ele>
        <time>2011-07-09T12:29:08Z</time>
      </trkpt>
      <trkpt lat="46.03058" lon="3.76385">
        <ele>708</ele>
        <time>2011-07-09T12:29:09Z</time>
      </trkpt>
      <trkpt lat="46.03053" lon="3.76388">
        <ele>710</ele>
        <time>2011-07-09T12:29:15Z</time>
      </trkpt>
      <trkpt lat="46.0305" lon="3.76391">
        <ele>711</ele>
        <time>2011-07-09T12:29:18Z</time>
      </trkpt>
      <trkpt lat="46.03043" lon="3.76399">
        <ele>712</ele>
        <time>2011-07-09T12:29:25Z</time>
      </trkpt>
      <trkpt lat="46.0304" lon="3.76402">
        <ele>713</ele>
        <time>2011-07-09T12:29:28Z</time>
      </trkpt>
      <trkpt lat="46.0303" lon="3.76407">
        <ele>715</ele>
        <time>2011-07-09T12:29:34Z</time>
      </trkpt>
      <trkpt lat="46.03021" lon="3.7641">
        <ele>717</ele>
        <time>2011-07-09T12:29:40Z</time>
      </trkpt>
      <trkpt lat="46.03017" lon="3.7641">
        <ele>718</ele>
        <time>2011-07-09T12:29:43Z</time>
      </trkpt>
      <trkpt lat="46.03007" lon="3.76413">
        <ele>721</ele>
        <time>2011-07-09T12:29:50Z</time>
      </trkpt>
      <trkpt lat="46.02995" lon="3.76411">
        <ele>723</ele>
        <time>2011-07-09T12:29:57Z</time>
      </trkpt>
      <trkpt lat="46.02984" lon="3.76407">
        <ele>725</ele>
        <time>2011-07-09T12:30:05Z</time>
      </trkpt>
      <trkpt lat="46.02975" lon="3.76398">
        <ele>726</ele>
        <time>2011-07-09T12:30:12Z</time>
      </trkpt>
      <trkpt lat="46.02972" lon="3.76396">
        <ele>727</ele>
        <time>2011-07-09T12:30:15Z</time>
      </trkpt>
      <trkpt lat="46.02964" lon="3.76387">
        <ele>728</ele>
        <time>2011-07-09T12:30:23Z</time>
      </trkpt>
      <trkpt lat="46.02963" lon="3.76386">
        <ele>728</ele>
        <time>2011-07-09T12:30:24Z</time>
      </trkpt>
      <trkpt lat="46.02956" lon="3.76381">
        <ele>729</ele>
        <time>2011-07-09T12:30:29Z</time>
      </trkpt>
      <trkpt lat="46.02947" lon="3.7637">
        <ele>729</ele>
        <time>2011-07-09T12:30:35Z</time>
      </trkpt>
      <trkpt lat="46.02936" lon="3.76368">
        <ele>731</ele>
        <time>2011-07-09T12:30:41Z</time>
      </trkpt>
      <trkpt lat="46.02926" lon="3.76364">
        <ele>732</ele>
        <time>2011-07-09T12:30:47Z</time>
      </trkpt>
      <trkpt lat="46.02913" lon="3.76353">
        <ele>733</ele>
        <time>2011-07-09T12:30:53Z</time>
      </trkpt>
      <trkpt lat="46.02904" lon="3.76346">
        <ele>734</ele>
        <time>2011-07-09T12:30:58Z</time>
      </trkpt>
      <trkpt lat="46.02903" lon="3.76346">
        <ele>735</ele>
        <time>2011-07-09T12:30:59Z</time>
      </trkpt>
      <trkpt lat="46.02894" lon="3.76344">
        <ele>736</ele>
        <time>2011-07-09T12:31:03Z</time>
      </trkpt>
      <trkpt lat="46.02871" lon="3.76339">
        <ele>737</ele>
        <time>2011-07-09T12:31:13Z</time>
      </trkpt>
      <trkpt lat="46.02856" lon="3.76337">
        <ele>739</ele>
        <time>2011-07-09T12:31:20Z</time>
      </trkpt>
      <trkpt lat="46.0284" lon="3.7633">
        <ele>742</ele>
        <time>2011-07-09T12:31:27Z</time>
      </trkpt>
      <trkpt lat="46.02838" lon="3.76329">
        <ele>742</ele>
        <time>2011-07-09T12:31:28Z</time>
      </trkpt>
      <trkpt lat="46.02833" lon="3.76319">
        <ele>742</ele>
        <time>2011-07-09T12:31:33Z</time>
      </trkpt>
      <trkpt lat="46.02832" lon="3.76319">
        <ele>741</ele>
        <time>2011-07-09T12:31:39Z</time>
      </trkpt>
      <trkpt lat="46.02832" lon="3.76319">
        <ele>741</ele>
        <time>2011-07-09T12:31:53Z</time>
      </trkpt>
      <trkpt lat="46.02832" lon="3.76319">
        <ele>741</ele>
        <time>2011-07-09T12:32:07Z</time>
      </trkpt>
      <trkpt lat="46.02832" lon="3.76319">
        <ele>741</ele>
        <time>2011-07-09T12:32:20Z</time>
      </trkpt>
      <trkpt lat="46.02832" lon="3.76319">
        <ele>741</ele>
        <time>2011-07-09T12:32:35Z</time>
      </trkpt>
      <trkpt lat="46.02831" lon="3.76318">
        <ele>741</ele>
        <time>2011-07-09T12:32:45Z</time>
      </trkpt>
      <trkpt lat="46.02831" lon="3.76318">
        <ele>741</ele>
        <time>2011-07-09T12:32:59Z</time>
      </trkpt>
      <trkpt lat="46.02831" lon="3.76318">
        <ele>741</ele>
        <time>2011-07-09T12:33:13Z</time>
      </trkpt>
      <trkpt lat="46.02831" lon="3.76319">
        <ele>741</ele>
        <time>2011-07-09T12:33:24Z</time>
      </trkpt>
      <trkpt lat="46.02831" lon="3.76319">
        <ele>741</ele>
        <time>2011-07-09T12:33:35Z</time>
      </trkpt>
      <trkpt lat="46.02831" lon="3.76319">
        <ele>741</ele>
        <time>2011-07-09T12:33:51Z</time>
      </trkpt>
      <trkpt lat="46.02831" lon="3.76319">
        <ele>741</ele>
        <time>2011-07-09T12:34:04Z</time>
      </trkpt>
      <trkpt lat="46.02831" lon="3.76319">
        <ele>741</ele>
        <time>2011-07-09T12:34:15Z</time>
      </trkpt>
      <trkpt lat="46.02831" lon="3.76319">
        <ele>741</ele>
        <time>2011-07-09T12:34:22Z</time>
      </trkpt>
      <trkpt lat="46.02831" lon="3.76317">
        <ele>741</ele>
        <time>2011-07-09T12:34:25Z</time>
      </trkpt>
      <trkpt lat="46.02829" lon="3.76297">
        <ele>741</ele>
        <time>2011-07-09T12:34:33Z</time>
      </trkpt>
      <trkpt lat="46.02827" lon="3.76276">
        <ele>740</ele>
        <time>2011-07-09T12:34:37Z</time>
      </trkpt>
      <trkpt lat="46.02826" lon="3.7627">
        <ele>740</ele>
        <time>2011-07-09T12:34:38Z</time>
      </trkpt>
      <trkpt lat="46.02826" lon="3.76263">
        <ele>740</ele>
        <time>2011-07-09T12:34:39Z</time>
      </trkpt>
      <trkpt lat="46.02821" lon="3.76235">
        <ele>738</ele>
        <time>2011-07-09T12:34:43Z</time>
      </trkpt>
      <trkpt lat="46.02819" lon="3.76229">
        <ele>738</ele>
        <time>2011-07-09T12:34:44Z</time>
      </trkpt>
      <trkpt lat="46.02819" lon="3.76223">
        <ele>738</ele>
        <time>2011-07-09T12:34:45Z</time>
      </trkpt>
      <trkpt lat="46.02818" lon="3.76217">
        <ele>738</ele>
        <time>2011-07-09T12:34:46Z</time>
      </trkpt>
      <trkpt lat="46.02817" lon="3.76212">
        <ele>738</ele>
        <time>2011-07-09T12:34:47Z</time>
      </trkpt>
      <trkpt lat="46.02817" lon="3.76207">
        <ele>738</ele>
        <time>2011-07-09T12:34:48Z</time>
      </trkpt>
      <trkpt lat="46.02817" lon="3.76203">
        <ele>738</ele>
        <time>2011-07-09T12:34:49Z</time>
      </trkpt>
      <trkpt lat="46.02818" lon="3.76199">
        <ele>739</ele>
        <time>2011-07-09T12:34:50Z</time>
      </trkpt>
      <trkpt lat="46.02822" lon="3.76167">
        <ele>740</ele>
        <time>2011-07-09T12:34:57Z</time>
      </trkpt>
      <trkpt lat="46.02826" lon="3.76128">
        <ele>741</ele>
        <time>2011-07-09T12:35:03Z</time>
      </trkpt>
      <trkpt lat="46.02827" lon="3.76076">
        <ele>739</ele>
        <time>2011-07-09T12:35:09Z</time>
      </trkpt>
      <trkpt lat="46.02825" lon="3.76065">
        <ele>738</ele>
        <time>2011-07-09T12:35:10Z</time>
      </trkpt>
      <trkpt lat="46.02822" lon="3.76054">
        <ele>738</ele>
        <time>2011-07-09T12:35:11Z</time>
      </trkpt>
      <trkpt lat="46.02813" lon="3.76023">
        <ele>737</ele>
        <time>2011-07-09T12:35:14Z</time>
      </trkpt>
      <trkpt lat="46.02806" lon="3.76003">
        <ele>736</ele>
        <time>2011-07-09T12:35:16Z</time>
      </trkpt>
      <trkpt lat="46.02801" lon="3.75994">
        <ele>736</ele>
        <time>2011-07-09T12:35:17Z</time>
      </trkpt>
      <trkpt lat="46.02796" lon="3.75987">
        <ele>736</ele>
        <time>2011-07-09T12:35:18Z</time>
      </trkpt>
      <trkpt lat="46.02768" lon="3.75951">
        <ele>736</ele>
        <time>2011-07-09T12:35:24Z</time>
      </trkpt>
      <trkpt lat="46.02763" lon="3.75946">
        <ele>736</ele>
        <time>2011-07-09T12:35:25Z</time>
      </trkpt>
      <trkpt lat="46.02734" lon="3.75912">
        <ele>736</ele>
        <time>2011-07-09T12:35:32Z</time>
      </trkpt>
      <trkpt lat="46.02708" lon="3.75881">
        <ele>734</ele>
        <time>2011-07-09T12:35:37Z</time>
      </trkpt>
      <trkpt lat="46.02687" lon="3.75853">
        <ele>733</ele>
        <time>2011-07-09T12:35:41Z</time>
      </trkpt>
      <trkpt lat="46.02669" lon="3.75824">
        <ele>734</ele>
        <time>2011-07-09T12:35:46Z</time>
      </trkpt>
      <trkpt lat="46.02656" lon="3.75807">
        <ele>734</ele>
        <time>2011-07-09T12:35:51Z</time>
      </trkpt>
      <trkpt lat="46.02639" lon="3.75789">
        <ele>735</ele>
        <time>2011-07-09T12:35:57Z</time>
      </trkpt>
      <trkpt lat="46.02623" lon="3.75772">
        <ele>736</ele>
        <time>2011-07-09T12:36:03Z</time>
      </trkpt>
      <trkpt lat="46.02606" lon="3.75756">
        <ele>736</ele>
        <time>2011-07-09T12:36:08Z</time>
      </trkpt>
      <trkpt lat="46.02583" lon="3.75732">
        <ele>737</ele>
        <time>2011-07-09T12:36:14Z</time>
      </trkpt>
      <trkpt lat="46.02552" lon="3.75693">
        <ele>736</ele>
        <time>2011-07-09T12:36:22Z</time>
      </trkpt>
      <trkpt lat="46.02532" lon="3.75667">
        <ele>735</ele>
        <time>2011-07-09T12:36:28Z</time>
      </trkpt>
      <trkpt lat="46.02531" lon="3.75665">
        <ele>734</ele>
        <time>2011-07-09T12:36:33Z</time>
      </trkpt>
      <trkpt lat="46.02531" lon="3.75665">
        <ele>734</ele>
        <time>2011-07-09T12:36:47Z</time>
      </trkpt>
      <trkpt lat="46.02531" lon="3.75665">
        <ele>734</ele>
        <time>2011-07-09T12:36:57Z</time>
      </trkpt>
      <trkpt lat="46.02531" lon="3.75664">
        <ele>734</ele>
        <time>2011-07-09T12:37:14Z</time>
      </trkpt>
      <trkpt lat="46.02531" lon="3.75664">
        <ele>733</ele>
        <time>2011-07-09T12:37:30Z</time>
      </trkpt>
      <trkpt lat="46.02531" lon="3.75664">
        <ele>733</ele>
        <time>2011-07-09T12:37:41Z</time>
      </trkpt>
      <trkpt lat="46.0253" lon="3.75663">
        <ele>733</ele>
        <time>2011-07-09T12:37:49Z</time>
      </trkpt>
      <trkpt lat="46.02528" lon="3.75662">
        <ele>733</ele>
        <time>2011-07-09T12:37:50Z</time>
      </trkpt>
      <trkpt lat="46.02528" lon="3.7566">
        <ele>732</ele>
        <time>2011-07-09T12:37:51Z</time>
      </trkpt>
      <trkpt lat="46.02527" lon="3.75658">
        <ele>732</ele>
        <time>2011-07-09T12:37:52Z</time>
      </trkpt>
      <trkpt lat="46.02527" lon="3.75655">
        <ele>732</ele>
        <time>2011-07-09T12:37:53Z</time>
      </trkpt>
      <trkpt lat="46.02527" lon="3.75651">
        <ele>731</ele>
        <time>2011-07-09T12:37:54Z</time>
      </trkpt>
      <trkpt lat="46.02521" lon="3.75638">
        <ele>728</ele>
        <time>2011-07-09T12:37:58Z</time>
      </trkpt>
      <trkpt lat="46.02512" lon="3.75622">
        <ele>725</ele>
        <time>2011-07-09T12:38:02Z</time>
      </trkpt>
      <trkpt lat="46.02499" lon="3.75601">
        <ele>722</ele>
        <time>2011-07-09T12:38:06Z</time>
      </trkpt>
      <trkpt lat="46.02496" lon="3.75595">
        <ele>722</ele>
        <time>2011-07-09T12:38:07Z</time>
      </trkpt>
      <trkpt lat="46.02491" lon="3.75588">
        <ele>721</ele>
        <time>2011-07-09T12:38:08Z</time>
      </trkpt>
      <trkpt lat="46.02486" lon="3.75582">
        <ele>720</ele>
        <time>2011-07-09T12:38:09Z</time>
      </trkpt>
      <trkpt lat="46.02482" lon="3.75576">
        <ele>719</ele>
        <time>2011-07-09T12:38:10Z</time>
      </trkpt>
      <trkpt lat="46.02477" lon="3.7557">
        <ele>718</ele>
        <time>2011-07-09T12:38:11Z</time>
      </trkpt>
      <trkpt lat="46.02472" lon="3.75563">
        <ele>717</ele>
        <time>2011-07-09T12:38:12Z</time>
      </trkpt>
      <trkpt lat="46.02467" lon="3.75556">
        <ele>716</ele>
        <time>2011-07-09T12:38:13Z</time>
      </trkpt>
      <trkpt lat="46.02461" lon="3.75548">
        <ele>715</ele>
        <time>2011-07-09T12:38:14Z</time>
      </trkpt>
      <trkpt lat="46.02455" lon="3.7554">
        <ele>714</ele>
        <time>2011-07-09T12:38:15Z</time>
      </trkpt>
      <trkpt lat="46.0245" lon="3.75533">
        <ele>713</ele>
        <time>2011-07-09T12:38:16Z</time>
      </trkpt>
      <trkpt lat="46.02445" lon="3.75527">
        <ele>712</ele>
        <time>2011-07-09T12:38:17Z</time>
      </trkpt>
      <trkpt lat="46.02441" lon="3.75521">
        <ele>712</ele>
        <time>2011-07-09T12:38:18Z</time>
      </trkpt>
      <trkpt lat="46.02436" lon="3.75516">
        <ele>710</ele>
        <time>2011-07-09T12:38:19Z</time>
      </trkpt>
      <trkpt lat="46.02424" lon="3.75505">
        <ele>708</ele>
        <time>2011-07-09T12:38:21Z</time>
      </trkpt>
      <trkpt lat="46.02416" lon="3.75496">
        <ele>704</ele>
        <time>2011-07-09T12:38:22Z</time>
      </trkpt>
      <trkpt lat="46.02408" lon="3.75489">
        <ele>704</ele>
        <time>2011-07-09T12:38:23Z</time>
      </trkpt>
      <trkpt lat="46.02392" lon="3.75475">
        <ele>702</ele>
        <time>2011-07-09T12:38:25Z</time>
      </trkpt>
      <trkpt lat="46.02384" lon="3.75468">
        <ele>701</ele>
        <time>2011-07-09T12:38:26Z</time>
      </trkpt>
      <trkpt lat="46.02377" lon="3.7546">
        <ele>700</ele>
        <time>2011-07-09T12:38:27Z</time>
      </trkpt>
      <trkpt lat="46.02345" lon="3.75434">
        <ele>697</ele>
        <time>2011-07-09T12:38:31Z</time>
      </trkpt>
      <trkpt lat="46.02337" lon="3.75429">
        <ele>696</ele>
        <time>2011-07-09T12:38:32Z</time>
      </trkpt>
      <trkpt lat="46.02314" lon="3.75418">
        <ele>694</ele>
        <time>2011-07-09T12:38:35Z</time>
      </trkpt>
      <trkpt lat="46.02306" lon="3.75417">
        <ele>693</ele>
        <time>2011-07-09T12:38:36Z</time>
      </trkpt>
      <trkpt lat="46.02298" lon="3.75418">
        <ele>692</ele>
        <time>2011-07-09T12:38:37Z</time>
      </trkpt>
      <trkpt lat="46.02289" lon="3.75418">
        <ele>691</ele>
        <time>2011-07-09T12:38:38Z</time>
      </trkpt>
      <trkpt lat="46.0228" lon="3.75414">
        <ele>690</ele>
        <time>2011-07-09T12:38:39Z</time>
      </trkpt>
      <trkpt lat="46.02272" lon="3.7541">
        <ele>690</ele>
        <time>2011-07-09T12:38:40Z</time>
      </trkpt>
      <trkpt lat="46.02264" lon="3.75404">
        <ele>689</ele>
        <time>2011-07-09T12:38:41Z</time>
      </trkpt>
      <trkpt lat="46.02258" lon="3.75396">
        <ele>689</ele>
        <time>2011-07-09T12:38:42Z</time>
      </trkpt>
      <trkpt lat="46.02252" lon="3.75389">
        <ele>688</ele>
        <time>2011-07-09T12:38:43Z</time>
      </trkpt>
      <trkpt lat="46.02246" lon="3.75382">
        <ele>688</ele>
        <time>2011-07-09T12:38:44Z</time>
      </trkpt>
      <trkpt lat="46.02242" lon="3.75376">
        <ele>687</ele>
        <time>2011-07-09T12:38:45Z</time>
      </trkpt>
      <trkpt lat="46.02238" lon="3.7537">
        <ele>686</ele>
        <time>2011-07-09T12:38:46Z</time>
      </trkpt>
      <trkpt lat="46.02234" lon="3.75364">
        <ele>686</ele>
        <time>2011-07-09T12:38:47Z</time>
      </trkpt>
      <trkpt lat="46.02231" lon="3.75357">
        <ele>686</ele>
        <time>2011-07-09T12:38:48Z</time>
      </trkpt>
      <trkpt lat="46.02214" lon="3.75319">
        <ele>684</ele>
        <time>2011-07-09T12:38:54Z</time>
      </trkpt>
      <trkpt lat="46.02209" lon="3.75292">
        <ele>682</ele>
        <time>2011-07-09T12:39:00Z</time>
      </trkpt>
      <trkpt lat="46.0221" lon="3.75263">
        <ele>681</ele>
        <time>2011-07-09T12:39:06Z</time>
      </trkpt>
      <trkpt lat="46.02209" lon="3.7524">
        <ele>680</ele>
        <time>2011-07-09T12:39:13Z</time>
      </trkpt>
      <trkpt lat="46.02213" lon="3.75221">
        <ele>680</ele>
        <time>2011-07-09T12:39:20Z</time>
      </trkpt>
      <trkpt lat="46.0222" lon="3.75216">
        <ele>679</ele>
        <time>2011-07-09T12:39:25Z</time>
      </trkpt>
      <trkpt lat="46.02222" lon="3.75215">
        <ele>679</ele>
        <time>2011-07-09T12:39:26Z</time>
      </trkpt>
      <trkpt lat="46.02225" lon="3.75213">
        <ele>679</ele>
        <time>2011-07-09T12:39:27Z</time>
      </trkpt>
      <trkpt lat="46.0223" lon="3.7521">
        <ele>679</ele>
        <time>2011-07-09T12:39:30Z</time>
      </trkpt>
      <trkpt lat="46.02232" lon="3.7521">
        <ele>678</ele>
        <time>2011-07-09T12:39:31Z</time>
      </trkpt>
      <trkpt lat="46.0225" lon="3.75202">
        <ele>677</ele>
        <time>2011-07-09T12:39:39Z</time>
      </trkpt>
      <trkpt lat="46.02269" lon="3.75192">
        <ele>675</ele>
        <time>2011-07-09T12:39:45Z</time>
      </trkpt>
      <trkpt lat="46.02294" lon="3.75182">
        <ele>674</ele>
        <time>2011-07-09T12:39:50Z</time>
      </trkpt>
      <trkpt lat="46.02328" lon="3.75166">
        <ele>671</ele>
        <time>2011-07-09T12:39:56Z</time>
      </trkpt>
      <trkpt lat="46.02368" lon="3.75148">
        <ele>667</ele>
        <time>2011-07-09T12:40:01Z</time>
      </trkpt>
      <trkpt lat="46.02377" lon="3.75144">
        <ele>667</ele>
        <time>2011-07-09T12:40:02Z</time>
      </trkpt>
      <trkpt lat="46.02386" lon="3.75137">
        <ele>665</ele>
        <time>2011-07-09T12:40:03Z</time>
      </trkpt>
      <trkpt lat="46.02394" lon="3.75129">
        <ele>665</ele>
        <time>2011-07-09T12:40:04Z</time>
      </trkpt>
      <trkpt lat="46.02401" lon="3.75122">
        <ele>663</ele>
        <time>2011-07-09T12:40:05Z</time>
      </trkpt>
      <trkpt lat="46.02406" lon="3.75115">
        <ele>662</ele>
        <time>2011-07-09T12:40:06Z</time>
      </trkpt>
      <trkpt lat="46.02418" lon="3.75099">
        <ele>660</ele>
        <time>2011-07-09T12:40:10Z</time>
      </trkpt>
      <trkpt lat="46.02422" lon="3.75093">
        <ele>660</ele>
        <time>2011-07-09T12:40:11Z</time>
      </trkpt>
      <trkpt lat="46.02425" lon="3.75086">
        <ele>659</ele>
        <time>2011-07-09T12:40:12Z</time>
      </trkpt>
      <trkpt lat="46.02429" lon="3.75078">
        <ele>659</ele>
        <time>2011-07-09T12:40:13Z</time>
      </trkpt>
      <trkpt lat="46.02432" lon="3.7507">
        <ele>658</ele>
        <time>2011-07-09T12:40:14Z</time>
      </trkpt>
      <trkpt lat="46.02434" lon="3.75062">
        <ele>658</ele>
        <time>2011-07-09T12:40:15Z</time>
      </trkpt>
      <trkpt lat="46.02436" lon="3.75055">
        <ele>657</ele>
        <time>2011-07-09T12:40:16Z</time>
      </trkpt>
      <trkpt lat="46.02436" lon="3.75047">
        <ele>657</ele>
        <time>2011-07-09T12:40:17Z</time>
      </trkpt>
      <trkpt lat="46.02437" lon="3.75039">
        <ele>657</ele>
        <time>2011-07-09T12:40:18Z</time>
      </trkpt>
      <trkpt lat="46.0244" lon="3.74999">
        <ele>655</ele>
        <time>2011-07-09T12:40:23Z</time>
      </trkpt>
      <trkpt lat="46.02442" lon="3.74991">
        <ele>655</ele>
        <time>2011-07-09T12:40:24Z</time>
      </trkpt>
      <trkpt lat="46.02463" lon="3.74942">
        <ele>652</ele>
        <time>2011-07-09T12:40:30Z</time>
      </trkpt>
      <trkpt lat="46.02483" lon="3.74891">
        <ele>650</ele>
        <time>2011-07-09T12:40:35Z</time>
      </trkpt>
      <trkpt lat="46.02513" lon="3.74819">
        <ele>646</ele>
        <time>2011-07-09T12:40:41Z</time>
      </trkpt>
      <trkpt lat="46.02517" lon="3.74806">
        <ele>645</ele>
        <time>2011-07-09T12:40:42Z</time>
      </trkpt>
      <trkpt lat="46.02519" lon="3.74792">
        <ele>644</ele>
        <time>2011-07-09T12:40:43Z</time>
      </trkpt>
      <trkpt lat="46.0252" lon="3.74777">
        <ele>643</ele>
        <time>2011-07-09T12:40:44Z</time>
      </trkpt>
      <trkpt lat="46.02522" lon="3.74764">
        <ele>643</ele>
        <time>2011-07-09T12:40:45Z</time>
      </trkpt>
      <trkpt lat="46.02522" lon="3.7475">
        <ele>642</ele>
        <time>2011-07-09T12:40:46Z</time>
      </trkpt>
      <trkpt lat="46.02525" lon="3.74684">
        <ele>638</ele>
        <time>2011-07-09T12:40:51Z</time>
      </trkpt>
      <trkpt lat="46.02528" lon="3.74632">
        <ele>635</ele>
        <time>2011-07-09T12:40:55Z</time>
      </trkpt>
      <trkpt lat="46.0253" lon="3.74621">
        <ele>634</ele>
        <time>2011-07-09T12:40:56Z</time>
      </trkpt>
      <trkpt lat="46.02533" lon="3.74611">
        <ele>634</ele>
        <time>2011-07-09T12:40:57Z</time>
      </trkpt>
      <trkpt lat="46.02538" lon="3.74602">
        <ele>634</ele>
        <time>2011-07-09T12:40:58Z</time>
      </trkpt>
      <trkpt lat="46.02544" lon="3.74594">
        <ele>633</ele>
        <time>2011-07-09T12:40:59Z</time>
      </trkpt>
      <trkpt lat="46.02551" lon="3.74586">
        <ele>632</ele>
        <time>2011-07-09T12:41:00Z</time>
      </trkpt>
      <trkpt lat="46.02558" lon="3.74578">
        <ele>632</ele>
        <time>2011-07-09T12:41:01Z</time>
      </trkpt>
      <trkpt lat="46.02566" lon="3.74572">
        <ele>631</ele>
        <time>2011-07-09T12:41:02Z</time>
      </trkpt>
      <trkpt lat="46.0259" lon="3.74553">
        <ele>629</ele>
        <time>2011-07-09T12:41:05Z</time>
      </trkpt>
      <trkpt lat="46.02629" lon="3.7452">
        <ele>626</ele>
        <time>2011-07-09T12:41:10Z</time>
      </trkpt>
      <trkpt lat="46.02637" lon="3.74512">
        <ele>626</ele>
        <time>2011-07-09T12:41:11Z</time>
      </trkpt>
      <trkpt lat="46.02667" lon="3.74476">
        <ele>623</ele>
        <time>2011-07-09T12:41:15Z</time>
      </trkpt>
      <trkpt lat="46.02682" lon="3.74459">
        <ele>623</ele>
        <time>2011-07-09T12:41:17Z</time>
      </trkpt>
      <trkpt lat="46.0269" lon="3.74451">
        <ele>621</ele>
        <time>2011-07-09T12:41:18Z</time>
      </trkpt>
      <trkpt lat="46.02706" lon="3.74434">
        <ele>620</ele>
        <time>2011-07-09T12:41:20Z</time>
      </trkpt>
      <trkpt lat="46.02724" lon="3.74417">
        <ele>616</ele>
        <time>2011-07-09T12:41:22Z</time>
      </trkpt>
      <trkpt lat="46.02733" lon="3.7441">
        <ele>616</ele>
        <time>2011-07-09T12:41:23Z</time>
      </trkpt>
      <trkpt lat="46.02752" lon="3.74399">
        <ele>614</ele>
        <time>2011-07-09T12:41:25Z</time>
      </trkpt>
      <trkpt lat="46.02763" lon="3.74395">
        <ele>614</ele>
        <time>2011-07-09T12:41:26Z</time>
      </trkpt>
      <trkpt lat="46.02774" lon="3.74393">
        <ele>613</ele>
        <time>2011-07-09T12:41:27Z</time>
      </trkpt>
      <trkpt lat="46.02784" lon="3.74393">
        <ele>612</ele>
        <time>2011-07-09T12:41:28Z</time>
      </trkpt>
      <trkpt lat="46.02794" lon="3.74395">
        <ele>611</ele>
        <time>2011-07-09T12:41:29Z</time>
      </trkpt>
      <trkpt lat="46.02802" lon="3.74396">
        <ele>610</ele>
        <time>2011-07-09T12:41:30Z</time>
      </trkpt>
      <trkpt lat="46.0281" lon="3.74395">
        <ele>609</ele>
        <time>2011-07-09T12:41:31Z</time>
      </trkpt>
      <trkpt lat="46.02815" lon="3.74389">
        <ele>607</ele>
        <time>2011-07-09T12:41:32Z</time>
      </trkpt>
      <trkpt lat="46.02817" lon="3.74381">
        <ele>607</ele>
        <time>2011-07-09T12:41:33Z</time>
      </trkpt>
      <trkpt lat="46.02818" lon="3.74362">
        <ele>607</ele>
        <time>2011-07-09T12:41:35Z</time>
      </trkpt>
      <trkpt lat="46.02818" lon="3.74351">
        <ele>606</ele>
        <time>2011-07-09T12:41:36Z</time>
      </trkpt>
      <trkpt lat="46.02816" lon="3.74339">
        <ele>606</ele>
        <time>2011-07-09T12:41:37Z</time>
      </trkpt>
      <trkpt lat="46.02816" lon="3.74312">
        <ele>604</ele>
        <time>2011-07-09T12:41:39Z</time>
      </trkpt>
      <trkpt lat="46.02817" lon="3.743">
        <ele>604</ele>
        <time>2011-07-09T12:41:40Z</time>
      </trkpt>
      <trkpt lat="46.02821" lon="3.74289">
        <ele>603</ele>
        <time>2011-07-09T12:41:41Z</time>
      </trkpt>
      <trkpt lat="46.02826" lon="3.74278">
        <ele>602</ele>
        <time>2011-07-09T12:41:42Z</time>
      </trkpt>
      <trkpt lat="46.02831" lon="3.74269">
        <ele>602</ele>
        <time>2011-07-09T12:41:43Z</time>
      </trkpt>
      <trkpt lat="46.02838" lon="3.7426">
        <ele>601</ele>
        <time>2011-07-09T12:41:44Z</time>
      </trkpt>
      <trkpt lat="46.02845" lon="3.74252">
        <ele>600</ele>
        <time>2011-07-09T12:41:45Z</time>
      </trkpt>
      <trkpt lat="46.0286" lon="3.74236">
        <ele>598</ele>
        <time>2011-07-09T12:41:47Z</time>
      </trkpt>
      <trkpt lat="46.02876" lon="3.74221">
        <ele>597</ele>
        <time>2011-07-09T12:41:49Z</time>
      </trkpt>
      <trkpt lat="46.02884" lon="3.74216">
        <ele>596</ele>
        <time>2011-07-09T12:41:50Z</time>
      </trkpt>
      <trkpt lat="46.02894" lon="3.74212">
        <ele>595</ele>
        <time>2011-07-09T12:41:51Z</time>
      </trkpt>
      <trkpt lat="46.0291" lon="3.74205">
        <ele>593</ele>
        <time>2011-07-09T12:41:53Z</time>
      </trkpt>
      <trkpt lat="46.02918" lon="3.74203">
        <ele>592</ele>
        <time>2011-07-09T12:41:54Z</time>
      </trkpt>
      <trkpt lat="46.02925" lon="3.74201">
        <ele>591</ele>
        <time>2011-07-09T12:41:55Z</time>
      </trkpt>
      <trkpt lat="46.02959" lon="3.74188">
        <ele>589</ele>
        <time>2011-07-09T12:41:59Z</time>
      </trkpt>
      <trkpt lat="46.02968" lon="3.74184">
        <ele>588</ele>
        <time>2011-07-09T12:42:00Z</time>
      </trkpt>
      <trkpt lat="46.02978" lon="3.74182">
        <ele>588</ele>
        <time>2011-07-09T12:42:01Z</time>
      </trkpt>
      <trkpt lat="46.02987" lon="3.74181">
        <ele>587</ele>
        <time>2011-07-09T12:42:02Z</time>
      </trkpt>
      <trkpt lat="46.02996" lon="3.74182">
        <ele>586</ele>
        <time>2011-07-09T12:42:03Z</time>
      </trkpt>
      <trkpt lat="46.03005" lon="3.74187">
        <ele>585</ele>
        <time>2011-07-09T12:42:04Z</time>
      </trkpt>
      <trkpt lat="46.03014" lon="3.74194">
        <ele>584</ele>
        <time>2011-07-09T12:42:05Z</time>
      </trkpt>
      <trkpt lat="46.03021" lon="3.742">
        <ele>583</ele>
        <time>2011-07-09T12:42:06Z</time>
      </trkpt>
      <trkpt lat="46.03029" lon="3.74204">
        <ele>582</ele>
        <time>2011-07-09T12:42:07Z</time>
      </trkpt>
      <trkpt lat="46.03037" lon="3.74205">
        <ele>582</ele>
        <time>2011-07-09T12:42:08Z</time>
      </trkpt>
      <trkpt lat="46.03045" lon="3.74203">
        <ele>581</ele>
        <time>2011-07-09T12:42:09Z</time>
      </trkpt>
      <trkpt lat="46.03053" lon="3.742">
        <ele>580</ele>
        <time>2011-07-09T12:42:10Z</time>
      </trkpt>
      <trkpt lat="46.03061" lon="3.74197">
        <ele>580</ele>
        <time>2011-07-09T12:42:11Z</time>
      </trkpt>
      <trkpt lat="46.03067" lon="3.74192">
        <ele>578</ele>
        <time>2011-07-09T12:42:12Z</time>
      </trkpt>
      <trkpt lat="46.03075" lon="3.74186">
        <ele>577</ele>
        <time>2011-07-09T12:42:13Z</time>
      </trkpt>
      <trkpt lat="46.03079" lon="3.74175">
        <ele>576</ele>
        <time>2011-07-09T12:42:14Z</time>
      </trkpt>
      <trkpt lat="46.03083" lon="3.74161">
        <ele>576</ele>
        <time>2011-07-09T12:42:15Z</time>
      </trkpt>
      <trkpt lat="46.03087" lon="3.74148">
        <ele>575</ele>
        <time>2011-07-09T12:42:16Z</time>
      </trkpt>
      <trkpt lat="46.03092" lon="3.74135">
        <ele>574</ele>
        <time>2011-07-09T12:42:17Z</time>
      </trkpt>
      <trkpt lat="46.03098" lon="3.74123">
        <ele>574</ele>
        <time>2011-07-09T12:42:18Z</time>
      </trkpt>
      <trkpt lat="46.03111" lon="3.74099">
        <ele>571</ele>
        <time>2011-07-09T12:42:20Z</time>
      </trkpt>
      <trkpt lat="46.03118" lon="3.74088">
        <ele>572</ele>
        <time>2011-07-09T12:42:21Z</time>
      </trkpt>
      <trkpt lat="46.03125" lon="3.74079">
        <ele>571</ele>
        <time>2011-07-09T12:42:22Z</time>
      </trkpt>
      <trkpt lat="46.03132" lon="3.74072">
        <ele>569</ele>
        <time>2011-07-09T12:42:23Z</time>
      </trkpt>
      <trkpt lat="46.03137" lon="3.74068">
        <ele>568</ele>
        <time>2011-07-09T12:42:24Z</time>
      </trkpt>
      <trkpt lat="46.03142" lon="3.74067">
        <ele>568</ele>
        <time>2011-07-09T12:42:25Z</time>
      </trkpt>
      <trkpt lat="46.03147" lon="3.74066">
        <ele>567</ele>
        <time>2011-07-09T12:42:26Z</time>
      </trkpt>
      <trkpt lat="46.03153" lon="3.74067">
        <ele>567</ele>
        <time>2011-07-09T12:42:27Z</time>
      </trkpt>
      <trkpt lat="46.03157" lon="3.7407">
        <ele>567</ele>
        <time>2011-07-09T12:42:28Z</time>
      </trkpt>
      <trkpt lat="46.03163" lon="3.7407">
        <ele>565</ele>
        <time>2011-07-09T12:42:29Z</time>
      </trkpt>
      <trkpt lat="46.03169" lon="3.74069">
        <ele>564</ele>
        <time>2011-07-09T12:42:30Z</time>
      </trkpt>
      <trkpt lat="46.03175" lon="3.74067">
        <ele>564</ele>
        <time>2011-07-09T12:42:31Z</time>
      </trkpt>
      <trkpt lat="46.0318" lon="3.74064">
        <ele>563</ele>
        <time>2011-07-09T12:42:32Z</time>
      </trkpt>
      <trkpt lat="46.03182" lon="3.74055">
        <ele>563</ele>
        <time>2011-07-09T12:42:33Z</time>
      </trkpt>
      <trkpt lat="46.03182" lon="3.74043">
        <ele>562</ele>
        <time>2011-07-09T12:42:34Z</time>
      </trkpt>
      <trkpt lat="46.03183" lon="3.74029">
        <ele>562</ele>
        <time>2011-07-09T12:42:35Z</time>
      </trkpt>
      <trkpt lat="46.03183" lon="3.74013">
        <ele>560</ele>
        <time>2011-07-09T12:42:36Z</time>
      </trkpt>
      <trkpt lat="46.03182" lon="3.73997">
        <ele>559</ele>
        <time>2011-07-09T12:42:37Z</time>
      </trkpt>
      <trkpt lat="46.03179" lon="3.73982">
        <ele>558</ele>
        <time>2011-07-09T12:42:38Z</time>
      </trkpt>
      <trkpt lat="46.0318" lon="3.7397">
        <ele>557</ele>
        <time>2011-07-09T12:42:39Z</time>
      </trkpt>
      <trkpt lat="46.03188" lon="3.73948">
        <ele>556</ele>
        <time>2011-07-09T12:42:41Z</time>
      </trkpt>
      <trkpt lat="46.032" lon="3.73928">
        <ele>555</ele>
        <time>2011-07-09T12:42:43Z</time>
      </trkpt>
      <trkpt lat="46.03205" lon="3.73921">
        <ele>554</ele>
        <time>2011-07-09T12:42:44Z</time>
      </trkpt>
      <trkpt lat="46.03214" lon="3.73906">
        <ele>552</ele>
        <time>2011-07-09T12:42:46Z</time>
      </trkpt>
      <trkpt lat="46.03217" lon="3.739">
        <ele>552</ele>
        <time>2011-07-09T12:42:47Z</time>
      </trkpt>
      <trkpt lat="46.03221" lon="3.73894">
        <ele>551</ele>
        <time>2011-07-09T12:42:48Z</time>
      </trkpt>
      <trkpt lat="46.03233" lon="3.73877">
        <ele>549</ele>
        <time>2011-07-09T12:42:53Z</time>
      </trkpt>
      <trkpt lat="46.03236" lon="3.73872">
        <ele>548</ele>
        <time>2011-07-09T12:42:59Z</time>
      </trkpt>
      <trkpt lat="46.03237" lon="3.73871">
        <ele>548</ele>
        <time>2011-07-09T12:43:03Z</time>
      </trkpt>
      <trkpt lat="46.03238" lon="3.7387">
        <ele>548</ele>
        <time>2011-07-09T12:43:04Z</time>
      </trkpt>
      <trkpt lat="46.03241" lon="3.73868">
        <ele>548</ele>
        <time>2011-07-09T12:43:05Z</time>
      </trkpt>
      <trkpt lat="46.03244" lon="3.73864">
        <ele>547</ele>
        <time>2011-07-09T12:43:06Z</time>
      </trkpt>
      <trkpt lat="46.03247" lon="3.7386">
        <ele>548</ele>
        <time>2011-07-09T12:43:07Z</time>
      </trkpt>
      <trkpt lat="46.03251" lon="3.73856">
        <ele>547</ele>
        <time>2011-07-09T12:43:08Z</time>
      </trkpt>
      <trkpt lat="46.03256" lon="3.73852">
        <ele>546</ele>
        <time>2011-07-09T12:43:09Z</time>
      </trkpt>
      <trkpt lat="46.03262" lon="3.73847">
        <ele>546</ele>
        <time>2011-07-09T12:43:10Z</time>
      </trkpt>
      <trkpt lat="46.03267" lon="3.73842">
        <ele>546</ele>
        <time>2011-07-09T12:43:11Z</time>
      </trkpt>
      <trkpt lat="46.0328" lon="3.73831">
        <ele>544</ele>
        <time>2011-07-09T12:43:13Z</time>
      </trkpt>
      <trkpt lat="46.03287" lon="3.73824">
        <ele>543</ele>
        <time>2011-07-09T12:43:14Z</time>
      </trkpt>
      <trkpt lat="46.03293" lon="3.73814">
        <ele>543</ele>
        <time>2011-07-09T12:43:15Z</time>
      </trkpt>
      <trkpt lat="46.03299" lon="3.73805">
        <ele>543</ele>
        <time>2011-07-09T12:43:16Z</time>
      </trkpt>
      <trkpt lat="46.03304" lon="3.73795">
        <ele>542</ele>
        <time>2011-07-09T12:43:17Z</time>
      </trkpt>
      <trkpt lat="46.03317" lon="3.73771">
        <ele>539</ele>
        <time>2011-07-09T12:43:20Z</time>
      </trkpt>
      <trkpt lat="46.03319" lon="3.73767">
        <ele>538</ele>
        <time>2011-07-09T12:43:21Z</time>
      </trkpt>
      <trkpt lat="46.03321" lon="3.73764">
        <ele>538</ele>
        <time>2011-07-09T12:43:22Z</time>
      </trkpt>
      <trkpt lat="46.03322" lon="3.73761">
        <ele>537</ele>
        <time>2011-07-09T12:43:23Z</time>
      </trkpt>
      <trkpt lat="46.03324" lon="3.73757">
        <ele>537</ele>
        <time>2011-07-09T12:43:24Z</time>
      </trkpt>
      <trkpt lat="46.03325" lon="3.73752">
        <ele>536</ele>
        <time>2011-07-09T12:43:28Z</time>
      </trkpt>
      <trkpt lat="46.03325" lon="3.7375">
        <ele>536</ele>
        <time>2011-07-09T12:43:36Z</time>
      </trkpt>
      <trkpt lat="46.03325" lon="3.7375">
        <ele>536</ele>
        <time>2011-07-09T12:43:47Z</time>
      </trkpt>
      <trkpt lat="46.03325" lon="3.7375">
        <ele>536</ele>
        <time>2011-07-09T12:44:07Z</time>
      </trkpt>
      <trkpt lat="46.03323" lon="3.73748">
        <ele>536</ele>
        <time>2011-07-09T12:44:14Z</time>
      </trkpt>
      <trkpt lat="46.03321" lon="3.73749">
        <ele>536</ele>
        <time>2011-07-09T12:44:15Z</time>
      </trkpt>
      <trkpt lat="46.03305" lon="3.73764">
        <ele>535</ele>
        <time>2011-07-09T12:44:21Z</time>
      </trkpt>
      <trkpt lat="46.03292" lon="3.73779">
        <ele>533</ele>
        <time>2011-07-09T12:44:24Z</time>
      </trkpt>
      <trkpt lat="46.03287" lon="3.73785">
        <ele>533</ele>
        <time>2011-07-09T12:44:25Z</time>
      </trkpt>
      <trkpt lat="46.0328" lon="3.73792">
        <ele>532</ele>
        <time>2011-07-09T12:44:26Z</time>
      </trkpt>
      <trkpt lat="46.03274" lon="3.73799">
        <ele>532</ele>
        <time>2011-07-09T12:44:27Z</time>
      </trkpt>
      <trkpt lat="46.03268" lon="3.73806">
        <ele>532</ele>
        <time>2011-07-09T12:44:28Z</time>
      </trkpt>
      <trkpt lat="46.03261" lon="3.73811">
        <ele>531</ele>
        <time>2011-07-09T12:44:29Z</time>
      </trkpt>
      <trkpt lat="46.03254" lon="3.73815">
        <ele>531</ele>
        <time>2011-07-09T12:44:30Z</time>
      </trkpt>
      <trkpt lat="46.03247" lon="3.73817">
        <ele>531</ele>
        <time>2011-07-09T12:44:31Z</time>
      </trkpt>
      <trkpt lat="46.0324" lon="3.73819">
        <ele>530</ele>
        <time>2011-07-09T12:44:32Z</time>
      </trkpt>
      <trkpt lat="46.03233" lon="3.73818">
        <ele>530</ele>
        <time>2011-07-09T12:44:33Z</time>
      </trkpt>
      <trkpt lat="46.03226" lon="3.73815">
        <ele>530</ele>
        <time>2011-07-09T12:44:34Z</time>
      </trkpt>
      <trkpt lat="46.03219" lon="3.73812">
        <ele>530</ele>
        <time>2011-07-09T12:44:35Z</time>
      </trkpt>
      <trkpt lat="46.03213" lon="3.73807">
        <ele>530</ele>
        <time>2011-07-09T12:44:36Z</time>
      </trkpt>
      <trkpt lat="46.03207" lon="3.73801">
        <ele>530</ele>
        <time>2011-07-09T12:44:37Z</time>
      </trkpt>
      <trkpt lat="46.03202" lon="3.73796">
        <ele>530</ele>
        <time>2011-07-09T12:44:38Z</time>
      </trkpt>
      <trkpt lat="46.03188" lon="3.73784">
        <ele>530</ele>
        <time>2011-07-09T12:44:41Z</time>
      </trkpt>
      <trkpt lat="46.03185" lon="3.73781">
        <ele>530</ele>
        <time>2011-07-09T12:44:42Z</time>
      </trkpt>
      <trkpt lat="46.03181" lon="3.7378">
        <ele>531</ele>
        <time>2011-07-09T12:44:43Z</time>
      </trkpt>
      <trkpt lat="46.03178" lon="3.73779">
        <ele>531</ele>
        <time>2011-07-09T12:44:44Z</time>
      </trkpt>
      <trkpt lat="46.03175" lon="3.73777">
        <ele>531</ele>
        <time>2011-07-09T12:44:45Z</time>
      </trkpt>
      <trkpt lat="46.03158" lon="3.73769">
        <ele>531</ele>
        <time>2011-07-09T12:44:51Z</time>
      </trkpt>
      <trkpt lat="46.03132" lon="3.7375">
        <ele>533</ele>
        <time>2011-07-09T12:44:59Z</time>
      </trkpt>
      <trkpt lat="46.03109" lon="3.73731">
        <ele>534</ele>
        <time>2011-07-09T12:45:07Z</time>
      </trkpt>
      <trkpt lat="46.03085" lon="3.73712">
        <ele>536</ele>
        <time>2011-07-09T12:45:15Z</time>
      </trkpt>
      <trkpt lat="46.03074" lon="3.73695">
        <ele>538</ele>
        <time>2011-07-09T12:45:21Z</time>
      </trkpt>
      <trkpt lat="46.0307" lon="3.7369">
        <ele>538</ele>
        <time>2011-07-09T12:45:23Z</time>
      </trkpt>
      <trkpt lat="46.03069" lon="3.73688">
        <ele>538</ele>
        <time>2011-07-09T12:45:24Z</time>
      </trkpt>
      <trkpt lat="46.03067" lon="3.73687">
        <ele>538</ele>
        <time>2011-07-09T12:45:25Z</time>
      </trkpt>
      <trkpt lat="46.03064" lon="3.73686">
        <ele>539</ele>
        <time>2011-07-09T12:45:26Z</time>
      </trkpt>
      <trkpt lat="46.03062" lon="3.73684">
        <ele>539</ele>
        <time>2011-07-09T12:45:27Z</time>
      </trkpt>
      <trkpt lat="46.03059" lon="3.73683">
        <ele>539</ele>
        <time>2011-07-09T12:45:28Z</time>
      </trkpt>
      <trkpt lat="46.03057" lon="3.73682">
        <ele>540</ele>
        <time>2011-07-09T12:45:29Z</time>
      </trkpt>
      <trkpt lat="46.03054" lon="3.73683">
        <ele>540</ele>
        <time>2011-07-09T12:45:30Z</time>
      </trkpt>
      <trkpt lat="46.03051" lon="3.73682">
        <ele>540</ele>
        <time>2011-07-09T12:45:31Z</time>
      </trkpt>
      <trkpt lat="46.03049" lon="3.73682">
        <ele>541</ele>
        <time>2011-07-09T12:45:32Z</time>
      </trkpt>
      <trkpt lat="46.03046" lon="3.73682">
        <ele>541</ele>
        <time>2011-07-09T12:45:33Z</time>
      </trkpt>
      <trkpt lat="46.03025" lon="3.73681">
        <ele>542</ele>
        <time>2011-07-09T12:45:41Z</time>
      </trkpt>
      <trkpt lat="46.0301" lon="3.7368">
        <ele>544</ele>
        <time>2011-07-09T12:45:48Z</time>
      </trkpt>
      <trkpt lat="46.02998" lon="3.7368">
        <ele>546</ele>
        <time>2011-07-09T12:45:54Z</time>
      </trkpt>
      <trkpt lat="46.02995" lon="3.7368">
        <ele>547</ele>
        <time>2011-07-09T12:45:56Z</time>
      </trkpt>
      <trkpt lat="46.02993" lon="3.73679">
        <ele>547</ele>
        <time>2011-07-09T12:45:57Z</time>
      </trkpt>
      <trkpt lat="46.02992" lon="3.73678">
        <ele>547</ele>
        <time>2011-07-09T12:45:58Z</time>
      </trkpt>
      <trkpt lat="46.0299" lon="3.73678">
        <ele>547</ele>
        <time>2011-07-09T12:45:59Z</time>
      </trkpt>
      <trkpt lat="46.02989" lon="3.73677">
        <ele>548</ele>
        <time>2011-07-09T12:46:00Z</time>
      </trkpt>
      <trkpt lat="46.02988" lon="3.73676">
        <ele>548</ele>
        <time>2011-07-09T12:46:01Z</time>
      </trkpt>
      <trkpt lat="46.02986" lon="3.73675">
        <ele>548</ele>
        <time>2011-07-09T12:46:02Z</time>
      </trkpt>
      <trkpt lat="46.02985" lon="3.73674">
        <ele>549</ele>
        <time>2011-07-09T12:46:03Z</time>
      </trkpt>
      <trkpt lat="46.02984" lon="3.73673">
        <ele>549</ele>
        <time>2011-07-09T12:46:04Z</time>
      </trkpt>
      <trkpt lat="46.02982" lon="3.73672">
        <ele>549</ele>
        <time>2011-07-09T12:46:05Z</time>
      </trkpt>
      <trkpt lat="46.0298" lon="3.7367">
        <ele>549</ele>
        <time>2011-07-09T12:46:06Z</time>
      </trkpt>
      <trkpt lat="46.02979" lon="3.73669">
        <ele>549</ele>
        <time>2011-07-09T12:46:07Z</time>
      </trkpt>
      <trkpt lat="46.02977" lon="3.73668">
        <ele>549</ele>
        <time>2011-07-09T12:46:08Z</time>
      </trkpt>
      <trkpt lat="46.02976" lon="3.73667">
        <ele>550</ele>
        <time>2011-07-09T12:46:09Z</time>
      </trkpt>
      <trkpt lat="46.02966" lon="3.73656">
        <ele>551</ele>
        <time>2011-07-09T12:46:17Z</time>
      </trkpt>
      <trkpt lat="46.02964" lon="3.73656">
        <ele>551</ele>
        <time>2011-07-09T12:46:18Z</time>
      </trkpt>
      <trkpt lat="46.02963" lon="3.73655">
        <ele>551</ele>
        <time>2011-07-09T12:46:19Z</time>
      </trkpt>
      <trkpt lat="46.02962" lon="3.73654">
        <ele>552</ele>
        <time>2011-07-09T12:46:20Z</time>
      </trkpt>
      <trkpt lat="46.02961" lon="3.73653">
        <ele>552</ele>
        <time>2011-07-09T12:46:21Z</time>
      </trkpt>
      <trkpt lat="46.02953" lon="3.73648">
        <ele>554</ele>
        <time>2011-07-09T12:46:27Z</time>
      </trkpt>
      <trkpt lat="46.02952" lon="3.73647">
        <ele>554</ele>
        <time>2011-07-09T12:46:28Z</time>
      </trkpt>
      <trkpt lat="46.02948" lon="3.73643">
        <ele>555</ele>
        <time>2011-07-09T12:46:32Z</time>
      </trkpt>
      <trkpt lat="46.02947" lon="3.73642">
        <ele>555</ele>
        <time>2011-07-09T12:46:33Z</time>
      </trkpt>
      <trkpt lat="46.02945" lon="3.73641">
        <ele>555</ele>
        <time>2011-07-09T12:46:34Z</time>
      </trkpt>
      <trkpt lat="46.02935" lon="3.73636">
        <ele>557</ele>
        <time>2011-07-09T12:46:42Z</time>
      </trkpt>
      <trkpt lat="46.02932" lon="3.73633">
        <ele>558</ele>
        <time>2011-07-09T12:46:45Z</time>
      </trkpt>
      <trkpt lat="46.02931" lon="3.73632">
        <ele>559</ele>
        <time>2011-07-09T12:46:46Z</time>
      </trkpt>
      <trkpt lat="46.02929" lon="3.73631">
        <ele>559</ele>
        <time>2011-07-09T12:46:47Z</time>
      </trkpt>
      <trkpt lat="46.02928" lon="3.73631">
        <ele>559</ele>
        <time>2011-07-09T12:46:48Z</time>
      </trkpt>
      <trkpt lat="46.02927" lon="3.7363">
        <ele>559</ele>
        <time>2011-07-09T12:46:49Z</time>
      </trkpt>
      <trkpt lat="46.02926" lon="3.73629">
        <ele>559</ele>
        <time>2011-07-09T12:46:50Z</time>
      </trkpt>
      <trkpt lat="46.02925" lon="3.73628">
        <ele>560</ele>
        <time>2011-07-09T12:46:51Z</time>
      </trkpt>
      <trkpt lat="46.02924" lon="3.73627">
        <ele>560</ele>
        <time>2011-07-09T12:46:52Z</time>
      </trkpt>
      <trkpt lat="46.02922" lon="3.73626">
        <ele>560</ele>
        <time>2011-07-09T12:46:53Z</time>
      </trkpt>
      <trkpt lat="46.02922" lon="3.73625">
        <ele>560</ele>
        <time>2011-07-09T12:46:54Z</time>
      </trkpt>
      <trkpt lat="46.02921" lon="3.73624">
        <ele>561</ele>
        <time>2011-07-09T12:46:55Z</time>
      </trkpt>
      <trkpt lat="46.02919" lon="3.73623">
        <ele>561</ele>
        <time>2011-07-09T12:46:56Z</time>
      </trkpt>
      <trkpt lat="46.02918" lon="3.73622">
        <ele>561</ele>
        <time>2011-07-09T12:46:57Z</time>
      </trkpt>
      <trkpt lat="46.02917" lon="3.73621">
        <ele>562</ele>
        <time>2011-07-09T12:46:58Z</time>
      </trkpt>
      <trkpt lat="46.02916" lon="3.73619">
        <ele>562</ele>
        <time>2011-07-09T12:46:59Z</time>
      </trkpt>
      <trkpt lat="46.02915" lon="3.73618">
        <ele>562</ele>
        <time>2011-07-09T12:47:00Z</time>
      </trkpt>
      <trkpt lat="46.02907" lon="3.73612">
        <ele>563</ele>
        <time>2011-07-09T12:47:07Z</time>
      </trkpt>
      <trkpt lat="46.02902" lon="3.73606">
        <ele>564</ele>
        <time>2011-07-09T12:47:13Z</time>
      </trkpt>
      <trkpt lat="46.02897" lon="3.73601">
        <ele>565</ele>
        <time>2011-07-09T12:47:17Z</time>
      </trkpt>
      <trkpt lat="46.02894" lon="3.73597">
        <ele>565</ele>
        <time>2011-07-09T12:47:20Z</time>
      </trkpt>
      <trkpt lat="46.02893" lon="3.73595">
        <ele>566</ele>
        <time>2011-07-09T12:47:21Z</time>
      </trkpt>
      <trkpt lat="46.02893" lon="3.73594">
        <ele>566</ele>
        <time>2011-07-09T12:47:22Z</time>
      </trkpt>
      <trkpt lat="46.02892" lon="3.73592">
        <ele>566</ele>
        <time>2011-07-09T12:47:23Z</time>
      </trkpt>
      <trkpt lat="46.02891" lon="3.73591">
        <ele>566</ele>
        <time>2011-07-09T12:47:24Z</time>
      </trkpt>
      <trkpt lat="46.0289" lon="3.73589">
        <ele>566</ele>
        <time>2011-07-09T12:47:25Z</time>
      </trkpt>
      <trkpt lat="46.02886" lon="3.73579">
        <ele>567</ele>
        <time>2011-07-09T12:47:33Z</time>
      </trkpt>
      <trkpt lat="46.02885" lon="3.73578">
        <ele>567</ele>
        <time>2011-07-09T12:47:35Z</time>
      </trkpt>
      <trkpt lat="46.02883" lon="3.73574">
        <ele>568</ele>
        <time>2011-07-09T12:47:37Z</time>
      </trkpt>
      <trkpt lat="46.02882" lon="3.73571">
        <ele>568</ele>
        <time>2011-07-09T12:47:38Z</time>
      </trkpt>
      <trkpt lat="46.02881" lon="3.73569">
        <ele>568</ele>
        <time>2011-07-09T12:47:39Z</time>
      </trkpt>
      <trkpt lat="46.0288" lon="3.73563">
        <ele>568</ele>
        <time>2011-07-09T12:47:42Z</time>
      </trkpt>
      <trkpt lat="46.02878" lon="3.7356">
        <ele>569</ele>
        <time>2011-07-09T12:47:45Z</time>
      </trkpt>
      <trkpt lat="46.02877" lon="3.73558">
        <ele>569</ele>
        <time>2011-07-09T12:47:46Z</time>
      </trkpt>
      <trkpt lat="46.02876" lon="3.73555">
        <ele>569</ele>
        <time>2011-07-09T12:47:47Z</time>
      </trkpt>
      <trkpt lat="46.02866" lon="3.73526">
        <ele>571</ele>
        <time>2011-07-09T12:47:57Z</time>
      </trkpt>
      <trkpt lat="46.02861" lon="3.73508">
        <ele>573</ele>
        <time>2011-07-09T12:48:03Z</time>
      </trkpt>
      <trkpt lat="46.0286" lon="3.73499">
        <ele>573</ele>
        <time>2011-07-09T12:48:06Z</time>
      </trkpt>
      <trkpt lat="46.0286" lon="3.73497">
        <ele>574</ele>
        <time>2011-07-09T12:48:07Z</time>
      </trkpt>
      <trkpt lat="46.02859" lon="3.73493">
        <ele>574</ele>
        <time>2011-07-09T12:48:08Z</time>
      </trkpt>
      <trkpt lat="46.02858" lon="3.73468">
        <ele>575</ele>
        <time>2011-07-09T12:48:15Z</time>
      </trkpt>
      <trkpt lat="46.02858" lon="3.73437">
        <ele>577</ele>
        <time>2011-07-09T12:48:24Z</time>
      </trkpt>
      <trkpt lat="46.0286" lon="3.73418">
        <ele>578</ele>
        <time>2011-07-09T12:48:31Z</time>
      </trkpt>
      <trkpt lat="46.02867" lon="3.73394">
        <ele>578</ele>
        <time>2011-07-09T12:48:38Z</time>
      </trkpt>
      <trkpt lat="46.02874" lon="3.73369">
        <ele>578</ele>
        <time>2011-07-09T12:48:44Z</time>
      </trkpt>
      <trkpt lat="46.02867" lon="3.73341">
        <ele>578</ele>
        <time>2011-07-09T12:48:50Z</time>
      </trkpt>
      <trkpt lat="46.02852" lon="3.73319">
        <ele>580</ele>
        <time>2011-07-09T12:48:57Z</time>
      </trkpt>
      <trkpt lat="46.02838" lon="3.73292">
        <ele>582</ele>
        <time>2011-07-09T12:49:05Z</time>
      </trkpt>
      <trkpt lat="46.02826" lon="3.73272">
        <ele>584</ele>
        <time>2011-07-09T12:49:12Z</time>
      </trkpt>
      <trkpt lat="46.02815" lon="3.73253">
        <ele>586</ele>
        <time>2011-07-09T12:49:19Z</time>
      </trkpt>
      <trkpt lat="46.02807" lon="3.73239">
        <ele>588</ele>
        <time>2011-07-09T12:49:25Z</time>
      </trkpt>
      <trkpt lat="46.02795" lon="3.7322">
        <ele>589</ele>
        <time>2011-07-09T12:49:33Z</time>
      </trkpt>
      <trkpt lat="46.02787" lon="3.73206">
        <ele>590</ele>
        <time>2011-07-09T12:49:39Z</time>
      </trkpt>
      <trkpt lat="46.02777" lon="3.73185">
        <ele>591</ele>
        <time>2011-07-09T12:49:47Z</time>
      </trkpt>
      <trkpt lat="46.02766" lon="3.73163">
        <ele>593</ele>
        <time>2011-07-09T12:49:55Z</time>
      </trkpt>
      <trkpt lat="46.02759" lon="3.73137">
        <ele>594</ele>
        <time>2011-07-09T12:50:03Z</time>
      </trkpt>
      <trkpt lat="46.02754" lon="3.73107">
        <ele>595</ele>
        <time>2011-07-09T12:50:12Z</time>
      </trkpt>
      <trkpt lat="46.02749" lon="3.73084">
        <ele>597</ele>
        <time>2011-07-09T12:50:20Z</time>
      </trkpt>
      <trkpt lat="46.02749" lon="3.73079">
        <ele>597</ele>
        <time>2011-07-09T12:50:22Z</time>
      </trkpt>
      <trkpt lat="46.02749" lon="3.73077">
        <ele>597</ele>
        <time>2011-07-09T12:50:23Z</time>
      </trkpt>
      <trkpt lat="46.02749" lon="3.73075">
        <ele>598</ele>
        <time>2011-07-09T12:50:24Z</time>
      </trkpt>
      <trkpt lat="46.02744" lon="3.73055">
        <ele>600</ele>
        <time>2011-07-09T12:50:32Z</time>
      </trkpt>
      <trkpt lat="46.02743" lon="3.73052">
        <ele>600</ele>
        <time>2011-07-09T12:50:39Z</time>
      </trkpt>
      <trkpt lat="46.02743" lon="3.73052">
        <ele>600</ele>
        <time>2011-07-09T12:50:56Z</time>
      </trkpt>
      <trkpt lat="46.02743" lon="3.73052">
        <ele>600</ele>
        <time>2011-07-09T12:51:11Z</time>
      </trkpt>
      <trkpt lat="46.02743" lon="3.73052">
        <ele>600</ele>
        <time>2011-07-09T12:51:30Z</time>
      </trkpt>
      <trkpt lat="46.02743" lon="3.73052">
        <ele>600</ele>
        <time>2011-07-09T12:51:44Z</time>
      </trkpt>
      <trkpt lat="46.02743" lon="3.73052">
        <ele>600</ele>
        <time>2011-07-09T12:52:03Z</time>
      </trkpt>
      <trkpt lat="46.02743" lon="3.73052">
        <ele>600</ele>
        <time>2011-07-09T12:52:20Z</time>
      </trkpt>
      <trkpt lat="46.02743" lon="3.73051">
        <ele>600</ele>
        <time>2011-07-09T12:52:36Z</time>
      </trkpt>
      <trkpt lat="46.02743" lon="3.73051">
        <ele>600</ele>
        <time>2011-07-09T12:52:50Z</time>
      </trkpt>
      <trkpt lat="46.02743" lon="3.73051">
        <ele>600</ele>
        <time>2011-07-09T12:53:03Z</time>
      </trkpt>
      <trkpt lat="46.02743" lon="3.73051">
        <ele>600</ele>
        <time>2011-07-09T12:53:08Z</time>
      </trkpt>
      <trkpt lat="46.02743" lon="3.73049">
        <ele>600</ele>
        <time>2011-07-09T12:53:09Z</time>
      </trkpt>
      <trkpt lat="46.02743" lon="3.73048">
        <ele>600</ele>
        <time>2011-07-09T12:53:10Z</time>
      </trkpt>
      <trkpt lat="46.02744" lon="3.73046">
        <ele>600</ele>
        <time>2011-07-09T12:53:11Z</time>
      </trkpt>
      <trkpt lat="46.02745" lon="3.73044">
        <ele>600</ele>
        <time>2011-07-09T12:53:12Z</time>
      </trkpt>
      <trkpt lat="46.02746" lon="3.73041">
        <ele>600</ele>
        <time>2011-07-09T12:53:13Z</time>
      </trkpt>
      <trkpt lat="46.02753" lon="3.73022">
        <ele>599</ele>
        <time>2011-07-09T12:53:18Z</time>
      </trkpt>
      <trkpt lat="46.02766" lon="3.73001">
        <ele>598</ele>
        <time>2011-07-09T12:53:26Z</time>
      </trkpt>
      <trkpt lat="46.02783" lon="3.72986">
        <ele>596</ele>
        <time>2011-07-09T12:53:32Z</time>
      </trkpt>
      <trkpt lat="46.02786" lon="3.72983">
        <ele>596</ele>
        <time>2011-07-09T12:53:33Z</time>
      </trkpt>
      <trkpt lat="46.02789" lon="3.72978">
        <ele>596</ele>
        <time>2011-07-09T12:53:34Z</time>
      </trkpt>
      <trkpt lat="46.02802" lon="3.72961">
        <ele>594</ele>
        <time>2011-07-09T12:53:37Z</time>
      </trkpt>
      <trkpt lat="46.02807" lon="3.72955">
        <ele>594</ele>
        <time>2011-07-09T12:53:38Z</time>
      </trkpt>
      <trkpt lat="46.0281" lon="3.72949">
        <ele>593</ele>
        <time>2011-07-09T12:53:39Z</time>
      </trkpt>
      <trkpt lat="46.02814" lon="3.72941">
        <ele>592</ele>
        <time>2011-07-09T12:53:40Z</time>
      </trkpt>
      <trkpt lat="46.02817" lon="3.72933">
        <ele>591</ele>
        <time>2011-07-09T12:53:41Z</time>
      </trkpt>
      <trkpt lat="46.02819" lon="3.72926">
        <ele>590</ele>
        <time>2011-07-09T12:53:42Z</time>
      </trkpt>
      <trkpt lat="46.02821" lon="3.72918">
        <ele>590</ele>
        <time>2011-07-09T12:53:43Z</time>
      </trkpt>
      <trkpt lat="46.02823" lon="3.72909">
        <ele>589</ele>
        <time>2011-07-09T12:53:44Z</time>
      </trkpt>
      <trkpt lat="46.02824" lon="3.729">
        <ele>588</ele>
        <time>2011-07-09T12:53:45Z</time>
      </trkpt>
      <trkpt lat="46.02824" lon="3.72892">
        <ele>588</ele>
        <time>2011-07-09T12:53:46Z</time>
      </trkpt>
      <trkpt lat="46.02826" lon="3.7288">
        <ele>586</ele>
        <time>2011-07-09T12:53:48Z</time>
      </trkpt>
      <trkpt lat="46.02827" lon="3.72873">
        <ele>585</ele>
        <time>2011-07-09T12:53:49Z</time>
      </trkpt>
      <trkpt lat="46.02828" lon="3.72865">
        <ele>584</ele>
        <time>2011-07-09T12:53:50Z</time>
      </trkpt>
      <trkpt lat="46.02829" lon="3.72858">
        <ele>582</ele>
        <time>2011-07-09T12:53:51Z</time>
      </trkpt>
      <trkpt lat="46.0283" lon="3.72854">
        <ele>581</ele>
        <time>2011-07-09T12:53:52Z</time>
      </trkpt>
      <trkpt lat="46.02831" lon="3.72852">
        <ele>581</ele>
        <time>2011-07-09T12:53:53Z</time>
      </trkpt>
      <trkpt lat="46.02834" lon="3.72852">
        <ele>581</ele>
        <time>2011-07-09T12:53:54Z</time>
      </trkpt>
      <trkpt lat="46.02852" lon="3.72854">
        <ele>578</ele>
        <time>2011-07-09T12:53:59Z</time>
      </trkpt>
      <trkpt lat="46.02861" lon="3.72854">
        <ele>576</ele>
        <time>2011-07-09T12:54:01Z</time>
      </trkpt>
      <trkpt lat="46.02866" lon="3.72854">
        <ele>576</ele>
        <time>2011-07-09T12:54:02Z</time>
      </trkpt>
      <trkpt lat="46.02871" lon="3.72853">
        <ele>575</ele>
        <time>2011-07-09T12:54:03Z</time>
      </trkpt>
      <trkpt lat="46.02876" lon="3.72853">
        <ele>574</ele>
        <time>2011-07-09T12:54:04Z</time>
      </trkpt>
      <trkpt lat="46.0288" lon="3.72853">
        <ele>573</ele>
        <time>2011-07-09T12:54:05Z</time>
      </trkpt>
      <trkpt lat="46.02884" lon="3.72853">
        <ele>572</ele>
        <time>2011-07-09T12:54:06Z</time>
      </trkpt>
      <trkpt lat="46.02887" lon="3.72853">
        <ele>571</ele>
        <time>2011-07-09T12:54:07Z</time>
      </trkpt>
      <trkpt lat="46.02891" lon="3.72854">
        <ele>571</ele>
        <time>2011-07-09T12:54:08Z</time>
      </trkpt>
      <trkpt lat="46.02895" lon="3.72854">
        <ele>571</ele>
        <time>2011-07-09T12:54:09Z</time>
      </trkpt>
      <trkpt lat="46.029" lon="3.72853">
        <ele>569</ele>
        <time>2011-07-09T12:54:10Z</time>
      </trkpt>
      <trkpt lat="46.02906" lon="3.72851">
        <ele>570</ele>
        <time>2011-07-09T12:54:11Z</time>
      </trkpt>
      <trkpt lat="46.02913" lon="3.72848">
        <ele>568</ele>
        <time>2011-07-09T12:54:12Z</time>
      </trkpt>
      <trkpt lat="46.02919" lon="3.72844">
        <ele>567</ele>
        <time>2011-07-09T12:54:13Z</time>
      </trkpt>
      <trkpt lat="46.02924" lon="3.72839">
        <ele>566</ele>
        <time>2011-07-09T12:54:14Z</time>
      </trkpt>
      <trkpt lat="46.02929" lon="3.72837">
        <ele>565</ele>
        <time>2011-07-09T12:54:15Z</time>
      </trkpt>
      <trkpt lat="46.02934" lon="3.72835">
        <ele>564</ele>
        <time>2011-07-09T12:54:16Z</time>
      </trkpt>
      <trkpt lat="46.02938" lon="3.72832">
        <ele>563</ele>
        <time>2011-07-09T12:54:17Z</time>
      </trkpt>
      <trkpt lat="46.02942" lon="3.72828">
        <ele>563</ele>
        <time>2011-07-09T12:54:18Z</time>
      </trkpt>
      <trkpt lat="46.02946" lon="3.72824">
        <ele>562</ele>
        <time>2011-07-09T12:54:19Z</time>
      </trkpt>
      <trkpt lat="46.02948" lon="3.72819">
        <ele>560</ele>
        <time>2011-07-09T12:54:20Z</time>
      </trkpt>
      <trkpt lat="46.02949" lon="3.72812">
        <ele>559</ele>
        <time>2011-07-09T12:54:21Z</time>
      </trkpt>
      <trkpt lat="46.0295" lon="3.72803">
        <ele>558</ele>
        <time>2011-07-09T12:54:22Z</time>
      </trkpt>
      <trkpt lat="46.02949" lon="3.72795">
        <ele>556</ele>
        <time>2011-07-09T12:54:23Z</time>
      </trkpt>
      <trkpt lat="46.02948" lon="3.72788">
        <ele>555</ele>
        <time>2011-07-09T12:54:24Z</time>
      </trkpt>
      <trkpt lat="46.02947" lon="3.72782">
        <ele>554</ele>
        <time>2011-07-09T12:54:25Z</time>
      </trkpt>
      <trkpt lat="46.02945" lon="3.72778">
        <ele>552</ele>
        <time>2011-07-09T12:54:26Z</time>
      </trkpt>
      <trkpt lat="46.02945" lon="3.72774">
        <ele>552</ele>
        <time>2011-07-09T12:54:27Z</time>
      </trkpt>
      <trkpt lat="46.02945" lon="3.72771">
        <ele>552</ele>
        <time>2011-07-09T12:54:28Z</time>
      </trkpt>
      <trkpt lat="46.02945" lon="3.7277">
        <ele>551</ele>
        <time>2011-07-09T12:54:30Z</time>
      </trkpt>
      <trkpt lat="46.02946" lon="3.7277">
        <ele>551</ele>
        <time>2011-07-09T12:54:31Z</time>
      </trkpt>
      <trkpt lat="46.02948" lon="3.72769">
        <ele>551</ele>
        <time>2011-07-09T12:54:32Z</time>
      </trkpt>
      <trkpt lat="46.02952" lon="3.72769">
        <ele>550</ele>
        <time>2011-07-09T12:54:33Z</time>
      </trkpt>
      <trkpt lat="46.02956" lon="3.72769">
        <ele>550</ele>
        <time>2011-07-09T12:54:34Z</time>
      </trkpt>
      <trkpt lat="46.02967" lon="3.72772">
        <ele>548</ele>
        <time>2011-07-09T12:54:36Z</time>
      </trkpt>
      <trkpt lat="46.02972" lon="3.72774">
        <ele>548</ele>
        <time>2011-07-09T12:54:37Z</time>
      </trkpt>
      <trkpt lat="46.02978" lon="3.72777">
        <ele>546</ele>
        <time>2011-07-09T12:54:38Z</time>
      </trkpt>
      <trkpt lat="46.02995" lon="3.72786">
        <ele>545</ele>
        <time>2011-07-09T12:54:41Z</time>
      </trkpt>
      <trkpt lat="46.03" lon="3.72788">
        <ele>544</ele>
        <time>2011-07-09T12:54:42Z</time>
      </trkpt>
      <trkpt lat="46.0303" lon="3.72792">
        <ele>542</ele>
        <time>2011-07-09T12:54:48Z</time>
      </trkpt>
      <trkpt lat="46.03066" lon="3.72794">
        <ele>539</ele>
        <time>2011-07-09T12:54:55Z</time>
      </trkpt>
      <trkpt lat="46.03104" lon="3.72792">
        <ele>538</ele>
        <time>2011-07-09T12:55:02Z</time>
      </trkpt>
      <trkpt lat="46.03121" lon="3.7279">
        <ele>536</ele>
        <time>2011-07-09T12:55:07Z</time>
      </trkpt>
      <trkpt lat="46.03127" lon="3.72788">
        <ele>535</ele>
        <time>2011-07-09T12:55:09Z</time>
      </trkpt>
      <trkpt lat="46.03128" lon="3.72784">
        <ele>534</ele>
        <time>2011-07-09T12:55:10Z</time>
      </trkpt>
      <trkpt lat="46.03128" lon="3.7278">
        <ele>534</ele>
        <time>2011-07-09T12:55:11Z</time>
      </trkpt>
      <trkpt lat="46.03128" lon="3.72775">
        <ele>533</ele>
        <time>2011-07-09T12:55:13Z</time>
      </trkpt>
      <trkpt lat="46.03129" lon="3.72771">
        <ele>533</ele>
        <time>2011-07-09T12:55:15Z</time>
      </trkpt>
      <trkpt lat="46.0313" lon="3.72768">
        <ele>532</ele>
        <time>2011-07-09T12:55:16Z</time>
      </trkpt>
      <trkpt lat="46.03131" lon="3.72765">
        <ele>532</ele>
        <time>2011-07-09T12:55:17Z</time>
      </trkpt>
      <trkpt lat="46.03132" lon="3.72762">
        <ele>532</ele>
        <time>2011-07-09T12:55:18Z</time>
      </trkpt>
      <trkpt lat="46.03132" lon="3.72759">
        <ele>532</ele>
        <time>2011-07-09T12:55:19Z</time>
      </trkpt>
      <trkpt lat="46.03132" lon="3.72756">
        <ele>532</ele>
        <time>2011-07-09T12:55:20Z</time>
      </trkpt>
      <trkpt lat="46.03133" lon="3.72753">
        <ele>532</ele>
        <time>2011-07-09T12:55:21Z</time>
      </trkpt>
      <trkpt lat="46.03133" lon="3.72749">
        <ele>532</ele>
        <time>2011-07-09T12:55:22Z</time>
      </trkpt>
      <trkpt lat="46.03134" lon="3.72747">
        <ele>532</ele>
        <time>2011-07-09T12:55:23Z</time>
      </trkpt>
      <trkpt lat="46.03135" lon="3.72744">
        <ele>532</ele>
        <time>2011-07-09T12:55:24Z</time>
      </trkpt>
      <trkpt lat="46.03135" lon="3.72741">
        <ele>532</ele>
        <time>2011-07-09T12:55:25Z</time>
      </trkpt>
      <trkpt lat="46.03135" lon="3.72737">
        <ele>532</ele>
        <time>2011-07-09T12:55:26Z</time>
      </trkpt>
      <trkpt lat="46.03135" lon="3.72731">
        <ele>532</ele>
        <time>2011-07-09T12:55:28Z</time>
      </trkpt>
      <trkpt lat="46.03136" lon="3.72727">
        <ele>532</ele>
        <time>2011-07-09T12:55:29Z</time>
      </trkpt>
      <trkpt lat="46.03137" lon="3.72724">
        <ele>532</ele>
        <time>2011-07-09T12:55:30Z</time>
      </trkpt>
      <trkpt lat="46.03138" lon="3.7272">
        <ele>532</ele>
        <time>2011-07-09T12:55:31Z</time>
      </trkpt>
      <trkpt lat="46.0314" lon="3.72715">
        <ele>532</ele>
        <time>2011-07-09T12:55:32Z</time>
      </trkpt>
      <trkpt lat="46.03141" lon="3.72712">
        <ele>532</ele>
        <time>2011-07-09T12:55:33Z</time>
      </trkpt>
      <trkpt lat="46.03141" lon="3.72709">
        <ele>533</ele>
        <time>2011-07-09T12:55:34Z</time>
      </trkpt>
      <trkpt lat="46.03144" lon="3.72692">
        <ele>533</ele>
        <time>2011-07-09T12:55:39Z</time>
      </trkpt>
      <trkpt lat="46.03152" lon="3.72672">
        <ele>534</ele>
        <time>2011-07-09T12:55:46Z</time>
      </trkpt>
      <trkpt lat="46.03157" lon="3.72654">
        <ele>535</ele>
        <time>2011-07-09T12:55:52Z</time>
      </trkpt>
      <trkpt lat="46.03161" lon="3.72641">
        <ele>537</ele>
        <time>2011-07-09T12:55:57Z</time>
      </trkpt>
      <trkpt lat="46.03163" lon="3.72632">
        <ele>537</ele>
        <time>2011-07-09T12:56:00Z</time>
      </trkpt>
      <trkpt lat="46.03168" lon="3.72617">
        <ele>538</ele>
        <time>2011-07-09T12:56:06Z</time>
      </trkpt>
      <trkpt lat="46.03171" lon="3.72614">
        <ele>538</ele>
        <time>2011-07-09T12:56:08Z</time>
      </trkpt>
      <trkpt lat="46.03178" lon="3.72592">
        <ele>541</ele>
        <time>2011-07-09T12:56:16Z</time>
      </trkpt>
      <trkpt lat="46.03178" lon="3.7259">
        <ele>541</ele>
        <time>2011-07-09T12:56:17Z</time>
      </trkpt>
      <trkpt lat="46.03188" lon="3.72594">
        <ele>543</ele>
        <time>2011-07-09T12:56:26Z</time>
      </trkpt>
      <trkpt lat="46.0319" lon="3.72597">
        <ele>544</ele>
        <time>2011-07-09T12:56:29Z</time>
      </trkpt>
      <trkpt lat="46.03192" lon="3.72602">
        <ele>544</ele>
        <time>2011-07-09T12:56:32Z</time>
      </trkpt>
      <trkpt lat="46.03196" lon="3.72619">
        <ele>546</ele>
        <time>2011-07-09T12:56:40Z</time>
      </trkpt>
      <trkpt lat="46.03202" lon="3.72635">
        <ele>547</ele>
        <time>2011-07-09T12:56:48Z</time>
      </trkpt>
      <trkpt lat="46.03205" lon="3.72642">
        <ele>548</ele>
        <time>2011-07-09T12:56:52Z</time>
      </trkpt>
      <trkpt lat="46.03207" lon="3.72648">
        <ele>550</ele>
        <time>2011-07-09T12:57:00Z</time>
      </trkpt>
      <trkpt lat="46.03215" lon="3.72639">
        <ele>552</ele>
        <time>2011-07-09T12:57:08Z</time>
      </trkpt>
      <trkpt lat="46.03221" lon="3.7263">
        <ele>553</ele>
        <time>2011-07-09T12:57:16Z</time>
      </trkpt>
      <trkpt lat="46.03227" lon="3.7261">
        <ele>555</ele>
        <time>2011-07-09T12:57:24Z</time>
      </trkpt>
      <trkpt lat="46.03234" lon="3.72599">
        <ele>557</ele>
        <time>2011-07-09T12:57:30Z</time>
      </trkpt>
      <trkpt lat="46.03235" lon="3.72597">
        <ele>557</ele>
        <time>2011-07-09T12:57:31Z</time>
      </trkpt>
      <trkpt lat="46.0324" lon="3.7258">
        <ele>559</ele>
        <time>2011-07-09T12:57:38Z</time>
      </trkpt>
      <trkpt lat="46.03243" lon="3.72557">
        <ele>560</ele>
        <time>2011-07-09T12:57:45Z</time>
      </trkpt>
      <trkpt lat="46.03241" lon="3.72536">
        <ele>562</ele>
        <time>2011-07-09T12:57:52Z</time>
      </trkpt>
      <trkpt lat="46.03241" lon="3.7253">
        <ele>562</ele>
        <time>2011-07-09T12:57:54Z</time>
      </trkpt>
      <trkpt lat="46.03239" lon="3.72516">
        <ele>563</ele>
        <time>2011-07-09T12:57:59Z</time>
      </trkpt>
      <trkpt lat="46.03237" lon="3.72499">
        <ele>564</ele>
        <time>2011-07-09T12:58:05Z</time>
      </trkpt>
      <trkpt lat="46.03236" lon="3.72485">
        <ele>566</ele>
        <time>2011-07-09T12:58:11Z</time>
      </trkpt>
      <trkpt lat="46.03237" lon="3.72471">
        <ele>567</ele>
        <time>2011-07-09T12:58:18Z</time>
      </trkpt>
      <trkpt lat="46.03238" lon="3.72462">
        <ele>568</ele>
        <time>2011-07-09T12:58:21Z</time>
      </trkpt>
      <trkpt lat="46.03241" lon="3.72447">
        <ele>569</ele>
        <time>2011-07-09T12:58:28Z</time>
      </trkpt>
      <trkpt lat="46.03241" lon="3.72445">
        <ele>569</ele>
        <time>2011-07-09T12:58:29Z</time>
      </trkpt>
      <trkpt lat="46.03242" lon="3.72439">
        <ele>570</ele>
        <time>2011-07-09T12:58:32Z</time>
      </trkpt>
      <trkpt lat="46.03248" lon="3.72418">
        <ele>572</ele>
        <time>2011-07-09T12:58:40Z</time>
      </trkpt>
      <trkpt lat="46.03249" lon="3.72416">
        <ele>572</ele>
        <time>2011-07-09T12:58:41Z</time>
      </trkpt>
      <trkpt lat="46.03255" lon="3.72401">
        <ele>575</ele>
        <time>2011-07-09T12:58:50Z</time>
      </trkpt>
      <trkpt lat="46.03256" lon="3.72399">
        <ele>575</ele>
        <time>2011-07-09T12:58:51Z</time>
      </trkpt>
      <trkpt lat="46.03272" lon="3.72389">
        <ele>578</ele>
        <time>2011-07-09T12:59:00Z</time>
      </trkpt>
      <trkpt lat="46.03283" lon="3.72393">
        <ele>580</ele>
        <time>2011-07-09T12:59:07Z</time>
      </trkpt>
      <trkpt lat="46.03295" lon="3.72395">
        <ele>582</ele>
        <time>2011-07-09T12:59:15Z</time>
      </trkpt>
      <trkpt lat="46.03307" lon="3.72397">
        <ele>583</ele>
        <time>2011-07-09T12:59:22Z</time>
      </trkpt>
      <trkpt lat="46.0332" lon="3.72396">
        <ele>584</ele>
        <time>2011-07-09T12:59:30Z</time>
      </trkpt>
      <trkpt lat="46.03326" lon="3.72397">
        <ele>585</ele>
        <time>2011-07-09T12:59:34Z</time>
      </trkpt>
      <trkpt lat="46.03341" lon="3.72382">
        <ele>587</ele>
        <time>2011-07-09T12:59:45Z</time>
      </trkpt>
      <trkpt lat="46.03348" lon="3.72372">
        <ele>587</ele>
        <time>2011-07-09T12:59:53Z</time>
      </trkpt>
      <trkpt lat="46.03348" lon="3.72371">
        <ele>587</ele>
        <time>2011-07-09T13:00:00Z</time>
      </trkpt>
      <trkpt lat="46.03348" lon="3.72371">
        <ele>587</ele>
        <time>2011-07-09T13:00:15Z</time>
      </trkpt>
      <trkpt lat="46.03348" lon="3.72371">
        <ele>587</ele>
        <time>2011-07-09T13:00:25Z</time>
      </trkpt>
      <trkpt lat="46.03348" lon="3.72371">
        <ele>587</ele>
        <time>2011-07-09T13:00:37Z</time>
      </trkpt>
      <trkpt lat="46.03348" lon="3.72371">
        <ele>587</ele>
        <time>2011-07-09T13:00:51Z</time>
      </trkpt>
      <trkpt lat="46.03348" lon="3.72371">
        <ele>588</ele>
        <time>2011-07-09T13:01:06Z</time>
      </trkpt>
      <trkpt lat="46.03348" lon="3.72372">
        <ele>587</ele>
        <time>2011-07-09T13:01:17Z</time>
      </trkpt>
      <trkpt lat="46.03348" lon="3.72372">
        <ele>588</ele>
        <time>2011-07-09T13:01:33Z</time>
      </trkpt>
      <trkpt lat="46.03348" lon="3.72372">
        <ele>588</ele>
        <time>2011-07-09T13:01:51Z</time>
      </trkpt>
      <trkpt lat="46.03348" lon="3.72371">
        <ele>588</ele>
        <time>2011-07-09T13:02:06Z</time>
      </trkpt>
      <trkpt lat="46.03348" lon="3.72371">
        <ele>588</ele>
        <time>2011-07-09T13:02:18Z</time>
      </trkpt>
      <trkpt lat="46.03348" lon="3.72371">
        <ele>588</ele>
        <time>2011-07-09T13:02:31Z</time>
      </trkpt>
      <trkpt lat="46.03348" lon="3.72371">
        <ele>588</ele>
        <time>2011-07-09T13:02:50Z</time>
      </trkpt>
      <trkpt lat="46.03348" lon="3.72371">
        <ele>588</ele>
        <time>2011-07-09T13:03:02Z</time>
      </trkpt>
      <trkpt lat="46.03348" lon="3.7237">
        <ele>588</ele>
        <time>2011-07-09T13:03:12Z</time>
      </trkpt>
      <trkpt lat="46.03348" lon="3.72367">
        <ele>588</ele>
        <time>2011-07-09T13:03:20Z</time>
      </trkpt>
      <trkpt lat="46.03348" lon="3.72367">
        <ele>588</ele>
        <time>2011-07-09T13:03:34Z</time>
      </trkpt>
      <trkpt lat="46.03348" lon="3.72366">
        <ele>588</ele>
        <time>2011-07-09T13:03:36Z</time>
      </trkpt>
      <trkpt lat="46.03349" lon="3.72358">
        <ele>588</ele>
        <time>2011-07-09T13:03:40Z</time>
      </trkpt>
      <trkpt lat="46.03356" lon="3.72344">
        <ele>588</ele>
        <time>2011-07-09T13:03:48Z</time>
      </trkpt>
      <trkpt lat="46.03363" lon="3.72328">
        <ele>588</ele>
        <time>2011-07-09T13:03:54Z</time>
      </trkpt>
      <trkpt lat="46.03375" lon="3.72302">
        <ele>588</ele>
        <time>2011-07-09T13:04:03Z</time>
      </trkpt>
      <trkpt lat="46.03392" lon="3.72275">
        <ele>589</ele>
        <time>2011-07-09T13:04:12Z</time>
      </trkpt>
      <trkpt lat="46.03413" lon="3.72242">
        <ele>589</ele>
        <time>2011-07-09T13:04:22Z</time>
      </trkpt>
      <trkpt lat="46.03427" lon="3.72211">
        <ele>588</ele>
        <time>2011-07-09T13:04:29Z</time>
      </trkpt>
      <trkpt lat="46.03429" lon="3.72205">
        <ele>588</ele>
        <time>2011-07-09T13:04:30Z</time>
      </trkpt>
      <trkpt lat="46.0346" lon="3.72157">
        <ele>587</ele>
        <time>2011-07-09T13:04:39Z</time>
      </trkpt>
      <trkpt lat="46.035" lon="3.72116">
        <ele>586</ele>
        <time>2011-07-09T13:04:48Z</time>
      </trkpt>
      <trkpt lat="46.03503" lon="3.72112">
        <ele>586</ele>
        <time>2011-07-09T13:04:49Z</time>
      </trkpt>
      <trkpt lat="46.0351" lon="3.72102">
        <ele>586</ele>
        <time>2011-07-09T13:04:51Z</time>
      </trkpt>
      <trkpt lat="46.03517" lon="3.72084">
        <ele>586</ele>
        <time>2011-07-09T13:04:56Z</time>
      </trkpt>
      <trkpt lat="46.03519" lon="3.72078">
        <ele>586</ele>
        <time>2011-07-09T13:05:00Z</time>
      </trkpt>
      <trkpt lat="46.0352" lon="3.72073">
        <ele>586</ele>
        <time>2011-07-09T13:05:03Z</time>
      </trkpt>
      <trkpt lat="46.03526" lon="3.72066">
        <ele>586</ele>
        <time>2011-07-09T13:05:11Z</time>
      </trkpt>
      <trkpt lat="46.03528" lon="3.72065">
        <ele>586</ele>
        <time>2011-07-09T13:05:12Z</time>
      </trkpt>
      <trkpt lat="46.03529" lon="3.72063">
        <ele>586</ele>
        <time>2011-07-09T13:05:13Z</time>
      </trkpt>
      <trkpt lat="46.0353" lon="3.72061">
        <ele>586</ele>
        <time>2011-07-09T13:05:14Z</time>
      </trkpt>
      <trkpt lat="46.03531" lon="3.72059">
        <ele>586</ele>
        <time>2011-07-09T13:05:15Z</time>
      </trkpt>
      <trkpt lat="46.03532" lon="3.72058">
        <ele>586</ele>
        <time>2011-07-09T13:05:16Z</time>
      </trkpt>
      <trkpt lat="46.03533" lon="3.72057">
        <ele>586</ele>
        <time>2011-07-09T13:05:17Z</time>
      </trkpt>
      <trkpt lat="46.03535" lon="3.72056">
        <ele>586</ele>
        <time>2011-07-09T13:05:18Z</time>
      </trkpt>
      <trkpt lat="46.03537" lon="3.72054">
        <ele>587</ele>
        <time>2011-07-09T13:05:19Z</time>
      </trkpt>
      <trkpt lat="46.03539" lon="3.72053">
        <ele>586</ele>
        <time>2011-07-09T13:05:20Z</time>
      </trkpt>
      <trkpt lat="46.03558" lon="3.72042">
        <ele>586</ele>
        <time>2011-07-09T13:05:27Z</time>
      </trkpt>
      <trkpt lat="46.03568" lon="3.72038">
        <ele>587</ele>
        <time>2011-07-09T13:05:32Z</time>
      </trkpt>
      <trkpt lat="46.03585" lon="3.72032">
        <ele>588</ele>
        <time>2011-07-09T13:05:40Z</time>
      </trkpt>
      <trkpt lat="46.03609" lon="3.72019">
        <ele>588</ele>
        <time>2011-07-09T13:05:50Z</time>
      </trkpt>
      <trkpt lat="46.03619" lon="3.72015">
        <ele>589</ele>
        <time>2011-07-09T13:05:57Z</time>
      </trkpt>
      <trkpt lat="46.03622" lon="3.72015">
        <ele>589</ele>
        <time>2011-07-09T13:06:00Z</time>
      </trkpt>
      <trkpt lat="46.03624" lon="3.72014">
        <ele>589</ele>
        <time>2011-07-09T13:06:01Z</time>
      </trkpt>
      <trkpt lat="46.03625" lon="3.72014">
        <ele>589</ele>
        <time>2011-07-09T13:06:02Z</time>
      </trkpt>
      <trkpt lat="46.03638" lon="3.72014">
        <ele>590</ele>
        <time>2011-07-09T13:06:09Z</time>
      </trkpt>
      <trkpt lat="46.03651" lon="3.72015">
        <ele>591</ele>
        <time>2011-07-09T13:06:16Z</time>
      </trkpt>
      <trkpt lat="46.03667" lon="3.72018">
        <ele>592</ele>
        <time>2011-07-09T13:06:23Z</time>
      </trkpt>
      <trkpt lat="46.03682" lon="3.72018">
        <ele>594</ele>
        <time>2011-07-09T13:06:31Z</time>
      </trkpt>
      <trkpt lat="46.03702" lon="3.72017">
        <ele>594</ele>
        <time>2011-07-09T13:06:39Z</time>
      </trkpt>
      <trkpt lat="46.03719" lon="3.72017">
        <ele>594</ele>
        <time>2011-07-09T13:06:46Z</time>
      </trkpt>
      <trkpt lat="46.03731" lon="3.72016">
        <ele>595</ele>
        <time>2011-07-09T13:06:52Z</time>
      </trkpt>
      <trkpt lat="46.03747" lon="3.72013">
        <ele>596</ele>
        <time>2011-07-09T13:07:00Z</time>
      </trkpt>
      <trkpt lat="46.03763" lon="3.7201">
        <ele>596</ele>
        <time>2011-07-09T13:07:07Z</time>
      </trkpt>
      <trkpt lat="46.0378" lon="3.72004">
        <ele>596</ele>
        <time>2011-07-09T13:07:14Z</time>
      </trkpt>
      <trkpt lat="46.03795" lon="3.71999">
        <ele>596</ele>
        <time>2011-07-09T13:07:21Z</time>
      </trkpt>
      <trkpt lat="46.03812" lon="3.71995">
        <ele>595</ele>
        <time>2011-07-09T13:07:28Z</time>
      </trkpt>
      <trkpt lat="46.03827" lon="3.71992">
        <ele>595</ele>
        <time>2011-07-09T13:07:35Z</time>
      </trkpt>
      <trkpt lat="46.03843" lon="3.71982">
        <ele>595</ele>
        <time>2011-07-09T13:07:43Z</time>
      </trkpt>
      <trkpt lat="46.0385" lon="3.71979">
        <ele>595</ele>
        <time>2011-07-09T13:07:46Z</time>
      </trkpt>
      <trkpt lat="46.03866" lon="3.71971">
        <ele>595</ele>
        <time>2011-07-09T13:07:53Z</time>
      </trkpt>
      <trkpt lat="46.03888" lon="3.71955">
        <ele>595</ele>
        <time>2011-07-09T13:08:01Z</time>
      </trkpt>
      <trkpt lat="46.03905" lon="3.71934">
        <ele>596</ele>
        <time>2011-07-09T13:08:08Z</time>
      </trkpt>
      <trkpt lat="46.03921" lon="3.71916">
        <ele>596</ele>
        <time>2011-07-09T13:08:17Z</time>
      </trkpt>
      <trkpt lat="46.03938" lon="3.71896">
        <ele>596</ele>
        <time>2011-07-09T13:08:25Z</time>
      </trkpt>
      <trkpt lat="46.03957" lon="3.71869">
        <ele>595</ele>
        <time>2011-07-09T13:08:33Z</time>
      </trkpt>
      <trkpt lat="46.03969" lon="3.71851">
        <ele>594</ele>
        <time>2011-07-09T13:08:40Z</time>
      </trkpt>
      <trkpt lat="46.03981" lon="3.71828">
        <ele>592</ele>
        <time>2011-07-09T13:08:45Z</time>
      </trkpt>
      <trkpt lat="46.03983" lon="3.71823">
        <ele>591</ele>
        <time>2011-07-09T13:08:46Z</time>
      </trkpt>
      <trkpt lat="46.03986" lon="3.71817">
        <ele>591</ele>
        <time>2011-07-09T13:08:47Z</time>
      </trkpt>
      <trkpt lat="46.03989" lon="3.71811">
        <ele>591</ele>
        <time>2011-07-09T13:08:48Z</time>
      </trkpt>
      <trkpt lat="46.04008" lon="3.71768">
        <ele>587</ele>
        <time>2011-07-09T13:08:54Z</time>
      </trkpt>
      <trkpt lat="46.04013" lon="3.71759">
        <ele>586</ele>
        <time>2011-07-09T13:08:56Z</time>
      </trkpt>
      <trkpt lat="46.04014" lon="3.71755">
        <ele>586</ele>
        <time>2011-07-09T13:08:57Z</time>
      </trkpt>
      <trkpt lat="46.04015" lon="3.71752">
        <ele>585</ele>
        <time>2011-07-09T13:08:58Z</time>
      </trkpt>
      <trkpt lat="46.04014" lon="3.7175">
        <ele>585</ele>
        <time>2011-07-09T13:08:59Z</time>
      </trkpt>
      <trkpt lat="46.04015" lon="3.71748">
        <ele>585</ele>
        <time>2011-07-09T13:09:00Z</time>
      </trkpt>
      <trkpt lat="46.04016" lon="3.71745">
        <ele>584</ele>
        <time>2011-07-09T13:09:01Z</time>
      </trkpt>
      <trkpt lat="46.04018" lon="3.71741">
        <ele>584</ele>
        <time>2011-07-09T13:09:02Z</time>
      </trkpt>
      <trkpt lat="46.04021" lon="3.71738">
        <ele>584</ele>
        <time>2011-07-09T13:09:03Z</time>
      </trkpt>
      <trkpt lat="46.04024" lon="3.71734">
        <ele>583</ele>
        <time>2011-07-09T13:09:04Z</time>
      </trkpt>
      <trkpt lat="46.04026" lon="3.71731">
        <ele>582</ele>
        <time>2011-07-09T13:09:05Z</time>
      </trkpt>
      <trkpt lat="46.04029" lon="3.71728">
        <ele>582</ele>
        <time>2011-07-09T13:09:06Z</time>
      </trkpt>
      <trkpt lat="46.04032" lon="3.71724">
        <ele>581</ele>
        <time>2011-07-09T13:09:09Z</time>
      </trkpt>
      <trkpt lat="46.04044" lon="3.71713">
        <ele>579</ele>
        <time>2011-07-09T13:09:14Z</time>
      </trkpt>
      <trkpt lat="46.04047" lon="3.71711">
        <ele>578</ele>
        <time>2011-07-09T13:09:15Z</time>
      </trkpt>
      <trkpt lat="46.0405" lon="3.71709">
        <ele>578</ele>
        <time>2011-07-09T13:09:16Z</time>
      </trkpt>
      <trkpt lat="46.04054" lon="3.71708">
        <ele>577</ele>
        <time>2011-07-09T13:09:17Z</time>
      </trkpt>
      <trkpt lat="46.04057" lon="3.71707">
        <ele>577</ele>
        <time>2011-07-09T13:09:18Z</time>
      </trkpt>
      <trkpt lat="46.0406" lon="3.71705">
        <ele>576</ele>
        <time>2011-07-09T13:09:19Z</time>
      </trkpt>
      <trkpt lat="46.04063" lon="3.71702">
        <ele>575</ele>
        <time>2011-07-09T13:09:20Z</time>
      </trkpt>
      <trkpt lat="46.04082" lon="3.71691">
        <ele>571</ele>
        <time>2011-07-09T13:09:25Z</time>
      </trkpt>
      <trkpt lat="46.04088" lon="3.71685">
        <ele>570</ele>
        <time>2011-07-09T13:09:28Z</time>
      </trkpt>
      <trkpt lat="46.0409" lon="3.71683">
        <ele>570</ele>
        <time>2011-07-09T13:09:29Z</time>
      </trkpt>
      <trkpt lat="46.04091" lon="3.71679">
        <ele>569</ele>
        <time>2011-07-09T13:09:30Z</time>
      </trkpt>
      <trkpt lat="46.04091" lon="3.71675">
        <ele>569</ele>
        <time>2011-07-09T13:09:31Z</time>
      </trkpt>
      <trkpt lat="46.04091" lon="3.7167">
        <ele>568</ele>
        <time>2011-07-09T13:09:32Z</time>
      </trkpt>
      <trkpt lat="46.04092" lon="3.71665">
        <ele>566</ele>
        <time>2011-07-09T13:09:33Z</time>
      </trkpt>
      <trkpt lat="46.04094" lon="3.7166">
        <ele>566</ele>
        <time>2011-07-09T13:09:34Z</time>
      </trkpt>
      <trkpt lat="46.04096" lon="3.71655">
        <ele>566</ele>
        <time>2011-07-09T13:09:35Z</time>
      </trkpt>
      <trkpt lat="46.04104" lon="3.71643">
        <ele>564</ele>
        <time>2011-07-09T13:09:38Z</time>
      </trkpt>
      <trkpt lat="46.04114" lon="3.71633">
        <ele>563</ele>
        <time>2011-07-09T13:09:41Z</time>
      </trkpt>
      <trkpt lat="46.04122" lon="3.71624">
        <ele>561</ele>
        <time>2011-07-09T13:09:43Z</time>
      </trkpt>
      <trkpt lat="46.04126" lon="3.71618">
        <ele>561</ele>
        <time>2011-07-09T13:09:44Z</time>
      </trkpt>
      <trkpt lat="46.04129" lon="3.71614">
        <ele>561</ele>
        <time>2011-07-09T13:09:45Z</time>
      </trkpt>
      <trkpt lat="46.04132" lon="3.7161">
        <ele>561</ele>
        <time>2011-07-09T13:09:46Z</time>
      </trkpt>
      <trkpt lat="46.04134" lon="3.71606">
        <ele>561</ele>
        <time>2011-07-09T13:09:47Z</time>
      </trkpt>
      <trkpt lat="46.04136" lon="3.71603">
        <ele>561</ele>
        <time>2011-07-09T13:09:48Z</time>
      </trkpt>
      <trkpt lat="46.04138" lon="3.71602">
        <ele>561</ele>
        <time>2011-07-09T13:09:49Z</time>
      </trkpt>
      <trkpt lat="46.0414" lon="3.71599">
        <ele>561</ele>
        <time>2011-07-09T13:09:53Z</time>
      </trkpt>
      <trkpt lat="46.04141" lon="3.71598">
        <ele>561</ele>
        <time>2011-07-09T13:09:56Z</time>
      </trkpt>
      <trkpt lat="46.04142" lon="3.71596">
        <ele>561</ele>
        <time>2011-07-09T13:09:57Z</time>
      </trkpt>
      <trkpt lat="46.04153" lon="3.7159">
        <ele>562</ele>
        <time>2011-07-09T13:10:03Z</time>
      </trkpt>
      <trkpt lat="46.0416" lon="3.71583">
        <ele>563</ele>
        <time>2011-07-09T13:10:09Z</time>
      </trkpt>
      <trkpt lat="46.04163" lon="3.71578">
        <ele>564</ele>
        <time>2011-07-09T13:10:11Z</time>
      </trkpt>
      <trkpt lat="46.04171" lon="3.71552">
        <ele>566</ele>
        <time>2011-07-09T13:10:20Z</time>
      </trkpt>
      <trkpt lat="46.04179" lon="3.71536">
        <ele>568</ele>
        <time>2011-07-09T13:10:26Z</time>
      </trkpt>
      <trkpt lat="46.04186" lon="3.71514">
        <ele>569</ele>
        <time>2011-07-09T13:10:33Z</time>
      </trkpt>
      <trkpt lat="46.04194" lon="3.71497">
        <ele>571</ele>
        <time>2011-07-09T13:10:39Z</time>
      </trkpt>
      <trkpt lat="46.04206" lon="3.7148">
        <ele>573</ele>
        <time>2011-07-09T13:10:46Z</time>
      </trkpt>
      <trkpt lat="46.04216" lon="3.71466">
        <ele>574</ele>
        <time>2011-07-09T13:10:52Z</time>
      </trkpt>
      <trkpt lat="46.04227" lon="3.71446">
        <ele>574</ele>
        <time>2011-07-09T13:10:59Z</time>
      </trkpt>
      <trkpt lat="46.04235" lon="3.7143">
        <ele>575</ele>
        <time>2011-07-09T13:11:03Z</time>
      </trkpt>
      <trkpt lat="46.04248" lon="3.71407">
        <ele>575</ele>
        <time>2011-07-09T13:11:09Z</time>
      </trkpt>
      <trkpt lat="46.04262" lon="3.71378">
        <ele>575</ele>
        <time>2011-07-09T13:11:16Z</time>
      </trkpt>
      <trkpt lat="46.04273" lon="3.71357">
        <ele>577</ele>
        <time>2011-07-09T13:11:22Z</time>
      </trkpt>
      <trkpt lat="46.04288" lon="3.71327">
        <ele>578</ele>
        <time>2011-07-09T13:11:31Z</time>
      </trkpt>
      <trkpt lat="46.04297" lon="3.71312">
        <ele>579</ele>
        <time>2011-07-09T13:11:36Z</time>
      </trkpt>
      <trkpt lat="46.04304" lon="3.713">
        <ele>580</ele>
        <time>2011-07-09T13:11:41Z</time>
      </trkpt>
      <trkpt lat="46.04309" lon="3.71289">
        <ele>580</ele>
        <time>2011-07-09T13:11:46Z</time>
      </trkpt>
      <trkpt lat="46.04314" lon="3.71271">
        <ele>581</ele>
        <time>2011-07-09T13:11:54Z</time>
      </trkpt>
      <trkpt lat="46.04316" lon="3.71268">
        <ele>581</ele>
        <time>2011-07-09T13:11:59Z</time>
      </trkpt>
      <trkpt lat="46.04316" lon="3.71268">
        <ele>581</ele>
        <time>2011-07-09T13:12:12Z</time>
      </trkpt>
      <trkpt lat="46.04316" lon="3.71268">
        <ele>581</ele>
        <time>2011-07-09T13:12:29Z</time>
      </trkpt>
      <trkpt lat="46.04316" lon="3.71268">
        <ele>581</ele>
        <time>2011-07-09T13:12:44Z</time>
      </trkpt>
      <trkpt lat="46.04324" lon="3.71269">
        <ele>581</ele>
        <time>2011-07-09T13:12:48Z</time>
      </trkpt>
      <trkpt lat="46.04349" lon="3.71276">
        <ele>580</ele>
        <time>2011-07-09T13:12:54Z</time>
      </trkpt>
      <trkpt lat="46.04377" lon="3.71282">
        <ele>578</ele>
        <time>2011-07-09T13:13:00Z</time>
      </trkpt>
      <trkpt lat="46.04396" lon="3.71278">
        <ele>577</ele>
        <time>2011-07-09T13:13:06Z</time>
      </trkpt>
      <trkpt lat="46.04405" lon="3.71276">
        <ele>576</ele>
        <time>2011-07-09T13:13:11Z</time>
      </trkpt>
      <trkpt lat="46.04406" lon="3.71275">
        <ele>576</ele>
        <time>2011-07-09T13:13:12Z</time>
      </trkpt>
      <trkpt lat="46.04408" lon="3.71274">
        <ele>575</ele>
        <time>2011-07-09T13:13:13Z</time>
      </trkpt>
      <trkpt lat="46.04412" lon="3.71272">
        <ele>575</ele>
        <time>2011-07-09T13:13:15Z</time>
      </trkpt>
      <trkpt lat="46.04435" lon="3.71257">
        <ele>574</ele>
        <time>2011-07-09T13:13:22Z</time>
      </trkpt>
      <trkpt lat="46.04451" lon="3.71246">
        <ele>573</ele>
        <time>2011-07-09T13:13:27Z</time>
      </trkpt>
      <trkpt lat="46.04469" lon="3.71238">
        <ele>570</ele>
        <time>2011-07-09T13:13:33Z</time>
      </trkpt>
      <trkpt lat="46.04491" lon="3.71236">
        <ele>567</ele>
        <time>2011-07-09T13:13:40Z</time>
      </trkpt>
      <trkpt lat="46.04495" lon="3.71235">
        <ele>567</ele>
        <time>2011-07-09T13:13:41Z</time>
      </trkpt>
      <trkpt lat="46.04511" lon="3.71233">
        <ele>564</ele>
        <time>2011-07-09T13:13:46Z</time>
      </trkpt>
      <trkpt lat="46.04527" lon="3.71227">
        <ele>563</ele>
        <time>2011-07-09T13:13:53Z</time>
      </trkpt>
      <trkpt lat="46.04549" lon="3.71214">
        <ele>561</ele>
        <time>2011-07-09T13:14:00Z</time>
      </trkpt>
      <trkpt lat="46.04568" lon="3.71203">
        <ele>559</ele>
        <time>2011-07-09T13:14:06Z</time>
      </trkpt>
      <trkpt lat="46.0458" lon="3.71194">
        <ele>556</ele>
        <time>2011-07-09T13:14:12Z</time>
      </trkpt>
      <trkpt lat="46.04593" lon="3.71183">
        <ele>554</ele>
        <time>2011-07-09T13:14:17Z</time>
      </trkpt>
      <trkpt lat="46.04612" lon="3.71164">
        <ele>550</ele>
        <time>2011-07-09T13:14:23Z</time>
      </trkpt>
      <trkpt lat="46.04623" lon="3.71163">
        <ele>549</ele>
        <time>2011-07-09T13:14:26Z</time>
      </trkpt>
      <trkpt lat="46.04631" lon="3.71164">
        <ele>548</ele>
        <time>2011-07-09T13:14:28Z</time>
      </trkpt>
      <trkpt lat="46.04646" lon="3.71171">
        <ele>545</ele>
        <time>2011-07-09T13:14:33Z</time>
      </trkpt>
      <trkpt lat="46.04649" lon="3.71174">
        <ele>544</ele>
        <time>2011-07-09T13:14:34Z</time>
      </trkpt>
      <trkpt lat="46.0466" lon="3.71189">
        <ele>541</ele>
        <time>2011-07-09T13:14:38Z</time>
      </trkpt>
      <trkpt lat="46.04662" lon="3.71213">
        <ele>538</ele>
        <time>2011-07-09T13:14:42Z</time>
      </trkpt>
      <trkpt lat="46.04665" lon="3.71225">
        <ele>537</ele>
        <time>2011-07-09T13:14:44Z</time>
      </trkpt>
      <trkpt lat="46.04667" lon="3.7125">
        <ele>534</ele>
        <time>2011-07-09T13:14:49Z</time>
      </trkpt>
      <trkpt lat="46.04676" lon="3.7125">
        <ele>533</ele>
        <time>2011-07-09T13:14:51Z</time>
      </trkpt>
      <trkpt lat="46.0468" lon="3.71249">
        <ele>532</ele>
        <time>2011-07-09T13:14:52Z</time>
      </trkpt>
      <trkpt lat="46.04707" lon="3.71242">
        <ele>526</ele>
        <time>2011-07-09T13:14:58Z</time>
      </trkpt>
      <trkpt lat="46.04736" lon="3.71224">
        <ele>521</ele>
        <time>2011-07-09T13:15:03Z</time>
      </trkpt>
      <trkpt lat="46.04738" lon="3.71219">
        <ele>520</ele>
        <time>2011-07-09T13:15:04Z</time>
      </trkpt>
      <trkpt lat="46.04747" lon="3.7119">
        <ele>518</ele>
        <time>2011-07-09T13:15:08Z</time>
      </trkpt>
      <trkpt lat="46.04754" lon="3.71174">
        <ele>517</ele>
        <time>2011-07-09T13:15:11Z</time>
      </trkpt>
      <trkpt lat="46.04774" lon="3.71151">
        <ele>518</ele>
        <time>2011-07-09T13:15:18Z</time>
      </trkpt>
      <trkpt lat="46.04792" lon="3.71134">
        <ele>518</ele>
        <time>2011-07-09T13:15:24Z</time>
      </trkpt>
      <trkpt lat="46.04814" lon="3.71108">
        <ele>518</ele>
        <time>2011-07-09T13:15:30Z</time>
      </trkpt>
      <trkpt lat="46.04818" lon="3.71103">
        <ele>517</ele>
        <time>2011-07-09T13:15:31Z</time>
      </trkpt>
      <trkpt lat="46.04822" lon="3.71098">
        <ele>517</ele>
        <time>2011-07-09T13:15:32Z</time>
      </trkpt>
      <trkpt lat="46.04831" lon="3.71088">
        <ele>516</ele>
        <time>2011-07-09T13:15:34Z</time>
      </trkpt>
      <trkpt lat="46.04839" lon="3.71077">
        <ele>516</ele>
        <time>2011-07-09T13:15:36Z</time>
      </trkpt>
      <trkpt lat="46.04844" lon="3.71072">
        <ele>517</ele>
        <time>2011-07-09T13:15:37Z</time>
      </trkpt>
      <trkpt lat="46.04848" lon="3.71068">
        <ele>516</ele>
        <time>2011-07-09T13:15:38Z</time>
      </trkpt>
      <trkpt lat="46.04852" lon="3.71063">
        <ele>516</ele>
        <time>2011-07-09T13:15:39Z</time>
      </trkpt>
      <trkpt lat="46.04855" lon="3.71057">
        <ele>515</ele>
        <time>2011-07-09T13:15:40Z</time>
      </trkpt>
      <trkpt lat="46.04857" lon="3.71051">
        <ele>515</ele>
        <time>2011-07-09T13:15:41Z</time>
      </trkpt>
      <trkpt lat="46.04864" lon="3.71034">
        <ele>516</ele>
        <time>2011-07-09T13:15:45Z</time>
      </trkpt>
      <trkpt lat="46.04879" lon="3.71015">
        <ele>516</ele>
        <time>2011-07-09T13:15:50Z</time>
      </trkpt>
      <trkpt lat="46.04895" lon="3.70998">
        <ele>516</ele>
        <time>2011-07-09T13:15:56Z</time>
      </trkpt>
      <trkpt lat="46.04916" lon="3.70985">
        <ele>515</ele>
        <time>2011-07-09T13:16:02Z</time>
      </trkpt>
      <trkpt lat="46.04921" lon="3.70981">
        <ele>515</ele>
        <time>2011-07-09T13:16:03Z</time>
      </trkpt>
      <trkpt lat="46.04924" lon="3.70977">
        <ele>515</ele>
        <time>2011-07-09T13:16:04Z</time>
      </trkpt>
      <trkpt lat="46.04928" lon="3.70972">
        <ele>515</ele>
        <time>2011-07-09T13:16:05Z</time>
      </trkpt>
      <trkpt lat="46.04937" lon="3.70962">
        <ele>515</ele>
        <time>2011-07-09T13:16:07Z</time>
      </trkpt>
      <trkpt lat="46.04941" lon="3.70956">
        <ele>514</ele>
        <time>2011-07-09T13:16:08Z</time>
      </trkpt>
      <trkpt lat="46.04963" lon="3.70925">
        <ele>514</ele>
        <time>2011-07-09T13:16:13Z</time>
      </trkpt>
      <trkpt lat="46.04977" lon="3.70916">
        <ele>513</ele>
        <time>2011-07-09T13:16:17Z</time>
      </trkpt>
      <trkpt lat="46.04987" lon="3.70908">
        <ele>514</ele>
        <time>2011-07-09T13:16:23Z</time>
      </trkpt>
      <trkpt lat="46.04988" lon="3.70907">
        <ele>514</ele>
        <time>2011-07-09T13:16:33Z</time>
      </trkpt>
      <trkpt lat="46.0499" lon="3.70906">
        <ele>514</ele>
        <time>2011-07-09T13:16:34Z</time>
      </trkpt>
      <trkpt lat="46.05004" lon="3.70899">
        <ele>514</ele>
        <time>2011-07-09T13:16:39Z</time>
      </trkpt>
      <trkpt lat="46.05034" lon="3.70882">
        <ele>514</ele>
        <time>2011-07-09T13:16:47Z</time>
      </trkpt>
      <trkpt lat="46.0506" lon="3.70866">
        <ele>514</ele>
        <time>2011-07-09T13:16:53Z</time>
      </trkpt>
      <trkpt lat="46.0509" lon="3.70848">
        <ele>513</ele>
        <time>2011-07-09T13:16:59Z</time>
      </trkpt>
      <trkpt lat="46.051" lon="3.7084">
        <ele>512</ele>
        <time>2011-07-09T13:17:04Z</time>
      </trkpt>
      <trkpt lat="46.05101" lon="3.70836">
        <ele>512</ele>
        <time>2011-07-09T13:17:09Z</time>
      </trkpt>
      <trkpt lat="46.05098" lon="3.70835">
        <ele>512</ele>
        <time>2011-07-09T13:17:11Z</time>
      </trkpt>
      <trkpt lat="46.05097" lon="3.70836">
        <ele>513</ele>
        <time>2011-07-09T13:17:12Z</time>
      </trkpt>
      <trkpt lat="46.05095" lon="3.70836">
        <ele>513</ele>
        <time>2011-07-09T13:17:13Z</time>
      </trkpt>
      <trkpt lat="46.05094" lon="3.70836">
        <ele>513</ele>
        <time>2011-07-09T13:17:14Z</time>
      </trkpt>
      <trkpt lat="46.05093" lon="3.70836">
        <ele>513</ele>
        <time>2011-07-09T13:17:15Z</time>
      </trkpt>
      <trkpt lat="46.05091" lon="3.70836">
        <ele>513</ele>
        <time>2011-07-09T13:17:16Z</time>
      </trkpt>
      <trkpt lat="46.05089" lon="3.70835">
        <ele>514</ele>
        <time>2011-07-09T13:17:17Z</time>
      </trkpt>
      <trkpt lat="46.05085" lon="3.70834">
        <ele>514</ele>
        <time>2011-07-09T13:17:20Z</time>
      </trkpt>
      <trkpt lat="46.05084" lon="3.70833">
        <ele>514</ele>
        <time>2011-07-09T13:17:21Z</time>
      </trkpt>
      <trkpt lat="46.05083" lon="3.70831">
        <ele>515</ele>
        <time>2011-07-09T13:17:22Z</time>
      </trkpt>
      <trkpt lat="46.05082" lon="3.7083">
        <ele>515</ele>
        <time>2011-07-09T13:17:23Z</time>
      </trkpt>
      <trkpt lat="46.05081" lon="3.70829">
        <ele>515</ele>
        <time>2011-07-09T13:17:24Z</time>
      </trkpt>
      <trkpt lat="46.0508" lon="3.70828">
        <ele>516</ele>
        <time>2011-07-09T13:17:25Z</time>
      </trkpt>
      <trkpt lat="46.05079" lon="3.70827">
        <ele>516</ele>
        <time>2011-07-09T13:17:26Z</time>
      </trkpt>
      <trkpt lat="46.05078" lon="3.70825">
        <ele>517</ele>
        <time>2011-07-09T13:17:28Z</time>
      </trkpt>
      <trkpt lat="46.05071" lon="3.70824">
        <ele>519</ele>
        <time>2011-07-09T13:17:35Z</time>
      </trkpt>
      <trkpt lat="46.05066" lon="3.70823">
        <ele>520</ele>
        <time>2011-07-09T13:17:41Z</time>
      </trkpt>
      <trkpt lat="46.05061" lon="3.70823">
        <ele>521</ele>
        <time>2011-07-09T13:17:49Z</time>
      </trkpt>
      <trkpt lat="46.05056" lon="3.70823">
        <ele>521</ele>
        <time>2011-07-09T13:17:56Z</time>
      </trkpt>
      <trkpt lat="46.05054" lon="3.70823">
        <ele>522</ele>
        <time>2011-07-09T13:17:58Z</time>
      </trkpt>
      <trkpt lat="46.05047" lon="3.70821">
        <ele>524</ele>
        <time>2011-07-09T13:18:04Z</time>
      </trkpt>
      <trkpt lat="46.0504" lon="3.70817">
        <ele>526</ele>
        <time>2011-07-09T13:18:11Z</time>
      </trkpt>
      <trkpt lat="46.05039" lon="3.70812">
        <ele>527</ele>
        <time>2011-07-09T13:18:17Z</time>
      </trkpt>
      <trkpt lat="46.05033" lon="3.70807">
        <ele>528</ele>
        <time>2011-07-09T13:18:22Z</time>
      </trkpt>
      <trkpt lat="46.0503" lon="3.70805">
        <ele>528</ele>
        <time>2011-07-09T13:18:24Z</time>
      </trkpt>
      <trkpt lat="46.05028" lon="3.70805">
        <ele>528</ele>
        <time>2011-07-09T13:18:25Z</time>
      </trkpt>
      <trkpt lat="46.05027" lon="3.70805">
        <ele>529</ele>
        <time>2011-07-09T13:18:26Z</time>
      </trkpt>
      <trkpt lat="46.05026" lon="3.70805">
        <ele>529</ele>
        <time>2011-07-09T13:18:27Z</time>
      </trkpt>
      <trkpt lat="46.05025" lon="3.70805">
        <ele>529</ele>
        <time>2011-07-09T13:18:28Z</time>
      </trkpt>
      <trkpt lat="46.05022" lon="3.70805">
        <ele>530</ele>
        <time>2011-07-09T13:18:30Z</time>
      </trkpt>
      <trkpt lat="46.05019" lon="3.70803">
        <ele>531</ele>
        <time>2011-07-09T13:18:33Z</time>
      </trkpt>
      <trkpt lat="46.0501" lon="3.708">
        <ele>532</ele>
        <time>2011-07-09T13:18:39Z</time>
      </trkpt>
      <trkpt lat="46.05" lon="3.70799">
        <ele>533</ele>
        <time>2011-07-09T13:18:44Z</time>
      </trkpt>
      <trkpt lat="46.04992" lon="3.70796">
        <ele>535</ele>
        <time>2011-07-09T13:18:49Z</time>
      </trkpt>
      <trkpt lat="46.04983" lon="3.70792">
        <ele>536</ele>
        <time>2011-07-09T13:18:54Z</time>
      </trkpt>
      <trkpt lat="46.04974" lon="3.70789">
        <ele>537</ele>
        <time>2011-07-09T13:18:59Z</time>
      </trkpt>
      <trkpt lat="46.04973" lon="3.70788">
        <ele>537</ele>
        <time>2011-07-09T13:19:00Z</time>
      </trkpt>
      <trkpt lat="46.04971" lon="3.70787">
        <ele>537</ele>
        <time>2011-07-09T13:19:01Z</time>
      </trkpt>
      <trkpt lat="46.04969" lon="3.70786">
        <ele>537</ele>
        <time>2011-07-09T13:19:02Z</time>
      </trkpt>
      <trkpt lat="46.04961" lon="3.70786">
        <ele>538</ele>
        <time>2011-07-09T13:19:07Z</time>
      </trkpt>
      <trkpt lat="46.04953" lon="3.70783">
        <ele>540</ele>
        <time>2011-07-09T13:19:12Z</time>
      </trkpt>
      <trkpt lat="46.04952" lon="3.70784">
        <ele>540</ele>
        <time>2011-07-09T13:19:13Z</time>
      </trkpt>
      <trkpt lat="46.04951" lon="3.70783">
        <ele>541</ele>
        <time>2011-07-09T13:19:14Z</time>
      </trkpt>
      <trkpt lat="46.04942" lon="3.70778">
        <ele>542</ele>
        <time>2011-07-09T13:19:22Z</time>
      </trkpt>
      <trkpt lat="46.04927" lon="3.70774">
        <ele>544</ele>
        <time>2011-07-09T13:19:29Z</time>
      </trkpt>
      <trkpt lat="46.04925" lon="3.70773">
        <ele>544</ele>
        <time>2011-07-09T13:19:30Z</time>
      </trkpt>
      <trkpt lat="46.04923" lon="3.70771">
        <ele>545</ele>
        <time>2011-07-09T13:19:32Z</time>
      </trkpt>
      <trkpt lat="46.04921" lon="3.70771">
        <ele>545</ele>
        <time>2011-07-09T13:19:33Z</time>
      </trkpt>
      <trkpt lat="46.04918" lon="3.7077">
        <ele>546</ele>
        <time>2011-07-09T13:19:35Z</time>
      </trkpt>
      <trkpt lat="46.04913" lon="3.70768">
        <ele>547</ele>
        <time>2011-07-09T13:19:38Z</time>
      </trkpt>
      <trkpt lat="46.04911" lon="3.70768">
        <ele>547</ele>
        <time>2011-07-09T13:19:39Z</time>
      </trkpt>
      <trkpt lat="46.04908" lon="3.70768">
        <ele>547</ele>
        <time>2011-07-09T13:19:40Z</time>
      </trkpt>
      <trkpt lat="46.04906" lon="3.70768">
        <ele>547</ele>
        <time>2011-07-09T13:19:41Z</time>
      </trkpt>
      <trkpt lat="46.049" lon="3.70767">
        <ele>548</ele>
        <time>2011-07-09T13:19:44Z</time>
      </trkpt>
      <trkpt lat="46.04898" lon="3.70767">
        <ele>548</ele>
        <time>2011-07-09T13:19:45Z</time>
      </trkpt>
      <trkpt lat="46.04895" lon="3.70767">
        <ele>549</ele>
        <time>2011-07-09T13:19:46Z</time>
      </trkpt>
      <trkpt lat="46.04892" lon="3.70768">
        <ele>549</ele>
        <time>2011-07-09T13:19:47Z</time>
      </trkpt>
      <trkpt lat="46.0489" lon="3.70768">
        <ele>549</ele>
        <time>2011-07-09T13:19:48Z</time>
      </trkpt>
      <trkpt lat="46.04888" lon="3.70768">
        <ele>549</ele>
        <time>2011-07-09T13:19:49Z</time>
      </trkpt>
      <trkpt lat="46.04886" lon="3.70768">
        <ele>549</ele>
        <time>2011-07-09T13:19:50Z</time>
      </trkpt>
      <trkpt lat="46.04871" lon="3.7077">
        <ele>550</ele>
        <time>2011-07-09T13:19:56Z</time>
      </trkpt>
      <trkpt lat="46.04866" lon="3.7077">
        <ele>550</ele>
        <time>2011-07-09T13:19:58Z</time>
      </trkpt>
      <trkpt lat="46.04862" lon="3.70769">
        <ele>550</ele>
        <time>2011-07-09T13:20:00Z</time>
      </trkpt>
      <trkpt lat="46.0486" lon="3.70769">
        <ele>550</ele>
        <time>2011-07-09T13:20:01Z</time>
      </trkpt>
      <trkpt lat="46.04856" lon="3.70768">
        <ele>551</ele>
        <time>2011-07-09T13:20:03Z</time>
      </trkpt>
      <trkpt lat="46.04855" lon="3.70767">
        <ele>551</ele>
        <time>2011-07-09T13:20:04Z</time>
      </trkpt>
      <trkpt lat="46.04853" lon="3.70768">
        <ele>551</ele>
        <time>2011-07-09T13:20:05Z</time>
      </trkpt>
      <trkpt lat="46.04849" lon="3.70769">
        <ele>552</ele>
        <time>2011-07-09T13:20:07Z</time>
      </trkpt>
      <trkpt lat="46.04846" lon="3.70768">
        <ele>552</ele>
        <time>2011-07-09T13:20:08Z</time>
      </trkpt>
      <trkpt lat="46.04844" lon="3.70769">
        <ele>552</ele>
        <time>2011-07-09T13:20:09Z</time>
      </trkpt>
      <trkpt lat="46.04833" lon="3.70775">
        <ele>554</ele>
        <time>2011-07-09T13:20:15Z</time>
      </trkpt>
      <trkpt lat="46.04828" lon="3.70778">
        <ele>555</ele>
        <time>2011-07-09T13:20:19Z</time>
      </trkpt>
      <trkpt lat="46.04822" lon="3.70783">
        <ele>555</ele>
        <time>2011-07-09T13:20:26Z</time>
      </trkpt>
      <trkpt lat="46.04821" lon="3.70783">
        <ele>556</ele>
        <time>2011-07-09T13:20:33Z</time>
      </trkpt>
      <trkpt lat="46.04823" lon="3.7078">
        <ele>556</ele>
        <time>2011-07-09T13:20:39Z</time>
      </trkpt>
      <trkpt lat="46.04823" lon="3.7078">
        <ele>556</ele>
        <time>2011-07-09T13:20:51Z</time>
      </trkpt>
      <trkpt lat="46.04823" lon="3.7078">
        <ele>556</ele>
        <time>2011-07-09T13:21:05Z</time>
      </trkpt>
      <trkpt lat="46.04823" lon="3.7078">
        <ele>556</ele>
        <time>2011-07-09T13:21:21Z</time>
      </trkpt>
      <trkpt lat="46.04826" lon="3.70778">
        <ele>555</ele>
        <time>2011-07-09T13:21:27Z</time>
      </trkpt>
      <trkpt lat="46.04826" lon="3.70777">
        <ele>555</ele>
        <time>2011-07-09T13:21:35Z</time>
      </trkpt>
      <trkpt lat="46.04826" lon="3.70777">
        <ele>555</ele>
        <time>2011-07-09T13:21:49Z</time>
      </trkpt>
      <trkpt lat="46.04826" lon="3.70777">
        <ele>555</ele>
        <time>2011-07-09T13:22:02Z</time>
      </trkpt>
      <trkpt lat="46.04826" lon="3.70777">
        <ele>555</ele>
        <time>2011-07-09T13:22:15Z</time>
      </trkpt>
      <trkpt lat="46.04826" lon="3.70777">
        <ele>555</ele>
        <time>2011-07-09T13:22:22Z</time>
      </trkpt>
      <trkpt lat="46.04831" lon="3.70774">
        <ele>554</ele>
        <time>2011-07-09T13:22:26Z</time>
      </trkpt>
      <trkpt lat="46.04839" lon="3.70772">
        <ele>553</ele>
        <time>2011-07-09T13:22:31Z</time>
      </trkpt>
      <trkpt lat="46.04845" lon="3.70769">
        <ele>553</ele>
        <time>2011-07-09T13:22:35Z</time>
      </trkpt>
      <trkpt lat="46.04854" lon="3.70763">
        <ele>553</ele>
        <time>2011-07-09T13:22:40Z</time>
      </trkpt>
      <trkpt lat="46.04871" lon="3.70753">
        <ele>552</ele>
        <time>2011-07-09T13:22:47Z</time>
      </trkpt>
      <trkpt lat="46.04894" lon="3.70737">
        <ele>551</ele>
        <time>2011-07-09T13:22:54Z</time>
      </trkpt>
      <trkpt lat="46.04902" lon="3.70723">
        <ele>552</ele>
        <time>2011-07-09T13:22:59Z</time>
      </trkpt>
      <trkpt lat="46.04905" lon="3.70716">
        <ele>552</ele>
        <time>2011-07-09T13:23:01Z</time>
      </trkpt>
      <trkpt lat="46.04905" lon="3.70704">
        <ele>551</ele>
        <time>2011-07-09T13:23:06Z</time>
      </trkpt>
      <trkpt lat="46.04902" lon="3.70699">
        <ele>551</ele>
        <time>2011-07-09T13:23:09Z</time>
      </trkpt>
      <trkpt lat="46.04891" lon="3.70688">
        <ele>552</ele>
        <time>2011-07-09T13:23:14Z</time>
      </trkpt>
      <trkpt lat="46.04882" lon="3.70683">
        <ele>553</ele>
        <time>2011-07-09T13:23:19Z</time>
      </trkpt>
      <trkpt lat="46.04876" lon="3.70679">
        <ele>553</ele>
        <time>2011-07-09T13:23:23Z</time>
      </trkpt>
      <trkpt lat="46.0486" lon="3.7067">
        <ele>553</ele>
        <time>2011-07-09T13:23:29Z</time>
      </trkpt>
      <trkpt lat="46.0485" lon="3.7066">
        <ele>554</ele>
        <time>2011-07-09T13:23:34Z</time>
      </trkpt>
      <trkpt lat="46.04849" lon="3.70658">
        <ele>554</ele>
        <time>2011-07-09T13:23:35Z</time>
      </trkpt>
      <trkpt lat="46.04837" lon="3.70644">
        <ele>554</ele>
        <time>2011-07-09T13:23:41Z</time>
      </trkpt>
      <trkpt lat="46.04834" lon="3.70641">
        <ele>554</ele>
        <time>2011-07-09T13:23:43Z</time>
      </trkpt>
      <trkpt lat="46.04818" lon="3.70626">
        <ele>553</ele>
        <time>2011-07-09T13:23:51Z</time>
      </trkpt>
      <trkpt lat="46.04813" lon="3.70611">
        <ele>554</ele>
        <time>2011-07-09T13:23:56Z</time>
      </trkpt>
      <trkpt lat="46.04805" lon="3.70599">
        <ele>555</ele>
        <time>2011-07-09T13:24:02Z</time>
      </trkpt>
      <trkpt lat="46.04799" lon="3.70587">
        <ele>555</ele>
        <time>2011-07-09T13:24:07Z</time>
      </trkpt>
      <trkpt lat="46.04796" lon="3.70581">
        <ele>555</ele>
        <time>2011-07-09T13:24:09Z</time>
      </trkpt>
      <trkpt lat="46.04796" lon="3.70575">
        <ele>555</ele>
        <time>2011-07-09T13:24:11Z</time>
      </trkpt>
      <trkpt lat="46.04792" lon="3.70564">
        <ele>554</ele>
        <time>2011-07-09T13:24:18Z</time>
      </trkpt>
      <trkpt lat="46.04792" lon="3.70564">
        <ele>554</ele>
        <time>2011-07-09T13:24:32Z</time>
      </trkpt>
      <trkpt lat="46.04792" lon="3.70564">
        <ele>554</ele>
        <time>2011-07-09T13:24:48Z</time>
      </trkpt>
      <trkpt lat="46.04792" lon="3.70564">
        <ele>554</ele>
        <time>2011-07-09T13:25:05Z</time>
      </trkpt>
      <trkpt lat="46.04792" lon="3.70564">
        <ele>554</ele>
        <time>2011-07-09T13:25:22Z</time>
      </trkpt>
      <trkpt lat="46.04792" lon="3.70564">
        <ele>554</ele>
        <time>2011-07-09T13:25:42Z</time>
      </trkpt>
      <trkpt lat="46.04792" lon="3.70564">
        <ele>554</ele>
        <time>2011-07-09T13:25:54Z</time>
      </trkpt>
      <trkpt lat="46.04791" lon="3.70562">
        <ele>554</ele>
        <time>2011-07-09T13:26:01Z</time>
      </trkpt>
      <trkpt lat="46.04787" lon="3.70555">
        <ele>554</ele>
        <time>2011-07-09T13:26:06Z</time>
      </trkpt>
      <trkpt lat="46.04787" lon="3.70554">
        <ele>554</ele>
        <time>2011-07-09T13:26:07Z</time>
      </trkpt>
      <trkpt lat="46.04789" lon="3.70546">
        <ele>553</ele>
        <time>2011-07-09T13:26:11Z</time>
      </trkpt>
      <trkpt lat="46.04795" lon="3.70535">
        <ele>554</ele>
        <time>2011-07-09T13:26:18Z</time>
      </trkpt>
      <trkpt lat="46.04807" lon="3.70537">
        <ele>556</ele>
        <time>2011-07-09T13:26:25Z</time>
      </trkpt>
      <trkpt lat="46.0481" lon="3.70538">
        <ele>557</ele>
        <time>2011-07-09T13:26:28Z</time>
      </trkpt>
      <trkpt lat="46.04821" lon="3.70537">
        <ele>558</ele>
        <time>2011-07-09T13:26:35Z</time>
      </trkpt>
      <trkpt lat="46.04832" lon="3.70532">
        <ele>560</ele>
        <time>2011-07-09T13:26:42Z</time>
      </trkpt>
      <trkpt lat="46.04834" lon="3.70532">
        <ele>560</ele>
        <time>2011-07-09T13:26:46Z</time>
      </trkpt>
      <trkpt lat="46.04838" lon="3.70526">
        <ele>561</ele>
        <time>2011-07-09T13:26:49Z</time>
      </trkpt>
      <trkpt lat="46.04849" lon="3.70519">
        <ele>561</ele>
        <time>2011-07-09T13:26:56Z</time>
      </trkpt>
      <trkpt lat="46.04851" lon="3.70518">
        <ele>561</ele>
        <time>2011-07-09T13:26:57Z</time>
      </trkpt>
      <trkpt lat="46.04853" lon="3.70516">
        <ele>561</ele>
        <time>2011-07-09T13:26:58Z</time>
      </trkpt>
      <trkpt lat="46.04877" lon="3.7051">
        <ele>560</ele>
        <time>2011-07-09T13:27:06Z</time>
      </trkpt>
      <trkpt lat="46.04893" lon="3.70508">
        <ele>559</ele>
        <time>2011-07-09T13:27:11Z</time>
      </trkpt>
      <trkpt lat="46.04908" lon="3.70509">
        <ele>559</ele>
        <time>2011-07-09T13:27:17Z</time>
      </trkpt>
      <trkpt lat="46.04924" lon="3.70509">
        <ele>559</ele>
        <time>2011-07-09T13:27:23Z</time>
      </trkpt>
      <trkpt lat="46.04939" lon="3.70507">
        <ele>558</ele>
        <time>2011-07-09T13:27:27Z</time>
      </trkpt>
      <trkpt lat="46.04941" lon="3.70503">
        <ele>558</ele>
        <time>2011-07-09T13:27:28Z</time>
      </trkpt>
      <trkpt lat="46.04946" lon="3.70499">
        <ele>557</ele>
        <time>2011-07-09T13:27:29Z</time>
      </trkpt>
      <trkpt lat="46.0495" lon="3.70496">
        <ele>557</ele>
        <time>2011-07-09T13:27:30Z</time>
      </trkpt>
      <trkpt lat="46.04961" lon="3.70491">
        <ele>555</ele>
        <time>2011-07-09T13:27:31Z</time>
      </trkpt>
      <trkpt lat="46.04964" lon="3.70486">
        <ele>555</ele>
        <time>2011-07-09T13:27:32Z</time>
      </trkpt>
      <trkpt lat="46.04969" lon="3.70481">
        <ele>554</ele>
        <time>2011-07-09T13:27:33Z</time>
      </trkpt>
      <trkpt lat="46.04973" lon="3.70478">
        <ele>554</ele>
        <time>2011-07-09T13:27:34Z</time>
      </trkpt>
      <trkpt lat="46.04979" lon="3.70474">
        <ele>553</ele>
        <time>2011-07-09T13:27:36Z</time>
      </trkpt>
      <trkpt lat="46.04982" lon="3.70473">
        <ele>552</ele>
        <time>2011-07-09T13:27:37Z</time>
      </trkpt>
      <trkpt lat="46.04984" lon="3.70473">
        <ele>552</ele>
        <time>2011-07-09T13:27:38Z</time>
      </trkpt>
      <trkpt lat="46.05004" lon="3.70478">
        <ele>552</ele>
        <time>2011-07-09T13:27:44Z</time>
      </trkpt>
      <trkpt lat="46.05022" lon="3.70478">
        <ele>554</ele>
        <time>2011-07-09T13:27:50Z</time>
      </trkpt>
      <trkpt lat="46.05038" lon="3.70481">
        <ele>553</ele>
        <time>2011-07-09T13:27:55Z</time>
      </trkpt>
      <trkpt lat="46.05051" lon="3.70493">
        <ele>553</ele>
        <time>2011-07-09T13:28:00Z</time>
      </trkpt>
      <trkpt lat="46.05069" lon="3.70499">
        <ele>553</ele>
        <time>2011-07-09T13:28:05Z</time>
      </trkpt>
      <trkpt lat="46.05079" lon="3.70499">
        <ele>553</ele>
        <time>2011-07-09T13:28:10Z</time>
      </trkpt>
      <trkpt lat="46.05083" lon="3.70499">
        <ele>553</ele>
        <time>2011-07-09T13:28:12Z</time>
      </trkpt>
      <trkpt lat="46.05085" lon="3.70499">
        <ele>553</ele>
        <time>2011-07-09T13:28:13Z</time>
      </trkpt>
      <trkpt lat="46.05095" lon="3.70502">
        <ele>553</ele>
        <time>2011-07-09T13:28:17Z</time>
      </trkpt>
      <trkpt lat="46.05101" lon="3.70503">
        <ele>554</ele>
        <time>2011-07-09T13:28:20Z</time>
      </trkpt>
      <trkpt lat="46.05103" lon="3.70504">
        <ele>554</ele>
        <time>2011-07-09T13:28:21Z</time>
      </trkpt>
      <trkpt lat="46.05121" lon="3.7051">
        <ele>554</ele>
        <time>2011-07-09T13:28:27Z</time>
      </trkpt>
      <trkpt lat="46.05147" lon="3.70504">
        <ele>555</ele>
        <time>2011-07-09T13:28:34Z</time>
      </trkpt>
      <trkpt lat="46.05167" lon="3.70498">
        <ele>555</ele>
        <time>2011-07-09T13:28:40Z</time>
      </trkpt>
      <trkpt lat="46.05188" lon="3.70499">
        <ele>556</ele>
        <time>2011-07-09T13:28:46Z</time>
      </trkpt>
      <trkpt lat="46.05211" lon="3.70501">
        <ele>556</ele>
        <time>2011-07-09T13:28:51Z</time>
      </trkpt>
      <trkpt lat="46.05223" lon="3.70504">
        <ele>557</ele>
        <time>2011-07-09T13:28:54Z</time>
      </trkpt>
      <trkpt lat="46.05227" lon="3.70505">
        <ele>557</ele>
        <time>2011-07-09T13:28:55Z</time>
      </trkpt>
      <trkpt lat="46.05247" lon="3.70512">
        <ele>559</ele>
        <time>2011-07-09T13:29:02Z</time>
      </trkpt>
      <trkpt lat="46.05254" lon="3.70512">
        <ele>559</ele>
        <time>2011-07-09T13:29:05Z</time>
      </trkpt>
      <trkpt lat="46.05257" lon="3.70512">
        <ele>560</ele>
        <time>2011-07-09T13:29:06Z</time>
      </trkpt>
      <trkpt lat="46.05259" lon="3.70511">
        <ele>560</ele>
        <time>2011-07-09T13:29:07Z</time>
      </trkpt>
      <trkpt lat="46.05262" lon="3.70509">
        <ele>561</ele>
        <time>2011-07-09T13:29:08Z</time>
      </trkpt>
      <trkpt lat="46.05264" lon="3.70508">
        <ele>561</ele>
        <time>2011-07-09T13:29:09Z</time>
      </trkpt>
      <trkpt lat="46.05267" lon="3.70507">
        <ele>562</ele>
        <time>2011-07-09T13:29:10Z</time>
      </trkpt>
      <trkpt lat="46.0527" lon="3.70505">
        <ele>562</ele>
        <time>2011-07-09T13:29:11Z</time>
      </trkpt>
      <trkpt lat="46.0529" lon="3.70488">
        <ele>564</ele>
        <time>2011-07-09T13:29:17Z</time>
      </trkpt>
      <trkpt lat="46.05313" lon="3.70474">
        <ele>565</ele>
        <time>2011-07-09T13:29:24Z</time>
      </trkpt>
      <trkpt lat="46.05328" lon="3.70466">
        <ele>565</ele>
        <time>2011-07-09T13:29:28Z</time>
      </trkpt>
      <trkpt lat="46.05332" lon="3.70463">
        <ele>565</ele>
        <time>2011-07-09T13:29:29Z</time>
      </trkpt>
      <trkpt lat="46.05349" lon="3.70446">
        <ele>564</ele>
        <time>2011-07-09T13:29:33Z</time>
      </trkpt>
      <trkpt lat="46.05353" lon="3.70441">
        <ele>564</ele>
        <time>2011-07-09T13:29:34Z</time>
      </trkpt>
      <trkpt lat="46.05362" lon="3.70433">
        <ele>564</ele>
        <time>2011-07-09T13:29:36Z</time>
      </trkpt>
      <trkpt lat="46.05366" lon="3.70428">
        <ele>564</ele>
        <time>2011-07-09T13:29:37Z</time>
      </trkpt>
      <trkpt lat="46.0537" lon="3.70423">
        <ele>564</ele>
        <time>2011-07-09T13:29:38Z</time>
      </trkpt>
      <trkpt lat="46.05388" lon="3.70401">
        <ele>563</ele>
        <time>2011-07-09T13:29:42Z</time>
      </trkpt>
      <trkpt lat="46.05391" lon="3.70395">
        <ele>563</ele>
        <time>2011-07-09T13:29:43Z</time>
      </trkpt>
      <trkpt lat="46.05394" lon="3.70388">
        <ele>563</ele>
        <time>2011-07-09T13:29:44Z</time>
      </trkpt>
      <trkpt lat="46.05401" lon="3.70365">
        <ele>562</ele>
        <time>2011-07-09T13:29:47Z</time>
      </trkpt>
      <trkpt lat="46.05405" lon="3.70356">
        <ele>562</ele>
        <time>2011-07-09T13:29:48Z</time>
      </trkpt>
      <trkpt lat="46.05424" lon="3.70321">
        <ele>559</ele>
        <time>2011-07-09T13:29:52Z</time>
      </trkpt>
      <trkpt lat="46.05447" lon="3.70296">
        <ele>558</ele>
        <time>2011-07-09T13:29:56Z</time>
      </trkpt>
      <trkpt lat="46.05473" lon="3.70277">
        <ele>557</ele>
        <time>2011-07-09T13:30:00Z</time>
      </trkpt>
      <trkpt lat="46.05479" lon="3.70271">
        <ele>557</ele>
        <time>2011-07-09T13:30:01Z</time>
      </trkpt>
      <trkpt lat="46.05483" lon="3.70266">
        <ele>557</ele>
        <time>2011-07-09T13:30:02Z</time>
      </trkpt>
      <trkpt lat="46.05487" lon="3.7026">
        <ele>556</ele>
        <time>2011-07-09T13:30:03Z</time>
      </trkpt>
      <trkpt lat="46.05489" lon="3.70254">
        <ele>555</ele>
        <time>2011-07-09T13:30:04Z</time>
      </trkpt>
      <trkpt lat="46.05491" lon="3.70248">
        <ele>555</ele>
        <time>2011-07-09T13:30:05Z</time>
      </trkpt>
      <trkpt lat="46.05492" lon="3.70241">
        <ele>554</ele>
        <time>2011-07-09T13:30:06Z</time>
      </trkpt>
      <trkpt lat="46.05492" lon="3.70237">
        <ele>553</ele>
        <time>2011-07-09T13:30:07Z</time>
      </trkpt>
      <trkpt lat="46.0549" lon="3.70224">
        <ele>553</ele>
        <time>2011-07-09T13:30:08Z</time>
      </trkpt>
      <trkpt lat="46.05489" lon="3.7021">
        <ele>553</ele>
        <time>2011-07-09T13:30:09Z</time>
      </trkpt>
      <trkpt lat="46.05491" lon="3.70199">
        <ele>552</ele>
        <time>2011-07-09T13:30:10Z</time>
      </trkpt>
      <trkpt lat="46.05497" lon="3.70177">
        <ele>552</ele>
        <time>2011-07-09T13:30:12Z</time>
      </trkpt>
      <trkpt lat="46.05502" lon="3.70171">
        <ele>552</ele>
        <time>2011-07-09T13:30:13Z</time>
      </trkpt>
      <trkpt lat="46.05516" lon="3.70158">
        <ele>553</ele>
        <time>2011-07-09T13:30:16Z</time>
      </trkpt>
      <trkpt lat="46.05544" lon="3.70135">
        <ele>554</ele>
        <time>2011-07-09T13:30:21Z</time>
      </trkpt>
      <trkpt lat="46.05587" lon="3.70095">
        <ele>555</ele>
        <time>2011-07-09T13:30:29Z</time>
      </trkpt>
      <trkpt lat="46.05596" lon="3.70086">
        <ele>555</ele>
        <time>2011-07-09T13:30:31Z</time>
      </trkpt>
      <trkpt lat="46.056" lon="3.70081">
        <ele>555</ele>
        <time>2011-07-09T13:30:32Z</time>
      </trkpt>
      <trkpt lat="46.05603" lon="3.70075">
        <ele>555</ele>
        <time>2011-07-09T13:30:33Z</time>
      </trkpt>
      <trkpt lat="46.05605" lon="3.70071">
        <ele>555</ele>
        <time>2011-07-09T13:30:34Z</time>
      </trkpt>
      <trkpt lat="46.05606" lon="3.70067">
        <ele>556</ele>
        <time>2011-07-09T13:30:35Z</time>
      </trkpt>
      <trkpt lat="46.0561" lon="3.70056">
        <ele>557</ele>
        <time>2011-07-09T13:30:39Z</time>
      </trkpt>
      <trkpt lat="46.05616" lon="3.70037">
        <ele>558</ele>
        <time>2011-07-09T13:30:45Z</time>
      </trkpt>
      <trkpt lat="46.05624" lon="3.7001">
        <ele>560</ele>
        <time>2011-07-09T13:30:51Z</time>
      </trkpt>
      <trkpt lat="46.05627" lon="3.69987">
        <ele>561</ele>
        <time>2011-07-09T13:30:56Z</time>
      </trkpt>
      <trkpt lat="46.05625" lon="3.69982">
        <ele>562</ele>
        <time>2011-07-09T13:30:58Z</time>
      </trkpt>
      <trkpt lat="46.05614" lon="3.69971">
        <ele>563</ele>
        <time>2011-07-09T13:31:04Z</time>
      </trkpt>
      <trkpt lat="46.0561" lon="3.69964">
        <ele>563</ele>
        <time>2011-07-09T13:31:07Z</time>
      </trkpt>
      <trkpt lat="46.05594" lon="3.69948">
        <ele>564</ele>
        <time>2011-07-09T13:31:13Z</time>
      </trkpt>
      <trkpt lat="46.05579" lon="3.69932">
        <ele>564</ele>
        <time>2011-07-09T13:31:19Z</time>
      </trkpt>
      <trkpt lat="46.05564" lon="3.69915">
        <ele>565</ele>
        <time>2011-07-09T13:31:25Z</time>
      </trkpt>
      <trkpt lat="46.05561" lon="3.69913">
        <ele>565</ele>
        <time>2011-07-09T13:31:26Z</time>
      </trkpt>
      <trkpt lat="46.0555" lon="3.69896">
        <ele>566</ele>
        <time>2011-07-09T13:31:32Z</time>
      </trkpt>
      <trkpt lat="46.05542" lon="3.6989">
        <ele>567</ele>
        <time>2011-07-09T13:31:38Z</time>
      </trkpt>
      <trkpt lat="46.05543" lon="3.69889">
        <ele>566</ele>
        <time>2011-07-09T13:31:48Z</time>
      </trkpt>
      <trkpt lat="46.05543" lon="3.69889">
        <ele>566</ele>
        <time>2011-07-09T13:32:06Z</time>
      </trkpt>
      <trkpt lat="46.05543" lon="3.69889">
        <ele>566</ele>
        <time>2011-07-09T13:32:22Z</time>
      </trkpt>
      <trkpt lat="46.05542" lon="3.69887">
        <ele>566</ele>
        <time>2011-07-09T13:32:35Z</time>
      </trkpt>
      <trkpt lat="46.05542" lon="3.69886">
        <ele>566</ele>
        <time>2011-07-09T13:32:45Z</time>
      </trkpt>
      <trkpt lat="46.05542" lon="3.69886">
        <ele>566</ele>
        <time>2011-07-09T13:33:01Z</time>
      </trkpt>
      <trkpt lat="46.05542" lon="3.69887">
        <ele>566</ele>
        <time>2011-07-09T13:33:16Z</time>
      </trkpt>
      <trkpt lat="46.05542" lon="3.69887">
        <ele>566</ele>
        <time>2011-07-09T13:33:33Z</time>
      </trkpt>
      <trkpt lat="46.05541" lon="3.69888">
        <ele>566</ele>
        <time>2011-07-09T13:33:43Z</time>
      </trkpt>
      <trkpt lat="46.05537" lon="3.69884">
        <ele>566</ele>
        <time>2011-07-09T13:33:50Z</time>
      </trkpt>
      <trkpt lat="46.05544" lon="3.69871">
        <ele>563</ele>
        <time>2011-07-09T13:33:57Z</time>
      </trkpt>
      <trkpt lat="46.05549" lon="3.69862">
        <ele>562</ele>
        <time>2011-07-09T13:34:00Z</time>
      </trkpt>
      <trkpt lat="46.0556" lon="3.6984">
        <ele>559</ele>
        <time>2011-07-09T13:34:05Z</time>
      </trkpt>
      <trkpt lat="46.05566" lon="3.69832">
        <ele>556</ele>
        <time>2011-07-09T13:34:08Z</time>
      </trkpt>
      <trkpt lat="46.05575" lon="3.69817">
        <ele>553</ele>
        <time>2011-07-09T13:34:12Z</time>
      </trkpt>
      <trkpt lat="46.05584" lon="3.69801">
        <ele>550</ele>
        <time>2011-07-09T13:34:15Z</time>
      </trkpt>
      <trkpt lat="46.05591" lon="3.6978">
        <ele>548</ele>
        <time>2011-07-09T13:34:18Z</time>
      </trkpt>
      <trkpt lat="46.05604" lon="3.69755">
        <ele>545</ele>
        <time>2011-07-09T13:34:22Z</time>
      </trkpt>
      <trkpt lat="46.05613" lon="3.69737">
        <ele>545</ele>
        <time>2011-07-09T13:34:26Z</time>
      </trkpt>
      <trkpt lat="46.05622" lon="3.6972">
        <ele>547</ele>
        <time>2011-07-09T13:34:32Z</time>
      </trkpt>
      <trkpt lat="46.05623" lon="3.69718">
        <ele>548</ele>
        <time>2011-07-09T13:34:33Z</time>
      </trkpt>
      <trkpt lat="46.05629" lon="3.69704">
        <ele>550</ele>
        <time>2011-07-09T13:34:40Z</time>
      </trkpt>
      <trkpt lat="46.05632" lon="3.69697">
        <ele>551</ele>
        <time>2011-07-09T13:34:45Z</time>
      </trkpt>
      <trkpt lat="46.05636" lon="3.69688">
        <ele>553</ele>
        <time>2011-07-09T13:34:53Z</time>
      </trkpt>
      <trkpt lat="46.05643" lon="3.69674">
        <ele>554</ele>
        <time>2011-07-09T13:35:02Z</time>
      </trkpt>
      <trkpt lat="46.05657" lon="3.69652">
        <ele>555</ele>
        <time>2011-07-09T13:35:10Z</time>
      </trkpt>
      <trkpt lat="46.05663" lon="3.69642">
        <ele>556</ele>
        <time>2011-07-09T13:35:15Z</time>
      </trkpt>
      <trkpt lat="46.05666" lon="3.69635">
        <ele>556</ele>
        <time>2011-07-09T13:35:18Z</time>
      </trkpt>
      <trkpt lat="46.05668" lon="3.69633">
        <ele>556</ele>
        <time>2011-07-09T13:35:19Z</time>
      </trkpt>
      <trkpt lat="46.05669" lon="3.6963">
        <ele>556</ele>
        <time>2011-07-09T13:35:20Z</time>
      </trkpt>
      <trkpt lat="46.05671" lon="3.69628">
        <ele>556</ele>
        <time>2011-07-09T13:35:21Z</time>
      </trkpt>
      <trkpt lat="46.05673" lon="3.69624">
        <ele>556</ele>
        <time>2011-07-09T13:35:22Z</time>
      </trkpt>
      <trkpt lat="46.05686" lon="3.69611">
        <ele>556</ele>
        <time>2011-07-09T13:35:29Z</time>
      </trkpt>
      <trkpt lat="46.05687" lon="3.6961">
        <ele>557</ele>
        <time>2011-07-09T13:35:30Z</time>
      </trkpt>
      <trkpt lat="46.0569" lon="3.69608">
        <ele>556</ele>
        <time>2011-07-09T13:35:31Z</time>
      </trkpt>
      <trkpt lat="46.05692" lon="3.69607">
        <ele>557</ele>
        <time>2011-07-09T13:35:32Z</time>
      </trkpt>
      <trkpt lat="46.05694" lon="3.69604">
        <ele>557</ele>
        <time>2011-07-09T13:35:33Z</time>
      </trkpt>
      <trkpt lat="46.05696" lon="3.69602">
        <ele>557</ele>
        <time>2011-07-09T13:35:34Z</time>
      </trkpt>
      <trkpt lat="46.05698" lon="3.696">
        <ele>557</ele>
        <time>2011-07-09T13:35:35Z</time>
      </trkpt>
      <trkpt lat="46.05712" lon="3.69586">
        <ele>558</ele>
        <time>2011-07-09T13:35:43Z</time>
      </trkpt>
      <trkpt lat="46.05721" lon="3.69572">
        <ele>559</ele>
        <time>2011-07-09T13:35:50Z</time>
      </trkpt>
      <trkpt lat="46.05728" lon="3.69564">
        <ele>559</ele>
        <time>2011-07-09T13:35:55Z</time>
      </trkpt>
      <trkpt lat="46.05737" lon="3.69545">
        <ele>560</ele>
        <time>2011-07-09T13:36:02Z</time>
      </trkpt>
      <trkpt lat="46.05739" lon="3.69542">
        <ele>560</ele>
        <time>2011-07-09T13:36:03Z</time>
      </trkpt>
      <trkpt lat="46.05741" lon="3.69539">
        <ele>560</ele>
        <time>2011-07-09T13:36:04Z</time>
      </trkpt>
      <trkpt lat="46.05743" lon="3.69535">
        <ele>560</ele>
        <time>2011-07-09T13:36:05Z</time>
      </trkpt>
      <trkpt lat="46.05745" lon="3.69532">
        <ele>560</ele>
        <time>2011-07-09T13:36:06Z</time>
      </trkpt>
      <trkpt lat="46.05747" lon="3.69529">
        <ele>560</ele>
        <time>2011-07-09T13:36:07Z</time>
      </trkpt>
      <trkpt lat="46.05748" lon="3.69526">
        <ele>560</ele>
        <time>2011-07-09T13:36:08Z</time>
      </trkpt>
      <trkpt lat="46.0576" lon="3.69504">
        <ele>559</ele>
        <time>2011-07-09T13:36:14Z</time>
      </trkpt>
      <trkpt lat="46.05762" lon="3.69502">
        <ele>559</ele>
        <time>2011-07-09T13:36:15Z</time>
      </trkpt>
      <trkpt lat="46.05764" lon="3.69498">
        <ele>559</ele>
        <time>2011-07-09T13:36:20Z</time>
      </trkpt>
      <trkpt lat="46.05764" lon="3.69498">
        <ele>559</ele>
        <time>2011-07-09T13:36:35Z</time>
      </trkpt>
      <trkpt lat="46.05764" lon="3.69498">
        <ele>559</ele>
        <time>2011-07-09T13:36:50Z</time>
      </trkpt>
      <trkpt lat="46.05766" lon="3.69496">
        <ele>559</ele>
        <time>2011-07-09T13:37:03Z</time>
      </trkpt>
      <trkpt lat="46.05768" lon="3.69494">
        <ele>559</ele>
        <time>2011-07-09T13:37:04Z</time>
      </trkpt>
      <trkpt lat="46.0577" lon="3.69492">
        <ele>558</ele>
        <time>2011-07-09T13:37:05Z</time>
      </trkpt>
      <trkpt lat="46.05772" lon="3.6949">
        <ele>558</ele>
        <time>2011-07-09T13:37:06Z</time>
      </trkpt>
      <trkpt lat="46.05773" lon="3.69489">
        <ele>558</ele>
        <time>2011-07-09T13:37:07Z</time>
      </trkpt>
      <trkpt lat="46.05776" lon="3.69487">
        <ele>558</ele>
        <time>2011-07-09T13:37:08Z</time>
      </trkpt>
      <trkpt lat="46.05781" lon="3.69482">
        <ele>556</ele>
        <time>2011-07-09T13:37:12Z</time>
      </trkpt>
      <trkpt lat="46.05784" lon="3.69479">
        <ele>555</ele>
        <time>2011-07-09T13:37:14Z</time>
      </trkpt>
      <trkpt lat="46.05798" lon="3.69468">
        <ele>551</ele>
        <time>2011-07-09T13:37:19Z</time>
      </trkpt>
      <trkpt lat="46.05803" lon="3.69462">
        <ele>549</ele>
        <time>2011-07-09T13:37:22Z</time>
      </trkpt>
      <trkpt lat="46.05801" lon="3.69459">
        <ele>549</ele>
        <time>2011-07-09T13:37:23Z</time>
      </trkpt>
      <trkpt lat="46.05794" lon="3.69428">
        <ele>549</ele>
        <time>2011-07-09T13:37:28Z</time>
      </trkpt>
      <trkpt lat="46.05796" lon="3.69422">
        <ele>549</ele>
        <time>2011-07-09T13:37:29Z</time>
      </trkpt>
      <trkpt lat="46.05798" lon="3.69416">
        <ele>549</ele>
        <time>2011-07-09T13:37:30Z</time>
      </trkpt>
      <trkpt lat="46.05801" lon="3.69412">
        <ele>549</ele>
        <time>2011-07-09T13:37:31Z</time>
      </trkpt>
      <trkpt lat="46.05804" lon="3.69408">
        <ele>549</ele>
        <time>2011-07-09T13:37:32Z</time>
      </trkpt>
      <trkpt lat="46.05808" lon="3.69404">
        <ele>549</ele>
        <time>2011-07-09T13:37:33Z</time>
      </trkpt>
      <trkpt lat="46.05811" lon="3.69401">
        <ele>549</ele>
        <time>2011-07-09T13:37:34Z</time>
      </trkpt>
      <trkpt lat="46.05832" lon="3.69372">
        <ele>550</ele>
        <time>2011-07-09T13:37:41Z</time>
      </trkpt>
      <trkpt lat="46.05829" lon="3.69351">
        <ele>551</ele>
        <time>2011-07-09T13:37:46Z</time>
      </trkpt>
      <trkpt lat="46.0582" lon="3.69336">
        <ele>552</ele>
        <time>2011-07-09T13:37:51Z</time>
      </trkpt>
      <trkpt lat="46.05809" lon="3.69314">
        <ele>553</ele>
        <time>2011-07-09T13:37:57Z</time>
      </trkpt>
      <trkpt lat="46.05808" lon="3.6929">
        <ele>554</ele>
        <time>2011-07-09T13:38:03Z</time>
      </trkpt>
      <trkpt lat="46.05811" lon="3.69266">
        <ele>556</ele>
        <time>2011-07-09T13:38:09Z</time>
      </trkpt>
      <trkpt lat="46.05819" lon="3.69237">
        <ele>558</ele>
        <time>2011-07-09T13:38:17Z</time>
      </trkpt>
      <trkpt lat="46.0581" lon="3.69213">
        <ele>560</ele>
        <time>2011-07-09T13:38:24Z</time>
      </trkpt>
      <trkpt lat="46.05792" lon="3.69186">
        <ele>563</ele>
        <time>2011-07-09T13:38:33Z</time>
      </trkpt>
      <trkpt lat="46.05775" lon="3.69162">
        <ele>566</ele>
        <time>2011-07-09T13:38:41Z</time>
      </trkpt>
      <trkpt lat="46.0576" lon="3.69139">
        <ele>569</ele>
        <time>2011-07-09T13:38:49Z</time>
      </trkpt>
      <trkpt lat="46.0575" lon="3.6912">
        <ele>571</ele>
        <time>2011-07-09T13:38:55Z</time>
      </trkpt>
      <trkpt lat="46.05746" lon="3.69097">
        <ele>573</ele>
        <time>2011-07-09T13:39:01Z</time>
      </trkpt>
      <trkpt lat="46.0574" lon="3.69072">
        <ele>575</ele>
        <time>2011-07-09T13:39:07Z</time>
      </trkpt>
      <trkpt lat="46.05731" lon="3.69042">
        <ele>577</ele>
        <time>2011-07-09T13:39:14Z</time>
      </trkpt>
      <trkpt lat="46.05722" lon="3.68999">
        <ele>578</ele>
        <time>2011-07-09T13:39:23Z</time>
      </trkpt>
      <trkpt lat="46.05705" lon="3.68981">
        <ele>578</ele>
        <time>2011-07-09T13:39:29Z</time>
      </trkpt>
      <trkpt lat="46.05686" lon="3.68971">
        <ele>579</ele>
        <time>2011-07-09T13:39:35Z</time>
      </trkpt>
      <trkpt lat="46.05657" lon="3.68964">
        <ele>580</ele>
        <time>2011-07-09T13:39:43Z</time>
      </trkpt>
      <trkpt lat="46.05627" lon="3.68957">
        <ele>582</ele>
        <time>2011-07-09T13:39:51Z</time>
      </trkpt>
      <trkpt lat="46.0561" lon="3.68957">
        <ele>584</ele>
        <time>2011-07-09T13:39:56Z</time>
      </trkpt>
      <trkpt lat="46.05586" lon="3.68953">
        <ele>587</ele>
        <time>2011-07-09T13:40:02Z</time>
      </trkpt>
      <trkpt lat="46.05582" lon="3.68951">
        <ele>588</ele>
        <time>2011-07-09T13:40:03Z</time>
      </trkpt>
      <trkpt lat="46.0557" lon="3.68945">
        <ele>588</ele>
        <time>2011-07-09T13:40:06Z</time>
      </trkpt>
      <trkpt lat="46.05557" lon="3.68939">
        <ele>588</ele>
        <time>2011-07-09T13:40:09Z</time>
      </trkpt>
      <trkpt lat="46.05552" lon="3.68936">
        <ele>588</ele>
        <time>2011-07-09T13:40:10Z</time>
      </trkpt>
      <trkpt lat="46.05547" lon="3.68932">
        <ele>588</ele>
        <time>2011-07-09T13:40:11Z</time>
      </trkpt>
      <trkpt lat="46.05513" lon="3.68893">
        <ele>586</ele>
        <time>2011-07-09T13:40:18Z</time>
      </trkpt>
      <trkpt lat="46.055" lon="3.68878">
        <ele>587</ele>
        <time>2011-07-09T13:40:21Z</time>
      </trkpt>
      <trkpt lat="46.05495" lon="3.68872">
        <ele>587</ele>
        <time>2011-07-09T13:40:25Z</time>
      </trkpt>
      <trkpt lat="46.05494" lon="3.6887">
        <ele>587</ele>
        <time>2011-07-09T13:40:26Z</time>
      </trkpt>
      <trkpt lat="46.05492" lon="3.68866">
        <ele>587</ele>
        <time>2011-07-09T13:40:28Z</time>
      </trkpt>
      <trkpt lat="46.05491" lon="3.68864">
        <ele>587</ele>
        <time>2011-07-09T13:40:29Z</time>
      </trkpt>
      <trkpt lat="46.05489" lon="3.68862">
        <ele>587</ele>
        <time>2011-07-09T13:40:30Z</time>
      </trkpt>
      <trkpt lat="46.05486" lon="3.68859">
        <ele>587</ele>
        <time>2011-07-09T13:40:33Z</time>
      </trkpt>
      <trkpt lat="46.05484" lon="3.68858">
        <ele>588</ele>
        <time>2011-07-09T13:40:34Z</time>
      </trkpt>
      <trkpt lat="46.05483" lon="3.68858">
        <ele>588</ele>
        <time>2011-07-09T13:40:35Z</time>
      </trkpt>
      <trkpt lat="46.05483" lon="3.68856">
        <ele>588</ele>
        <time>2011-07-09T13:40:36Z</time>
      </trkpt>
      <trkpt lat="46.05483" lon="3.68854">
        <ele>588</ele>
        <time>2011-07-09T13:40:37Z</time>
      </trkpt>
      <trkpt lat="46.05483" lon="3.68853">
        <ele>588</ele>
        <time>2011-07-09T13:40:38Z</time>
      </trkpt>
      <trkpt lat="46.05478" lon="3.68847">
        <ele>589</ele>
        <time>2011-07-09T13:40:45Z</time>
      </trkpt>
      <trkpt lat="46.05478" lon="3.68847">
        <ele>589</ele>
        <time>2011-07-09T13:40:53Z</time>
      </trkpt>
      <trkpt lat="46.05478" lon="3.68847">
        <ele>589</ele>
        <time>2011-07-09T13:41:03Z</time>
      </trkpt>
      <trkpt lat="46.05478" lon="3.68847">
        <ele>589</ele>
        <time>2011-07-09T13:41:16Z</time>
      </trkpt>
      <trkpt lat="46.05478" lon="3.68847">
        <ele>589</ele>
        <time>2011-07-09T13:41:31Z</time>
      </trkpt>
      <trkpt lat="46.05478" lon="3.68847">
        <ele>589</ele>
        <time>2011-07-09T13:41:46Z</time>
      </trkpt>
      <trkpt lat="46.05478" lon="3.68847">
        <ele>589</ele>
        <time>2011-07-09T13:41:59Z</time>
      </trkpt>
      <trkpt lat="46.05478" lon="3.68847">
        <ele>589</ele>
        <time>2011-07-09T13:42:11Z</time>
      </trkpt>
      <trkpt lat="46.05477" lon="3.68844">
        <ele>589</ele>
        <time>2011-07-09T13:42:16Z</time>
      </trkpt>
      <trkpt lat="46.05473" lon="3.68838">
        <ele>590</ele>
        <time>2011-07-09T13:42:21Z</time>
      </trkpt>
      <trkpt lat="46.05471" lon="3.68835">
        <ele>590</ele>
        <time>2011-07-09T13:42:22Z</time>
      </trkpt>
      <trkpt lat="46.0547" lon="3.68832">
        <ele>590</ele>
        <time>2011-07-09T13:42:23Z</time>
      </trkpt>
      <trkpt lat="46.05469" lon="3.6883">
        <ele>590</ele>
        <time>2011-07-09T13:42:24Z</time>
      </trkpt>
      <trkpt lat="46.05468" lon="3.68827">
        <ele>590</ele>
        <time>2011-07-09T13:42:25Z</time>
      </trkpt>
      <trkpt lat="46.05459" lon="3.68807">
        <ele>592</ele>
        <time>2011-07-09T13:42:31Z</time>
      </trkpt>
      <trkpt lat="46.05452" lon="3.68794">
        <ele>593</ele>
        <time>2011-07-09T13:42:34Z</time>
      </trkpt>
      <trkpt lat="46.05449" lon="3.68789">
        <ele>593</ele>
        <time>2011-07-09T13:42:35Z</time>
      </trkpt>
      <trkpt lat="46.05437" lon="3.68762">
        <ele>592</ele>
        <time>2011-07-09T13:42:40Z</time>
      </trkpt>
      <trkpt lat="46.05429" lon="3.68752">
        <ele>593</ele>
        <time>2011-07-09T13:42:42Z</time>
      </trkpt>
      <trkpt lat="46.05412" lon="3.68731">
        <ele>594</ele>
        <time>2011-07-09T13:42:47Z</time>
      </trkpt>
      <trkpt lat="46.05394" lon="3.68715">
        <ele>595</ele>
        <time>2011-07-09T13:42:53Z</time>
      </trkpt>
      <trkpt lat="46.05379" lon="3.68697">
        <ele>596</ele>
        <time>2011-07-09T13:43:00Z</time>
      </trkpt>
      <trkpt lat="46.05374" lon="3.68692">
        <ele>596</ele>
        <time>2011-07-09T13:43:01Z</time>
      </trkpt>
      <trkpt lat="46.0536" lon="3.68668">
        <ele>596</ele>
        <time>2011-07-09T13:43:06Z</time>
      </trkpt>
      <trkpt lat="46.05357" lon="3.68658">
        <ele>596</ele>
        <time>2011-07-09T13:43:08Z</time>
      </trkpt>
      <trkpt lat="46.05355" lon="3.68653">
        <ele>596</ele>
        <time>2011-07-09T13:43:09Z</time>
      </trkpt>
      <trkpt lat="46.05347" lon="3.68641">
        <ele>595</ele>
        <time>2011-07-09T13:43:11Z</time>
      </trkpt>
      <trkpt lat="46.05344" lon="3.68635">
        <ele>595</ele>
        <time>2011-07-09T13:43:12Z</time>
      </trkpt>
      <trkpt lat="46.05339" lon="3.68631">
        <ele>596</ele>
        <time>2011-07-09T13:43:13Z</time>
      </trkpt>
      <trkpt lat="46.05335" lon="3.68626">
        <ele>595</ele>
        <time>2011-07-09T13:43:14Z</time>
      </trkpt>
      <trkpt lat="46.05331" lon="3.68621">
        <ele>596</ele>
        <time>2011-07-09T13:43:15Z</time>
      </trkpt>
      <trkpt lat="46.05301" lon="3.68584">
        <ele>596</ele>
        <time>2011-07-09T13:43:22Z</time>
      </trkpt>
      <trkpt lat="46.05293" lon="3.68571">
        <ele>596</ele>
        <time>2011-07-09T13:43:24Z</time>
      </trkpt>
      <trkpt lat="46.05286" lon="3.68559">
        <ele>595</ele>
        <time>2011-07-09T13:43:26Z</time>
      </trkpt>
      <trkpt lat="46.05283" lon="3.68553">
        <ele>595</ele>
        <time>2011-07-09T13:43:27Z</time>
      </trkpt>
      <trkpt lat="46.05279" lon="3.68546">
        <ele>595</ele>
        <time>2011-07-09T13:43:28Z</time>
      </trkpt>
      <trkpt lat="46.05276" lon="3.6854">
        <ele>594</ele>
        <time>2011-07-09T13:43:29Z</time>
      </trkpt>
      <trkpt lat="46.05262" lon="3.68511">
        <ele>593</ele>
        <time>2011-07-09T13:43:33Z</time>
      </trkpt>
      <trkpt lat="46.05247" lon="3.68481">
        <ele>591</ele>
        <time>2011-07-09T13:43:37Z</time>
      </trkpt>
      <trkpt lat="46.05239" lon="3.68468">
        <ele>591</ele>
        <time>2011-07-09T13:43:39Z</time>
      </trkpt>
      <trkpt lat="46.0522" lon="3.68447">
        <ele>590</ele>
        <time>2011-07-09T13:43:43Z</time>
      </trkpt>
      <trkpt lat="46.05204" lon="3.68427">
        <ele>589</ele>
        <time>2011-07-09T13:43:46Z</time>
      </trkpt>
      <trkpt lat="46.05199" lon="3.6842">
        <ele>589</ele>
        <time>2011-07-09T13:43:47Z</time>
      </trkpt>
      <trkpt lat="46.05179" lon="3.68393">
        <ele>589</ele>
        <time>2011-07-09T13:43:51Z</time>
      </trkpt>
      <trkpt lat="46.05173" lon="3.68389">
        <ele>588</ele>
        <time>2011-07-09T13:43:52Z</time>
      </trkpt>
      <trkpt lat="46.05168" lon="3.68385">
        <ele>588</ele>
        <time>2011-07-09T13:43:53Z</time>
      </trkpt>
      <trkpt lat="46.05163" lon="3.68382">
        <ele>588</ele>
        <time>2011-07-09T13:43:54Z</time>
      </trkpt>
      <trkpt lat="46.05158" lon="3.68378">
        <ele>588</ele>
        <time>2011-07-09T13:43:55Z</time>
      </trkpt>
      <trkpt lat="46.05138" lon="3.6837">
        <ele>588</ele>
        <time>2011-07-09T13:43:58Z</time>
      </trkpt>
      <trkpt lat="46.05132" lon="3.68365">
        <ele>587</ele>
        <time>2011-07-09T13:43:59Z</time>
      </trkpt>
      <trkpt lat="46.05125" lon="3.6836">
        <ele>587</ele>
        <time>2011-07-09T13:44:00Z</time>
      </trkpt>
      <trkpt lat="46.05102" lon="3.68335">
        <ele>585</ele>
        <time>2011-07-09T13:44:04Z</time>
      </trkpt>
      <trkpt lat="46.05099" lon="3.68325">
        <ele>585</ele>
        <time>2011-07-09T13:44:05Z</time>
      </trkpt>
      <trkpt lat="46.05092" lon="3.68306">
        <ele>584</ele>
        <time>2011-07-09T13:44:07Z</time>
      </trkpt>
      <trkpt lat="46.05087" lon="3.68286">
        <ele>584</ele>
        <time>2011-07-09T13:44:09Z</time>
      </trkpt>
      <trkpt lat="46.05087" lon="3.68275">
        <ele>584</ele>
        <time>2011-07-09T13:44:10Z</time>
      </trkpt>
      <trkpt lat="46.05088" lon="3.68265">
        <ele>584</ele>
        <time>2011-07-09T13:44:11Z</time>
      </trkpt>
      <trkpt lat="46.0509" lon="3.68255">
        <ele>584</ele>
        <time>2011-07-09T13:44:12Z</time>
      </trkpt>
      <trkpt lat="46.05093" lon="3.68246">
        <ele>584</ele>
        <time>2011-07-09T13:44:13Z</time>
      </trkpt>
      <trkpt lat="46.05095" lon="3.68236">
        <ele>584</ele>
        <time>2011-07-09T13:44:14Z</time>
      </trkpt>
      <trkpt lat="46.05109" lon="3.68195">
        <ele>585</ele>
        <time>2011-07-09T13:44:19Z</time>
      </trkpt>
      <trkpt lat="46.0511" lon="3.68187">
        <ele>585</ele>
        <time>2011-07-09T13:44:20Z</time>
      </trkpt>
      <trkpt lat="46.05111" lon="3.6818">
        <ele>584</ele>
        <time>2011-07-09T13:44:21Z</time>
      </trkpt>
      <trkpt lat="46.05111" lon="3.68174">
        <ele>584</ele>
        <time>2011-07-09T13:44:22Z</time>
      </trkpt>
      <trkpt lat="46.05112" lon="3.6817">
        <ele>584</ele>
        <time>2011-07-09T13:44:23Z</time>
      </trkpt>
      <trkpt lat="46.05114" lon="3.68168">
        <ele>584</ele>
        <time>2011-07-09T13:44:24Z</time>
      </trkpt>
      <trkpt lat="46.05121" lon="3.68162">
        <ele>584</ele>
        <time>2011-07-09T13:44:30Z</time>
      </trkpt>
      <trkpt lat="46.05121" lon="3.68162">
        <ele>584</ele>
        <time>2011-07-09T13:44:38Z</time>
      </trkpt>
      <trkpt lat="46.05122" lon="3.68162">
        <ele>584</ele>
        <time>2011-07-09T13:44:48Z</time>
      </trkpt>
      <trkpt lat="46.0513" lon="3.68164">
        <ele>584</ele>
        <time>2011-07-09T13:44:52Z</time>
      </trkpt>
      <trkpt lat="46.05161" lon="3.68171">
        <ele>583</ele>
        <time>2011-07-09T13:45:01Z</time>
      </trkpt>
      <trkpt lat="46.0519" lon="3.68179">
        <ele>582</ele>
        <time>2011-07-09T13:45:08Z</time>
      </trkpt>
      <trkpt lat="46.05235" lon="3.68188">
        <ele>581</ele>
        <time>2011-07-09T13:45:17Z</time>
      </trkpt>
      <trkpt lat="46.05269" lon="3.6819">
        <ele>581</ele>
        <time>2011-07-09T13:45:24Z</time>
      </trkpt>
      <trkpt lat="46.05311" lon="3.68198">
        <ele>579</ele>
        <time>2011-07-09T13:45:31Z</time>
      </trkpt>
      <trkpt lat="46.05364" lon="3.68209">
        <ele>578</ele>
        <time>2011-07-09T13:45:39Z</time>
      </trkpt>
      <trkpt lat="46.05427" lon="3.68229">
        <ele>577</ele>
        <time>2011-07-09T13:45:49Z</time>
      </trkpt>
      <trkpt lat="46.05473" lon="3.68254">
        <ele>576</ele>
        <time>2011-07-09T13:45:57Z</time>
      </trkpt>
      <trkpt lat="46.05508" lon="3.68268">
        <ele>576</ele>
        <time>2011-07-09T13:46:03Z</time>
      </trkpt>
      <trkpt lat="46.05545" lon="3.68274">
        <ele>576</ele>
        <time>2011-07-09T13:46:09Z</time>
      </trkpt>
      <trkpt lat="46.05552" lon="3.68273">
        <ele>577</ele>
        <time>2011-07-09T13:46:10Z</time>
      </trkpt>
      <trkpt lat="46.05569" lon="3.68265">
        <ele>577</ele>
        <time>2011-07-09T13:46:13Z</time>
      </trkpt>
      <trkpt lat="46.05619" lon="3.68233">
        <ele>575</ele>
        <time>2011-07-09T13:46:21Z</time>
      </trkpt>
      <trkpt lat="46.05649" lon="3.68224">
        <ele>574</ele>
        <time>2011-07-09T13:46:25Z</time>
      </trkpt>
      <trkpt lat="46.0568" lon="3.68219">
        <ele>572</ele>
        <time>2011-07-09T13:46:29Z</time>
      </trkpt>
      <trkpt lat="46.05687" lon="3.68216">
        <ele>573</ele>
        <time>2011-07-09T13:46:30Z</time>
      </trkpt>
      <trkpt lat="46.0574" lon="3.68186">
        <ele>571</ele>
        <time>2011-07-09T13:46:38Z</time>
      </trkpt>
      <trkpt lat="46.05759" lon="3.68183">
        <ele>570</ele>
        <time>2011-07-09T13:46:42Z</time>
      </trkpt>
      <trkpt lat="46.05764" lon="3.68185">
        <ele>570</ele>
        <time>2011-07-09T13:46:46Z</time>
      </trkpt>
      <trkpt lat="46.05765" lon="3.68184">
        <ele>570</ele>
        <time>2011-07-09T13:46:48Z</time>
      </trkpt>
      <trkpt lat="46.05766" lon="3.68184">
        <ele>570</ele>
        <time>2011-07-09T13:46:49Z</time>
      </trkpt>
      <trkpt lat="46.05768" lon="3.68184">
        <ele>570</ele>
        <time>2011-07-09T13:46:50Z</time>
      </trkpt>
      <trkpt lat="46.0577" lon="3.68184">
        <ele>570</ele>
        <time>2011-07-09T13:46:51Z</time>
      </trkpt>
      <trkpt lat="46.05772" lon="3.68183">
        <ele>570</ele>
        <time>2011-07-09T13:46:52Z</time>
      </trkpt>
      <trkpt lat="46.05774" lon="3.68181">
        <ele>570</ele>
        <time>2011-07-09T13:46:53Z</time>
      </trkpt>
      <trkpt lat="46.05777" lon="3.68178">
        <ele>570</ele>
        <time>2011-07-09T13:46:54Z</time>
      </trkpt>
      <trkpt lat="46.0578" lon="3.68176">
        <ele>570</ele>
        <time>2011-07-09T13:46:55Z</time>
      </trkpt>
      <trkpt lat="46.05783" lon="3.68174">
        <ele>570</ele>
        <time>2011-07-09T13:46:56Z</time>
      </trkpt>
      <trkpt lat="46.05809" lon="3.68157">
        <ele>571</ele>
        <time>2011-07-09T13:47:03Z</time>
      </trkpt>
      <trkpt lat="46.05848" lon="3.68127">
        <ele>572</ele>
        <time>2011-07-09T13:47:13Z</time>
      </trkpt>
      <trkpt lat="46.05876" lon="3.68112">
        <ele>572</ele>
        <time>2011-07-09T13:47:20Z</time>
      </trkpt>
      <trkpt lat="46.05905" lon="3.68102">
        <ele>574</ele>
        <time>2011-07-09T13:47:27Z</time>
      </trkpt>
      <trkpt lat="46.05937" lon="3.68085">
        <ele>575</ele>
        <time>2011-07-09T13:47:35Z</time>
      </trkpt>
      <trkpt lat="46.05956" lon="3.68074">
        <ele>576</ele>
        <time>2011-07-09T13:47:41Z</time>
      </trkpt>
      <trkpt lat="46.05969" lon="3.68055">
        <ele>577</ele>
        <time>2011-07-09T13:47:46Z</time>
      </trkpt>
      <trkpt lat="46.0598" lon="3.68043">
        <ele>577</ele>
        <time>2011-07-09T13:47:51Z</time>
      </trkpt>
      <trkpt lat="46.06001" lon="3.68036">
        <ele>579</ele>
        <time>2011-07-09T13:47:58Z</time>
      </trkpt>
      <trkpt lat="46.06022" lon="3.68024">
        <ele>582</ele>
        <time>2011-07-09T13:48:04Z</time>
      </trkpt>
      <trkpt lat="46.06031" lon="3.68018">
        <ele>582</ele>
        <time>2011-07-09T13:48:06Z</time>
      </trkpt>
      <trkpt lat="46.06035" lon="3.68014">
        <ele>582</ele>
        <time>2011-07-09T13:48:07Z</time>
      </trkpt>
      <trkpt lat="46.06047" lon="3.68002">
        <ele>583</ele>
        <time>2011-07-09T13:48:10Z</time>
      </trkpt>
      <trkpt lat="46.06051" lon="3.67997">
        <ele>583</ele>
        <time>2011-07-09T13:48:11Z</time>
      </trkpt>
      <trkpt lat="46.06057" lon="3.6798">
        <ele>586</ele>
        <time>2011-07-09T13:48:14Z</time>
      </trkpt>
      <trkpt lat="46.0606" lon="3.67976">
        <ele>586</ele>
        <time>2011-07-09T13:48:15Z</time>
      </trkpt>
      <trkpt lat="46.06064" lon="3.67974">
        <ele>587</ele>
        <time>2011-07-09T13:48:16Z</time>
      </trkpt>
      <trkpt lat="46.06068" lon="3.6797">
        <ele>588</ele>
        <time>2011-07-09T13:48:17Z</time>
      </trkpt>
      <trkpt lat="46.06076" lon="3.67961">
        <ele>588</ele>
        <time>2011-07-09T13:48:19Z</time>
      </trkpt>
      <trkpt lat="46.06083" lon="3.67949">
        <ele>589</ele>
        <time>2011-07-09T13:48:21Z</time>
      </trkpt>
      <trkpt lat="46.06093" lon="3.67931">
        <ele>591</ele>
        <time>2011-07-09T13:48:24Z</time>
      </trkpt>
      <trkpt lat="46.06097" lon="3.67926">
        <ele>591</ele>
        <time>2011-07-09T13:48:25Z</time>
      </trkpt>
      <trkpt lat="46.06118" lon="3.67905">
        <ele>591</ele>
        <time>2011-07-09T13:48:30Z</time>
      </trkpt>
      <trkpt lat="46.06122" lon="3.67901">
        <ele>591</ele>
        <time>2011-07-09T13:48:31Z</time>
      </trkpt>
      <trkpt lat="46.06127" lon="3.67897">
        <ele>591</ele>
        <time>2011-07-09T13:48:32Z</time>
      </trkpt>
      <trkpt lat="46.0614" lon="3.67886">
        <ele>591</ele>
        <time>2011-07-09T13:48:35Z</time>
      </trkpt>
      <trkpt lat="46.06162" lon="3.67866">
        <ele>591</ele>
        <time>2011-07-09T13:48:41Z</time>
      </trkpt>
      <trkpt lat="46.06174" lon="3.67854">
        <ele>590</ele>
        <time>2011-07-09T13:48:44Z</time>
      </trkpt>
      <trkpt lat="46.06183" lon="3.67843">
        <ele>589</ele>
        <time>2011-07-09T13:48:46Z</time>
      </trkpt>
      <trkpt lat="46.06215" lon="3.67805">
        <ele>588</ele>
        <time>2011-07-09T13:48:52Z</time>
      </trkpt>
      <trkpt lat="46.06221" lon="3.67798">
        <ele>587</ele>
        <time>2011-07-09T13:48:53Z</time>
      </trkpt>
      <trkpt lat="46.06226" lon="3.67791">
        <ele>587</ele>
        <time>2011-07-09T13:48:54Z</time>
      </trkpt>
      <trkpt lat="46.06231" lon="3.67785">
        <ele>587</ele>
        <time>2011-07-09T13:48:55Z</time>
      </trkpt>
      <trkpt lat="46.06236" lon="3.67778">
        <ele>586</ele>
        <time>2011-07-09T13:48:56Z</time>
      </trkpt>
      <trkpt lat="46.06242" lon="3.67771">
        <ele>586</ele>
        <time>2011-07-09T13:48:57Z</time>
      </trkpt>
      <trkpt lat="46.06275" lon="3.67719">
        <ele>584</ele>
        <time>2011-07-09T13:49:04Z</time>
      </trkpt>
      <trkpt lat="46.0628" lon="3.67714">
        <ele>584</ele>
        <time>2011-07-09T13:49:05Z</time>
      </trkpt>
      <trkpt lat="46.06284" lon="3.67709">
        <ele>583</ele>
        <time>2011-07-09T13:49:06Z</time>
      </trkpt>
      <trkpt lat="46.06287" lon="3.67704">
        <ele>583</ele>
        <time>2011-07-09T13:49:07Z</time>
      </trkpt>
      <trkpt lat="46.0629" lon="3.67699">
        <ele>583</ele>
        <time>2011-07-09T13:49:08Z</time>
      </trkpt>
      <trkpt lat="46.06294" lon="3.67693">
        <ele>583</ele>
        <time>2011-07-09T13:49:09Z</time>
      </trkpt>
      <trkpt lat="46.06298" lon="3.67688">
        <ele>583</ele>
        <time>2011-07-09T13:49:10Z</time>
      </trkpt>
      <trkpt lat="46.06318" lon="3.6766">
        <ele>583</ele>
        <time>2011-07-09T13:49:15Z</time>
      </trkpt>
      <trkpt lat="46.06321" lon="3.67654">
        <ele>583</ele>
        <time>2011-07-09T13:49:16Z</time>
      </trkpt>
      <trkpt lat="46.06327" lon="3.67644">
        <ele>583</ele>
        <time>2011-07-09T13:49:18Z</time>
      </trkpt>
      <trkpt lat="46.06349" lon="3.67613">
        <ele>585</ele>
        <time>2011-07-09T13:49:25Z</time>
      </trkpt>
      <trkpt lat="46.06365" lon="3.67584">
        <ele>586</ele>
        <time>2011-07-09T13:49:31Z</time>
      </trkpt>
      <trkpt lat="46.06374" lon="3.67566">
        <ele>588</ele>
        <time>2011-07-09T13:49:36Z</time>
      </trkpt>
      <trkpt lat="46.06381" lon="3.67551">
        <ele>589</ele>
        <time>2011-07-09T13:49:39Z</time>
      </trkpt>
      <trkpt lat="46.06397" lon="3.67532">
        <ele>592</ele>
        <time>2011-07-09T13:49:43Z</time>
      </trkpt>
      <trkpt lat="46.06406" lon="3.67523">
        <ele>593</ele>
        <time>2011-07-09T13:49:45Z</time>
      </trkpt>
      <trkpt lat="46.06428" lon="3.67491">
        <ele>595</ele>
        <time>2011-07-09T13:49:51Z</time>
      </trkpt>
      <trkpt lat="46.06431" lon="3.67486">
        <ele>595</ele>
        <time>2011-07-09T13:49:52Z</time>
      </trkpt>
      <trkpt lat="46.06441" lon="3.67467">
        <ele>596</ele>
        <time>2011-07-09T13:49:55Z</time>
      </trkpt>
      <trkpt lat="46.06459" lon="3.67422">
        <ele>597</ele>
        <time>2011-07-09T13:50:03Z</time>
      </trkpt>
      <trkpt lat="46.06467" lon="3.674">
        <ele>598</ele>
        <time>2011-07-09T13:50:09Z</time>
      </trkpt>
      <trkpt lat="46.06473" lon="3.67384">
        <ele>598</ele>
        <time>2011-07-09T13:50:15Z</time>
      </trkpt>
      <trkpt lat="46.0648" lon="3.67366">
        <ele>597</ele>
        <time>2011-07-09T13:50:22Z</time>
      </trkpt>
      <trkpt lat="46.06489" lon="3.67342">
        <ele>596</ele>
        <time>2011-07-09T13:50:29Z</time>
      </trkpt>
      <trkpt lat="46.06507" lon="3.67307">
        <ele>593</ele>
        <time>2011-07-09T13:50:37Z</time>
      </trkpt>
      <trkpt lat="46.06527" lon="3.67272">
        <ele>591</ele>
        <time>2011-07-09T13:50:43Z</time>
      </trkpt>
      <trkpt lat="46.06556" lon="3.67237">
        <ele>587</ele>
        <time>2011-07-09T13:50:48Z</time>
      </trkpt>
      <trkpt lat="46.06581" lon="3.67199">
        <ele>584</ele>
        <time>2011-07-09T13:50:52Z</time>
      </trkpt>
      <trkpt lat="46.06627" lon="3.67153">
        <ele>582</ele>
        <time>2011-07-09T13:50:59Z</time>
      </trkpt>
      <trkpt lat="46.06633" lon="3.67146">
        <ele>582</ele>
        <time>2011-07-09T13:51:00Z</time>
      </trkpt>
      <trkpt lat="46.06644" lon="3.6713">
        <ele>581</ele>
        <time>2011-07-09T13:51:02Z</time>
      </trkpt>
      <trkpt lat="46.06673" lon="3.67101">
        <ele>580</ele>
        <time>2011-07-09T13:51:07Z</time>
      </trkpt>
      <trkpt lat="46.06684" lon="3.67092">
        <ele>580</ele>
        <time>2011-07-09T13:51:11Z</time>
      </trkpt>
      <trkpt lat="46.06698" lon="3.67078">
        <ele>581</ele>
        <time>2011-07-09T13:51:18Z</time>
      </trkpt>
      <trkpt lat="46.06712" lon="3.67064">
        <ele>581</ele>
        <time>2011-07-09T13:51:23Z</time>
      </trkpt>
      <trkpt lat="46.06715" lon="3.67061">
        <ele>581</ele>
        <time>2011-07-09T13:51:24Z</time>
      </trkpt>
      <trkpt lat="46.06729" lon="3.67057">
        <ele>581</ele>
        <time>2011-07-09T13:51:27Z</time>
      </trkpt>
      <trkpt lat="46.06743" lon="3.6705">
        <ele>580</ele>
        <time>2011-07-09T13:51:31Z</time>
      </trkpt>
      <trkpt lat="46.06749" lon="3.67046">
        <ele>580</ele>
        <time>2011-07-09T13:51:38Z</time>
      </trkpt>
      <trkpt lat="46.06767" lon="3.67043">
        <ele>580</ele>
        <time>2011-07-09T13:51:45Z</time>
      </trkpt>
      <trkpt lat="46.06785" lon="3.67041">
        <ele>579</ele>
        <time>2011-07-09T13:51:50Z</time>
      </trkpt>
      <trkpt lat="46.06813" lon="3.67042">
        <ele>579</ele>
        <time>2011-07-09T13:51:57Z</time>
      </trkpt>
      <trkpt lat="46.06843" lon="3.67042">
        <ele>578</ele>
        <time>2011-07-09T13:52:03Z</time>
      </trkpt>
      <trkpt lat="46.06855" lon="3.67041">
        <ele>578</ele>
        <time>2011-07-09T13:52:05Z</time>
      </trkpt>
      <trkpt lat="46.06898" lon="3.67028">
        <ele>574</ele>
        <time>2011-07-09T13:52:11Z</time>
      </trkpt>
      <trkpt lat="46.06937" lon="3.67016">
        <ele>570</ele>
        <time>2011-07-09T13:52:15Z</time>
      </trkpt>
      <trkpt lat="46.06968" lon="3.67008">
        <ele>567</ele>
        <time>2011-07-09T13:52:18Z</time>
      </trkpt>
      <trkpt lat="46.06979" lon="3.67004">
        <ele>566</ele>
        <time>2011-07-09T13:52:19Z</time>
      </trkpt>
      <trkpt lat="46.07023" lon="3.66985">
        <ele>559</ele>
        <time>2011-07-09T13:52:23Z</time>
      </trkpt>
      <trkpt lat="46.07042" lon="3.66974">
        <ele>557</ele>
        <time>2011-07-09T13:52:25Z</time>
      </trkpt>
      <trkpt lat="46.0705" lon="3.66967">
        <ele>556</ele>
        <time>2011-07-09T13:52:26Z</time>
      </trkpt>
      <trkpt lat="46.07058" lon="3.66961">
        <ele>556</ele>
        <time>2011-07-09T13:52:27Z</time>
      </trkpt>
      <trkpt lat="46.07064" lon="3.66955">
        <ele>554</ele>
        <time>2011-07-09T13:52:28Z</time>
      </trkpt>
      <trkpt lat="46.07069" lon="3.6695">
        <ele>553</ele>
        <time>2011-07-09T13:52:29Z</time>
      </trkpt>
      <trkpt lat="46.07079" lon="3.66947">
        <ele>552</ele>
        <time>2011-07-09T13:52:31Z</time>
      </trkpt>
      <trkpt lat="46.0708" lon="3.66944">
        <ele>552</ele>
        <time>2011-07-09T13:52:32Z</time>
      </trkpt>
      <trkpt lat="46.07084" lon="3.66943">
        <ele>552</ele>
        <time>2011-07-09T13:52:33Z</time>
      </trkpt>
      <trkpt lat="46.07086" lon="3.66941">
        <ele>552</ele>
        <time>2011-07-09T13:52:35Z</time>
      </trkpt>
      <trkpt lat="46.07087" lon="3.6694">
        <ele>552</ele>
        <time>2011-07-09T13:52:36Z</time>
      </trkpt>
      <trkpt lat="46.07089" lon="3.66939">
        <ele>551</ele>
        <time>2011-07-09T13:52:37Z</time>
      </trkpt>
      <trkpt lat="46.07091" lon="3.66937">
        <ele>551</ele>
        <time>2011-07-09T13:52:38Z</time>
      </trkpt>
      <trkpt lat="46.07095" lon="3.66934">
        <ele>551</ele>
        <time>2011-07-09T13:52:39Z</time>
      </trkpt>
      <trkpt lat="46.071" lon="3.66931">
        <ele>550</ele>
        <time>2011-07-09T13:52:40Z</time>
      </trkpt>
      <trkpt lat="46.07105" lon="3.66928">
        <ele>550</ele>
        <time>2011-07-09T13:52:41Z</time>
      </trkpt>
      <trkpt lat="46.07109" lon="3.66922">
        <ele>548</ele>
        <time>2011-07-09T13:52:42Z</time>
      </trkpt>
      <trkpt lat="46.07112" lon="3.66915">
        <ele>548</ele>
        <time>2011-07-09T13:52:43Z</time>
      </trkpt>
      <trkpt lat="46.07121" lon="3.66903">
        <ele>546</ele>
        <time>2011-07-09T13:52:45Z</time>
      </trkpt>
      <trkpt lat="46.07126" lon="3.66898">
        <ele>545</ele>
        <time>2011-07-09T13:52:46Z</time>
      </trkpt>
      <trkpt lat="46.07139" lon="3.66883">
        <ele>541</ele>
        <time>2011-07-09T13:52:49Z</time>
      </trkpt>
      <trkpt lat="46.07143" lon="3.66878">
        <ele>541</ele>
        <time>2011-07-09T13:52:50Z</time>
      </trkpt>
      <trkpt lat="46.07147" lon="3.66873">
        <ele>539</ele>
        <time>2011-07-09T13:52:51Z</time>
      </trkpt>
      <trkpt lat="46.07152" lon="3.66867">
        <ele>538</ele>
        <time>2011-07-09T13:52:52Z</time>
      </trkpt>
      <trkpt lat="46.07158" lon="3.66861">
        <ele>537</ele>
        <time>2011-07-09T13:52:53Z</time>
      </trkpt>
      <trkpt lat="46.07172" lon="3.66832">
        <ele>535</ele>
        <time>2011-07-09T13:52:57Z</time>
      </trkpt>
      <trkpt lat="46.07179" lon="3.66824">
        <ele>535</ele>
        <time>2011-07-09T13:52:59Z</time>
      </trkpt>
      <trkpt lat="46.07192" lon="3.66813">
        <ele>536</ele>
        <time>2011-07-09T13:53:04Z</time>
      </trkpt>
      <trkpt lat="46.07194" lon="3.66811">
        <ele>537</ele>
        <time>2011-07-09T13:53:06Z</time>
      </trkpt>
      <trkpt lat="46.07195" lon="3.66809">
        <ele>538</ele>
        <time>2011-07-09T13:53:07Z</time>
      </trkpt>
      <trkpt lat="46.07195" lon="3.66807">
        <ele>538</ele>
        <time>2011-07-09T13:53:08Z</time>
      </trkpt>
      <trkpt lat="46.07196" lon="3.66805">
        <ele>538</ele>
        <time>2011-07-09T13:53:09Z</time>
      </trkpt>
      <trkpt lat="46.07194" lon="3.66802">
        <ele>538</ele>
        <time>2011-07-09T13:53:10Z</time>
      </trkpt>
      <trkpt lat="46.07193" lon="3.66799">
        <ele>538</ele>
        <time>2011-07-09T13:53:11Z</time>
      </trkpt>
      <trkpt lat="46.07192" lon="3.66796">
        <ele>537</ele>
        <time>2011-07-09T13:53:12Z</time>
      </trkpt>
      <trkpt lat="46.07181" lon="3.66772">
        <ele>537</ele>
        <time>2011-07-09T13:53:19Z</time>
      </trkpt>
      <trkpt lat="46.07167" lon="3.66759">
        <ele>537</ele>
        <time>2011-07-09T13:53:25Z</time>
      </trkpt>
      <trkpt lat="46.07164" lon="3.66759">
        <ele>536</ele>
        <time>2011-07-09T13:53:26Z</time>
      </trkpt>
      <trkpt lat="46.07159" lon="3.66759">
        <ele>536</ele>
        <time>2011-07-09T13:53:27Z</time>
      </trkpt>
      <trkpt lat="46.07137" lon="3.66754">
        <ele>536</ele>
        <time>2011-07-09T13:53:33Z</time>
      </trkpt>
      <trkpt lat="46.0712" lon="3.66735">
        <ele>536</ele>
        <time>2011-07-09T13:53:39Z</time>
      </trkpt>
      <trkpt lat="46.07099" lon="3.66703">
        <ele>535</ele>
        <time>2011-07-09T13:53:47Z</time>
      </trkpt>
      <trkpt lat="46.07079" lon="3.66687">
        <ele>535</ele>
        <time>2011-07-09T13:53:53Z</time>
      </trkpt>
      <trkpt lat="46.07067" lon="3.66679">
        <ele>535</ele>
        <time>2011-07-09T13:53:56Z</time>
      </trkpt>
      <trkpt lat="46.07062" lon="3.66677">
        <ele>535</ele>
        <time>2011-07-09T13:53:57Z</time>
      </trkpt>
      <trkpt lat="46.07029" lon="3.66656">
        <ele>536</ele>
        <time>2011-07-09T13:54:05Z</time>
      </trkpt>
      <trkpt lat="46.0701" lon="3.66629">
        <ele>535</ele>
        <time>2011-07-09T13:54:13Z</time>
      </trkpt>
      <trkpt lat="46.07009" lon="3.66607">
        <ele>535</ele>
        <time>2011-07-09T13:54:18Z</time>
      </trkpt>
      <trkpt lat="46.07009" lon="3.66597">
        <ele>535</ele>
        <time>2011-07-09T13:54:20Z</time>
      </trkpt>
      <trkpt lat="46.07008" lon="3.66593">
        <ele>535</ele>
        <time>2011-07-09T13:54:21Z</time>
      </trkpt>
      <trkpt lat="46.07007" lon="3.6659">
        <ele>535</ele>
        <time>2011-07-09T13:54:22Z</time>
      </trkpt>
      <trkpt lat="46.07006" lon="3.66587">
        <ele>535</ele>
        <time>2011-07-09T13:54:23Z</time>
      </trkpt>
      <trkpt lat="46.07005" lon="3.66583">
        <ele>535</ele>
        <time>2011-07-09T13:54:24Z</time>
      </trkpt>
      <trkpt lat="46.07003" lon="3.66581">
        <ele>535</ele>
        <time>2011-07-09T13:54:25Z</time>
      </trkpt>
      <trkpt lat="46.06994" lon="3.66564">
        <ele>536</ele>
        <time>2011-07-09T13:54:31Z</time>
      </trkpt>
      <trkpt lat="46.0699" lon="3.66559">
        <ele>536</ele>
        <time>2011-07-09T13:54:35Z</time>
      </trkpt>
      <trkpt lat="46.06989" lon="3.66558">
        <ele>536</ele>
        <time>2011-07-09T13:54:36Z</time>
      </trkpt>
      <trkpt lat="46.06987" lon="3.66558">
        <ele>536</ele>
        <time>2011-07-09T13:54:37Z</time>
      </trkpt>
      <trkpt lat="46.06986" lon="3.66558">
        <ele>536</ele>
        <time>2011-07-09T13:54:42Z</time>
      </trkpt>
      <trkpt lat="46.06985" lon="3.6656">
        <ele>536</ele>
        <time>2011-07-09T13:54:49Z</time>
      </trkpt>
      <trkpt lat="46.06986" lon="3.66559">
        <ele>536</ele>
        <time>2011-07-09T13:54:57Z</time>
      </trkpt>
      <trkpt lat="46.06986" lon="3.66559">
        <ele>536</ele>
        <time>2011-07-09T13:55:12Z</time>
      </trkpt>
      <trkpt lat="46.06986" lon="3.66559">
        <ele>537</ele>
        <time>2011-07-09T13:55:27Z</time>
      </trkpt>
      <trkpt lat="46.06986" lon="3.6656">
        <ele>536</ele>
        <time>2011-07-09T13:55:42Z</time>
      </trkpt>
    </trkseg>
  </trk>
</gpx>